# Wetter Temperatur Luftdruck Luftfeuchtigkeit Sichtweite Windgeschwindigkeit Windrichtung Zeit
1 Clear 6 1022 56 10000 4.1 250 09:23 14.07.2020
2 Clear 6 1021 56 10000 4.1 250 08:59 14.07.2020
3 Clear 6 1021 56 10000 4.1 250 08:41 14.07.2020
4 Clear 6 1021 56 10000 4.1 250 08:22 14.07.2020
5 Clear 6 1022 52 10000 5.7 240 07:55 14.07.2020
6 Clear 6 1022 52 10000 5.7 240 07:36 14.07.2020
7 Clear 6 1022 48 10000 5.7 240 07:18 14.07.2020
8 Clear 6 1022 48 10000 5.7 250 06:27 14.07.2020
9 Clear 6 1022 48 10000 5.7 250 05:55 14.07.2020
10 Clear 6 1021 52 10000 5.7 250 04:54 14.07.2020
11 Clear 7 1021 52 10000 5.7 250 04:34 14.07.2020
12 Clear 7 1021 42 10000 5.7 250 03:33 14.07.2020
13 Clear 7 1021 45 10000 5.7 240 02:30 14.07.2020
14 Clear 7 1020 42 10000 5.7 250 01:45 14.07.2020
15 Clear 7 1020 42 10000 5.7 250 01:24 14.07.2020
16 Clouds 7 1020 45 10000 7.7 250 00:46 14.07.2020
17 Clouds 7 1020 45 10000 7.7 250 00:27 14.07.2020
18 Clouds 8 1019 42 10000 7.2 240 23:39 13.07.2020
19 Clouds 8 1019 42 10000 7.2 240 23:20 13.07.2020
20 Clouds 9 1019 39 10000 9.3 250 22:58 13.07.2020
21 Clouds 9 1019 39 10000 9.3 250 22:39 13.07.2020
22 Clouds 9 1019 39 10000 9.3 250 22:19 13.07.2020
23 Clear 9 1019 45 10000 7.7 250 21:55 13.07.2020
24 Clear 9 1019 45 10000 7.7 250 21:37 13.07.2020
25 Clear 9 1019 45 10000 7.7 250 21:19 13.07.2020
26 Clear 10 1018 43 10000 8.2 260 20:55 13.07.2020
27 Clear 10 1018 43 10000 8.2 260 20:37 13.07.2020
28 Clouds 10 1018 43 10000 8.2 260 20:18 13.07.2020
29 Clouds 10 1018 46 10000 8.2 250 19:42 13.07.2020
30 Clouds 10 1018 46 10000 8.2 250 19:24 13.07.2020
31 Clouds 9 1019 49 10000 9.8 250 18:57 13.07.2020
32 Clouds 9 1019 49 10000 9.8 250 18:38 13.07.2020
33 Clouds 9 1019 49 10000 9.8 250 18:20 13.07.2020
34 Clouds 9 1019 49 10000 9.3 260 17:56 13.07.2020
35 Clouds 9 1019 49 10000 9.3 260 17:37 13.07.2020
36 Clouds 9 1019 49 10000 9.3 260 17:18 13.07.2020
37 Clouds 9 1019 52 10000 7.7 260 16:43 13.07.2020
38 Clouds 9 1019 52 10000 7.7 260 16:21 13.07.2020
39 Clouds 9 1019 52 10000 7.7 260 16:21 13.07.2020
40 Clouds 9 1018 52 10000 5.1 260 15:59 13.07.2020
41 Clouds 8 1018 52 10000 5.1 260 15:40 13.07.2020
42 Clouds 9 1018 52 10000 5.1 260 15:21 13.07.2020
43 Clouds 8 1017 52 10000 5.1 260 14:59 13.07.2020
44 Clouds 8 1017 52 10000 5.1 260 14:59 13.07.2020
45 Clouds 8 1017 52 10000 5.1 260 14:39 13.07.2020
46 Clouds 8 1017 52 10000 5.1 260 14:21 13.07.2020
47 Clouds 7 1017 56 10000 5.1 250 13:56 13.07.2020
48 Clouds 7 1017 56 10000 5.1 250 13:38 13.07.2020
49 Clouds 7 1017 56 10000 5.1 250 13:20 13.07.2020
50 Clouds 7 1016 52 10000 6.2 240 12:43 13.07.2020
51 Clouds 7 1016 52 10000 6.2 240 12:23 13.07.2020
52 Clouds 7 1015 52 10000 5.1 250 11:58 13.07.2020
53 Clouds 7 1015 52 10000 5.1 250 11:39 13.07.2020
54 Clouds 7 1015 52 10000 5.1 250 11:20 13.07.2020
55 Clouds 7 1015 52 10000 6.2 280 10:40 13.07.2020
56 Clouds 7 1015 52 10000 6.2 280 10:20 13.07.2020
57 Clouds 8 1015 52 10000 6.2 250 09:43 13.07.2020
58 Clouds 8 1015 52 10000 6.2 250 09:25 13.07.2020
59 Clouds 8 1015 49 10000 6.7 240 08:54 13.07.2020
60 Clouds 8 1015 49 10000 6.7 240 08:35 13.07.2020
61 Clouds 8 1015 52 10000 7.7 240 07:46 13.07.2020
62 Clouds 8 1015 52 10000 6.7 250 07:20 13.07.2020
63 Clouds 8 1015 52 10000 6.7 250 06:44 13.07.2020
64 Clouds 8 1015 52 10000 6.7 250 06:24 13.07.2020
65 Clouds 9 1014 49 10000 7.7 270 04:55 13.07.2020
66 Clouds 9 1013 57 10000 6.2 280 01:57 13.07.2020
67 Clouds 9 1013 57 10000 6.2 280 01:37 13.07.2020
68 Clouds 9 1013 57 10000 6.2 280 01:19 13.07.2020
69 Clouds 8 1013 70 10000 6.2 270 00:37 13.07.2020
70 Clouds 9 1013 66 10000 5.1 290 00:18 13.07.2020
71 Clouds 9 1013 66 10000 5.1 290 23:41 12.07.2020
72 Clouds 9 1013 66 10000 5.1 290 23:22 12.07.2020
73 Clouds 9 1012 61 10000 5.1 280 22:55 12.07.2020
74 Clouds 9 1012 61 10000 5.1 280 22:36 12.07.2020
75 Clouds 9 1012 61 10000 5.1 280 22:36 12.07.2020
76 Clouds 9 1012 61 10000 5.1 280 22:36 12.07.2020
77 Clouds 9 1012 61 10000 5.1 280 22:36 12.07.2020
78 Clouds 9 1012 61 10000 5.1 280 22:18 12.07.2020
79 Clouds 9 1012 61 10000 5.1 270 21:42 12.07.2020
80 Clouds 9 1012 61 10000 5.1 270 21:20 12.07.2020
81 Clouds 10 1011 53 10000 5.1 280 20:59 12.07.2020
82 Clouds 10 1011 53 10000 5.1 280 20:41 12.07.2020
83 Clouds 10 1011 53 10000 5.1 280 20:41 12.07.2020
84 Clouds 10 1011 53 10000 5.1 280 20:20 12.07.2020
85 Clouds 10 1011 53 10000 5.1 290 19:59 12.07.2020
86 Clouds 11 1011 53 10000 5.1 290 19:39 12.07.2020
87 Clouds 10 1012 53 10000 5.1 250 19:19 12.07.2020
88 Clouds 10 1012 53 10000 5.1 250 18:44 12.07.2020
89 Clouds 10 1012 53 10000 5.1 250 18:21 12.07.2020
90 Clouds 10 1012 53 10000 5.1 240 17:59 12.07.2020
91 Clouds 10 1012 53 10000 5.1 240 17:37 12.07.2020
92 Clouds 10 1012 53 10000 5.1 240 17:19 12.07.2020
93 Clouds 10 1013 61 10000 4.1 230 16:47 12.07.2020
94 Clouds 10 1013 61 10000 4.1 230 16:22 12.07.2020
95 Clouds 9 1012 75 10000 2.1 230 15:48 12.07.2020
96 Clouds 8 1012 75 10000 2.1 230 15:29 12.07.2020
97 Clouds 6 1011 86 10000 0.5 0 14:58 12.07.2020
98 Clouds 5 1011 86 10000 0.5 0 14:39 12.07.2020
99 Clouds 5 1011 86 10000 0.5 0 14:39 12.07.2020
100 Clouds 6 1011 86 10000 0.5 0 14:19 12.07.2020
101 Clouds 4 1011 93 10000 1 0 13:40 12.07.2020
102 Clouds 4 1011 93 10000 1 0 13:21 12.07.2020
103 Clouds 4 1010 93 10000 2.1 250 12:56 12.07.2020
104 Clouds 4 1010 93 10000 2.1 250 12:38 12.07.2020
105 Clouds 4 1010 93 10000 2.1 250 12:18 12.07.2020
106 Clouds 5 1010 80 10000 2.1 330 11:44 12.07.2020
107 Clouds 5 1010 80 10000 2.1 330 11:21 12.07.2020
108 Clouds 5 1010 80 10000 2.6 340 10:44 12.07.2020
109 Clouds 5 1010 80 10000 2.6 340 10:23 12.07.2020
110 Clouds 6 1011 75 10000 1.5 300 09:59 12.07.2020
111 Clouds 6 1011 75 10000 1.5 300 09:40 12.07.2020
112 Clouds 6 1011 75 10000 1.5 300 09:21 12.07.2020
113 Clouds 7 1011 70 10000 3.1 340 08:55 12.07.2020
114 Clouds 6 1011 70 10000 3.1 340 08:37 12.07.2020
115 Clouds 6 1011 70 10000 3.1 340 08:18 12.07.2020
116 Clouds 6 1011 65 10000 2.6 330 07:45 12.07.2020
117 Clouds 6 1011 65 10000 2.6 330 07:22 12.07.2020
118 Clouds 7 1011 61 10000 2.6 330 06:52 12.07.2020
119 Clouds 7 1011 61 10000 2.6 330 06:22 12.07.2020
120 Clouds 8 1011 66 10000 3.6 340 05:44 12.07.2020
121 Clouds 8 1011 61 10000 4.1 330 04:57 12.07.2020
122 Clouds 8 1011 61 10000 4.1 330 04:28 12.07.2020
123 Clouds 8 1010 61 10000 4.6 340 03:36 12.07.2020
124 Clouds 8 1009 61 10000 4.6 10 02:55 12.07.2020
125 Clouds 8 1010 65 10000 4.1 20 01:46 12.07.2020
126 Clouds 7 1010 56 10000 3.1 50 00:54 12.07.2020
127 Clouds 7 1010 56 10000 3.1 50 00:23 12.07.2020
128 Clouds 9 1011 57 10000 4.44 336 23:58 11.07.2020
129 Clouds 9 1011 57 10000 4.44 336 23:39 11.07.2020
130 Clouds 9 1011 57 10000 4.36 333 23:20 11.07.2020
131 Clouds 11 1012 61 10000 3.1 280 22:55 11.07.2020
132 Clouds 10 1012 61 10000 3.1 280 22:37 11.07.2020
133 Clouds 10 1012 61 10000 3.1 280 22:37 11.07.2020
134 Clear 11 1012 57 10000 3.1 280 22:18 11.07.2020
135 Clear 11 1012 57 10000 4.1 270 21:42 11.07.2020
136 Clear 11 1012 54 10000 4.1 270 21:23 11.07.2020
137 Clear 13 1011 35 10000 4.1 330 20:58 11.07.2020
138 Clear 13 1011 35 10000 4.1 330 20:39 11.07.2020
139 Clear 13 1011 35 10000 4.1 330 20:39 11.07.2020
140 Clear 13 1011 35 10000 4.1 330 20:21 11.07.2020
141 Clear 12 1012 34 10000 4.1 281 19:58 11.07.2020
142 Clear 12 1012 34 10000 4.1 281 19:40 11.07.2020
143 Clear 12 1012 34 10000 4.1 281 19:21 11.07.2020
144 Clear 12 1014 43 10000 3.6 271 18:56 11.07.2020
145 Clear 12 1014 43 10000 3.6 271 18:37 11.07.2020
146 Clear 12 1014 43 10000 3.6 271 18:19 11.07.2020
147 Clear 11 1015 57 10000 3.6 270 17:43 11.07.2020
148 Clear 11 1015 57 10000 3.6 270 17:22 11.07.2020
149 Clear 10 1015 61 10000 3.1 270 16:59 11.07.2020
150 Clear 10 1015 61 10000 3.1 270 16:39 11.07.2020
151 Clear 10 1015 61 10000 3.1 270 16:20 11.07.2020
152 Clear 9 1015 70 10000 2.1 310 15:57 11.07.2020
153 Clear 8 1015 70 10000 2.1 310 15:37 11.07.2020
154 Clear 8 1015 70 10000 2.1 310 15:18 11.07.2020
155 Clear 5 1015 80 10000 2.6 350 14:47 11.07.2020
156 Clouds 6 1015 80 10000 2.6 350 14:23 11.07.2020
157 Clouds 3 1015 74 10000 2.6 330 13:57 11.07.2020
158 Clouds 3 1015 74 10000 2.6 330 13:38 11.07.2020
159 Clouds 4 1015 74 10000 2.6 330 13:20 11.07.2020
160 Clouds 4 1015 80 10000 2.1 260 12:44 11.07.2020
161 Clouds 4 1015 80 10000 2.1 260 12:23 11.07.2020
162 Clouds 5 1014 75 10000 3.1 260 11:59 11.07.2020
163 Clouds 5 1014 75 10000 3.1 260 11:41 11.07.2020
164 Clouds 6 1014 75 10000 3.1 260 11:19 11.07.2020
165 Clouds 7 1014 70 10000 3.1 240 10:46 11.07.2020
166 Clouds 7 1014 70 10000 3.1 240 10:28 11.07.2020
167 Clouds 7 1014 65 10000 5.7 250 09:57 11.07.2020
168 Clouds 7 1014 65 10000 5.7 250 09:37 11.07.2020
169 Clouds 7 1014 65 10000 5.7 250 09:19 11.07.2020
170 Clouds 7 1013 65 10000 6.2 240 08:41 11.07.2020
171 Clouds 7 1013 65 10000 6.2 240 08:20 11.07.2020
172 Clouds 8 1013 76 10000 6.2 230 07:54 11.07.2020
173 Clouds 8 1013 76 10000 6.2 230 07:36 11.07.2020
174 Clouds 9 1013 81 10000 6.2 240 07:18 11.07.2020
175 Clouds 9 1013 81 10000 6.2 240 06:24 11.07.2020
176 Clouds 10 1012 81 10000 5.7 260 05:54 11.07.2020
177 Clouds 10 1012 81 10000 5.7 260 05:18 11.07.2020
178 Clouds 10 1011 81 10000 5.1 270 04:39 11.07.2020
179 Clouds 10 1011 81 10000 5.1 270 04:19 11.07.2020
180 Clouds 10 1011 81 10000 5.1 290 02:53 11.07.2020
181 Clouds 11 1009 76 10000 4.1 300 01:57 11.07.2020
182 Clouds 11 1009 76 10000 4.1 300 01:21 11.07.2020
183 Clouds 11 1009 76 10000 3.6 300 00:55 11.07.2020
184 Clouds 11 1009 76 10000 3.6 300 00:36 11.07.2020
185 Clouds 12 1009 76 10000 3.6 300 00:18 11.07.2020
186 Clouds 12 1008 76 10000 3.1 340 23:44 10.07.2020
187 Clouds 12 1008 76 10000 3.1 340 23:26 10.07.2020
188 Clouds 12 1008 66 10000 4.6 360 22:55 10.07.2020
189 Clouds 13 1008 66 10000 4.6 360 22:36 10.07.2020
190 Clouds 13 1008 66 10000 4.6 360 22:18 10.07.2020
191 Clouds 13 1008 66 10000 4.6 340 21:38 10.07.2020
192 Clouds 13 1008 66 10000 4.6 340 21:20 10.07.2020
193 Clouds 13 1008 66 10000 5.1 330 20:56 10.07.2020
194 Clouds 13 1008 66 10000 5.1 330 20:37 10.07.2020
195 Clouds 13 1008 66 10000 5.1 330 20:19 10.07.2020
196 Clouds 13 1009 71 10000 5.7 340 19:54 10.07.2020
197 Clouds 13 1009 71 10000 5.7 340 19:36 10.07.2020
198 Clouds 12 1010 66 10000 6.7 360 19:18 10.07.2020
199 Clouds 12 1010 66 10000 6.7 360 18:38 10.07.2020
200 Clouds 12 1010 66 10000 6.7 360 18:19 10.07.2020
201 Clouds 11 1011 71 10000 7.7 360 17:55 10.07.2020
202 Clouds 11 1011 71 10000 7.7 360 17:37 10.07.2020
203 Clouds 11 1011 71 10000 7.7 360 17:18 10.07.2020
204 Clouds 9 1012 76 10000 5.1 360 16:40 10.07.2020
205 Clouds 9 1012 76 10000 5.1 360 16:19 10.07.2020
206 Clouds 8 1012 81 10000 6.7 10 15:44 10.07.2020
207 Clouds 8 1012 81 10000 6.7 10 15:22 10.07.2020
208 Clouds 8 1013 81 10000 3.6 20 14:54 10.07.2020
209 Clouds 8 1013 81 10000 3.6 20 14:36 10.07.2020
210 Clouds 7 1013 81 10000 3.6 20 14:18 10.07.2020
211 Clouds 7 1013 81 10000 3.6 20 13:55 10.07.2020
212 Clouds 7 1013 81 10000 3.6 20 13:36 10.07.2020
213 Clouds 6 1013 81 10000 3.6 20 13:18 10.07.2020
214 Clouds 6 1013 81 10000 3.6 20 12:43 10.07.2020
215 Clouds 6 1013 81 10000 3.6 20 12:24 10.07.2020
216 Clouds 6 1013 81 10000 3.6 20 11:59 10.07.2020
217 Clouds 6 1013 81 10000 2.1 30 11:38 10.07.2020
218 Clouds 6 1013 81 10000 2.1 30 11:19 10.07.2020
219 Clouds 7 1013 87 10000 3.6 10 10:54 10.07.2020
220 Clouds 7 1014 81 10000 2.6 20 10:36 10.07.2020
221 Clouds 7 1014 81 10000 2.6 20 10:18 10.07.2020
222 Clouds 7 1014 81 10000 2.6 20 09:37 10.07.2020
223 Clouds 7 1014 81 10000 2.6 20 09:19 10.07.2020
224 Clouds 7 1014 81 10000 2.6 20 08:56 10.07.2020
225 Clouds 6 1014 81 10000 2.6 20 08:37 10.07.2020
226 Clouds 7 1014 81 10000 3.6 10 08:19 10.07.2020
227 Clouds 7 1014 81 10000 3.6 10 07:41 10.07.2020
228 Clouds 6 1014 81 10000 3.6 10 07:22 10.07.2020
229 Clouds 6 1015 75 10000 4.1 360 06:49 10.07.2020
230 Clouds 6 1015 75 10000 4.6 360 05:58 10.07.2020
231 Clouds 6 1016 75 10000 3.1 10 04:39 10.07.2020
232 Clear 6 1016 70 10000 3.6 10 03:38 10.07.2020
233 Clear 6 1016 67 10000 2.6 360 02:52 10.07.2020
234 Clear 6 1017 62 10000 2.6 330 01:50 10.07.2020
235 Clear 6 1017 75 10000 3.1 340 00:48 10.07.2020
236 Clouds 7 1017 75 10000 3.1 340 00:20 10.07.2020
237 Clouds 8 1017 65 10000 3.1 310 23:46 09.07.2020
238 Clouds 8 1017 65 10000 3.1 310 23:23 09.07.2020
239 Clouds 11 1017 57 10000 6.2 280 22:59 09.07.2020
240 Clouds 11 1017 57 10000 6.2 280 22:41 09.07.2020
241 Clear 11 1017 57 10000 6.2 280 22:21 09.07.2020
242 Clear 11 1017 57 10000 7.7 280 21:56 09.07.2020
243 Clear 11 1017 57 10000 7.7 280 21:38 09.07.2020
244 Clear 11 1017 57 10000 7.7 280 21:38 09.07.2020
245 Clear 12 1017 57 10000 7.7 280 21:19 09.07.2020
246 Clouds 12 1017 58 10000 7.7 280 20:45 09.07.2020
247 Clouds 12 1017 58 10000 7.7 280 20:26 09.07.2020
248 Clouds 12 1018 58 10000 7.7 280 19:59 09.07.2020
249 Clouds 12 1018 58 10000 7.7 280 19:41 09.07.2020
250 Clouds 12 1018 58 10000 7.7 280 19:21 09.07.2020
251 Clouds 12 1018 62 10000 7.7 280 18:43 09.07.2020
252 Clouds 12 1018 62 10000 7.7 280 18:24 09.07.2020
253 Clouds 11 1019 76 7000 6.2 300 17:56 09.07.2020
254 Clouds 11 1019 76 7000 6.2 300 17:38 09.07.2020
255 Clouds 11 1019 76 7000 6.2 300 17:19 09.07.2020
256 Clouds 10 1020 87 5000 5.1 340 16:56 09.07.2020
257 Clouds 10 1020 87 5000 5.1 340 16:37 09.07.2020
258 Clouds 10 1020 87 5000 5.1 340 16:19 09.07.2020
259 Clouds 9 1019 87 10000 4.1 320 15:55 09.07.2020
260 Clouds 9 1019 87 10000 4.1 320 15:36 09.07.2020
261 Clouds 8 1019 87 10000 4.1 320 15:18 09.07.2020
262 Clouds 6 1019 93 7000 2.6 330 14:57 09.07.2020
263 Clouds 6 1019 93 7000 2.6 330 14:39 09.07.2020
264 Clouds 6 1019 93 7000 2.6 330 14:19 09.07.2020
265 Clouds 5 1019 93 7000 3.6 320 13:55 09.07.2020
266 Clouds 5 1019 93 7000 3.6 320 13:36 09.07.2020
267 Clouds 5 1019 93 7000 3.6 320 13:18 09.07.2020
268 Clouds 6 1018 93 10000 3.6 320 12:40 09.07.2020
269 Clouds 7 1018 93 10000 3.6 320 12:21 09.07.2020
270 Clouds 7 1018 93 10000 2.6 310 11:56 09.07.2020
271 Clouds 7 1018 93 10000 2.6 310 11:37 09.07.2020
272 Clouds 7 1018 93 10000 2.6 310 11:18 09.07.2020
273 Clouds 7 1018 100 10000 2.6 310 10:55 09.07.2020
274 Clouds 7 1018 100 10000 2.6 310 10:37 09.07.2020
275 Clouds 7 1018 100 10000 2.6 310 10:18 09.07.2020
276 Clouds 8 1018 100 8000 2.1 300 09:41 09.07.2020
277 Clouds 7 1018 100 8000 2.1 300 09:21 09.07.2020
278 Clouds 6 1018 100 8000 2.1 340 08:45 09.07.2020
279 Clouds 6 1018 100 8000 2.1 340 08:25 09.07.2020
280 Mist 6 1018 100 5000 2.1 310 07:47 09.07.2020
281 Mist 6 1018 100 5000 2.1 310 07:25 09.07.2020
282 Mist 5 1018 100 4000 2.1 310 06:55 09.07.2020
283 Fog 6 1018 100 100 2.6 300 06:20 09.07.2020
284 Fog 6 1019 100 500 2.6 300 05:46 09.07.2020
285 Fog 7 1019 100 400 2.6 280 04:28 09.07.2020
286 Clouds 8 1018 93 8000 1.5 240 02:33 09.07.2020
287 Clouds 9 1019 87 10000 1.5 250 01:39 09.07.2020
288 Clouds 9 1018 93 10000 2.6 240 00:56 09.07.2020
289 Clouds 9 1018 93 10000 2.6 240 00:25 09.07.2020
290 Clouds 9 1018 87 10000 3.1 200 23:58 08.07.2020
291 Clouds 9 1018 87 10000 3.1 200 23:39 08.07.2020
292 Clouds 10 1018 87 10000 3.1 200 23:21 08.07.2020
293 Clouds 10 1017 81 10000 4.1 160 22:54 08.07.2020
294 Clouds 10 1017 81 10000 4.1 160 22:36 08.07.2020
295 Clouds 10 1017 81 10000 4.1 160 22:36 08.07.2020
296 Clouds 10 1017 81 10000 4.1 160 22:18 08.07.2020
297 Clouds 10 1017 93 10000 5.7 180 21:39 08.07.2020
298 Clouds 10 1017 93 10000 5.7 180 21:21 08.07.2020
299 Clouds 10 1017 93 10000 3.6 210 20:58 08.07.2020
300 Rain 10 1017 81 6000 2.1 140 20:39 08.07.2020
301 Rain 10 1017 81 6000 2.1 140 20:21 08.07.2020
302 Drizzle 11 1018 81 10000 2.6 190 19:43 08.07.2020
303 Drizzle 11 1018 81 10000 2.6 190 19:25 08.07.2020
304 Clouds 11 1018 76 10000 5.1 160 18:58 08.07.2020
305 Clouds 11 1018 76 10000 5.1 160 18:40 08.07.2020
306 Clouds 11 1018 76 10000 5.1 160 18:20 08.07.2020
307 Clouds 11 1018 81 10000 4.1 130 17:56 08.07.2020
308 Clouds 11 1018 81 10000 4.1 130 17:38 08.07.2020
309 Clouds 11 1018 81 10000 4.1 130 17:19 08.07.2020
310 Clouds 11 1019 81 10000 4.1 140 16:54 08.07.2020
311 Clouds 11 1019 81 10000 4.1 140 16:36 08.07.2020
312 Clouds 11 1019 81 10000 4.1 140 16:18 08.07.2020
313 Clouds 11 1019 76 10000 4.6 150 15:56 08.07.2020
314 Clouds 10 1019 76 10000 4.6 150 15:37 08.07.2020
315 Clouds 10 1019 76 10000 4.6 150 15:18 08.07.2020
316 Clouds 10 1019 87 10000 2.6 140 14:42 08.07.2020
317 Clouds 10 1019 87 10000 2.6 140 14:20 08.07.2020
318 Clouds 9 1019 81 10000 4.6 150 13:45 08.07.2020
319 Clouds 9 1019 81 10000 4.6 150 13:27 08.07.2020
320 Clouds 9 1019 81 10000 5.1 160 12:58 08.07.2020
321 Clouds 9 1019 81 10000 5.1 160 12:38 08.07.2020
322 Clouds 9 1019 81 10000 5.1 160 12:19 08.07.2020
323 Clouds 9 1020 71 10000 3.6 170 11:39 08.07.2020
324 Clouds 9 1020 71 10000 3.6 170 11:20 08.07.2020
325 Clouds 9 1020 71 10000 5.1 170 10:56 08.07.2020
326 Clouds 9 1020 71 10000 5.1 170 10:38 08.07.2020
327 Clouds 9 1020 71 10000 5.1 170 10:19 08.07.2020
328 Clouds 9 1021 71 10000 5.1 160 09:43 08.07.2020
329 Clouds 9 1021 71 10000 5.1 160 09:24 08.07.2020
330 Clouds 9 1021 71 10000 4.6 170 08:44 08.07.2020
331 Clouds 9 1021 71 10000 4.6 170 08:24 08.07.2020
332 Clouds 9 1021 71 10000 5.7 160 07:48 08.07.2020
333 Clouds 9 1021 71 10000 5.7 160 07:48 08.07.2020
334 Clouds 9 1021 71 10000 5.7 160 07:24 08.07.2020
335 Clouds 9 1021 76 10000 4.6 150 06:57 08.07.2020
336 Clouds 9 1021 76 10000 4.6 150 06:37 08.07.2020
337 Clouds 8 1021 76 10000 4.6 150 06:19 08.07.2020
338 Clouds 8 1022 70 10000 5.7 130 05:33 08.07.2020
339 Clouds 8 1022 70 10000 5.1 140 04:37 08.07.2020
340 Clouds 9 1022 70 10000 7.2 140 02:55 08.07.2020
341 Clouds 9 1022 70 10000 6.7 130 01:57 08.07.2020
342 Clouds 9 1022 70 10000 6.7 130 01:37 08.07.2020
343 Clouds 9 1022 66 10000 6.2 140 00:37 08.07.2020
344 Clouds 9 1022 66 10000 6.2 140 00:18 08.07.2020
345 Clouds 9 1022 66 10000 5.1 140 23:41 07.07.2020
346 Clouds 9 1022 66 10000 5.1 140 23:21 07.07.2020
347 Clouds 9 1021 70 10000 7.7 130 22:54 07.07.2020
348 Clouds 9 1021 70 10000 7.7 130 22:36 07.07.2020
349 Clouds 9 1021 70 10000 7.7 130 22:18 07.07.2020
350 Clouds 10 1022 61 10000 5.1 130 21:41 07.07.2020
351 Clouds 10 1022 61 10000 5.1 130 21:22 07.07.2020
352 Clouds 10 1022 61 10000 5.1 130 21:22 07.07.2020
353 Clouds 10 1022 61 10000 7.2 120 20:58 07.07.2020
354 Clouds 10 1022 61 10000 7.2 120 20:40 07.07.2020
355 Clouds 10 1022 61 10000 7.2 120 20:22 07.07.2020
356 Clouds 11 1022 61 10000 7.7 120 19:55 07.07.2020
357 Clouds 10 1022 61 10000 7.7 120 19:36 07.07.2020
358 Clouds 10 1024 66 10000 7.7 120 19:18 07.07.2020
359 Clouds 10 1024 66 10000 7.7 120 18:54 07.07.2020
360 Clouds 10 1024 66 10000 7.7 120 18:36 07.07.2020
361 Clouds 10 1024 66 10000 7.7 120 18:18 07.07.2020
362 Clouds 10 1024 66 10000 7.7 120 17:43 07.07.2020
363 Clouds 10 1024 66 10000 7.7 120 17:23 07.07.2020
364 Clouds 9 1025 66 10000 7.7 130 16:58 07.07.2020
365 Clouds 9 1025 66 10000 7.7 130 16:40 07.07.2020
366 Clouds 9 1025 66 10000 7.7 130 16:21 07.07.2020
367 Clouds 9 1025 66 10000 7.7 140 15:54 07.07.2020
368 Clouds 9 1025 70 10000 6.2 130 15:36 07.07.2020
369 Clouds 9 1025 70 10000 6.2 130 15:18 07.07.2020
370 Clouds 8 1024 70 10000 6.2 140 14:42 07.07.2020
371 Clouds 8 1024 70 10000 6.2 140 14:22 07.07.2020
372 Clouds 8 1024 75 10000 4.1 130 13:40 07.07.2020
373 Clouds 8 1024 75 10000 4.1 130 13:19 07.07.2020
374 Clouds 8 1024 75 10000 5.7 140 12:43 07.07.2020
375 Clouds 8 1024 75 10000 5.7 140 12:25 07.07.2020
376 Clouds 8 1024 70 10000 5.1 140 11:58 07.07.2020
377 Clouds 8 1024 70 10000 5.1 140 11:40 07.07.2020
378 Clouds 8 1024 70 10000 5.1 140 11:20 07.07.2020
379 Clouds 8 1024 66 10000 5.1 140 10:57 07.07.2020
380 Clouds 8 1024 66 10000 5.1 140 10:38 07.07.2020
381 Clouds 8 1024 66 10000 5.1 140 10:19 07.07.2020
382 Clouds 8 1024 70 10000 4.6 140 09:41 07.07.2020
383 Clouds 8 1024 70 10000 4.6 140 09:21 07.07.2020
384 Clouds 8 1025 76 10000 4.6 140 08:42 07.07.2020
385 Clouds 7 1025 76 10000 4.6 140 08:24 07.07.2020
386 Clouds 8 1025 81 10000 4.6 140 07:49 07.07.2020
387 Clouds 8 1025 81 10000 4.6 140 07:27 07.07.2020
388 Clouds 7 1025 81 10000 3.1 150 06:50 07.07.2020
389 Clouds 7 1025 81 10000 3.1 150 06:32 07.07.2020
390 Clouds 8 1025 76 10000 3.1 150 05:58 07.07.2020
391 Clouds 8 1025 76 10000 3.1 150 05:23 07.07.2020
392 Clouds 7 1025 75 10000 2.6 160 04:42 07.07.2020
393 Clouds 8 1025 75 10000 2.1 170 03:41 07.07.2020
394 Clouds 8 1025 75 10000 2.1 170 02:41 07.07.2020
395 Clouds 8 1024 70 10000 2.6 190 01:28 07.07.2020
396 Clouds 8 1024 87 10000 1.5 210 00:56 07.07.2020
397 Clouds 8 1024 87 10000 1.5 210 00:38 07.07.2020
398 Clouds 8 1024 87 10000 1.5 210 00:19 07.07.2020
399 Clouds 8 1024 81 10000 2.6 190 23:42 06.07.2020
400 Clouds 8 1024 81 10000 2.6 190 23:23 06.07.2020
401 Clouds 9 1023 76 10000 3.1 200 22:55 06.07.2020
402 Clouds 9 1023 76 10000 3.1 200 22:37 06.07.2020
403 Clouds 9 1023 76 10000 3.1 200 22:18 06.07.2020
404 Clouds 10 1023 71 10000 4.6 150 21:55 06.07.2020
405 Clouds 10 1023 71 10000 4.6 150 21:36 06.07.2020
406 Clouds 10 1023 71 10000 4.6 150 21:18 06.07.2020
407 Clouds 10 1022 76 10000 5.7 180 20:40 06.07.2020
408 Clouds 10 1022 76 10000 5.7 180 20:20 06.07.2020
409 Clouds 10 1022 76 10000 5.7 180 19:58 06.07.2020
410 Clouds 11 1023 71 10000 4.1 180 19:39 06.07.2020
411 Clouds 11 1023 71 10000 4.1 180 19:21 06.07.2020
412 Clouds 10 1024 76 10000 4.6 180 18:57 06.07.2020
413 Clouds 10 1024 76 10000 4.6 180 18:39 06.07.2020
414 Clouds 10 1024 76 10000 4.6 180 18:21 06.07.2020
415 Clouds 10 1024 81 10000 3.1 220 17:44 06.07.2020
416 Clouds 10 1024 81 10000 3.1 220 17:24 06.07.2020
417 Clouds 10 1024 71 10000 4.1 210 16:59 06.07.2020
418 Clouds 10 1024 71 10000 4.1 210 16:41 06.07.2020
419 Clouds 10 1024 71 10000 4.1 210 16:21 06.07.2020
420 Clouds 8 1024 93 10000 1 0 15:43 06.07.2020
421 Clouds 8 1024 93 10000 1 0 15:25 06.07.2020
422 Clouds 5 1024 100 10000 1.5 340 14:57 06.07.2020
423 Clouds 4 1024 100 10000 1.5 340 14:38 06.07.2020
424 Clouds 4 1024 100 10000 1.5 340 14:20 06.07.2020
425 Clouds 2 1023 100 10000 1.5 350 13:56 06.07.2020
426 Clouds 2 1023 100 10000 1.5 350 13:38 06.07.2020
427 Clouds 2 1023 100 10000 1.5 350 13:19 06.07.2020
428 Clouds 4 1022 100 10000 3.82 206 12:42 06.07.2020
429 Clouds 5 1022 100 10000 3.83 206 12:19 06.07.2020
430 Clouds 5 1022 100 10000 3.83 206 12:19 06.07.2020
431 Mist 5 1022 100 5000 2.1 310 11:58 06.07.2020
432 Mist 5 1022 100 5000 2.1 310 11:38 06.07.2020
433 Mist 4 1022 100 5000 2.1 310 11:20 06.07.2020
434 Mist 5 1021 100 5000 3.1 350 10:56 06.07.2020
435 Mist 5 1021 100 5000 3.1 350 10:37 06.07.2020
436 Mist 5 1021 100 5000 3.1 350 10:18 06.07.2020
437 Mist 6 1021 100 5000 2.6 350 09:41 06.07.2020
438 Mist 6 1021 100 5000 2.6 350 09:21 06.07.2020
439 Mist 6 1021 100 5000 1.5 320 08:55 06.07.2020
440 Mist 6 1021 100 5000 1.5 320 08:37 06.07.2020
441 Mist 6 1021 100 5000 1.5 320 08:19 06.07.2020
442 Mist 6 1021 100 5000 1.5 320 08:19 06.07.2020
443 Mist 5 1021 100 3000 2.1 340 07:43 06.07.2020
444 Mist 5 1021 100 3000 2.1 340 07:23 06.07.2020
445 Mist 6 1021 93 5000 2.1 300 06:40 06.07.2020
446 Mist 6 1021 93 5000 2.1 300 06:21 06.07.2020
447 Clouds 6 1021 87 7000 2.1 320 05:38 06.07.2020
448 Clouds 6 1021 93 7000 1.5 340 04:55 06.07.2020
449 Clouds 6 1020 93 7000 1.5 350 03:42 06.07.2020
450 Clouds 7 1019 87 10000 1.5 290 02:23 06.07.2020
451 Clouds 8 1019 81 10000 2.1 220 01:34 06.07.2020
452 Clouds 8 1018 87 10000 1.5 220 00:38 06.07.2020
453 Clouds 8 1018 87 10000 1.5 220 00:19 06.07.2020
454 Clouds 9 1018 87 10000 1 220 23:42 05.07.2020
455 Clouds 9 1018 87 10000 1 220 23:23 05.07.2020
456 Clouds 10 1017 76 10000 3.6 200 22:59 05.07.2020
457 Clouds 10 1017 76 10000 3.6 200 22:40 05.07.2020
458 Clouds 10 1017 76 10000 3.6 200 22:20 05.07.2020
459 Clouds 10 1016 76 10000 5.7 220 21:57 05.07.2020
460 Clouds 10 1016 76 10000 5.7 220 21:39 05.07.2020
461 Clouds 10 1016 76 10000 5.7 220 21:18 05.07.2020
462 Clouds 11 1015 76 10000 4.6 220 20:57 05.07.2020
463 Clouds 11 1015 76 10000 4.6 220 20:39 05.07.2020
464 Clouds 11 1015 76 10000 4.6 220 20:20 05.07.2020
465 Clouds 11 1015 71 10000 6.2 190 19:43 05.07.2020
466 Clouds 11 1015 71 10000 6.2 190 19:21 05.07.2020
467 Clouds 12 1015 76 10000 6.2 190 18:58 05.07.2020
468 Clouds 12 1015 76 10000 6.2 190 18:58 05.07.2020
469 Clouds 12 1015 76 10000 6.2 190 18:39 05.07.2020
470 Clouds 12 1015 76 10000 6.2 190 18:20 05.07.2020
471 Clouds 12 1015 71 10000 4.6 180 17:54 05.07.2020
472 Clouds 12 1015 71 10000 4.6 180 17:36 05.07.2020
473 Clouds 12 1015 71 10000 4.6 180 17:18 05.07.2020
474 Clouds 12 1015 71 10000 3.1 160 16:41 05.07.2020
475 Clouds 12 1015 71 10000 3.1 160 16:23 05.07.2020
476 Clouds 12 1014 76 10000 4.6 140 15:41 05.07.2020
477 Clouds 12 1014 76 10000 4.6 140 15:41 05.07.2020
478 Clouds 11 1014 76 10000 4.6 140 15:20 05.07.2020
479 Clouds 10 1011 81 10000 3.1 130 14:59 05.07.2020
480 Clouds 10 1011 81 10000 3.1 130 14:40 05.07.2020
481 Clouds 10 1011 81 10000 3.1 130 14:20 05.07.2020
482 Clouds 10 1014 87 10000 7.7 170 13:41 05.07.2020
483 Clouds 10 1014 87 10000 7.7 170 13:23 05.07.2020
484 Clouds 10 1013 87 10000 8.7 180 12:46 05.07.2020
485 Clouds 10 1013 87 10000 8.7 180 12:26 05.07.2020
486 Clouds 10 1012 93 10000 5.7 180 11:58 05.07.2020
487 Clouds 10 1012 93 10000 5.7 180 11:39 05.07.2020
488 Clouds 10 1012 93 10000 5.7 180 11:21 05.07.2020
489 Clouds 10 1011 93 10000 2.1 180 10:58 05.07.2020
490 Clouds 10 1011 93 10000 2.1 180 10:39 05.07.2020
491 Clouds 10 1011 93 10000 2.1 180 10:19 05.07.2020
492 Rain 10 1012 93 10000 2.6 210 09:56 05.07.2020
493 Rain 10 1012 93 10000 2.6 210 09:37 05.07.2020
494 Clouds 10 1012 93 10000 2.6 210 09:19 05.07.2020
495 Clouds 10 1011 87 10000 2.1 190 08:45 05.07.2020
496 Clouds 10 1011 87 10000 2.1 190 08:45 05.07.2020
497 Clouds 10 1011 87 10000 2.1 190 08:27 05.07.2020
498 Clouds 10 1011 81 10000 2.1 170 07:48 05.07.2020
499 Clouds 10 1011 81 10000 2.1 170 07:29 05.07.2020
500 Clouds 10 1011 81 10000 1 0 06:51 05.07.2020
501 Clouds 10 1011 76 10000 1.5 80 05:41 05.07.2020
502 Clouds 11 1011 76 8000 1.5 50 03:31 05.07.2020
503 Clouds 10 1011 81 7000 1 0 02:43 05.07.2020
504 Clouds 10 1011 81 7000 1 0 02:25 05.07.2020
505 Clouds 10 1011 76 8000 1.15 347 01:33 05.07.2020
506 Clouds 11 1011 81 8000 1 100 00:59 05.07.2020
507 Clouds 11 1011 81 8000 1 100 00:40 05.07.2020
508 Clouds 11 1011 81 8000 1 100 00:20 05.07.2020
509 Clouds 11 1010 81 10000 1.5 50 23:47 04.07.2020
510 Clouds 11 1010 81 10000 1.5 50 23:28 04.07.2020
511 Clouds 12 1010 71 10000 3.1 360 22:57 04.07.2020
512 Clouds 12 1010 71 10000 3.1 360 22:37 04.07.2020
513 Clouds 12 1010 71 10000 3.1 360 22:19 04.07.2020
514 Clouds 13 1010 62 10000 2.1 330 21:42 04.07.2020
515 Clouds 14 1010 62 10000 2.1 330 21:23 04.07.2020
516 Clouds 14 1010 62 10000 5.1 330 20:58 04.07.2020
517 Clouds 14 1010 62 10000 5.1 330 20:39 04.07.2020
518 Clouds 14 1010 62 10000 5.1 330 20:19 04.07.2020
519 Clouds 14 1011 62 10000 5.1 310 19:45 04.07.2020
520 Clouds 14 1011 58 10000 4.6 320 19:22 04.07.2020
521 Clouds 13 1012 66 10000 5.1 330 18:55 04.07.2020
522 Clouds 12 1012 66 10000 5.1 330 18:37 04.07.2020
523 Clouds 11 1012 71 10000 5.1 330 18:19 04.07.2020
524 Clouds 12 1012 71 10000 5.1 330 17:42 04.07.2020
525 Clouds 11 1012 71 10000 5.1 330 17:24 04.07.2020
526 Clouds 10 1013 71 10000 6.2 330 16:57 04.07.2020
527 Clouds 10 1013 71 10000 6.2 330 16:38 04.07.2020
528 Clouds 10 1013 71 10000 6.2 330 16:19 04.07.2020
529 Clouds 9 1013 70 10000 5.7 340 15:46 04.07.2020
530 Clear 8 1013 70 10000 5.7 340 15:28 04.07.2020
531 Clear 8 1012 81 10000 6.2 360 14:59 04.07.2020
532 Clear 8 1012 81 10000 6.2 360 14:38 04.07.2020
533 Clouds 7 1012 81 10000 6.2 360 14:19 04.07.2020
534 Clouds 7 1012 81 10000 5.1 360 13:58 04.07.2020
535 Clouds 7 1012 81 10000 5.1 360 13:40 04.07.2020
536 Clouds 7 1012 81 10000 5.1 360 13:18 04.07.2020
537 Clouds 7 1012 81 10000 4.1 360 12:42 04.07.2020
538 Clouds 7 1012 81 10000 4.1 360 12:21 04.07.2020
539 Clouds 8 1011 75 10000 4.6 350 11:56 04.07.2020
540 Clouds 8 1011 75 10000 4.6 350 11:37 04.07.2020
541 Clouds 8 1011 75 10000 4.6 350 11:19 04.07.2020
542 Clouds 9 1012 76 10000 5.1 350 10:41 04.07.2020
543 Clouds 9 1012 76 10000 5.1 350 10:22 04.07.2020
544 Clouds 10 1012 71 10000 6.7 350 09:59 04.07.2020
545 Clouds 10 1012 71 10000 6.7 350 09:37 04.07.2020
546 Clouds 10 1012 71 10000 6.7 350 09:19 04.07.2020
547 Clouds 10 1011 71 10000 6.7 350 08:47 04.07.2020
548 Clouds 11 1011 71 10000 6.7 350 08:28 04.07.2020
549 Clouds 11 1012 71 10000 7.2 350 07:49 04.07.2020
550 Clouds 11 1012 71 10000 7.2 350 07:31 04.07.2020
551 Clouds 10 1012 71 10000 6.7 10 06:55 04.07.2020
552 Clouds 10 1012 71 10000 6.7 10 06:23 04.07.2020
553 Clouds 10 1013 71 10000 6.2 10 05:36 04.07.2020
554 Clouds 10 1014 71 10000 5.1 10 04:50 04.07.2020
555 Clouds 10 1014 76 10000 5.1 10 03:18 04.07.2020
556 Clouds 10 1013 76 10000 4.6 360 02:26 04.07.2020
557 Clouds 10 1013 76 10000 4.1 360 01:32 04.07.2020
558 Clouds 11 1013 76 10000 5.1 10 00:44 04.07.2020
559 Clouds 11 1013 76 10000 5.1 10 00:25 04.07.2020
560 Clouds 11 1013 71 10000 6.7 10 23:41 03.07.2020
561 Clouds 11 1013 71 10000 6.7 10 23:19 03.07.2020
562 Clouds 12 1013 71 10000 5.1 10 22:58 03.07.2020
563 Clouds 12 1013 71 10000 5.1 10 22:39 03.07.2020
564 Clouds 12 1013 71 10000 5.1 10 22:21 03.07.2020
565 Clouds 13 1014 66 10000 5.1 360 21:43 03.07.2020
566 Clouds 13 1014 66 10000 5.1 360 21:20 03.07.2020
567 Clouds 12 1014 71 10000 4.1 360 20:58 03.07.2020
568 Clouds 12 1014 71 10000 4.1 360 20:39 03.07.2020
569 Clouds 12 1014 71 10000 4.1 360 20:21 03.07.2020
570 Clouds 12 1015 72 0 1.34 339 19:42 03.07.2020
571 Clouds 12 1016 66 10000 4.1 320 19:21 03.07.2020
572 Clouds 12 1016 66 10000 4.1 320 18:57 03.07.2020
573 Clouds 12 1016 66 10000 4.1 320 18:39 03.07.2020
574 Clouds 12 1017 66 10000 4.6 340 18:20 03.07.2020
575 Clouds 12 1017 66 10000 4.6 340 17:44 03.07.2020
576 Clouds 11 1017 66 10000 4.6 340 17:22 03.07.2020
577 Clouds 11 1018 71 10000 6.2 320 16:47 03.07.2020
578 Clouds 9 1018 71 10000 6.2 320 16:29 03.07.2020
579 Clouds 8 1017 81 10000 5.1 330 15:57 03.07.2020
580 Clouds 8 1017 81 10000 5.1 330 15:38 03.07.2020
581 Clouds 8 1017 81 10000 5.1 330 15:20 03.07.2020
582 Clear 5 1017 93 10000 3.6 340 14:41 03.07.2020
583 Clouds 5 1017 93 10000 3.6 340 14:22 03.07.2020
584 Clouds 4 1017 93 10000 3.1 350 13:59 03.07.2020
585 Clouds 4 1017 93 10000 3.1 350 13:40 03.07.2020
586 Clouds 4 1017 93 10000 3.1 350 13:21 03.07.2020
587 Clouds 4 1017 93 10000 3.1 340 12:40 03.07.2020
588 Clouds 4 1017 93 10000 3.1 340 12:21 03.07.2020
589 Clouds 4 1017 86 10000 3.6 330 11:44 03.07.2020
590 Clouds 4 1017 86 10000 3.6 330 11:25 03.07.2020
591 Clouds 4 1017 86 10000 3.6 330 10:59 03.07.2020
592 Clouds 4 1017 86 10000 3.6 330 10:41 03.07.2020
593 Clear 5 1017 86 10000 3.6 330 10:21 03.07.2020
594 Clear 5 1017 87 10000 4.1 320 09:58 03.07.2020
595 Clear 5 1017 87 10000 4.1 320 09:38 03.07.2020
596 Clear 6 1017 87 10000 4.1 320 09:19 03.07.2020
597 Clear 6 1017 87 10000 3.6 330 08:56 03.07.2020
598 Clear 6 1017 87 10000 3.6 330 08:37 03.07.2020
599 Clouds 6 1017 87 10000 3.6 330 08:18 03.07.2020
600 Clouds 6 1018 93 10000 3.1 350 07:43 03.07.2020
601 Clouds 6 1018 93 10000 3.1 350 07:21 03.07.2020
602 Clouds 7 1018 87 10000 3.6 340 06:30 03.07.2020
603 Clouds 7 1019 87 10000 3.6 330 05:42 03.07.2020
604 Clouds 7 1019 87 10000 3.1 350 03:59 03.07.2020
605 Clouds 7 1019 81 10000 2.6 320 02:55 03.07.2020
606 Clouds 7 1019 81 10000 2.6 320 02:31 03.07.2020
607 Clouds 8 1019 81 10000 2.6 320 01:41 03.07.2020
608 Clouds 8 1019 81 10000 2.6 320 01:20 03.07.2020
609 Clouds 8 1019 81 10000 2.6 300 00:41 03.07.2020
610 Clouds 9 1019 76 10000 3.1 270 23:56 02.07.2020
611 Clouds 9 1019 76 10000 3.1 270 23:37 02.07.2020
612 Clouds 9 1019 76 10000 3.1 270 23:18 02.07.2020
613 Clouds 9 1019 76 10000 5.1 270 22:54 02.07.2020
614 Clouds 9 1019 76 10000 5.1 270 22:36 02.07.2020
615 Clouds 9 1019 76 10000 5.1 270 22:18 02.07.2020
616 Clouds 9 1019 76 10000 5.1 270 21:42 02.07.2020
617 Clouds 9 1019 76 10000 5.1 270 21:20 02.07.2020
618 Clouds 9 1018 66 10000 3.6 270 20:59 02.07.2020
619 Clouds 10 1018 66 10000 3.6 270 20:41 02.07.2020
620 Clouds 9 1018 66 10000 3.6 270 20:20 02.07.2020
621 Clouds 10 1019 66 10000 6.2 260 19:45 02.07.2020
622 Clouds 10 1019 66 10000 6.2 260 19:26 02.07.2020
623 Clouds 10 1020 66 10000 5.7 250 18:59 02.07.2020
624 Clouds 10 1020 66 10000 5.7 250 18:41 02.07.2020
625 Clouds 10 1020 66 10000 5.7 250 18:41 02.07.2020
626 Clouds 10 1020 66 10000 5.7 250 18:22 02.07.2020
627 Clouds 10 1021 66 10000 7.2 260 17:58 02.07.2020
628 Clouds 10 1021 66 10000 7.2 260 17:39 02.07.2020
629 Clouds 10 1021 66 10000 7.2 260 17:19 02.07.2020
630 Clouds 10 1021 70 10000 4.1 260 16:44 02.07.2020
631 Clouds 10 1021 70 10000 4.1 260 16:22 02.07.2020
632 Clouds 9 1020 70 10000 3.6 270 15:59 02.07.2020
633 Clouds 9 1020 70 10000 3.6 270 15:39 02.07.2020
634 Clouds 9 1020 70 10000 3.6 270 15:21 02.07.2020
635 Clouds 9 1020 75 10000 3.1 270 14:46 02.07.2020
636 Clouds 9 1020 75 10000 3.1 270 14:28 02.07.2020
637 Clouds 8 1020 70 10000 3.1 270 13:58 02.07.2020
638 Clouds 8 1020 70 10000 3.1 270 13:40 02.07.2020
639 Clouds 8 1020 70 10000 3.1 270 13:20 02.07.2020
640 Clouds 8 1020 75 10000 4.1 240 12:58 02.07.2020
641 Clouds 8 1020 75 10000 4.1 240 12:39 02.07.2020
642 Clouds 8 1020 75 10000 4.1 240 12:21 02.07.2020
643 Clouds 8 1019 70 10000 7.2 260 11:44 02.07.2020
644 Clouds 8 1019 70 10000 7.2 260 11:25 02.07.2020
645 Clouds 8 1018 66 10000 5.1 260 10:48 02.07.2020
646 Clouds 8 1018 66 10000 5.1 260 10:28 02.07.2020
647 Clouds 9 1018 66 10000 4.6 250 09:59 02.07.2020
648 Clouds 9 1018 66 10000 4.6 250 09:40 02.07.2020
649 Clouds 9 1018 66 10000 4.6 250 09:20 02.07.2020
650 Clouds 9 1018 61 10000 2.6 230 08:55 02.07.2020
651 Clouds 9 1018 61 10000 2.6 230 08:37 02.07.2020
652 Clouds 9 1018 61 10000 2.6 230 08:18 02.07.2020
653 Clouds 9 1019 61 10000 3.1 240 07:40 02.07.2020
654 Clouds 9 1019 61 10000 3.1 240 07:19 02.07.2020
655 Clouds 9 1019 61 10000 3.6 210 06:40 02.07.2020
656 Clouds 9 1019 61 10000 3.6 210 06:20 02.07.2020
657 Clouds 8 1019 57 10000 5.7 230 05:44 02.07.2020
658 Clouds 9 1018 57 10000 5.1 230 03:57 02.07.2020
659 Clouds 9 1018 57 10000 5.1 230 03:31 02.07.2020
660 Clouds 8 1018 65 10000 5.1 220 00:54 02.07.2020
661 Clouds 8 1018 65 10000 5.1 220 00:25 02.07.2020
662 Clouds 8 1018 70 10000 5.7 210 23:48 01.07.2020
663 Clouds 8 1018 70 10000 5.7 210 23:30 01.07.2020
664 Clouds 8 1017 65 10000 4.6 220 22:57 01.07.2020
665 Clouds 8 1017 65 10000 4.6 220 22:38 01.07.2020
666 Clouds 8 1017 65 10000 4.6 220 22:19 01.07.2020
667 Clouds 9 1017 61 10000 6.2 220 21:58 01.07.2020
668 Clouds 9 1017 61 10000 6.2 220 21:40 01.07.2020
669 Clouds 9 1017 61 10000 6.2 220 21:22 01.07.2020
670 Clouds 9 1016 61 10000 6.7 220 20:57 01.07.2020
671 Clouds 9 1016 61 10000 6.7 220 20:39 01.07.2020
672 Clouds 9 1016 61 10000 6.7 220 20:20 01.07.2020
673 Clouds 10 1016 66 10000 7.2 220 19:54 01.07.2020
674 Clouds 10 1016 66 10000 7.2 220 19:36 01.07.2020
675 Clouds 10 1016 66 10000 7.2 220 19:18 01.07.2020
676 Clouds 10 1015 70 10000 8.2 210 18:42 01.07.2020
677 Clouds 10 1015 70 10000 8.2 210 18:21 01.07.2020
678 Clouds 10 1015 70 10000 8.2 210 18:21 01.07.2020
679 Clouds 10 1015 71 10000 7.7 210 17:57 01.07.2020
680 Clouds 10 1015 71 10000 7.7 210 17:38 01.07.2020
681 Clouds 10 1015 71 10000 7.7 210 17:19 01.07.2020
682 Clouds 10 1015 76 10000 7.2 200 16:46 01.07.2020
683 Clouds 10 1015 76 10000 7.2 200 16:27 01.07.2020
684 Clouds 10 1015 81 10000 7.7 210 15:55 01.07.2020
685 Clouds 10 1015 81 10000 7.7 210 15:37 01.07.2020
686 Clouds 10 1015 81 10000 7.7 210 15:19 01.07.2020
687 Clouds 9 1015 76 10000 7.7 220 14:44 01.07.2020
688 Clouds 9 1015 76 10000 7.7 220 14:21 01.07.2020
689 Clouds 9 1014 70 10000 8.2 210 13:57 01.07.2020
690 Clouds 9 1014 70 10000 8.2 210 13:38 01.07.2020
691 Clouds 9 1014 70 10000 8.2 210 13:20 01.07.2020
692 Clouds 9 1013 70 10000 7.7 200 12:57 01.07.2020
693 Clouds 9 1013 70 10000 7.7 200 12:38 01.07.2020
694 Clouds 9 1013 70 10000 7.7 200 12:20 01.07.2020
695 Clouds 9 1011 71 10000 9.8 200 11:40 01.07.2020
696 Clouds 10 1011 71 10000 9.8 200 11:22 01.07.2020
697 Clouds 10 1011 71 10000 10.8 200 10:58 01.07.2020
698 Clouds 10 1011 71 10000 10.8 200 10:39 01.07.2020
699 Clouds 10 1011 71 10000 10.8 200 10:21 01.07.2020
700 Clouds 10 1010 76 10000 6.2 210 09:40 01.07.2020
701 Clouds 10 1010 76 10000 6.2 210 09:21 01.07.2020
702 Clouds 11 1009 81 10000 7.2 200 08:59 01.07.2020
703 Clouds 11 1009 81 10000 7.2 200 08:40 01.07.2020
704 Clouds 11 1009 81 10000 7.2 200 08:21 01.07.2020
705 Clouds 11 1008 87 10000 7.7 190 07:54 01.07.2020
706 Clouds 11 1008 87 10000 7.7 190 07:36 01.07.2020
707 Clouds 11 1008 87 10000 7.7 190 07:18 01.07.2020
708 Clouds 11 1007 87 10000 6.2 190 06:48 01.07.2020
709 Clouds 11 1007 87 10000 6.2 190 06:25 01.07.2020
710 Rain 11 1007 87 8000 13.4 180 04:30 01.07.2020
711 Rain 11 1006 87 6000 13.4 180 03:45 01.07.2020
712 Rain 11 1006 87 6000 13.4 180 03:26 01.07.2020
713 Rain 10 1005 93 5000 14.9 170 02:36 01.07.2020
714 Rain 10 1005 93 4500 15.4 170 01:45 01.07.2020
715 Mist 11 1004 93 1000 12.9 170 00:41 01.07.2020
716 Drizzle 11 1004 93 1000 12.9 170 00:23 01.07.2020
717 Drizzle 11 1003 93 1000 12.3 160 23:41 30.06.2020
718 Mist 11 1003 93 1000 12.3 160 23:22 30.06.2020
719 Drizzle 11 1002 100 1000 10.3 130 22:43 30.06.2020
720 Drizzle 11 1002 100 1000 10.3 130 22:20 30.06.2020
721 Drizzle 11 1002 93 1000 10.3 130 21:59 30.06.2020
722 Drizzle 11 1002 93 1000 10.3 130 21:40 30.06.2020
723 Drizzle 11 1002 93 1000 10.3 130 21:19 30.06.2020
724 Drizzle 11 1001 87 2500 12.9 140 20:43 30.06.2020
725 Drizzle 11 1002 93 1000 9.3 130 20:21 30.06.2020
726 Drizzle 11 1002 93 1000 9.3 130 19:55 30.06.2020
727 Drizzle 12 1002 93 2000 10.3 130 19:36 30.06.2020
728 Mist 12 1003 100 2000 9.3 120 19:18 30.06.2020
729 Rain 12 1003 100 2000 9.3 120 18:42 30.06.2020
730 Rain 12 1003 100 2000 9.3 120 18:20 30.06.2020
731 Rain 12 1005 100 1500 10.8 130 17:54 30.06.2020
732 Rain 12 1005 100 1500 10.8 130 17:36 30.06.2020
733 Mist 12 1005 100 1500 10.8 130 17:18 30.06.2020
734 Rain 12 1005 100 1000 6.2 120 16:41 30.06.2020
735 Rain 12 1005 100 1000 6.2 120 16:21 30.06.2020
736 Mist 12 1006 100 1000 7.7 120 15:57 30.06.2020
737 Drizzle 12 1006 100 1000 7.7 120 15:38 30.06.2020
738 Drizzle 12 1006 100 1000 7.7 120 15:20 30.06.2020
739 Drizzle 13 1007 93 1000 6.2 120 14:44 30.06.2020
740 Drizzle 13 1007 93 1000 6.2 120 14:22 30.06.2020
741 Rain 12 1007 100 2000 6.2 120 13:59 30.06.2020
742 Rain 12 1007 100 2000 6.2 120 13:38 30.06.2020
743 Rain 12 1007 100 2000 6.2 120 13:19 30.06.2020
744 Rain 12 1006 100 3000 6.7 120 12:57 30.06.2020
745 Rain 12 1006 100 3000 6.7 120 12:39 30.06.2020
746 Rain 12 1006 100 3000 6.7 120 12:20 30.06.2020
747 Rain 12 1008 100 8000 7.2 130 11:57 30.06.2020
748 Rain 12 1008 100 8000 7.2 130 11:38 30.06.2020
749 Rain 12 1008 100 8000 7.2 130 11:18 30.06.2020
750 Rain 12 1009 100 10000 6.2 110 10:55 30.06.2020
751 Clouds 11 1025 76 10000 2.6 320 16:38 28.06.2020
752 Clouds 10 1025 76 10000 2.6 320 16:19 28.06.2020
753 Clouds 9 1025 75 10000 2.6 340 15:55 28.06.2020
754 Clouds 8 1025 75 10000 2.6 340 15:37 28.06.2020
755 Clouds 8 1025 75 10000 2.6 340 15:18 28.06.2020
756 Clouds 6 1025 86 10000 2.1 350 14:42 28.06.2020
757 Clouds 5 1025 86 10000 2.1 350 14:24 28.06.2020
758 Clouds 2 1024 93 10000 1.5 350 13:55 28.06.2020
759 Clouds 2 1024 93 10000 1.5 350 13:36 28.06.2020
760 Clear 3 1024 93 10000 1.5 350 13:18 28.06.2020
761 Clear 4 1023 80 10000 1.5 310 12:55 28.06.2020
762 Clear 4 1023 80 10000 1.5 310 12:55 28.06.2020
763 Clear 4 1023 80 10000 1.5 310 12:36 28.06.2020
764 Clear 4 1023 80 10000 1.5 310 12:18 28.06.2020
765 Clear 5 1023 79 10000 2.1 340 11:42 28.06.2020
766 Clear 5 1023 79 10000 2.1 340 11:21 28.06.2020
767 Clear 4 1022 80 10000 2.1 10 10:59 28.06.2020
768 Clear 4 1022 80 10000 2.1 10 10:40 28.06.2020
769 Clear 4 1022 80 10000 2.1 10 10:21 28.06.2020
770 Clear 4 1023 80 10000 2.1 360 09:42 28.06.2020
771 Clear 5 1023 80 10000 2.1 360 09:23 28.06.2020
772 Clear 5 1023 75 10000 2.6 350 08:57 28.06.2020
773 Clear 5 1023 75 10000 2.6 350 08:38 28.06.2020
774 Clouds 5 1023 75 10000 2.6 350 08:20 28.06.2020
775 Clouds 5 1023 81 10000 3.1 360 07:37 28.06.2020
776 Clouds 5 1023 81 10000 3.1 360 06:57 28.06.2020
777 Clouds 5 1023 81 10000 3.1 360 06:32 28.06.2020
778 Clouds 6 1023 81 8000 2.6 30 05:50 28.06.2020
779 Clouds 7 1023 75 8000 3.1 20 04:27 28.06.2020
780 Clouds 9 1023 70 10000 2.1 30 02:58 28.06.2020
781 Clouds 9 1023 70 10000 2.1 30 02:22 28.06.2020
782 Clouds 9 1023 70 10000 2.1 40 01:45 28.06.2020
783 Clouds 9 1023 76 10000 2.1 350 00:57 28.06.2020
784 Clouds 9 1023 76 10000 2.1 350 00:30 28.06.2020
785 Clouds 11 1023 66 10000 0.5 0 23:58 27.06.2020
786 Clouds 11 1023 66 10000 0.5 0 23:40 27.06.2020
787 Clouds 11 1023 66 10000 0.5 0 23:21 27.06.2020
788 Clouds 12 1022 58 10000 1 0 22:43 27.06.2020
789 Clear 12 1022 58 10000 1 0 22:23 27.06.2020
790 Clear 12 1022 54 10000 0.5 0 21:59 27.06.2020
791 Clear 12 1022 54 10000 0.5 0 21:41 27.06.2020
792 Clear 12 1022 54 10000 0.5 0 21:20 27.06.2020
793 Clear 12 1023 58 10000 0.5 0 20:56 27.06.2020
794 Clear 12 1023 58 10000 0.5 0 20:37 27.06.2020
795 Clouds 12 1023 58 10000 0.5 0 20:18 27.06.2020
796 Clouds 11 1023 62 10000 1 0 19:38 27.06.2020
797 Clouds 12 1023 62 10000 1 0 19:19 27.06.2020
798 Clouds 11 1024 66 10000 1 0 18:59 27.06.2020
799 Clouds 11 1024 66 10000 1 0 18:40 27.06.2020
800 Clouds 10 1025 81 10000 1.5 270 18:20 27.06.2020
801 Clouds 10 1025 81 10000 1.5 270 17:41 27.06.2020
802 Clouds 10 1025 81 10000 1.5 270 17:21 27.06.2020
803 Clouds 9 1025 87 8000 2.1 330 16:59 27.06.2020
804 Clouds 9 1025 87 8000 2.1 330 16:39 27.06.2020
805 Clouds 9 1025 87 8000 2.1 330 16:39 27.06.2020
806 Clouds 8 1025 87 8000 2.1 330 16:20 27.06.2020
807 Mist 7 1024 87 6000 1.99 183 15:45 27.06.2020
808 Mist 7 1024 87 6000 2.27 172 15:24 27.06.2020
809 Clouds 5 1024 93 10000 2.6 10 14:59 27.06.2020
810 Clouds 5 1024 93 10000 2.6 10 14:39 27.06.2020
811 Clouds 5 1024 93 10000 2.6 10 14:20 27.06.2020
812 Clouds 5 1023 93 10000 2.3 169 13:54 27.06.2020
813 Clouds 5 1023 93 10000 2.3 169 13:36 27.06.2020
814 Clouds 5 1023 93 10000 2.6 179 13:18 27.06.2020
815 Clouds 5 1023 93 10000 2.6 179 12:41 27.06.2020
816 Clouds 5 1023 93 10000 2.34 194 12:22 27.06.2020
817 Clouds 6 1022 81 10000 2.34 194 11:59 27.06.2020
818 Clouds 6 1022 81 10000 2.34 194 11:40 27.06.2020
819 Clouds 6 1022 81 10000 2.08 201 11:21 27.06.2020
820 Clouds 5 1023 86 10000 2.08 201 10:42 27.06.2020
821 Clouds 5 1023 86 10000 2.8 208 10:19 27.06.2020
822 Clouds 5 1023 93 7000 1.5 350 09:59 27.06.2020
823 Clouds 5 1023 93 7000 1.5 350 09:39 27.06.2020
824 Clouds 4 1023 93 7000 1.5 350 09:20 27.06.2020
825 Clouds 5 1023 86 7000 3.45 217 08:44 27.06.2020
826 Clouds 5 1023 86 7000 3.3 220 08:23 27.06.2020
827 Clouds 5 1023 86 7000 3.3 220 07:48 27.06.2020
828 Clouds 5 1023 86 7000 3.25 220 07:26 27.06.2020
829 Clouds 4 1023 86 7000 3.25 220 06:53 27.06.2020
830 Clouds 4 1023 86 7000 3.25 220 06:33 27.06.2020
831 Clouds 7 1023 81 7000 1.5 330 04:55 27.06.2020
832 Clouds 7 1023 81 7000 1.5 330 04:18 27.06.2020
833 Clouds 6 1022 81 10000 1.5 330 03:51 27.06.2020
834 Clouds 7 1022 75 10000 2.1 350 02:43 27.06.2020
835 Clouds 7 1022 75 10000 2.1 350 02:24 27.06.2020
836 Clouds 8 1022 75 10000 2.1 350 01:37 27.06.2020
837 Clouds 8 1021 75 10000 1.5 280 00:49 27.06.2020
838 Clouds 9 1021 76 10000 2.1 260 23:56 26.06.2020
839 Clouds 9 1021 76 10000 2.1 260 23:37 26.06.2020
840 Clouds 9 1021 76 10000 2.1 260 23:19 26.06.2020
841 Clouds 10 1021 66 10000 2.6 260 22:42 26.06.2020
842 Clouds 10 1021 66 10000 2.6 260 22:24 26.06.2020
843 Clouds 11 1021 62 10000 4.1 270 21:58 26.06.2020
844 Clouds 11 1021 62 10000 4.1 270 21:40 26.06.2020
845 Clouds 11 1021 62 10000 4.1 270 21:40 26.06.2020
846 Clouds 11 1021 62 10000 4.1 270 21:21 26.06.2020
847 Clouds 12 1021 62 10000 6.2 280 20:58 26.06.2020
848 Clouds 12 1021 62 10000 6.2 280 20:39 26.06.2020
849 Clear 12 1021 62 10000 6.2 280 20:18 26.06.2020
850 Clear 12 1022 57 10000 7.2 270 19:40 26.06.2020
851 Clear 12 1022 57 10000 7.2 270 19:20 26.06.2020
852 Clouds 12 1022 50 10000 7.2 280 18:43 26.06.2020
853 Clouds 12 1022 50 10000 7.2 280 18:25 26.06.2020
854 Clouds 12 1022 50 10000 6.7 280 17:55 26.06.2020
855 Clouds 12 1022 50 10000 6.7 280 17:37 26.06.2020
856 Clouds 12 1022 50 10000 6.7 280 17:19 26.06.2020
857 Clouds 11 1022 66 10000 6.2 300 16:42 26.06.2020
858 Clouds 11 1022 66 10000 6.2 300 16:23 26.06.2020
859 Clouds 8 1022 81 10000 3.1 300 15:41 26.06.2020
860 Clouds 7 1022 81 10000 3.1 300 15:22 26.06.2020
861 Clouds 7 1022 81 10000 3.1 300 15:22 26.06.2020
862 Clear 5 1022 93 10000 2.1 350 14:59 26.06.2020
863 Clear 5 1022 93 10000 2.1 350 14:59 26.06.2020
864 Clear 4 1022 93 10000 2.1 350 14:40 26.06.2020
865 Clear 4 1022 93 10000 2.1 350 14:22 26.06.2020
866 Clear 2 1021 93 10000 2.6 360 13:57 26.06.2020
867 Clear 2 1021 93 10000 2.6 360 13:38 26.06.2020
868 Clear 2 1021 93 10000 2.6 360 13:18 26.06.2020
869 Clear 4 1020 80 10000 3.1 350 12:41 26.06.2020
870 Clear 5 1020 80 10000 3.1 350 12:23 26.06.2020
871 Clear 6 1019 80 10000 3.1 310 11:58 26.06.2020
872 Clear 6 1019 80 10000 3.1 310 11:39 26.06.2020
873 Clear 6 1019 80 10000 3.1 310 11:21 26.06.2020
874 Clouds 7 1019 65 10000 4.1 260 10:57 26.06.2020
875 Clouds 7 1019 65 10000 4.1 260 10:38 26.06.2020
876 Clouds 7 1019 65 10000 4.1 260 10:18 26.06.2020
877 Clouds 8 1019 65 10000 3.6 270 09:44 26.06.2020
878 Clouds 8 1019 65 10000 3.6 270 09:24 26.06.2020
879 Clouds 7 1019 75 10000 5.1 280 08:56 26.06.2020
880 Clouds 7 1019 75 10000 5.1 280 08:28 26.06.2020
881 Clouds 8 1019 65 10000 3.6 260 07:53 26.06.2020
882 Clouds 8 1019 65 10000 3.6 260 07:24 26.06.2020
883 Clouds 8 1018 65 10000 4.1 240 06:58 26.06.2020
884 Clouds 8 1018 65 10000 4.1 240 06:36 26.06.2020
885 Clouds 9 1018 66 10000 5.1 250 06:18 26.06.2020
886 Clouds 9 1018 66 10000 5.1 250 05:40 26.06.2020
887 Clouds 9 1018 66 10000 6.2 260 03:52 26.06.2020
888 Clouds 9 1018 66 10000 5.1 270 02:22 26.06.2020
889 Clouds 10 1018 61 10000 7.7 250 01:19 26.06.2020
890 Clouds 10 1017 61 10000 6.7 250 00:40 26.06.2020
891 Clouds 10 1017 61 10000 6.7 250 00:19 26.06.2020
892 Clouds 10 1017 61 10000 5.7 260 23:41 25.06.2020
893 Clouds 10 1017 61 10000 5.7 260 23:18 25.06.2020
894 Clouds 11 1016 62 10000 7.7 260 22:56 25.06.2020
895 Clouds 11 1016 62 10000 7.7 260 22:36 25.06.2020
896 Clouds 11 1016 62 10000 7.7 260 22:36 25.06.2020
897 Clouds 11 1016 62 10000 7.7 260 22:18 25.06.2020
898 Clouds 11 1016 66 10000 7.7 260 21:54 25.06.2020
899 Clouds 11 1016 66 10000 7.7 260 21:36 25.06.2020
900 Clouds 11 1016 66 10000 7.7 260 21:18 25.06.2020
901 Clouds 12 1015 66 10000 7.7 240 20:44 25.06.2020
902 Clouds 11 1015 66 10000 7.7 240 20:23 25.06.2020
903 Clouds 11 1015 76 10000 7.2 240 19:58 25.06.2020
904 Clouds 11 1015 76 10000 7.2 240 19:39 25.06.2020
905 Clouds 11 1015 76 10000 7.2 240 19:19 25.06.2020
906 Clouds 12 1015 76 10000 7.7 240 18:55 25.06.2020
907 Clouds 12 1015 76 10000 7.7 240 18:36 25.06.2020
908 Clouds 12 1015 76 10000 7.7 240 18:18 25.06.2020
909 Clouds 12 1015 76 10000 7.7 240 17:39 25.06.2020
910 Clouds 12 1015 76 10000 7.7 240 17:19 25.06.2020
911 Clouds 12 1014 71 10000 7.7 240 16:42 25.06.2020
912 Clouds 12 1014 71 10000 7.7 240 16:22 25.06.2020
913 Clouds 12 1013 76 10000 7.7 220 15:59 25.06.2020
914 Clouds 12 1013 76 10000 7.7 220 15:40 25.06.2020
915 Clouds 12 1013 76 10000 7.7 220 15:19 25.06.2020
916 Clouds 12 1013 81 10000 6.2 210 14:43 25.06.2020
917 Clouds 11 1013 81 10000 6.2 210 14:23 25.06.2020
918 Clouds 11 1012 81 10000 6.2 200 13:56 25.06.2020
919 Clouds 11 1011 87 10000 7.7 200 13:37 25.06.2020
920 Clouds 11 1011 87 10000 7.7 200 13:19 25.06.2020
921 Clouds 11 1011 87 10000 5.7 190 12:44 25.06.2020
922 Clouds 11 1011 87 10000 5.7 190 12:20 25.06.2020
923 Clouds 11 1009 71 10000 7.7 200 11:58 25.06.2020
924 Clouds 11 1009 71 10000 7.7 200 11:38 25.06.2020
925 Clouds 11 1009 71 10000 7.7 200 11:20 25.06.2020
926 Clouds 11 1009 71 10000 7.7 200 11:20 25.06.2020
927 Clouds 11 1008 62 10000 10.3 190 10:42 25.06.2020
928 Rain 12 1008 62 10000 8.2 190 10:23 25.06.2020
929 Rain 12 1008 62 10000 8.2 190 10:23 25.06.2020
930 Clouds 12 1009 66 10000 7.7 200 09:41 25.06.2020
931 Clouds 12 1009 66 10000 7.7 200 09:23 25.06.2020
932 Clouds 12 1007 71 10000 9.3 190 08:49 25.06.2020
933 Clouds 12 1007 71 10000 9.3 190 08:21 25.06.2020
934 Clouds 12 1007 87 10000 8.2 200 07:57 25.06.2020
935 Clouds 12 1007 87 10000 8.2 200 07:38 25.06.2020
936 Clouds 12 1008 81 10000 9.8 200 07:20 25.06.2020
937 Clouds 12 1008 81 10000 9.8 200 06:30 25.06.2020
938 Drizzle 12 1008 100 5000 8.7 200 05:55 25.06.2020
939 Drizzle 11 1008 100 10000 7.7 190 05:25 25.06.2020
940 Drizzle 12 1005 100 2000 8.7 180 03:36 25.06.2020
941 Drizzle 13 1005 100 3000 8.2 180 02:44 25.06.2020
942 Drizzle 13 1005 100 3000 8.2 180 02:19 25.06.2020
943 Drizzle 13 1004 100 2000 5.7 160 01:35 25.06.2020
944 Fog 13 1004 100 500 6.7 160 00:50 25.06.2020
945 Fog 13 1004 100 500 6.7 160 00:22 25.06.2020
946 Mist 14 1004 100 2000 6.2 150 23:58 24.06.2020
947 Fog 14 1004 93 500 4.1 150 23:37 24.06.2020
948 Fog 14 1004 93 500 4.1 150 23:19 24.06.2020
949 Fog 14 1003 93 800 5.1 130 22:41 24.06.2020
950 Fog 14 1003 93 800 5.1 130 22:21 24.06.2020
951 Fog 14 1003 93 800 5.1 130 21:57 24.06.2020
952 Fog 14 1003 93 800 5.1 130 21:37 24.06.2020
953 Fog 14 1003 93 800 5.1 130 21:19 24.06.2020
954 Fog 14 1002 93 800 6.2 150 20:58 24.06.2020
955 Fog 14 1002 93 800 6.2 150 20:39 24.06.2020
956 Fog 14 1002 93 800 6.2 150 20:21 24.06.2020
957 Fog 14 1003 100 500 6.2 150 19:58 24.06.2020
958 Fog 14 1003 100 500 6.2 150 19:38 24.06.2020
959 Fog 14 1003 100 500 6.2 150 19:20 24.06.2020
960 Fog 13 1004 100 500 6.2 150 18:58 24.06.2020
961 Fog 13 1004 100 500 6.2 150 18:39 24.06.2020
962 Fog 13 1004 100 500 6.2 150 18:20 24.06.2020
963 Fog 13 1004 100 700 7.2 130 17:55 24.06.2020
964 Fog 13 1004 100 700 7.2 130 17:37 24.06.2020
965 Fog 13 1004 100 700 7.2 130 17:18 24.06.2020
966 Drizzle 13 1004 100 700 7.2 140 16:55 24.06.2020
967 Drizzle 13 1004 100 700 7.2 140 16:37 24.06.2020
968 Drizzle 13 1004 100 700 7.2 140 16:37 24.06.2020
969 Drizzle 13 1004 100 700 7.2 140 16:19 24.06.2020
970 Drizzle 13 1004 100 700 7.2 140 16:19 24.06.2020
971 Fog 13 1005 100 700 7.7 130 15:55 24.06.2020
972 Fog 13 1005 100 700 7.7 130 15:37 24.06.2020
973 Drizzle 13 1005 100 700 7.7 130 15:18 24.06.2020
974 Drizzle 13 1004 93 2500 6.2 120 14:40 24.06.2020
975 Drizzle 13 1004 93 2500 6.2 120 14:22 24.06.2020
976 Thunderstorm 13 1003 100 5000 6.7 130 13:42 24.06.2020
977 Thunderstorm 13 1003 100 5000 6.7 130 13:22 24.06.2020
978 Thunderstorm 12 1004 100 7000 5.1 120 12:54 24.06.2020
979 Thunderstorm 12 1004 100 7000 5.1 120 12:36 24.06.2020
980 Thunderstorm 12 1004 100 7000 5.1 120 12:18 24.06.2020
981 Thunderstorm 13 1004 93 5000 6.2 150 11:42 24.06.2020
982 Thunderstorm 13 1004 93 5000 6.2 150 11:24 24.06.2020
983 Thunderstorm 13 1005 93 2000 4.6 150 10:55 24.06.2020
984 Thunderstorm 13 1005 93 2000 4.6 150 10:36 24.06.2020
985 Thunderstorm 13 1005 93 2000 4.6 150 10:18 24.06.2020
986 Thunderstorm 13 1005 82 10000 6.2 140 09:42 24.06.2020
987 Thunderstorm 13 1005 82 10000 6.2 140 09:21 24.06.2020
988 Thunderstorm 13 1006 82 10000 6.2 140 08:41 24.06.2020
989 Thunderstorm 13 1006 82 10000 6.2 140 08:20 24.06.2020
990 Clouds 13 1007 76 10000 4.6 140 07:50 24.06.2020
991 Clouds 13 1007 76 10000 4.6 140 07:29 24.06.2020
992 Clouds 13 1007 82 10000 5.7 150 06:49 24.06.2020
993 Clouds 13 1007 82 10000 5.7 150 06:25 24.06.2020
994 Clouds 13 1007 82 10000 6.2 150 05:54 24.06.2020
995 Clouds 13 1007 87 10000 6.2 160 04:42 24.06.2020
996 Clouds 13 1007 87 10000 6.2 160 04:18 24.06.2020
997 Clouds 13 1007 87 10000 5.1 160 03:34 24.06.2020
998 Clouds 13 1007 93 10000 6.2 180 02:43 24.06.2020
999 Clouds 13 1007 93 10000 4.6 170 01:29 24.06.2020
1000 Mist 13 1006 100 4000 5.7 160 00:47 24.06.2020
1001 Mist 13 1006 100 4000 5.7 160 00:27 24.06.2020
1002 Fog 13 1005 100 100 5.7 180 23:44 23.06.2020
1003 Fog 13 1005 100 100 5.7 180 23:19 23.06.2020
1004 Fog 13 1005 100 200 2.6 210 22:42 23.06.2020
1005 Fog 13 1005 100 200 2.6 210 22:19 23.06.2020
1006 Fog 13 1005 100 1000 3.1 240 21:59 23.06.2020
1007 Rain 13 1004 100 6000 3.1 240 21:39 23.06.2020
1008 Rain 13 1004 100 6000 3.1 240 21:19 23.06.2020
1009 Rain 13 1004 100 3000 3.1 260 20:55 23.06.2020
1010 Clouds 14 1004 93 6000 3.1 250 20:37 23.06.2020
1011 Clouds 14 1004 93 6000 3.1 250 20:18 23.06.2020
1012 Clouds 14 1004 93 6000 3.1 250 20:18 23.06.2020
1013 Fog 14 1004 100 800 3.1 250 19:44 23.06.2020
1014 Fog 14 1004 100 800 3.1 250 19:25 23.06.2020
1015 Drizzle 15 1005 100 600 5.7 270 18:42 23.06.2020
1016 Drizzle 15 1005 100 5000 4.6 270 18:19 23.06.2020
1017 Drizzle 17 1005 100 5000 4.6 270 17:56 23.06.2020
1018 Clouds 17 1005 100 6000 2.6 320 17:38 23.06.2020
1019 Clouds 17 1005 100 6000 2.6 320 17:19 23.06.2020
1020 Clouds 17 1005 100 6000 3.1 340 16:55 23.06.2020
1021 Mist 17 1005 100 3000 4.1 350 16:36 23.06.2020
1022 Mist 17 1005 100 3000 4.1 350 16:18 23.06.2020
1023 Fog 16 1005 100 500 2.6 360 15:43 23.06.2020
1024 Clouds 16 1004 100 10000 2.6 340 15:24 23.06.2020
1025 Rain 16 1005 100 200 2.1 300 14:56 23.06.2020
1026 Fog 16 1005 100 200 2.1 300 14:37 23.06.2020
1027 Rain 16 1005 100 300 2.6 300 14:18 23.06.2020
1028 Rain 16 1004 100 2000 1.5 330 13:45 23.06.2020
1029 Rain 16 1004 100 2000 2.6 340 13:26 23.06.2020
1030 -273 0 0 0 0 0 12:59 23.06.2020
1031 Drizzle 16 1004 93 4000 2.6 350 12:39 23.06.2020
1032 Drizzle 16 1003 100 7000 2.1 20 12:19 23.06.2020
1033 Drizzle 16 1003 100 7000 2.1 20 11:43 23.06.2020
1034 Drizzle 16 1003 100 7000 2.1 20 11:23 23.06.2020
1035 Rain 16 1003 100 3000 2.6 40 10:58 23.06.2020
1036 Rain 16 1003 100 3000 2.6 40 10:40 23.06.2020
1037 Rain 16 1003 100 3000 2.6 40 10:22 23.06.2020
1038 Drizzle 16 1004 100 10000 3.1 60 09:57 23.06.2020
1039 Drizzle 16 1004 100 10000 3.1 60 09:38 23.06.2020
1040 Drizzle 15 1004 100 10000 3.1 60 09:19 23.06.2020
1041 Rain 15 1005 100 8000 4.1 60 08:46 23.06.2020
1042 Rain 15 1005 100 8000 4.1 60 08:26 23.06.2020
1043 Thunderstorm 15 1006 100 7000 3.6 70 07:47 23.06.2020
1044 Thunderstorm 15 1007 100 4000 4.1 60 07:24 23.06.2020
1045 Thunderstorm 15 1007 100 4000 4.1 60 06:53 23.06.2020
1046 Thunderstorm 15 1007 100 4000 4.1 60 06:32 23.06.2020
1047 Thunderstorm 15 1008 100 4000 3.6 70 05:59 23.06.2020
1048 Thunderstorm 14 1008 100 2000 2.6 210 05:26 23.06.2020
1049 Thunderstorm 14 1008 93 3000 3.1 40 03:22 23.06.2020
1050 Thunderstorm 13 1009 93 10000 4.6 80 02:49 23.06.2020
1051 Thunderstorm 13 1009 93 10000 4.6 80 02:29 23.06.2020
1052 Thunderstorm 14 1011 82 10000 4.6 60 01:46 23.06.2020
1053 Thunderstorm 14 1011 82 10000 4.6 60 01:46 23.06.2020
1054 Thunderstorm 13 1011 82 10000 4.6 60 01:24 23.06.2020
1055 Mist 13 1011 87 7000 3.6 80 00:46 23.06.2020
1056 Thunderstorm 13 1011 87 10000 4.1 80 00:21 23.06.2020
1057 Thunderstorm 13 1011 87 10000 4.1 80 23:55 22.06.2020
1058 Thunderstorm 13 1011 87 10000 4.1 80 23:36 22.06.2020
1059 Thunderstorm 14 1011 87 10000 4.1 80 23:18 22.06.2020
1060 Clouds 15 1012 77 10000 5.1 70 22:54 22.06.2020
1061 Clouds 15 1012 77 10000 5.1 70 22:36 22.06.2020
1062 Clouds 15 1012 77 10000 5.1 70 22:18 22.06.2020
1063 Clouds 16 1013 67 10000 6.2 60 21:41 22.06.2020
1064 Clouds 16 1013 67 10000 6.2 60 21:22 22.06.2020
1065 -273 0 0 0 0 0 20:59 22.06.2020
1066 Clouds 16 1014 72 10000 7.7 50 20:59 22.06.2020
1067 Clouds 16 1014 72 10000 7.7 50 20:40 22.06.2020
1068 Clouds 16 1014 72 10000 7.7 50 20:21 22.06.2020
1069 Clouds 16 1017 72 10000 6.2 70 19:44 22.06.2020
1070 Clouds 16 1017 72 10000 6.2 70 19:19 22.06.2020
1071 Clouds 15 1017 77 10000 5.1 70 18:57 22.06.2020
1072 Clouds 15 1017 77 10000 5.1 70 18:38 22.06.2020
1073 Clouds 15 1017 77 10000 5.1 70 18:19 22.06.2020
1074 Clouds 14 1019 82 10000 4.1 80 17:55 22.06.2020
1075 Clouds 14 1019 82 10000 4.1 80 17:37 22.06.2020
1076 Clouds 13 1019 87 8000 4.1 80 17:19 22.06.2020
1077 Clouds 12 1019 87 8000 4.1 80 16:43 22.06.2020
1078 Clouds 12 1019 87 8000 4.1 80 16:19 22.06.2020
1079 Mist 11 1019 93 5000 3.1 60 15:59 22.06.2020
1080 Mist 11 1019 93 5000 3.1 60 15:39 22.06.2020
1081 Mist 11 1019 93 5000 3.1 60 15:21 22.06.2020
1082 Mist 10 1019 100 2000 3.1 120 14:40 22.06.2020
1083 Mist 9 1019 100 2000 3.1 120 14:21 22.06.2020
1084 Mist 8 1019 100 2000 2.1 120 13:58 22.06.2020
1085 Fog 7 1019 100 700 3.64 69 13:39 22.06.2020
1086 Fog 7 1019 100 700 2.97 81 13:21 22.06.2020
1087 Fog 7 1019 100 100 1.5 40 12:44 22.06.2020
1088 Fog 7 1019 100 100 1.5 40 12:24 22.06.2020
1089 Fog 8 1019 100 800 0.5 0 11:59 22.06.2020
1090 Fog 7 1019 100 300 1.5 240 11:37 22.06.2020
1091 Fog 7 1019 100 300 1.5 240 11:19 22.06.2020
1092 Fog 8 1019 100 100 1 0 10:55 22.06.2020
1093 Mist 11 1019 93 2500 1.5 360 10:36 22.06.2020
1094 Clouds 11 1019 93 10000 2.1 140 10:18 22.06.2020
1095 Clouds 10 1019 93 10000 2.1 140 09:56 22.06.2020
1096 Clouds 10 1019 93 10000 2.1 140 09:37 22.06.2020
1097 Clouds 10 1019 100 10000 2.6 170 09:18 22.06.2020
1098 Clouds 10 1019 100 10000 2.6 170 08:40 22.06.2020
1099 Clouds 11 1019 100 10000 2.6 170 08:21 22.06.2020
1100 Mist 10 1020 100 5000 1 0 07:54 22.06.2020
1101 Mist 10 1020 100 5000 1 0 07:34 22.06.2020
1102 Fog 9 1020 100 100 1.5 310 06:56 22.06.2020
1103 Fog 9 1020 100 100 1.5 310 06:37 22.06.2020
1104 Fog 9 1019 100 50 1.5 280 06:19 22.06.2020
1105 Fog 10 1019 93 100 1 0 05:41 22.06.2020
1106 Clouds 12 1018 93 10000 1.5 230 02:59 22.06.2020
1107 Clouds 12 1017 93 10000 1.5 210 01:38 22.06.2020
1108 Clouds 12 1017 93 10000 1.5 210 00:43 22.06.2020
1109 Clouds 12 1017 93 10000 1.5 210 00:22 22.06.2020
1110 Clouds 12 1016 87 10000 3.6 200 23:55 21.06.2020
1111 Clouds 12 1016 87 10000 3.6 200 23:36 21.06.2020
1112 Clouds 13 1015 87 10000 4.1 220 23:18 21.06.2020
1113 Clouds 13 1015 87 10000 4.1 220 22:55 21.06.2020
1114 Clouds 13 1015 87 10000 4.1 220 22:55 21.06.2020
1115 Clouds 13 1015 87 10000 4.1 220 22:36 21.06.2020
1116 Clouds 13 1014 93 10000 5.7 240 22:18 21.06.2020
1117 Clouds 13 1014 93 10000 5.7 240 21:55 21.06.2020
1118 Clouds 13 1014 93 10000 5.7 240 21:37 21.06.2020
1119 Drizzle 13 1013 93 3000 5.1 240 21:18 21.06.2020
1120 Drizzle 13 1013 93 3000 5.1 240 20:40 21.06.2020
1121 Drizzle 14 1013 93 3000 5.1 240 20:20 21.06.2020
1122 -273 0 0 0 0 0 19:59 21.06.2020
1123 Clouds 14 1012 87 10000 6.7 240 19:40 21.06.2020
1124 Clouds 14 1012 87 10000 6.7 240 19:20 21.06.2020
1125 Clouds 14 1012 87 10000 5.7 250 18:56 21.06.2020
1126 Clouds 14 1012 87 10000 5.7 250 18:38 21.06.2020
1127 Clouds 14 1012 87 10000 5.7 250 18:19 21.06.2020
1128 Drizzle 14 1012 93 2000 4.6 270 17:41 21.06.2020
1129 Drizzle 13 1012 93 2000 4.6 270 17:22 21.06.2020
1130 Drizzle 13 1012 93 2500 3.6 260 16:57 21.06.2020
1131 Drizzle 13 1012 93 2500 3.6 260 16:39 21.06.2020
1132 Clouds 13 1011 93 10000 2.1 270 16:21 21.06.2020
1133 Clouds 13 1011 93 10000 2.1 270 15:41 21.06.2020
1134 Clouds 13 1011 100 10000 1.5 280 15:23 21.06.2020
1135 Clouds 13 1010 93 10000 2.1 310 14:59 21.06.2020
1136 Clouds 13 1010 93 10000 2.1 310 14:37 21.06.2020
1137 Clouds 12 1008 93 8000 4.1 90 14:19 21.06.2020
1138 Clouds 12 1008 93 8000 4.1 90 13:55 21.06.2020
1139 Clouds 12 1008 93 8000 4.1 90 13:36 21.06.2020
1140 Thunderstorm 12 1008 100 3000 2.1 40 13:18 21.06.2020
1141 Thunderstorm 12 1008 100 3000 2.1 40 12:43 21.06.2020
1142 Thunderstorm 12 1008 100 3000 2.1 40 12:24 21.06.2020
1143 Thunderstorm 12 1008 100 10000 5.7 80 11:43 21.06.2020
1144 Thunderstorm 12 1008 100 10000 5.7 80 11:25 21.06.2020
1145 Thunderstorm 12 1008 100 10000 7.2 100 10:59 21.06.2020
1146 Thunderstorm 12 1008 100 10000 7.2 100 10:41 21.06.2020
1147 Rain 12 1008 100 10000 7.2 100 10:22 21.06.2020
1148 Thunderstorm 12 1008 100 5000 9.3 100 09:58 21.06.2020
1149 Thunderstorm 12 1008 100 5000 9.3 100 09:36 21.06.2020
1150 Rain 12 1008 100 5000 9.3 110 09:18 21.06.2020
1151 Thunderstorm 12 1008 100 5000 9.3 110 08:54 21.06.2020
1152 Thunderstorm 12 1008 100 5000 9.3 110 08:36 21.06.2020
1153 Thunderstorm 12 1008 100 10000 8.2 100 08:18 21.06.2020
1154 Clouds 11 1009 93 10000 6.2 110 07:40 21.06.2020
1155 Clouds 11 1009 93 10000 6.2 110 07:21 21.06.2020
1156 Thunderstorm 11 1010 100 10000 10.3 110 06:48 21.06.2020
1157 Thunderstorm 11 1012 100 1000 4.1 180 05:59 21.06.2020
1158 Thunderstorm 11 1009 87 5000 12.9 90 04:50 21.06.2020
1159 Thunderstorm 12 1010 82 10000 6.7 100 03:20 21.06.2020
1160 Thunderstorm 12 1012 93 10000 5.1 100 02:54 21.06.2020
1161 Rain 13 1012 72 0 1.34 108 01:49 21.06.2020
1162 Clouds 14 1010 76 10000 4.6 110 01:21 21.06.2020
1163 Clouds 14 1010 76 10000 4.6 110 00:55 21.06.2020
1164 Clouds 14 1010 76 10000 4.6 110 00:37 21.06.2020
1165 Clouds 14 1011 67 10000 4.1 110 00:18 21.06.2020
1166 Clouds 14 1011 67 10000 4.1 110 23:43 20.06.2020
1167 Clouds 14 1011 67 10000 4.1 110 23:21 20.06.2020
1168 Clouds 14 1010 62 10000 5.1 90 22:55 20.06.2020
1169 Clouds 14 1010 62 10000 5.1 90 22:37 20.06.2020
1170 Clouds 15 1011 55 10000 6.7 110 22:18 20.06.2020
1171 Clouds 16 1011 55 10000 6.7 110 21:56 20.06.2020
1172 Clouds 16 1011 55 10000 6.7 110 21:37 20.06.2020
1173 Clouds 16 1011 55 10000 6.7 110 21:19 20.06.2020
1174 Clouds 16 1012 51 10000 6.7 110 20:55 20.06.2020
1175 Clouds 16 1012 51 10000 6.7 110 20:37 20.06.2020
1176 Clouds 16 1012 51 10000 6.7 110 20:19 20.06.2020
1177 Clouds 17 1013 48 10000 6.2 120 19:43 20.06.2020
1178 Clouds 16 1013 48 10000 6.2 120 19:22 20.06.2020
1179 Clouds 16 1014 63 8000 6.2 90 18:55 20.06.2020
1180 Clouds 16 1014 63 8000 6.2 90 18:37 20.06.2020
1181 Mist 15 1016 82 5000 2.6 80 18:18 20.06.2020
1182 Mist 15 1016 82 5000 2.6 80 17:55 20.06.2020
1183 Mist 14 1016 82 5000 2.6 80 17:37 20.06.2020
1184 Mist 13 1016 93 2500 2.6 60 17:18 20.06.2020
1185 Mist 12 1016 93 2500 2.6 60 16:39 20.06.2020
1186 Mist 12 1016 93 1500 2.1 90 16:18 20.06.2020
1187 Mist 12 1016 93 1500 2.1 90 15:55 20.06.2020
1188 Mist 11 1016 100 1000 2.6 120 15:37 20.06.2020
1189 Mist 11 1016 100 1000 2.6 150 15:18 20.06.2020
1190 Fog 11 1015 100 600 3.6 170 14:42 20.06.2020
1191 Fog 11 1015 100 600 3.6 170 14:19 20.06.2020
1192 Fog 10 1015 100 100 2.45 161 13:41 20.06.2020
1193 Fog 10 1015 100 100 3 183 13:20 20.06.2020
1194 Fog 10 1014 100 200 3 183 12:56 20.06.2020
1195 Fog 10 1014 100 200 3 183 12:37 20.06.2020
1196 Mist 10 1014 100 5000 2.6 200 12:18 20.06.2020
1197 Mist 11 1013 100 2500 3.6 200 11:39 20.06.2020
1198 Mist 11 1013 100 2500 3.6 200 11:20 20.06.2020
1199 Fog 10 1013 100 100 3.08 212 10:57 20.06.2020
1200 Fog 10 1013 100 100 3.08 212 10:38 20.06.2020
1201 Fog 9 1013 100 100 1 0 10:18 20.06.2020
1202 Fog 8 1013 100 100 1 0 09:42 20.06.2020
1203 Fog 7 1013 100 100 1 0 09:24 20.06.2020
1204 Fog 9 1013 100 50 3.02 248 08:58 20.06.2020
1205 Fog 9 1013 100 50 3.02 248 08:39 20.06.2020
1206 Fog 9 1013 100 50 2.71 250 08:21 20.06.2020
1207 Fog 11 1013 100 100 1 0 07:50 20.06.2020
1208 Fog 11 1013 100 100 1 0 07:25 20.06.2020
1209 Fog 9 1013 100 50 1 0 06:44 20.06.2020
1210 Fog 9 1013 100 50 1 0 06:20 20.06.2020
1211 Fog 10 1012 100 800 1 0 05:47 20.06.2020
1212 Fog 11 1012 100 100 3.02 271 03:53 20.06.2020
1213 Mist 12 1011 100 5000 2.1 100 01:54 20.06.2020
1214 Mist 12 1011 100 5000 2.1 100 01:36 20.06.2020
1215 Mist 12 1010 93 1500 4.1 110 00:45 20.06.2020
1216 Mist 12 1010 93 1500 4.1 110 00:20 20.06.2020
1217 Mist 12 1010 93 1500 4.1 120 23:41 19.06.2020
1218 Mist 12 1010 93 1500 4.1 120 23:20 19.06.2020
1219 Rain 12 1009 93 3000 5.1 90 22:56 19.06.2020
1220 Rain 12 1009 93 3000 5.1 90 22:56 19.06.2020
1221 Rain 12 1009 93 3000 5.1 90 22:37 19.06.2020
1222 Mist 12 1009 93 3000 5.1 90 22:19 19.06.2020
1223 Rain 12 1010 93 2000 5.1 180 21:55 19.06.2020
1224 Rain 12 1010 93 2000 5.1 180 21:37 19.06.2020
1225 Fog 13 1010 93 2500 5.1 180 21:18 19.06.2020
1226 Fog 13 1010 93 2500 5.1 180 20:56 19.06.2020
1227 Clouds 14 1010 82 10000 2.1 190 20:38 19.06.2020
1228 Clouds 14 1010 82 10000 2.1 190 20:20 19.06.2020
1229 Clouds 14 1010 87 8000 1.5 10 19:42 19.06.2020
1230 Clouds 14 1010 87 8000 1.5 10 19:23 19.06.2020
1231 Clouds 14 1010 87 8000 2.1 30 18:59 19.06.2020
1232 Mist 13 1011 93 5000 3.1 350 18:39 19.06.2020
1233 Mist 13 1011 93 5000 3.1 350 18:21 19.06.2020
1234 Mist 12 1011 100 1500 6.2 360 17:42 19.06.2020
1235 Mist 11 1011 100 1500 6.2 360 17:23 19.06.2020
1236 Mist 11 1012 100 1500 6.7 20 16:58 19.06.2020
1237 Mist 11 1012 100 1500 6.7 20 16:40 19.06.2020
1238 Mist 11 1012 100 1500 6.7 20 16:22 19.06.2020
1239 Fog 10 1011 100 100 5.1 30 15:47 19.06.2020
1240 Fog 10 1011 100 100 5.1 30 15:27 19.06.2020
1241 Fog 9 1011 100 100 4.1 50 14:58 19.06.2020
1242 Fog 9 1011 100 100 4.1 50 14:40 19.06.2020
1243 Fog 8 1011 100 100 4.1 50 14:21 19.06.2020
1244 Fog 8 1011 100 100 2.6 30 13:58 19.06.2020
1245 Fog 8 1011 100 100 2.6 30 13:40 19.06.2020
1246 Fog 9 1011 100 100 2.6 30 13:22 19.06.2020
1247 Fog 9 1012 100 100 5.1 20 12:45 19.06.2020
1248 Fog 9 1012 100 100 5.1 20 12:22 19.06.2020
1249 Mist 9 1012 100 1500 3.6 10 11:56 19.06.2020
1250 Clear 9 1011 100 10000 2.6 30 11:36 19.06.2020
1251 Fog 9 1011 93 10000 2.1 10 11:18 19.06.2020
1252 Fog 9 1011 93 10000 2.1 10 10:41 19.06.2020
1253 Fog 9 1011 93 10000 2.1 10 10:21 19.06.2020
1254 Clear 10 1011 93 10000 2.1 350 09:56 19.06.2020
1255 Clear 10 1011 93 10000 2.1 350 09:37 19.06.2020
1256 Clouds 10 1011 100 10000 2.1 360 09:19 19.06.2020
1257 Clouds 10 1011 100 10000 2.1 360 08:41 19.06.2020
1258 Clouds 10 1011 100 10000 2.1 360 08:23 19.06.2020
1259 Clouds 10 1011 93 10000 2.6 350 07:42 19.06.2020
1260 Clouds 10 1011 93 10000 2.6 350 07:22 19.06.2020
1261 Clouds 10 1011 93 10000 2.6 350 07:22 19.06.2020
1262 Clouds 11 1011 93 10000 2.1 340 06:59 19.06.2020
1263 Clouds 11 1011 93 10000 2.1 340 06:23 19.06.2020
1264 Clouds 11 1011 93 10000 2.1 320 05:41 19.06.2020
1265 Clouds 11 1011 93 10000 3.1 320 04:23 19.06.2020
1266 Clouds 12 1010 93 10000 3.1 310 02:27 19.06.2020
1267 Clouds 13 1009 93 10000 3.1 310 00:47 19.06.2020
1268 Clouds 13 1009 93 10000 3.1 310 00:22 19.06.2020
1269 Clouds 13 1009 87 10000 3.1 300 23:58 18.06.2020
1270 Clouds 13 1009 87 10000 3.1 300 23:40 18.06.2020
1271 Clouds 14 1009 87 10000 3.1 300 23:22 18.06.2020
1272 Clouds 14 1008 87 10000 4.6 280 22:41 18.06.2020
1273 Clouds 14 1008 87 10000 4.6 280 22:41 18.06.2020
1274 Clouds 14 1008 87 10000 4.6 280 22:21 18.06.2020
1275 Clouds 15 1007 87 10000 5.1 270 21:58 18.06.2020
1276 Clouds 15 1007 87 10000 5.1 270 21:58 18.06.2020
1277 Clouds 15 1007 87 10000 5.1 270 21:38 18.06.2020
1278 Clouds 14 1007 87 10000 5.1 270 21:19 18.06.2020
1279 Clouds 14 1007 93 10000 6.7 260 20:44 18.06.2020
1280 Clouds 14 1007 93 10000 6.7 260 20:22 18.06.2020
1281 Clouds 14 1006 87 10000 7.7 260 19:58 18.06.2020
1282 Clouds 14 1006 87 10000 7.7 260 19:40 18.06.2020
1283 Clouds 14 1006 87 10000 7.7 260 19:20 18.06.2020
1284 Clouds 13 1005 100 8000 6.7 270 18:44 18.06.2020
1285 Clouds 13 1005 100 8000 6.7 270 18:25 18.06.2020
1286 Clouds 13 1004 100 5000 6.2 290 17:59 18.06.2020
1287 Clouds 13 1004 100 5000 6.2 290 17:41 18.06.2020
1288 Mist 13 1004 100 5000 6.7 280 17:23 18.06.2020
1289 Clouds 13 1005 100 8000 6.7 300 16:44 18.06.2020
1290 Clouds 13 1005 100 8000 6.7 300 16:25 18.06.2020
1291 Clouds 13 1005 100 8000 5.1 350 15:59 18.06.2020
1292 Thunderstorm 13 1005 100 500 8.2 350 15:40 18.06.2020
1293 Thunderstorm 14 1005 100 500 8.2 350 15:20 18.06.2020
1294 Thunderstorm 15 1003 100 1000 8.2 350 14:57 18.06.2020
1295 Thunderstorm 15 1003 100 8000 8.2 350 14:39 18.06.2020
1296 Rain 15 1003 100 8000 7.7 330 14:20 18.06.2020
1297 Rain 15 1001 93 8000 5.1 300 13:55 18.06.2020
1298 Rain 15 1001 93 8000 5.1 300 13:36 18.06.2020
1299 Thunderstorm 15 1002 100 5000 7.7 40 13:18 18.06.2020
1300 Thunderstorm 15 1002 100 5000 7.7 40 12:40 18.06.2020
1301 Thunderstorm 15 1002 100 5000 7.7 40 12:20 18.06.2020
1302 Thunderstorm 15 1004 100 5000 3.1 50 11:59 18.06.2020
1303 Thunderstorm 15 1004 100 5000 3.1 50 11:40 18.06.2020
1304 Thunderstorm 15 1004 100 5000 3.1 50 11:20 18.06.2020
1305 Thunderstorm 15 1003 93 4000 2.6 160 10:41 18.06.2020
1306 Thunderstorm 15 1003 93 4000 2.6 160 10:19 18.06.2020
1307 Thunderstorm 15 1002 93 3000 3.6 200 09:55 18.06.2020
1308 Thunderstorm 15 1002 100 3000 3.6 240 09:37 18.06.2020
1309 Thunderstorm 16 1003 82 3000 9.8 240 09:19 18.06.2020
1310 Thunderstorm 15 1003 82 3000 9.8 240 08:40 18.06.2020
1311 Thunderstorm 15 1003 82 3000 9.8 240 08:21 18.06.2020
1312 Thunderstorm 20 1000 68 10000 7.7 20 07:46 18.06.2020
1313 Thunderstorm 22 1000 68 10000 7.7 20 07:26 18.06.2020
1314 Thunderstorm 22 1001 68 10000 7.7 10 06:54 18.06.2020
1315 Rain 22 1003 68 10000 6.7 20 05:55 18.06.2020
1316 Rain 22 1004 68 10000 6.2 20 04:22 18.06.2020
1317 Rain 22 1005 68 10000 5.7 30 02:51 18.06.2020
1318 Clouds 22 1004 68 10000 5.7 30 01:28 18.06.2020
1319 Clouds 22 1004 68 10000 7.2 40 00:56 18.06.2020
1320 Clouds 22 1004 68 10000 7.2 40 00:37 18.06.2020
1321 Clouds 22 1004 68 10000 7.2 40 00:19 18.06.2020
1322 Clouds 23 1004 69 10000 6.7 30 23:42 17.06.2020
1323 Clouds 23 1004 69 10000 6.7 30 23:20 17.06.2020
1324 Clouds 23 1005 60 10000 6.7 20 22:57 17.06.2020
1325 Clouds 23 1005 60 10000 6.7 20 22:38 17.06.2020
1326 Clouds 23 1005 60 10000 6.7 20 22:20 17.06.2020
1327 Clouds 24 1005 53 10000 7.7 0 21:55 17.06.2020
1328 Clouds 24 1005 53 10000 7.7 0 21:36 17.06.2020
1329 Clouds 24 1006 57 10000 8.2 20 21:18 17.06.2020
1330 Clouds 24 1006 57 10000 8.2 20 21:18 17.06.2020
1331 Clouds 24 1006 57 10000 8.2 20 20:38 17.06.2020
1332 Clouds 24 1006 57 10000 8.2 20 20:38 17.06.2020
1333 Clouds 24 1006 57 10000 8.2 20 20:19 17.06.2020
1334 Clouds 24 1007 57 10000 9.3 0 19:55 17.06.2020
1335 Clouds 24 1007 57 10000 9.3 0 19:36 17.06.2020
1336 Clouds 24 1008 57 10000 8.2 30 19:18 17.06.2020
1337 Clouds 24 1008 57 10000 8.2 30 18:44 17.06.2020
1338 Clouds 24 1008 57 10000 8.2 30 18:26 17.06.2020
1339 Clouds 23 1009 69 10000 8.2 360 17:44 17.06.2020
1340 Clouds 23 1009 69 10000 8.2 360 17:22 17.06.2020
1341 Clouds 22 1010 73 10000 8.2 0 16:57 17.06.2020
1342 Clouds 22 1010 73 10000 8.2 0 16:57 17.06.2020
1343 Clouds 22 1010 73 10000 8.2 0 16:39 17.06.2020
1344 Clouds 21 1010 73 10000 8.2 20 16:21 17.06.2020
1345 Clouds 21 1010 73 10000 8.2 20 15:56 17.06.2020
1346 Clouds 21 1010 73 10000 8.2 20 15:38 17.06.2020
1347 Clouds 21 1010 73 10000 8.2 20 15:19 17.06.2020
1348 Clouds 21 1011 72 10000 5.7 20 14:57 17.06.2020
1349 Clouds 21 1011 72 10000 5.7 20 14:39 17.06.2020
1350 Clouds 20 1011 72 10000 5.7 20 14:19 17.06.2020
1351 Clouds 20 1012 77 10000 4.1 20 13:55 17.06.2020
1352 Clouds 19 1012 77 10000 4.1 20 13:36 17.06.2020
1353 Clouds 19 1012 77 10000 8.2 30 13:18 17.06.2020
1354 Clouds 19 1012 77 10000 8.2 30 12:41 17.06.2020
1355 Clouds 19 1012 77 10000 8.2 30 12:21 17.06.2020
1356 Clouds 19 1012 88 10000 6.2 20 11:45 17.06.2020
1357 Clouds 19 1012 88 10000 6.2 20 11:26 17.06.2020
1358 Clouds 18 1013 88 10000 6.2 40 10:59 17.06.2020
1359 Clouds 18 1013 88 10000 6.2 40 10:38 17.06.2020
1360 Clouds 18 1014 88 10000 5.1 30 10:19 17.06.2020
1361 Clouds 18 1014 88 10000 5.1 30 09:55 17.06.2020
1362 Clouds 18 1014 88 10000 5.1 30 09:37 17.06.2020
1363 Clouds 18 1014 88 10000 3.1 30 09:18 17.06.2020
1364 Clouds 18 1014 88 10000 3.1 30 08:44 17.06.2020
1365 Clouds 18 1014 88 10000 3.1 30 08:20 17.06.2020
1366 Clouds 18 1015 88 10000 4.1 40 07:44 17.06.2020
1367 Clouds 18 1015 88 10000 4.1 40 07:24 17.06.2020
1368 Clouds 18 1015 88 10000 4.6 30 06:59 17.06.2020
1369 Clouds 18 1015 88 10000 4.6 30 06:41 17.06.2020
1370 Clouds 18 1015 88 10000 4.6 30 06:22 17.06.2020
1371 Clouds 18 1015 88 10000 5.7 30 05:49 17.06.2020
1372 Clouds 19 1015 82 10000 7.2 40 04:38 17.06.2020
1373 Clouds 19 1015 82 10000 5.1 30 02:41 17.06.2020
1374 Clouds 20 1015 73 10000 5.1 30 00:53 17.06.2020
1375 Clouds 21 1015 73 10000 5.1 30 00:30 17.06.2020
1376 Clouds 21 1015 73 10000 5.1 30 00:00 17.06.2020
1377 Clouds 21 1015 73 10000 5.1 30 23:41 16.06.2020
1378 Clouds 21 1015 73 10000 5.1 30 23:22 16.06.2020
1379 Clouds 23 1014 64 10000 6.2 30 22:57 16.06.2020
1380 Clouds 23 1014 64 10000 6.2 30 22:38 16.06.2020
1381 Clouds 23 1014 64 10000 6.2 30 22:19 16.06.2020
1382 Clouds 24 1014 64 10000 7.7 30 21:57 16.06.2020
1383 Clouds 24 1014 64 10000 7.7 30 21:39 16.06.2020
1384 Clouds 24 1015 64 10000 8.2 20 21:21 16.06.2020
1385 Clear 24 1015 64 10000 8.2 20 20:43 16.06.2020
1386 Clouds 24 1015 64 10000 8.2 20 20:23 16.06.2020
1387 Clouds 23 1015 69 10000 7.7 20 19:58 16.06.2020
1388 Clouds 23 1015 69 10000 7.7 20 19:40 16.06.2020
1389 Clouds 23 1015 69 10000 7.7 20 19:22 16.06.2020
1390 Clouds 21 1017 73 10000 7.7 20 18:59 16.06.2020
1391 Clouds 21 1017 73 10000 7.7 20 18:59 16.06.2020
1392 Clouds 21 1017 73 10000 7.7 20 18:40 16.06.2020
1393 Clouds 21 1017 73 10000 7.7 20 18:21 16.06.2020
1394 Clouds 20 1018 77 10000 7.2 20 17:57 16.06.2020
1395 Clouds 20 1018 77 10000 7.2 20 17:38 16.06.2020
1396 Clouds 20 1018 77 10000 7.2 20 17:38 16.06.2020
1397 Clouds 20 1018 77 10000 7.2 20 17:19 16.06.2020
1398 Clouds 17 1018 87 10000 7.7 30 16:56 16.06.2020
1399 Clouds 17 1018 87 10000 7.7 30 16:38 16.06.2020
1400 Clouds 16 1019 82 10000 7.2 40 16:19 16.06.2020
1401 Clouds 16 1019 82 10000 7.2 40 15:56 16.06.2020
1402 Clouds 16 1019 82 10000 7.2 40 15:38 16.06.2020
1403 Clouds 16 1019 82 10000 7.2 40 15:20 16.06.2020
1404 Clouds 15 1019 87 10000 5.1 50 14:43 16.06.2020
1405 Clouds 15 1019 87 10000 5.1 50 14:43 16.06.2020
1406 Clouds 15 1019 87 10000 5.1 50 14:25 16.06.2020
1407 Clouds 15 1019 87 10000 4.6 30 13:57 16.06.2020
1408 Clouds 15 1019 87 10000 4.6 30 13:39 16.06.2020
1409 Clouds 15 1019 87 10000 4.6 30 13:20 16.06.2020
1410 Clouds 14 1019 93 10000 5.1 20 12:41 16.06.2020
1411 Clouds 14 1019 93 10000 5.1 20 12:21 16.06.2020
1412 Clouds 14 1018 93 10000 3.6 30 11:56 16.06.2020
1413 Clouds 14 1018 93 10000 3.6 30 11:38 16.06.2020
1414 Clouds 14 1018 93 10000 3.6 30 11:19 16.06.2020
1415 Clouds 14 1018 93 10000 5.1 30 10:55 16.06.2020
1416 Clouds 14 1018 93 10000 5.1 30 10:37 16.06.2020
1417 Clouds 14 1018 87 10000 4.1 30 10:18 16.06.2020
1418 Clouds 14 1018 87 10000 4.1 30 09:42 16.06.2020
1419 Clouds 14 1018 87 10000 4.1 30 09:22 16.06.2020
1420 Clouds 13 1018 100 10000 5.7 40 08:48 16.06.2020
1421 Clouds 13 1018 100 10000 5.7 40 08:30 16.06.2020
1422 Thunderstorm 13 1019 82 4000 5.1 40 07:51 16.06.2020
1423 Thunderstorm 14 1019 82 10000 5.1 45 07:28 16.06.2020
1424 Rain 14 1019 82 10000 6.7 50 06:55 16.06.2020
1425 Rain 14 1019 82 10000 6.7 50 06:29 16.06.2020
1426 Rain 14 1020 76 10000 5.7 50 05:46 16.06.2020
1427 Thunderstorm 14 1020 76 10000 5.7 40 04:42 16.06.2020
1428 Clouds 13 1021 76 10000 4.1 40 03:48 16.06.2020
1429 Clouds 12 1020 76 10000 4.1 50 02:19 16.06.2020
1430 Clouds 13 1020 71 10000 5.1 50 01:31 16.06.2020
1431 Clouds 13 1020 58 10000 5.7 50 00:52 16.06.2020
1432 Clouds 13 1020 58 10000 5.7 50 00:22 16.06.2020
1433 Clouds 13 1020 58 10000 5.7 70 23:43 15.06.2020
1434 Clouds 13 1020 58 10000 5.7 70 23:24 15.06.2020
1435 Clouds 14 1020 54 10000 5.1 100 22:59 15.06.2020
1436 Clouds 14 1020 54 10000 5.1 100 22:41 15.06.2020
1437 Clouds 15 1020 54 10000 5.1 100 22:21 15.06.2020
1438 Clouds 15 1021 41 10000 7.7 80 21:56 15.06.2020
1439 Clouds 15 1021 41 10000 7.7 80 21:38 15.06.2020
1440 Clouds 15 1022 36 10000 6.2 70 21:19 15.06.2020
1441 Clouds 15 1022 36 10000 6.2 70 20:57 15.06.2020
1442 Clouds 15 1022 36 10000 6.2 70 20:38 15.06.2020
1443 Clouds 15 1023 51 10000 4.1 80 20:19 15.06.2020
1444 Clouds 15 1023 51 10000 4.1 80 19:56 15.06.2020
1445 Clouds 15 1023 51 10000 4.1 80 19:38 15.06.2020
1446 Clouds 14 1024 50 10000 5.1 50 19:20 15.06.2020
1447 Clouds 14 1024 50 10000 5.1 50 18:56 15.06.2020
1448 Clouds 14 1024 50 10000 5.1 50 18:37 15.06.2020
1449 Clouds 11 1025 57 10000 5.1 40 18:19 15.06.2020
1450 Clouds 11 1025 57 10000 5.1 40 17:55 15.06.2020
1451 Clouds 11 1025 57 10000 5.1 40 17:36 15.06.2020
1452 Clouds 9 1025 66 10000 7.7 60 17:18 15.06.2020
1453 Clouds 10 1025 66 10000 7.7 60 16:41 15.06.2020
1454 Clouds 9 1026 70 10000 5.1 40 16:19 15.06.2020
1455 Clouds 9 1026 70 10000 5.1 40 15:56 15.06.2020
1456 Clouds 9 1026 70 10000 5.1 40 15:38 15.06.2020
1457 Clouds 6 1026 70 10000 4.1 60 15:18 15.06.2020
1458 Clouds 6 1026 70 10000 4.1 60 14:42 15.06.2020
1459 Clouds 5 1026 70 10000 4.1 60 14:21 15.06.2020
1460 Clouds 5 1026 58 10000 5.1 60 13:59 15.06.2020
1461 Clouds 5 1026 58 10000 5.1 60 13:41 15.06.2020
1462 Clouds 5 1026 58 10000 5.1 60 13:41 15.06.2020
1463 Clouds 6 1026 59 10000 5.1 60 13:22 15.06.2020
1464 Clouds 6 1026 64 10000 3.33 21 12:57 15.06.2020
1465 Clouds 7 1026 64 10000 3.33 21 12:39 15.06.2020
1466 Clouds 7 1026 64 10000 3.9 23 12:21 15.06.2020
1467 Clouds 7 1025 69 10000 3.6 70 12:21 15.06.2020
1468 Clouds 7 1025 69 10000 3.6 70 11:44 15.06.2020
1469 Clouds 6 1025 69 10000 3.6 70 11:25 15.06.2020
1470 Clouds 6 1025 60 10000 3.6 50 10:45 15.06.2020
1471 Clouds 6 1025 60 10000 3.6 50 10:23 15.06.2020
1472 Clouds 6 1027 64 10000 3.1 30 09:57 15.06.2020
1473 Clouds 6 1027 64 10000 3.1 30 09:39 15.06.2020
1474 Clouds 6 1027 64 10000 3.1 30 09:20 15.06.2020
1475 Clouds 5 1027 69 10000 2.6 10 08:41 15.06.2020
1476 Clear 7 1027 69 10000 2.6 10 08:23 15.06.2020
1477 Clear 8 1027 65 10000 2.6 50 07:47 15.06.2020
1478 Clear 8 1027 65 10000 2.6 50 07:28 15.06.2020
1479 Clear 8 1027 55 10000 1 0 06:49 15.06.2020
1480 Clear 8 1027 54 10000 1 0 06:26 15.06.2020
1481 Clear 8 1027 54 10000 2.1 40 05:47 15.06.2020
1482 Clear 8 1027 53 10000 2.1 40 05:26 15.06.2020
1483 Clear 8 1027 70 9000 4.1 80 04:20 15.06.2020
1484 Clear 7 1027 75 7000 3.1 70 03:42 15.06.2020
1485 Clear 8 1027 70 8000 3.1 110 02:55 15.06.2020
1486 Clear 8 1027 65 8000 2.6 110 01:58 15.06.2020
1487 Clear 8 1027 65 8000 2.6 110 01:37 15.06.2020
1488 Mist 8 1027 81 4000 2.1 120 01:18 15.06.2020
1489 Mist 8 1027 81 4000 2.1 120 00:39 15.06.2020
1490 Clear 10 1027 61 10000 1.5 180 00:20 15.06.2020
1491 Clear 10 1027 61 10000 1.5 180 23:47 14.06.2020
1492 Clear 10 1027 61 10000 1.5 180 23:26 14.06.2020
1493 Clear 11 1027 50 10000 1.5 270 22:58 14.06.2020
1494 Clear 11 1027 50 10000 1.5 270 22:39 14.06.2020
1495 Clear 11 1027 50 10000 1.5 270 22:20 14.06.2020
1496 Clear 11 1027 53 10000 2.1 150 21:58 14.06.2020
1497 Clear 12 1027 45 10000 1.07 298 21:40 14.06.2020
1498 Clear 12 1027 43 10000 3.1 360 21:19 14.06.2020
1499 Clear 12 1027 43 10000 3.1 360 20:59 14.06.2020
1500 Clear 12 1027 43 10000 3.1 360 20:40 14.06.2020
1501 Clear 12 1027 43 10000 3.1 360 20:21 14.06.2020
1502 Clear 11 1028 40 10000 3.1 240 19:59 14.06.2020
1503 Clear 11 1028 40 10000 3.1 240 19:40 14.06.2020
1504 Clear 11 1028 40 10000 3.1 240 19:40 14.06.2020
1505 Clear 11 1028 46 10000 1.5 260 19:20 14.06.2020
1506 Clear 11 1028 46 10000 1.5 260 18:58 14.06.2020
1507 Clear 11 1028 46 10000 1.5 260 18:40 14.06.2020
1508 Clear 11 1028 46 10000 1.5 260 18:21 14.06.2020
1509 Clear 11 1029 45 10000 2.1 320 17:58 14.06.2020
1510 Clear 11 1029 45 10000 2.1 320 17:39 14.06.2020
1511 Clear 10 1029 46 10000 2.1 320 17:20 14.06.2020
1512 Clear 9 1029 61 10000 2.1 330 16:55 14.06.2020
1513 Clear 9 1029 61 10000 2.1 330 16:37 14.06.2020
1514 Clear 6 1029 64 10000 3.1 350 16:18 14.06.2020
1515 Clear 5 1029 64 10000 3.1 350 15:41 14.06.2020
1516 Clear 5 1029 64 10000 3.1 350 15:41 14.06.2020
1517 Clear 5 1029 64 10000 3.1 350 15:20 14.06.2020
1518 Clear 2 1029 74 10000 2.1 20 14:59 14.06.2020
1519 Clear 2 1029 74 10000 2.1 20 14:41 14.06.2020
1520 Clear 2 1029 74 10000 2.1 20 14:22 14.06.2020
1521 Clear 1 1028 80 10000 2.1 360 13:58 14.06.2020
1522 Clear 1 1028 80 10000 2.1 360 13:40 14.06.2020
1523 Clear 1 1028 80 10000 2.1 360 13:21 14.06.2020
1524 Clear 1 1028 86 10000 2.1 360 12:57 14.06.2020
1525 Clear 1 1028 86 10000 2.1 360 12:38 14.06.2020
1526 Clear 4 1028 86 10000 2.1 360 12:20 14.06.2020
1527 Clear 4 1028 86 10000 2.1 360 12:20 14.06.2020
1528 Clear 6 1027 64 10000 2.1 350 11:56 14.06.2020
1529 Clear 6 1027 64 10000 2.1 350 11:38 14.06.2020
1530 Clear 6 1027 69 10000 2.1 350 11:19 14.06.2020
1531 Clear 6 1027 69 10000 2.1 350 10:42 14.06.2020
1532 Clear 6 1027 69 10000 2.1 350 10:20 14.06.2020
1533 Clear 6 1027 64 10000 2.1 350 09:51 14.06.2020
1534 Clear 6 1027 64 10000 2.1 350 09:26 14.06.2020
1535 Clear 7 1027 55 10000 3.1 290 08:58 14.06.2020
1536 Clear 7 1027 55 10000 3.1 290 08:58 14.06.2020
1537 Clear 7 1027 55 10000 3.1 290 08:40 14.06.2020
1538 Clear 8 1027 52 10000 3.1 270 08:18 14.06.2020
1539 Clear 7 1027 52 10000 3.1 270 07:51 14.06.2020
1540 Clear 7 1027 52 10000 3.1 270 07:32 14.06.2020
1541 Clear 7 1027 48 10000 4.1 250 06:35 14.06.2020
1542 Clear 8 1027 48 10000 3.6 260 05:44 14.06.2020
1543 Clear 8 1027 45 10000 4.1 250 04:58 14.06.2020
1544 Clear 8 1027 45 10000 4.1 250 04:31 14.06.2020
1545 Clear 8 1026 45 10000 4.6 250 03:27 14.06.2020
1546 Clear 8 1025 48 10000 4.1 250 02:30 14.06.2020
1547 Clear 8 1025 49 10000 5.1 250 01:45 14.06.2020
1548 Clear 8 1025 49 10000 5.1 250 01:23 14.06.2020
1549 Clear 9 1024 50 10000 6.2 250 00:39 14.06.2020
1550 Clouds 9 1024 50 10000 7.7 240 00:19 14.06.2020
1551 Clouds 9 1024 50 10000 7.7 240 23:43 13.06.2020
1552 Clouds 9 1024 49 10000 7.7 240 23:24 13.06.2020
1553 Clouds 10 1023 49 10000 6.2 240 22:57 13.06.2020
1554 Clouds 9 1023 49 10000 6.2 240 22:37 13.06.2020
1555 Clouds 9 1022 48 10000 7.7 250 22:18 13.06.2020
1556 Clouds 9 1022 48 10000 7.7 250 22:18 13.06.2020
1557 Clouds 9 1022 48 10000 7.7 250 21:55 13.06.2020
1558 Clouds 9 1022 48 10000 7.7 250 21:37 13.06.2020
1559 Clouds 9 1021 45 10000 8.2 250 21:18 13.06.2020
1560 Clouds 9 1021 45 10000 8.2 250 20:42 13.06.2020
1561 Clear 10 1021 42 10000 8.2 260 20:19 13.06.2020
1562 Clear 10 1021 42 10000 8.2 260 19:54 13.06.2020
1563 Clear 10 1021 42 10000 8.2 260 19:36 13.06.2020
1564 Clear 10 1021 46 10000 9.3 250 19:18 13.06.2020
1565 Clear 10 1021 46 10000 9.3 250 19:18 13.06.2020
1566 Clear 10 1021 46 10000 9.3 250 18:41 13.06.2020
1567 Clear 10 1021 46 10000 9.3 250 18:21 13.06.2020
1568 Clear 9 1020 49 10000 7.7 250 18:00 13.06.2020
1569 Clear 9 1020 49 10000 7.7 250 17:41 13.06.2020
1570 Clear 9 1020 49 10000 7.7 250 17:23 13.06.2020
1571 Clear 9 1020 36 10000 9.3 250 16:56 13.06.2020
1572 Clear 9 1020 36 10000 9.3 250 16:38 13.06.2020
1573 Clear 9 1019 39 10000 10.3 240 16:19 13.06.2020
1574 Clear 9 1019 39 10000 10.3 240 15:45 13.06.2020
1575 Clear 9 1019 39 10000 10.3 240 15:27 13.06.2020
1576 Clear 9 1018 49 10000 7.7 250 14:59 13.06.2020
1577 Clear 9 1018 49 10000 7.7 250 14:41 13.06.2020
1578 Clouds 9 1017 53 10000 78.2 250 14:20 13.06.2020
1579 Clouds 9 1017 53 10000 78.2 250 13:44 13.06.2020
1580 Clouds 9 1017 53 10000 78.2 250 13:26 13.06.2020
1581 Clouds 15 1016 29 10000 6.2 260 12:55 13.06.2020
1582 Clouds 15 1016 29 10000 6.2 260 12:37 13.06.2020
1583 Clouds 10 1015 43 10000 7.7 270 12:19 13.06.2020
1584 Clouds 11 1015 43 10000 7.7 270 11:40 13.06.2020
1585 Clouds 11 1015 43 10000 7.7 250 11:19 13.06.2020
1586 Clouds 11 1015 43 10000 7.7 250 10:58 13.06.2020
1587 Clouds 11 1015 43 10000 7.7 250 10:39 13.06.2020
1588 Clouds 11 1015 43 10000 7.7 250 10:20 13.06.2020
1589 Clouds 12 1014 43 10000 8.2 250 09:45 13.06.2020
1590 Clouds 12 1014 43 10000 8.2 250 09:27 13.06.2020
1591 Clouds 13 1014 47 10000 7.2 260 08:56 13.06.2020
1592 Clouds 12 1014 47 10000 7.2 260 08:37 13.06.2020
1593 Clouds 13 1013 47 10000 5.7 230 08:19 13.06.2020
1594 Clouds 13 1013 47 10000 5.7 230 07:42 13.06.2020
1595 Clouds 13 1013 47 10000 5.7 230 07:24 13.06.2020
1596 Clouds 13 1012 71 10000 6.7 260 06:44 13.06.2020
1597 Clouds 13 1012 71 10000 6.7 260 06:25 13.06.2020
1598 Clouds 13 1010 76 10000 3.1 270 05:28 13.06.2020
1599 Clouds 14 1010 87 10000 5.7 280 04:37 13.06.2020
1600 Clouds 14 1009 93 10000 4.6 240 03:33 13.06.2020
1601 Thunderstorm 14 1009 93 10000 3.1 310 02:39 13.06.2020
1602 Clouds 13 1007 93 10000 2.1 280 01:48 13.06.2020
1603 Clouds 13 1007 93 10000 2.1 280 01:22 13.06.2020
1604 Clouds 14 1007 87 10000 1.5 240 00:53 13.06.2020
1605 Clouds 14 1007 87 10000 1.5 240 00:27 13.06.2020
1606 Clouds 14 1006 87 10000 1.5 240 23:58 12.06.2020
1607 Clouds 14 1006 87 10000 1.5 240 23:38 12.06.2020
1608 Clouds 15 1005 87 10000 3.1 240 23:18 12.06.2020
1609 Clouds 16 1005 87 10000 3.1 240 22:43 12.06.2020
1610 Clouds 16 1005 82 10000 2.6 270 22:19 12.06.2020
1611 Clouds 16 1005 82 10000 2.6 270 21:59 12.06.2020
1612 Clouds 16 1005 82 10000 2.6 270 21:40 12.06.2020
1613 Clouds 16 1005 82 10000 2.6 270 21:21 12.06.2020
1614 Clouds 18 1005 77 10000 4.1 270 20:56 12.06.2020
1615 Clouds 17 1005 77 10000 4.1 270 20:37 12.06.2020
1616 Clouds 18 1005 72 10000 3.1 260 20:19 12.06.2020
1617 Clouds 18 1005 72 10000 3.1 260 19:40 12.06.2020
1618 Clouds 18 1005 72 10000 3.1 260 19:21 12.06.2020
1619 Clouds 17 1005 88 8000 4.1 220 18:58 12.06.2020
1620 Clouds 17 1005 88 8000 4.1 220 18:36 12.06.2020
1621 Mist 17 1006 93 5000 2.1 320 18:18 12.06.2020
1622 Mist 16 1007 93 3500 3.6 330 17:40 12.06.2020
1623 Mist 16 1007 93 3500 3.6 330 17:22 12.06.2020
1624 Fog 14 1006 100 100 2.1 360 16:45 12.06.2020
1625 Fog 15 1006 100 100 2.1 360 16:21 12.06.2020
1626 Fog 14 1006 100 100 2.1 20 15:50 12.06.2020
1627 Mist 14 1006 100 1500 1.5 40 15:28 12.06.2020
1628 Fog 13 1006 100 100 2.41 292 14:59 12.06.2020
1629 Fog 13 1006 100 100 2.41 292 14:39 12.06.2020
1630 Fog 13 1006 100 100 3.13 290 14:21 12.06.2020
1631 Fog 13 1006 100 50 1.5 120 13:43 12.06.2020
1632 Fog 13 1006 100 50 1.5 120 13:22 12.06.2020
1633 Clouds 13 1006 100 100 3.1 90 12:55 12.06.2020
1634 Clouds 13 1006 100 100 3.1 90 12:37 12.06.2020
1635 Mist 13 1006 100 5000 1 260 12:18 12.06.2020
1636 Mist 13 1006 100 5000 1 260 11:43 12.06.2020
1637 Mist 14 1006 100 5000 1 260 11:23 12.06.2020
1638 Fog 14 1004 100 5000 1.5 100 10:49 12.06.2020
1639 Fog 13 1004 100 5000 1.5 100 10:26 12.06.2020
1640 Fog 13 1004 100 3000 1.5 110 09:58 12.06.2020
1641 Fog 13 1004 100 3000 1.5 110 09:39 12.06.2020
1642 Clouds 13 1004 93 10000 2.6 70 09:19 12.06.2020
1643 Clouds 14 1004 93 10000 2.6 70 08:41 12.06.2020
1644 Clouds 14 1004 93 10000 2.6 70 08:22 12.06.2020
1645 Clouds 14 1005 93 10000 2.6 40 07:41 12.06.2020
1646 Clouds 15 1005 93 10000 2.6 40 07:23 12.06.2020
1647 Clouds 15 1006 93 10000 3.6 40 06:41 12.06.2020
1648 Mist 15 1007 100 5000 3.6 70 06:21 12.06.2020
1649 Mist 15 1007 100 5000 3.6 70 05:49 12.06.2020
1650 Mist 14 1007 100 5000 3.6 70 05:23 12.06.2020
1651 Clouds 15 1009 87 10000 3.6 30 03:53 12.06.2020
1652 Clouds 16 1009 93 10000 3.1 30 02:42 12.06.2020
1653 Drizzle 16 1009 93 10000 4.6 40 01:39 12.06.2020
1654 Clouds 15 1009 93 10000 3.1 40 00:59 12.06.2020
1655 Clouds 15 1009 93 10000 3.1 40 00:39 12.06.2020
1656 Clouds 15 1009 93 10000 3.1 40 00:20 12.06.2020
1657 Clouds 15 1008 93 10000 5.1 40 23:56 11.06.2020
1658 Clouds 15 1008 93 10000 5.1 40 23:38 11.06.2020
1659 Drizzle 15 1009 82 10000 5.7 40 23:19 11.06.2020
1660 Drizzle 15 1009 82 10000 5.7 40 22:54 11.06.2020
1661 Drizzle 15 1009 82 10000 5.7 40 22:36 11.06.2020
1662 Clouds 15 1009 87 10000 5.1 60 22:18 11.06.2020
1663 Clouds 15 1009 87 10000 5.1 60 21:42 11.06.2020
1664 Clouds 15 1009 87 10000 5.1 60 21:20 11.06.2020
1665 Clouds 15 1009 82 10000 4.1 30 20:57 11.06.2020
1666 Clouds 15 1009 82 10000 4.1 30 20:38 11.06.2020
1667 Clouds 15 1009 82 10000 4.1 30 20:20 11.06.2020
1668 Clouds 14 1010 93 8000 2.6 40 19:43 11.06.2020
1669 Clouds 14 1010 93 8000 2.6 40 19:22 11.06.2020
1670 Clouds 14 1010 93 8000 2.6 40 18:54 11.06.2020
1671 Mist 13 1011 100 3000 3.6 360 18:36 11.06.2020
1672 Mist 12 1012 93 1400 4.1 30 18:18 11.06.2020
1673 Mist 12 1012 93 1400 4.1 30 17:55 11.06.2020
1674 Mist 12 1012 93 1400 4.1 30 17:37 11.06.2020
1675 Mist 11 1012 100 5000 2.6 20 17:18 11.06.2020
1676 Fog 9 1013 100 100 2.6 30 16:42 11.06.2020
1677 Fog 10 1013 100 100 2.6 30 16:23 11.06.2020
1678 Fog 9 1013 100 100 2.6 30 15:57 11.06.2020
1679 Fog 9 1013 100 100 2.6 30 15:38 11.06.2020
1680 Fog 9 1013 100 100 2.6 30 15:20 11.06.2020
1681 Fog 9 1013 100 100 2.6 20 14:44 11.06.2020
1682 Fog 9 1013 100 100 2.6 20 14:21 11.06.2020
1683 Fog 8 1013 100 100 4.6 20 13:57 11.06.2020
1684 Fog 8 1013 100 100 4.6 20 13:39 11.06.2020
1685 Fog 8 1013 100 100 4.1 30 13:20 11.06.2020
1686 Fog 7 1013 100 100 4.1 30 12:56 11.06.2020
1687 Fog 7 1013 100 100 4.1 30 12:56 11.06.2020
1688 Fog 7 1013 100 100 4.1 30 12:38 11.06.2020
1689 Fog 7 1013 100 300 2.1 20 12:19 11.06.2020
1690 Fog 6 1013 100 300 2.1 20 11:57 11.06.2020
1691 Fog 6 1013 100 300 2.1 20 11:38 11.06.2020
1692 Fog 6 1013 100 300 2.1 20 11:20 11.06.2020
1693 Fog 6 1013 100 300 2.1 320 10:54 11.06.2020
1694 Fog 6 1013 100 300 2.1 320 10:36 11.06.2020
1695 Fog 6 1013 100 300 2.1 320 10:18 11.06.2020
1696 Fog 6 1013 100 300 2.1 320 09:40 11.06.2020
1697 Fog 6 1013 100 300 2.1 320 09:40 11.06.2020
1698 Fog 6 1013 100 300 2.1 320 09:22 11.06.2020
1699 Fog 5 1013 100 200 2.38 4 08:44 11.06.2020
1700 Fog 5 1013 100 200 2.38 4 08:44 11.06.2020
1701 Fog 5 1013 100 200 2.39 356 08:19 11.06.2020
1702 Fog 7 1013 100 300 2.1 340 07:42 11.06.2020
1703 Fog 7 1013 100 300 2.1 340 07:24 11.06.2020
1704 Mist 8 1013 100 1800 4.1 30 06:40 11.06.2020
1705 Fog 8 1014 100 1000 1.5 10 06:22 11.06.2020
1706 Fog 9 1014 100 500 2.6 30 05:28 11.06.2020
1707 Mist 11 1013 100 3000 2.1 80 03:30 11.06.2020
1708 Fog 11 1013 100 3000 2.1 80 02:50 11.06.2020
1709 Fog 11 1013 100 3000 2.1 80 02:32 11.06.2020
1710 Fog 12 1012 93 3000 1.5 50 01:46 11.06.2020
1711 Fog 12 1012 93 3000 1.5 50 01:22 11.06.2020
1712 Clear 12 1012 93 10000 2.6 120 00:45 11.06.2020
1713 Clear 12 1012 93 10000 2.6 120 00:26 11.06.2020
1714 Clear 14 1012 82 10000 1.41 337 23:44 10.06.2020
1715 Clear 14 1012 82 10000 1.43 321 23:25 10.06.2020
1716 Clear 15 1011 67 10000 1.5 270 22:56 10.06.2020
1717 Clear 16 1011 67 10000 1.5 270 22:37 10.06.2020
1718 Clear 16 1011 67 10000 1.5 270 22:37 10.06.2020
1719 Clear 16 1011 67 10000 1.5 270 22:19 10.06.2020
1720 Clear 17 1011 63 10000 2.1 270 21:55 10.06.2020
1721 Clear 17 1011 63 10000 2.1 270 21:37 10.06.2020
1722 Clear 17 1011 63 10000 2.1 270 21:18 10.06.2020
1723 Clear 17 1011 63 10000 2.1 270 21:18 10.06.2020
1724 Clear 17 1011 63 10000 2.1 220 20:56 10.06.2020
1725 Clear 17 1011 63 10000 2.1 220 20:38 10.06.2020
1726 Clouds 17 1011 72 10000 5.1 330 20:19 10.06.2020
1727 Clouds 17 1011 72 10000 5.1 330 19:40 10.06.2020
1728 Clouds 17 1011 72 10000 5.1 330 19:19 10.06.2020
1729 Clear 16 1012 72 10000 5.1 300 18:58 10.06.2020
1730 Clear 16 1012 72 10000 5.1 300 18:40 10.06.2020
1731 Clear 15 1013 82 8000 4.1 330 18:19 10.06.2020
1732 Clear 15 1013 82 8000 4.1 330 17:55 10.06.2020
1733 Clear 15 1013 82 8000 4.1 330 17:37 10.06.2020
1734 Clear 14 1013 82 8000 4.1 330 17:18 10.06.2020
1735 Mist 13 1013 93 5000 1.5 360 16:56 10.06.2020
1736 Mist 12 1013 93 5000 1.5 360 16:38 10.06.2020
1737 Mist 10 1013 93 5000 1.5 360 16:18 10.06.2020
1738 Mist 10 1013 93 5000 1.5 360 15:40 10.06.2020
1739 Mist 10 1013 93 5000 1.5 360 15:21 10.06.2020
1740 Mist 9 1013 93 4000 3.1 360 14:56 10.06.2020
1741 Mist 9 1013 93 4000 3.1 360 14:38 10.06.2020
1742 Mist 8 1013 93 4000 3.1 360 14:19 10.06.2020
1743 Fog 6 1013 100 4500 3.1 20 13:40 10.06.2020
1744 Fog 6 1013 100 4500 3.1 20 13:40 10.06.2020
1745 Mist 7 1012 100 4500 3.1 30 13:21 10.06.2020
1746 Mist 6 1012 100 4500 3.1 30 12:44 10.06.2020
1747 Fog 7 1012 100 3000 2.1 350 12:20 10.06.2020
1748 Fog 7 1012 100 3000 2.1 350 11:58 10.06.2020
1749 Mist 7 1012 100 5000 2.1 350 11:40 10.06.2020
1750 Mist 7 1012 100 5000 2.1 350 11:19 10.06.2020
1751 Mist 7 1012 100 5000 2.1 350 10:57 10.06.2020
1752 Mist 7 1012 100 5000 1.5 20 10:39 10.06.2020
1753 Mist 7 1012 100 5000 1.5 20 10:20 10.06.2020
1754 Fog 8 1012 100 1500 2.1 10 09:41 10.06.2020
1755 Fog 8 1012 100 1500 2.1 10 09:41 10.06.2020
1756 Fog 8 1012 100 1500 2.1 10 09:41 10.06.2020
1757 Fog 8 1012 100 1500 2.1 10 09:23 10.06.2020
1758 Fog 9 1012 100 200 2.1 10 08:44 10.06.2020
1759 Fog 9 1012 100 200 2.6 20 08:24 10.06.2020
1760 Fog 9 1012 100 200 2.6 20 07:58 10.06.2020
1761 Fog 9 1012 100 200 2.6 20 07:38 10.06.2020
1762 Fog 9 1012 100 200 2.6 20 07:20 10.06.2020
1763 Fog 10 1013 100 50 2.6 360 06:44 10.06.2020
1764 Fog 10 1013 100 50 2.1 10 06:22 10.06.2020
1765 Fog 10 1013 100 50 2.1 10 05:55 10.06.2020
1766 Fog 10 1013 100 50 2.1 10 05:25 10.06.2020
1767 Fog 10 1013 100 50 2.6 20 04:35 10.06.2020
1768 Fog 11 1013 100 50 0.5 340 02:56 10.06.2020
1769 Fog 11 1013 100 50 0.5 340 02:20 10.06.2020
1770 Fog 11 1013 100 50 1 360 01:36 10.06.2020
1771 Fog 12 1013 93 600 1.5 240 00:40 10.06.2020
1772 Mist 12 1013 93 1000 1.5 240 00:21 10.06.2020
1773 Mist 12 1013 93 1000 1.5 240 23:56 09.06.2020
1774 Mist 12 1013 93 1000 1.5 240 23:38 09.06.2020
1775 Mist 12 1013 93 1000 1.5 240 23:19 09.06.2020
1776 Mist 14 1013 82 3000 2.6 240 22:55 09.06.2020
1777 Mist 14 1013 82 3000 2.6 240 22:37 09.06.2020
1778 Mist 14 1013 82 3000 2.6 240 22:19 09.06.2020
1779 Mist 15 1013 82 4000 2.1 230 21:56 09.06.2020
1780 Mist 15 1013 82 4000 2.1 230 21:37 09.06.2020
1781 Mist 15 1013 82 4000 2.1 230 21:19 09.06.2020
1782 Mist 15 1013 82 4000 2.1 270 20:56 09.06.2020
1783 Mist 15 1013 82 4000 2.1 270 20:38 09.06.2020
1784 Mist 15 1014 87 4000 2.6 270 20:18 09.06.2020
1785 Mist 15 1014 87 4000 2.6 270 19:56 09.06.2020
1786 Mist 15 1014 87 4000 2.6 270 19:37 09.06.2020
1787 Mist 15 1014 100 2000 4.1 290 19:19 09.06.2020
1788 Mist 14 1014 100 2000 4.1 290 18:45 09.06.2020
1789 Mist 14 1014 100 2000 4.1 290 18:26 09.06.2020
1790 Mist 14 1015 100 2500 2.1 230 17:58 09.06.2020
1791 Mist 15 1015 100 2500 2.1 230 17:40 09.06.2020
1792 Mist 15 1015 100 2500 2.1 230 17:22 09.06.2020
1793 Mist 14 1016 100 1500 2.6 280 16:58 09.06.2020
1794 Mist 14 1016 100 1500 2.6 280 16:39 09.06.2020
1795 Mist 14 1016 100 1500 2.6 280 16:20 09.06.2020
1796 Fog 13 1016 100 400 2.6 320 15:40 09.06.2020
1797 Fog 13 1016 100 400 2.6 320 15:22 09.06.2020
1798 Fog 12 1015 100 600 1.5 330 14:59 09.06.2020
1799 Fog 12 1015 100 600 1.5 330 14:39 09.06.2020
1800 Fog 11 1015 100 600 1.5 330 14:19 09.06.2020
1801 Mist 10 1015 100 1000 1 0 13:55 09.06.2020
1802 Mist 11 1015 100 1000 1 0 13:37 09.06.2020
1803 Mist 10 1015 100 2000 1.5 330 13:19 09.06.2020
1804 Mist 10 1015 100 2000 1.5 330 12:42 09.06.2020
1805 Mist 10 1014 100 3000 2.1 310 12:20 09.06.2020
1806 Mist 10 1014 100 3000 2.1 310 11:58 09.06.2020
1807 Mist 10 1014 100 3000 2.1 310 11:40 09.06.2020
1808 Mist 9 1014 100 3000 2.1 310 11:20 09.06.2020
1809 Mist 10 1014 100 1500 2.6 310 10:55 09.06.2020
1810 Mist 10 1014 100 1500 2.6 310 10:36 09.06.2020
1811 Mist 10 1014 100 1500 2.6 310 10:18 09.06.2020
1812 Fog 10 1014 100 300 3.1 310 09:41 09.06.2020
1813 Fog 10 1014 100 300 3.1 310 09:22 09.06.2020
1814 Fog 11 1014 100 400 2.6 330 08:55 09.06.2020
1815 Fog 11 1014 100 400 2.6 330 08:36 09.06.2020
1816 Fog 11 1014 100 400 2.6 330 08:18 09.06.2020
1817 Fog 11 1014 100 400 2.1 310 07:37 09.06.2020
1818 Fog 12 1014 100 300 2.6 300 07:18 09.06.2020
1819 Fog 12 1014 100 300 2.6 300 06:52 09.06.2020
1820 Fog 12 1014 100 300 2.6 300 06:28 09.06.2020
1821 Mist 12 1015 100 2500 1.5 300 04:39 09.06.2020
1822 Mist 13 1014 100 4000 0.5 0 02:52 09.06.2020
1823 Mist 13 1014 93 5000 1.5 290 01:40 09.06.2020
1824 Mist 13 1014 93 5000 1.5 290 01:19 09.06.2020
1825 Mist 14 1014 100 2000 2.1 270 00:44 09.06.2020
1826 Fog 14 1014 100 1000 2.6 260 00:20 09.06.2020
1827 Fog 14 1014 100 1000 2.6 260 23:54 08.06.2020
1828 Fog 14 1014 100 1000 2.6 260 23:36 08.06.2020
1829 Fog 14 1014 100 1000 2.6 260 23:18 08.06.2020
1830 Drizzle 14 1014 100 800 3.1 280 22:39 08.06.2020
1831 Drizzle 14 1014 100 800 3.1 280 22:20 08.06.2020
1832 Drizzle 14 1014 100 2000 3.1 290 21:57 08.06.2020
1833 Drizzle 14 1014 100 2000 3.1 290 21:38 08.06.2020
1834 Mist 14 1014 100 2000 3.1 290 21:20 08.06.2020
1835 Clouds 15 1014 93 8000 2.6 280 20:55 08.06.2020
1836 Clouds 15 1014 93 8000 2.6 280 20:37 08.06.2020
1837 Clouds 15 1014 93 8000 2.6 280 20:19 08.06.2020
1838 Mist 15 1015 100 5000 3.1 280 19:44 08.06.2020
1839 Mist 15 1015 100 5000 3.1 280 19:22 08.06.2020
1840 Drizzle 14 1016 100 1200 2.6 290 18:58 08.06.2020
1841 Drizzle 14 1016 100 1200 2.6 290 18:39 08.06.2020
1842 Fog 14 1016 100 1000 2.1 20 18:18 08.06.2020
1843 Fog 14 1016 100 1000 2.1 20 17:54 08.06.2020
1844 Fog 14 1016 100 200 2.1 330 17:36 08.06.2020
1845 Fog 13 1016 100 100 1.5 330 17:18 08.06.2020
1846 Fog 13 1016 100 100 1.5 330 16:42 08.06.2020
1847 Fog 13 1016 100 100 1.5 330 16:22 08.06.2020
1848 Fog 13 1017 100 50 1.5 290 15:44 08.06.2020
1849 Fog 13 1017 100 50 1.5 290 15:22 08.06.2020
1850 Fog 13 1016 100 50 1.5 330 14:59 08.06.2020
1851 Fog 13 1016 100 50 1.5 330 14:40 08.06.2020
1852 Fog 13 1016 100 50 1.5 330 14:20 08.06.2020
1853 Fog 13 1016 100 50 3.11 288 13:44 08.06.2020
1854 Fog 13 1016 100 400 2.93 286 13:25 08.06.2020
1855 Fog 13 1016 100 50 1.5 360 12:44 08.06.2020
1856 Fog 13 1016 100 50 1.5 360 12:44 08.06.2020
1857 Fog 13 1016 100 50 1.5 360 12:44 08.06.2020
1858 Fog 13 1016 100 50 1.5 360 12:22 08.06.2020
1859 Clouds 13 1014 99 0 0.89 342 11:59 08.06.2020
1860 Clouds 13 1013 99 0 2.39 293 11:41 08.06.2020
1861 Mist 13 1016 100 5000 2.6 310 11:23 08.06.2020
1862 Mist 13 1016 100 5000 2.6 310 10:58 08.06.2020
1863 Mist 13 1016 100 5000 2.6 310 10:40 08.06.2020
1864 Mist 13 1016 100 5000 2.6 310 10:21 08.06.2020
1865 Mist 13 1016 100 5000 3.1 320 09:58 08.06.2020
1866 Mist 13 1016 100 5000 3.1 320 09:58 08.06.2020
1867 Mist 13 1016 100 2500 3.6 310 09:40 08.06.2020
1868 Mist 13 1016 100 2500 3.6 310 09:22 08.06.2020
1869 Mist 13 1016 100 1500 1.5 310 08:47 08.06.2020
1870 Mist 13 1016 100 1500 1.5 310 08:23 08.06.2020
1871 Fog 13 1016 100 400 2.1 310 07:46 08.06.2020
1872 Fog 13 1016 100 400 2.1 310 07:24 08.06.2020
1873 Fog 13 1016 100 700 1.96 271 06:51 08.06.2020
1874 Fog 13 1016 100 700 1.96 271 06:33 08.06.2020
1875 Fog 13 1016 100 700 1.25 253 05:52 08.06.2020
1876 Mist 13 1016 100 2500 1.56 227 04:29 08.06.2020
1877 Mist 14 1016 100 2500 1.64 208 02:32 08.06.2020
1878 Clouds 14 1015 99 0 2.17 192 01:55 08.06.2020
1879 Fog 14 1016 100 200 4.1 280 01:30 08.06.2020
1880 Fog 14 1016 100 200 4.1 280 00:33 08.06.2020
1881 Fog 14 1016 100 200 1.5 240 23:58 07.06.2020
1882 Fog 14 1016 100 200 1.5 240 23:36 07.06.2020
1883 Mist 14 1015 100 1200 1.5 210 23:18 07.06.2020
1884 Mist 14 1015 100 1200 1.5 210 22:39 07.06.2020
1885 Fog 14 1015 100 800 2.6 220 22:20 07.06.2020
1886 Drizzle 15 1015 93 3000 2.1 240 21:59 07.06.2020
1887 Drizzle 15 1015 93 3000 2.1 240 21:39 07.06.2020
1888 Drizzle 15 1015 93 3000 2.1 240 21:20 07.06.2020
1889 Drizzle 15 1015 93 3000 2.1 240 21:20 07.06.2020
1890 Mist 15 1015 93 3000 2.1 240 20:57 07.06.2020
1891 Clouds 16 1015 87 10000 2.1 240 20:38 07.06.2020
1892 Clouds 16 1015 87 10000 2.1 240 20:19 07.06.2020
1893 Clouds 16 1015 93 10000 2.6 290 19:56 07.06.2020
1894 Clouds 16 1015 93 10000 2.6 290 19:38 07.06.2020
1895 Mist 16 1015 87 1500 3.1 250 19:19 07.06.2020
1896 Drizzle 16 1015 87 1500 3.1 250 18:55 07.06.2020
1897 Clouds 16 1015 87 10000 2.6 240 18:36 07.06.2020
1898 Clouds 16 1015 93 10000 3.1 220 18:18 07.06.2020
1899 Clouds 16 1015 93 10000 3.1 220 17:55 07.06.2020
1900 Clouds 16 1015 93 10000 3.1 220 17:36 07.06.2020
1901 Clouds 16 1015 93 10000 3.1 220 17:18 07.06.2020
1902 Clouds 16 1016 93 8000 1.5 210 16:41 07.06.2020
1903 Clouds 15 1016 93 8000 1.5 210 16:21 07.06.2020
1904 Mist 15 1015 93 4000 2.1 150 15:40 07.06.2020
1905 Mist 15 1015 93 4000 2.1 150 15:20 07.06.2020
1906 Fog 14 1015 93 500 1.5 180 14:40 07.06.2020
1907 Fog 14 1015 93 500 1.5 180 14:21 07.06.2020
1908 Fog 14 1015 100 300 2.86 162 13:47 07.06.2020
1909 Fog 13 1015 100 300 3.08 143 13:21 07.06.2020
1910 Fog 13 1014 100 700 3.08 143 12:55 07.06.2020
1911 Fog 13 1014 100 700 3.08 143 12:36 07.06.2020
1912 Clouds 13 1013 100 10000 3.56 144 12:18 07.06.2020
1913 Clouds 13 1013 100 10000 3.56 144 11:55 07.06.2020
1914 Clouds 13 1013 100 10000 3.56 144 11:36 07.06.2020
1915 Clouds 13 1013 100 10000 3.66 150 11:18 07.06.2020
1916 Clouds 14 1013 93 10000 3.66 150 10:42 07.06.2020
1917 Clouds 14 1013 93 10000 3.94 148 10:20 07.06.2020
1918 Clouds 14 1013 93 10000 1.5 270 09:57 07.06.2020
1919 Clouds 14 1013 93 10000 1.5 270 09:38 07.06.2020
1920 Clouds 14 1013 93 10000 1.5 270 09:20 07.06.2020
1921 Clouds 14 1013 100 10000 2.6 50 08:48 07.06.2020
1922 Clouds 14 1013 100 10000 2.6 50 08:24 07.06.2020
1923 Clouds 14 1013 100 10000 2.6 50 08:24 07.06.2020
1924 Clouds 14 1012 100 8000 4.1 90 07:57 07.06.2020
1925 Clouds 14 1012 100 8000 4.1 90 07:30 07.06.2020
1926 Clouds 14 1012 100 8000 4.1 110 06:51 07.06.2020
1927 Clouds 14 1012 100 7000 4.1 130 05:50 07.06.2020
1928 Drizzle 15 1012 100 3000 4.1 130 04:21 07.06.2020
1929 Drizzle 15 1012 100 4000 5.7 140 02:36 07.06.2020
1930 Drizzle 15 1012 100 4000 7.2 160 01:58 07.06.2020
1931 Drizzle 15 1012 100 4000 7.2 160 01:25 07.06.2020
1932 Mist 15 1012 100 1800 4.1 150 00:47 07.06.2020
1933 Drizzle 15 1012 100 1800 4.1 150 00:19 07.06.2020
1934 Drizzle 15 1012 100 700 8.2 120 23:58 06.06.2020
1935 Drizzle 15 1012 100 700 8.2 120 23:37 06.06.2020
1936 Fog 15 1012 100 700 8.2 120 23:19 06.06.2020
1937 Fog 15 1012 100 800 7.2 120 22:56 06.06.2020
1938 Fog 15 1012 100 800 7.2 120 22:38 06.06.2020
1939 Fog 15 1012 100 800 7.2 120 22:18 06.06.2020
1940 Fog 15 1011 100 700 7.2 120 21:45 06.06.2020
1941 Fog 15 1011 100 700 7.2 120 21:22 06.06.2020
1942 Drizzle 15 1011 100 700 6.2 120 20:57 06.06.2020
1943 Fog 15 1011 100 700 6.2 120 20:38 06.06.2020
1944 Fog 15 1011 100 700 6.2 120 20:18 06.06.2020
1945 Fog 15 1011 100 700 6.2 120 20:18 06.06.2020
1946 Fog 15 1012 100 700 7.7 120 19:57 06.06.2020
1947 Fog 15 1012 100 700 7.7 120 19:38 06.06.2020
1948 Drizzle 15 1012 100 1200 6.2 140 19:20 06.06.2020
1949 Fog 15 1012 100 800 8.2 120 18:43 06.06.2020
1950 Drizzle 15 1012 100 800 8.2 120 18:24 06.06.2020
1951 Fog 16 1013 93 800 9.3 120 17:58 06.06.2020
1952 Mist 16 1013 93 2000 7.7 120 17:40 06.06.2020
1953 Mist 16 1013 100 2000 7.7 130 17:19 06.06.2020
1954 Mist 16 1013 100 2000 7.7 130 17:19 06.06.2020
1955 Drizzle 16 1014 87 7000 8.2 120 16:48 06.06.2020
1956 Drizzle 16 1014 87 7000 8.2 120 16:23 06.06.2020
1957 Drizzle 16 1013 87 10000 7.7 120 15:58 06.06.2020
1958 Drizzle 16 1013 87 10000 7.7 120 15:40 06.06.2020
1959 Drizzle 16 1013 87 10000 7.7 120 15:20 06.06.2020
1960 Clouds 16 1013 87 10000 7.7 120 14:54 06.06.2020
1961 Clouds 16 1013 87 10000 7.7 120 14:36 06.06.2020
1962 Clouds 16 1013 87 10000 7.7 120 14:18 06.06.2020
1963 Rain 15 1013 93 10000 5.1 120 13:41 06.06.2020
1964 Rain 15 1013 93 10000 6.2 120 13:18 06.06.2020
1965 Clouds 15 1013 100 10000 7.7 120 12:43 06.06.2020
1966 Clouds 15 1013 100 10000 7.7 120 12:43 06.06.2020
1967 Clouds 15 1013 100 10000 7.7 120 12:43 06.06.2020
1968 Clouds 15 1013 100 10000 7.7 120 12:43 06.06.2020
1969 Clouds 15 1013 100 10000 7.7 120 12:43 06.06.2020
1970 Clouds 15 1013 100 10000 7.7 120 12:24 06.06.2020
1971 Rain 14 1013 100 6000 6.7 120 11:59 06.06.2020
1972 Rain 14 1013 100 6000 6.7 120 11:39 06.06.2020
1973 Rain 14 1013 100 6000 6.7 120 11:20 06.06.2020
1974 Rain 15 1014 100 6000 5.7 120 10:59 06.06.2020
1975 Rain 14 1014 100 6000 5.7 120 10:40 06.06.2020
1976 Rain 14 1014 100 6000 5.7 120 10:21 06.06.2020
1977 Rain 15 1014 93 7000 6.7 110 09:59 06.06.2020
1978 Rain 15 1014 93 7000 6.7 110 09:40 06.06.2020
1979 Rain 15 1014 93 7000 6.7 110 09:21 06.06.2020
1980 Rain 15 1014 93 7000 7.2 110 08:45 06.06.2020
1981 Rain 15 1014 93 7000 7.2 110 08:24 06.06.2020
1982 Rain 15 1015 93 10000 6.2 120 07:49 06.06.2020
1983 Rain 15 1015 93 10000 6.2 120 07:23 06.06.2020
1984 Clouds 15 1015 93 10000 6.7 120 06:52 06.06.2020
1985 Clouds 15 1015 93 10000 6.7 120 06:34 06.06.2020
1986 Clouds 15 1016 93 10000 7.7 110 05:59 06.06.2020
1987 Clouds 16 1016 93 10000 7.7 110 05:31 06.06.2020
1988 Clouds 16 1016 93 10000 6.2 110 04:47 06.06.2020
1989 Clouds 16 1016 93 10000 6.2 130 03:28 06.06.2020
1990 Clouds 16 1016 100 10000 8.2 110 01:58 06.06.2020
1991 Clouds 15 1016 100 10000 8.2 110 01:21 06.06.2020
1992 Clouds 15 1016 100 10000 7.7 120 00:47 06.06.2020
1993 Clouds 15 1016 100 10000 7.7 120 00:28 06.06.2020
1994 Clouds 15 1016 93 10000 5.7 100 23:59 05.06.2020
1995 Clouds 15 1016 93 10000 5.7 100 23:39 05.06.2020
1996 Clouds 15 1016 93 10000 5.7 100 23:19 05.06.2020
1997 Clouds 16 1016 87 10000 5.1 90 22:56 05.06.2020
1998 Clouds 16 1016 87 10000 5.1 90 22:37 05.06.2020
1999 Clouds 16 1016 87 10000 5.1 90 22:18 05.06.2020
2000 Clouds 16 1017 87 10000 4.6 120 21:42 05.06.2020
2001 Clouds 16 1017 87 10000 4.6 120 21:22 05.06.2020
2002 Clouds 16 1017 87 10000 5.1 110 20:58 05.06.2020
2003 Clouds 16 1017 87 10000 5.1 110 20:39 05.06.2020
2004 Clouds 16 1017 87 10000 5.1 110 20:21 05.06.2020
2005 Clouds 16 1018 87 10000 5.1 110 19:42 05.06.2020
2006 Clouds 16 1018 87 10000 5.1 110 19:23 05.06.2020
2007 Clouds 15 1019 87 10000 3.6 120 18:57 05.06.2020
2008 Clouds 16 1019 87 10000 3.6 120 18:38 05.06.2020
2009 Clouds 15 1020 87 10000 4.6 110 18:19 05.06.2020
2010 Clouds 15 1020 87 10000 4.6 110 17:57 05.06.2020
2011 Clouds 15 1020 93 8000 5.7 120 17:39 05.06.2020
2012 Clouds 15 1020 93 8000 5.7 120 17:19 05.06.2020
2013 Clouds 15 1021 93 8000 4.6 100 16:39 05.06.2020
2014 Clouds 15 1021 93 8000 4.6 100 16:39 05.06.2020
2015 Clouds 14 1021 93 8000 4.6 100 16:20 05.06.2020
2016 Clouds 14 1021 93 8000 6.2 120 15:55 05.06.2020
2017 Clouds 14 1021 93 8000 6.2 120 15:36 05.06.2020
2018 Clouds 13 1021 93 8000 6.2 120 15:18 05.06.2020
2019 Mist 12 1019 93 6000 4.6 120 14:40 05.06.2020
2020 Mist 12 1019 93 6000 4.6 120 14:22 05.06.2020
2021 Mist 12 1020 93 6000 4.1 120 13:59 05.06.2020
2022 Mist 12 1022 93 6000 4.1 110 13:40 05.06.2020
2023 Mist 12 1022 93 6000 4.1 110 13:22 05.06.2020
2024 Clouds 12 1022 93 10000 4.1 110 12:42 05.06.2020
2025 Clouds 11 1022 93 10000 4.1 110 12:20 05.06.2020
2026 Clouds 11 1022 100 10000 3.6 110 11:56 05.06.2020
2027 Clouds 11 1022 100 10000 3.6 110 11:38 05.06.2020
2028 Clouds 11 1022 100 10000 3.6 110 11:20 05.06.2020
2029 Clouds 11 1021 100 10000 4.6 100 10:54 05.06.2020
2030 Clouds 11 1021 100 10000 4.6 100 10:36 05.06.2020
2031 Clouds 11 1021 100 10000 4.6 100 10:18 05.06.2020
2032 Clouds 11 1022 93 10000 3.6 130 09:54 05.06.2020
2033 Clouds 11 1022 93 10000 3.6 130 09:36 05.06.2020
2034 Clouds 11 1022 93 10000 3.6 130 09:18 05.06.2020
2035 Clouds 10 1022 93 10000 3.1 120 08:41 05.06.2020
2036 Clouds 10 1022 93 10000 3.1 120 08:19 05.06.2020
2037 Clouds 10 1023 87 10000 2.1 130 07:55 05.06.2020
2038 Clouds 10 1023 87 10000 2.1 130 07:36 05.06.2020
2039 Clear 9 1023 87 10000 3.1 130 06:54 05.06.2020
2040 Clear 9 1023 81 10000 2.6 110 05:24 05.06.2020
2041 Clear 9 1024 81 10000 2.1 50 04:44 05.06.2020
2042 Clear 10 1025 93 9000 1.5 80 03:53 05.06.2020
2043 Clear 11 1025 93 8000 2.1 120 02:44 05.06.2020
2044 Clear 11 1025 93 8000 2.1 120 02:18 05.06.2020
2045 Fog 11 1024 93 5000 2.1 140 01:49 05.06.2020
2046 Smoke 11 1023 87 2000 2.6 120 00:59 05.06.2020
2047 Smoke 11 1023 87 2000 2.6 120 00:39 05.06.2020
2048 Mist 12 1023 81 4000 2.1 120 00:19 05.06.2020
2049 Mist 11 1023 81 4000 2.1 120 23:46 04.06.2020
2050 Mist 12 1023 81 4000 2.1 120 23:25 04.06.2020
2051 Clouds 14 1023 71 10000 4.1 90 22:45 04.06.2020
2052 Clouds 14 1023 71 10000 4.1 90 22:23 04.06.2020
2053 Clouds 14 1024 71 10000 3.1 90 21:59 04.06.2020
2054 Clouds 14 1024 71 10000 3.1 90 21:40 04.06.2020
2055 Clouds 14 1024 71 10000 3.1 90 21:22 04.06.2020
2056 Clouds 14 1024 71 10000 3.1 90 21:22 04.06.2020
2057 Clouds 14 1024 71 10000 5.1 130 20:59 04.06.2020
2058 Clouds 14 1024 71 10000 5.1 130 20:39 04.06.2020
2059 Clouds 14 1024 71 10000 5.1 130 20:20 04.06.2020
2060 Smoke 14 1025 67 4000 4.1 130 19:57 04.06.2020
2061 Smoke 14 1025 67 4000 4.1 130 19:38 04.06.2020
2062 Smoke 14 1025 67 4000 4.1 130 19:20 04.06.2020
2063 Smoke 14 1026 62 3000 3.1 180 18:40 04.06.2020
2064 Smoke 14 1027 71 3000 3.6 170 18:21 04.06.2020
2065 Smoke 13 1027 71 3000 3.6 170 17:59 04.06.2020
2066 Mist 13 1027 71 1500 3.1 160 17:41 04.06.2020
2067 Mist 13 1027 71 1500 3.1 160 17:41 04.06.2020
2068 Smoke 13 1027 71 1500 3.1 160 17:20 04.06.2020
2069 Clear 12 1027 76 7000 0.73 52 16:41 04.06.2020
2070 Clear 12 1027 76 7000 0.58 355 16:21 04.06.2020
2071 Clear 10 1027 100 8000 0.58 355 15:58 04.06.2020
2072 Clear 9 1027 93 7000 2.6 20 15:40 04.06.2020
2073 Clear 8 1027 93 7000 2.6 20 15:22 04.06.2020
2074 Clear 8 1027 93 7000 2.6 20 15:22 04.06.2020
2075 Clear 4 1027 100 7000 1 0 14:39 04.06.2020
2076 Clear 5 1027 100 7000 1 0 14:19 04.06.2020
2077 Clouds 3 1027 100 5000 1 0 13:56 04.06.2020
2078 Fog 3 1027 100 400 1 0 13:37 04.06.2020
2079 Fog 3 1027 100 300 1 0 13:19 04.06.2020
2080 Fog 3 1027 100 300 1 0 12:54 04.06.2020
2081 Fog 4 1026 100 50 1.67 340 12:36 04.06.2020
2082 Fog 3 1026 100 50 1 0 12:18 04.06.2020
2083 Fog 3 1026 100 50 1 0 11:39 04.06.2020
2084 Fog 3 1026 100 50 1 0 11:20 04.06.2020
2085 Fog 3 1025 100 50 1 0 10:58 04.06.2020
2086 Fog 3 1025 100 50 1 0 10:38 04.06.2020
2087 Fog 3 1025 100 50 1 0 10:20 04.06.2020
2088 Fog 3 1025 100 50 2.24 0 09:45 04.06.2020
2089 Fog 3 1025 100 50 2.04 7 09:27 04.06.2020
2090 Fog 4 1027 100 50 1 0 08:50 04.06.2020
2091 Fog 4 1027 100 50 1 0 08:30 04.06.2020
2092 Fog 5 1027 93 50 1 0 07:59 04.06.2020
2093 Fog 6 1027 93 50 1 0 07:30 04.06.2020
2094 Fog 8 1027 100 600 1 0 06:45 04.06.2020
2095 Fog 6 1027 100 50 1 0 06:26 04.06.2020
2096 Fog 6 1027 100 50 1 0 05:51 04.06.2020
2097 Fog 6 1027 100 50 1 0 05:30 04.06.2020
2098 Mist 9 1026 93 3000 1 0 03:31 04.06.2020
2099 Clouds 10 1025 87 10000 2.1 190 01:59 04.06.2020
2100 Clouds 10 1025 87 10000 2.1 190 01:20 04.06.2020
2101 Clouds 10 1025 93 10000 2.1 190 00:51 04.06.2020
2102 Clouds 11 1025 87 10000 1.5 190 23:56 03.06.2020
2103 Clouds 11 1025 87 10000 1.5 190 23:36 03.06.2020
2104 Clouds 11 1025 87 10000 1.5 190 23:18 03.06.2020
2105 Clouds 13 1024 66 10000 1 0 22:40 03.06.2020
2106 Clouds 13 1024 66 10000 1 0 22:19 03.06.2020
2107 Clouds 14 1024 58 10000 2.1 250 21:59 03.06.2020
2108 Clouds 14 1024 58 10000 2.1 250 21:40 03.06.2020
2109 Clouds 14 1024 58 10000 2.1 250 21:21 03.06.2020
2110 Clouds 14 1024 58 10000 2.1 250 21:21 03.06.2020
2111 Clouds 15 1024 54 10000 3.1 240 20:58 03.06.2020
2112 Clouds 15 1024 54 10000 3.1 240 20:39 03.06.2020
2113 Clouds 15 1024 54 10000 3.1 240 20:20 03.06.2020
2114 Clouds 15 1024 54 10000 3.1 240 19:57 03.06.2020
2115 Clouds 15 1024 51 10000 2.6 270 19:37 03.06.2020
2116 Clouds 15 1024 51 10000 2.6 270 19:37 03.06.2020
2117 Clouds 16 1024 48 10000 2.6 230 19:19 03.06.2020
2118 Clouds 16 1024 48 10000 2.6 230 18:55 03.06.2020
2119 Clouds 16 1025 51 10000 3.1 300 18:37 03.06.2020
2120 Clouds 14 1025 62 10000 1.5 340 18:18 03.06.2020
2121 Clouds 14 1025 62 10000 1.5 340 17:42 03.06.2020
2122 Clouds 14 1025 62 10000 1.5 340 17:21 03.06.2020
2123 Clouds 13 1025 71 10000 2.1 340 16:55 03.06.2020
2124 Clouds 13 1025 71 10000 2.1 340 16:37 03.06.2020
2125 Clouds 10 1024 81 10000 2.1 350 16:18 03.06.2020
2126 Clouds 10 1024 81 10000 2.1 350 16:18 03.06.2020
2127 Clouds 10 1024 81 10000 2.1 350 15:41 03.06.2020
2128 Clouds 9 1024 81 10000 2.1 350 15:21 03.06.2020
2129 Clouds 6 1023 87 10000 3.1 350 14:57 03.06.2020
2130 Clouds 6 1023 87 10000 3.1 350 14:38 03.06.2020
2131 Clear 6 1023 87 10000 3.1 350 14:20 03.06.2020
2132 Clear 4 1023 86 10000 1.5 10 13:38 03.06.2020
2133 Clear 5 1022 86 10000 1.5 20 13:19 03.06.2020
2134 Clear 5 1022 86 10000 1.5 20 12:43 03.06.2020
2135 Clear 4 1023 95 0 0.45 21 12:22 03.06.2020
2136 Clear 3 1023 94 0 3.14 328 11:57 03.06.2020
2137 Clear 4 1022 94 0 3.14 328 11:38 03.06.2020
2138 Clear 4 1021 80 10000 1.5 10 11:20 03.06.2020
2139 Clear 4 1021 80 10000 1.5 10 10:41 03.06.2020
2140 Clear 5 1021 80 10000 1.5 10 10:22 03.06.2020
2141 Clear 4 1021 86 10000 2.1 340 09:45 03.06.2020
2142 Clear 4 1021 86 10000 2.1 340 09:20 03.06.2020
2143 Clear 5 1021 75 10000 1.5 350 08:58 03.06.2020
2144 Clear 5 1021 75 10000 1.5 350 08:58 03.06.2020
2145 Clear 5 1021 75 10000 1.5 350 08:58 03.06.2020
2146 Clear 5 1021 75 10000 1.5 350 08:58 03.06.2020
2147 Clear 5 1021 75 10000 1.5 350 08:40 03.06.2020
2148 Clouds 5 1021 75 10000 1.5 350 08:19 03.06.2020
2149 Clouds 5 1021 86 10000 3.1 360 07:42 03.06.2020
2150 Clouds 6 1021 81 10000 1 0 07:20 03.06.2020
2151 Clouds 6 1021 81 10000 1 0 06:52 03.06.2020
2152 Clouds 6 1021 81 10000 1 0 06:30 03.06.2020
2153 Mist 6 1021 81 5000 2.1 350 05:47 03.06.2020
2154 Mist 6 1020 87 3000 2.1 10 04:57 03.06.2020
2155 Mist 7 1020 87 2500 1.5 20 03:51 03.06.2020
2156 Mist 8 1020 87 2500 1.5 20 03:20 03.06.2020
2157 Mist 10 1020 87 3000 3.41 325 01:53 03.06.2020
2158 Clear 10 1019 81 10000 3.16 337 00:44 03.06.2020
2159 Clear 10 1019 81 10000 2.74 329 00:25 03.06.2020
2160 Clear 11 1019 81 10000 2.74 329 23:52 02.06.2020
2161 Clear 11 1019 81 10000 3.13 292 23:28 02.06.2020
2162 Clear 11 1019 81 10000 3.13 292 23:28 02.06.2020
2163 Clear 13 1019 66 10000 1.5 300 22:57 02.06.2020
2164 Clear 13 1019 66 10000 1.5 300 22:38 02.06.2020
2165 Clear 13 1019 66 10000 1.5 300 22:19 02.06.2020
2166 Clear 14 1019 62 10000 3.1 20 21:56 02.06.2020
2167 Clear 14 1019 62 10000 3.1 20 21:38 02.06.2020
2168 Clear 14 1019 62 10000 3.1 20 21:19 02.06.2020
2169 Clear 14 1019 62 10000 2.1 320 20:57 02.06.2020
2170 Clear 14 1019 62 10000 2.1 320 20:39 02.06.2020
2171 Clear 14 1019 62 10000 2.1 320 20:20 02.06.2020
2172 Clouds 14 1020 62 10000 2.6 300 19:43 02.06.2020
2173 Clouds 14 1020 62 10000 2.6 300 19:25 02.06.2020
2174 Clouds 14 1021 66 10000 2.6 300 18:57 02.06.2020
2175 Clouds 14 1021 66 10000 2.6 300 18:57 02.06.2020
2176 Clouds 13 1021 66 10000 2.6 300 18:39 02.06.2020
2177 Clouds 13 1022 66 10000 3.1 340 18:20 02.06.2020
2178 Clouds 13 1022 66 10000 3.1 340 17:55 02.06.2020
2179 Clouds 13 1022 66 10000 3.1 340 17:37 02.06.2020
2180 Clouds 13 1022 66 10000 3.1 340 17:18 02.06.2020
2181 Clouds 13 1023 71 10000 3.1 310 16:41 02.06.2020
2182 Clouds 12 1023 71 10000 3.1 310 16:21 02.06.2020
2183 Clouds 11 1022 76 10000 2.6 320 15:59 02.06.2020
2184 Clouds 11 1022 76 10000 2.6 320 15:40 02.06.2020
2185 Clouds 11 1022 76 10000 2.6 320 15:20 02.06.2020
2186 Clouds 8 1022 93 10000 1.5 360 14:46 02.06.2020
2187 Clouds 8 1022 93 10000 1.5 360 14:27 02.06.2020
2188 Clouds 5 1022 93 10000 1.5 360 13:55 02.06.2020
2189 Clouds 5 1022 93 10000 1.5 360 13:36 02.06.2020
2190 Clouds 6 1022 93 10000 1.5 360 13:18 02.06.2020
2191 Clear 6 1021 93 10000 1.5 340 12:54 02.06.2020
2192 Clear 6 1021 93 10000 1.5 340 12:36 02.06.2020
2193 Clear 6 1021 93 10000 1.5 340 12:36 02.06.2020
2194 Clear 6 1021 93 10000 1.5 340 12:18 02.06.2020
2195 Clouds 7 1021 87 10000 2.6 300 11:40 02.06.2020
2196 Clouds 7 1021 87 10000 2.6 300 11:21 02.06.2020
2197 Clouds 8 1021 81 10000 1.5 290 10:55 02.06.2020
2198 Clouds 8 1021 81 10000 1.5 290 10:37 02.06.2020
2199 Clouds 8 1021 81 10000 1.5 290 10:18 02.06.2020
2200 Clouds 9 1021 87 10000 1.5 330 09:42 02.06.2020
2201 Clouds 10 1021 87 10000 1.5 330 09:21 02.06.2020
2202 Clouds 10 1021 87 10000 1.5 320 08:53 02.06.2020
2203 Clouds 10 1021 87 10000 1.5 320 08:28 02.06.2020
2204 Clouds 10 1021 93 10000 1 0 07:55 02.06.2020
2205 Clouds 10 1021 93 10000 1 0 07:32 02.06.2020
2206 Clouds 10 1022 87 10000 2.57 242 06:58 02.06.2020
2207 Clouds 10 1022 87 10000 2.57 242 06:36 02.06.2020
2208 Clouds 10 1022 81 10000 1 0 05:31 02.06.2020
2209 Clouds 11 1022 66 10000 2.1 190 03:54 02.06.2020
2210 Clouds 11 1021 71 10000 3.6 200 02:37 02.06.2020
2211 Clouds 11 1021 76 10000 3.1 220 01:48 02.06.2020
2212 Clouds 11 1021 93 10000 1.5 210 00:40 02.06.2020
2213 Clouds 11 1021 93 10000 1.5 210 00:20 02.06.2020
2214 Clouds 11 1021 93 10000 2.6 240 23:39 01.06.2020
2215 Clouds 11 1021 93 10000 2.6 240 23:19 01.06.2020
2216 Clouds 11 1021 87 10000 3.1 240 22:56 01.06.2020
2217 Clouds 11 1021 87 10000 3.1 240 22:38 01.06.2020
2218 Clouds 11 1021 87 10000 3.1 240 22:18 01.06.2020
2219 Clouds 11 1021 87 10000 3.6 210 21:41 01.06.2020
2220 Clouds 11 1021 87 10000 3.6 210 21:21 01.06.2020
2221 Rain 12 1021 76 5000 4.6 240 20:59 01.06.2020
2222 Clouds 11 1021 84 0 1.79 277 20:41 01.06.2020
2223 Clouds 12 1021 76 10000 5.7 210 20:20 01.06.2020
2224 Clouds 13 1021 76 10000 5.7 210 19:58 01.06.2020
2225 Clouds 12 1021 76 10000 5.7 210 19:39 01.06.2020
2226 Clouds 13 1021 76 10000 5.7 250 19:20 01.06.2020
2227 Clouds 12 1021 76 10000 5.7 250 18:57 01.06.2020
2228 Clouds 13 1021 76 10000 5.7 250 18:38 01.06.2020
2229 Clouds 12 1022 76 10000 5.7 240 18:19 01.06.2020
2230 Clouds 12 1022 76 10000 5.7 240 17:41 01.06.2020
2231 Clouds 12 1022 76 10000 5.7 240 17:21 01.06.2020
2232 Clouds 11 1022 81 10000 5.7 240 16:58 01.06.2020
2233 Clouds 11 1022 81 10000 5.7 240 16:39 01.06.2020
2234 Clouds 11 1021 93 10000 5.1 240 16:18 01.06.2020
2235 Clouds 11 1021 93 10000 5.1 240 15:45 01.06.2020
2236 Clouds 11 1021 93 10000 5.1 240 15:21 01.06.2020
2237 Rain 11 1021 87 6000 4.6 260 14:59 01.06.2020
2238 Rain 11 1021 87 6000 4.6 260 14:41 01.06.2020
2239 Rain 10 1021 87 6000 4.6 260 14:21 01.06.2020
2240 Clouds 10 1020 87 10000 4.1 250 13:58 01.06.2020
2241 Clouds 10 1020 87 10000 4.1 250 13:39 01.06.2020
2242 Clouds 10 1020 87 10000 4.1 250 13:20 01.06.2020
2243 Clouds 10 1020 93 10000 4.1 250 12:57 01.06.2020
2244 Clouds 10 1020 93 10000 4.1 250 12:39 01.06.2020
2245 Clouds 10 1020 93 10000 4.1 250 12:20 01.06.2020
2246 Clouds 10 1019 81 10000 5.7 240 11:41 01.06.2020
2247 Clouds 10 1019 81 10000 5.7 240 11:23 01.06.2020
2248 Clouds 10 1018 71 10000 5.7 230 10:59 01.06.2020
2249 Clouds 10 1018 71 10000 5.7 230 10:39 01.06.2020
2250 Clouds 10 1018 71 10000 5.7 230 10:20 01.06.2020
2251 Clouds 10 1018 71 10000 6.2 230 09:56 01.06.2020
2252 Clouds 10 1018 71 10000 6.2 230 09:38 01.06.2020
2253 Clouds 10 1018 71 10000 6.2 230 09:19 01.06.2020
2254 Clouds 10 1018 71 10000 5.7 220 08:46 01.06.2020
2255 Clouds 10 1018 71 10000 5.7 220 08:25 01.06.2020
2256 Clouds 11 1018 66 10000 6.2 220 07:45 01.06.2020
2257 Clouds 11 1018 66 10000 6.2 220 07:27 01.06.2020
2258 Clouds 11 1018 66 10000 6.7 220 06:57 01.06.2020
2259 Clouds 11 1018 66 10000 6.7 220 06:20 01.06.2020
2260 Clouds 11 1018 66 10000 7.2 220 05:50 01.06.2020
2261 Clouds 11 1018 66 10000 6.7 220 04:23 01.06.2020
2262 Clouds 11 1018 71 10000 6.7 220 03:46 01.06.2020
2263 Clouds 12 1018 71 10000 6.7 230 03:18 01.06.2020
2264 Clouds 12 1017 66 10000 7.2 230 01:50 01.06.2020
2265 Clouds 12 1017 66 10000 7.2 230 01:30 01.06.2020
2266 Clouds 12 1017 71 10000 5.1 240 00:57 01.06.2020
2267 Clouds 12 1017 71 10000 5.1 240 00:39 01.06.2020
2268 Clouds 12 1017 71 10000 5.1 240 00:21 01.06.2020
2269 Clouds 12 1016 71 10000 7.7 240 23:56 31.05.2020
2270 Clouds 12 1016 71 10000 7.7 240 23:37 31.05.2020
2271 Clouds 12 1016 71 10000 7.7 240 23:19 31.05.2020
2272 Clouds 12 1016 71 10000 5.1 240 22:43 31.05.2020
2273 Clouds 12 1016 71 10000 5.1 240 22:25 31.05.2020
2274 Clouds 12 1016 71 10000 10.3 240 21:58 31.05.2020
2275 Clouds 12 1016 71 10000 10.3 240 21:39 31.05.2020
2276 Clouds 12 1016 71 10000 10.3 240 21:39 31.05.2020
2277 Drizzle 12 1015 76 3000 7.2 240 21:21 31.05.2020
2278 Drizzle 12 1015 76 3000 7.2 240 21:21 31.05.2020
2279 Drizzle 12 1015 76 9000 7.7 250 20:57 31.05.2020
2280 Drizzle 11 1015 76 9000 7.7 250 20:38 31.05.2020
2281 Drizzle 11 1015 76 9000 7.7 250 20:19 31.05.2020
2282 Clouds 11 1015 76 8000 7.7 250 19:54 31.05.2020
2283 Drizzle 11 1015 76 6000 7.7 250 19:36 31.05.2020
2284 Clouds 11 1015 81 10000 7.7 260 19:18 31.05.2020
2285 Clouds 11 1015 81 10000 7.7 260 18:43 31.05.2020
2286 Clouds 11 1015 81 10000 7.7 260 18:24 31.05.2020
2287 Clouds 11 1015 76 10000 10.3 270 17:44 31.05.2020
2288 Clouds 11 1015 76 10000 10.3 270 17:24 31.05.2020
2289 Clouds 11 1015 76 10000 10.3 270 16:58 31.05.2020
2290 Clouds 11 1015 76 10000 10.3 270 16:58 31.05.2020
2291 Clouds 11 1015 76 10000 10.3 270 16:38 31.05.2020
2292 Clouds 10 1015 76 10000 10.3 270 16:18 31.05.2020
2293 Clouds 10 1014 76 10000 10.3 270 15:39 31.05.2020
2294 Clouds 10 1014 76 10000 10.3 270 15:21 31.05.2020
2295 Clouds 10 1014 76 10000 10.3 270 14:47 31.05.2020
2296 Clouds 10 1014 76 10000 10.3 270 14:22 31.05.2020
2297 Clouds 10 1013 76 10000 10.3 270 13:56 31.05.2020
2298 Clouds 9 1013 76 10000 10.3 270 13:38 31.05.2020
2299 Clouds 9 1013 76 10000 10.3 270 13:20 31.05.2020
2300 Clouds 9 1013 76 10000 12.9 270 12:57 31.05.2020
2301 Clouds 9 1013 76 10000 12.9 270 12:37 31.05.2020
2302 Clouds 9 1013 76 10000 12.9 270 12:19 31.05.2020
2303 Clouds 9 1012 70 10000 10.3 260 11:48 31.05.2020
2304 Clouds 9 1012 70 10000 10.3 260 11:23 31.05.2020
2305 Clouds 9 1013 70 10000 9.3 260 10:57 31.05.2020
2306 Clouds 9 1013 70 10000 9.3 260 10:38 31.05.2020
2307 Clouds 9 1013 70 10000 9.3 260 10:19 31.05.2020
2308 Clouds 9 1013 70 10000 10.3 270 09:42 31.05.2020
2309 Clouds 9 1013 70 10000 10.3 270 09:23 31.05.2020
2310 Clouds 9 1013 70 10000 9.8 280 08:58 31.05.2020
2311 Clouds 9 1013 70 10000 9.8 280 08:37 31.05.2020
2312 Clouds 9 1013 70 10000 9.8 280 08:19 31.05.2020
2313 Clouds 9 1013 66 10000 8.7 270 07:43 31.05.2020
2314 Clouds 9 1013 66 10000 8.7 270 07:21 31.05.2020
2315 Clouds 10 1013 71 10000 8.7 270 06:54 31.05.2020
2316 Clouds 10 1013 71 10000 8.7 270 06:31 31.05.2020
2317 Clouds 10 1013 71 10000 6.7 290 05:44 31.05.2020
2318 Clouds 11 1013 71 10000 7.2 280 04:29 31.05.2020
2319 Clouds 12 1014 71 10000 6.7 270 03:49 31.05.2020
2320 Clouds 12 1014 76 10000 5.1 280 02:59 31.05.2020
2321 Clouds 12 1013 82 10000 6.7 270 01:50 31.05.2020
2322 Clouds 12 1013 82 10000 6.7 270 01:27 31.05.2020
2323 Clouds 14 1012 87 10000 7.7 270 00:31 31.05.2020
2324 Mist 14 1012 87 1200 5.1 280 23:59 30.05.2020
2325 Mist 14 1012 87 1200 5.1 280 23:39 30.05.2020
2326 Mist 14 1012 87 1200 5.1 280 23:21 30.05.2020
2327 Mist 14 1012 87 1200 8.2 280 22:41 30.05.2020
2328 Mist 14 1012 87 1200 8.2 280 22:23 30.05.2020
2329 Mist 15 1011 82 1200 7.7 270 21:56 30.05.2020
2330 Mist 16 1011 82 1200 7.7 270 21:38 30.05.2020
2331 Mist 17 1011 82 1200 7.7 270 21:20 30.05.2020
2332 Mist 18 1011 82 3000 7.7 270 20:56 30.05.2020
2333 Clouds 21 1011 68 10000 5.7 290 20:38 30.05.2020
2334 Clouds 21 1011 68 10000 5.7 290 20:20 30.05.2020
2335 Clouds 23 1011 56 10000 3.6 300 19:43 30.05.2020
2336 Clouds 22 1012 68 10000 3.1 340 19:22 30.05.2020
2337 Clouds 22 1012 68 10000 3.1 340 18:46 30.05.2020
2338 Clouds 21 1012 68 10000 3.1 340 18:25 30.05.2020
2339 Clouds 21 1012 68 10000 3.1 340 18:25 30.05.2020
2340 Clouds 20 1013 72 10000 5.1 360 17:56 30.05.2020
2341 Clouds 20 1013 72 10000 5.1 360 17:37 30.05.2020
2342 Clouds 19 1013 72 10000 5.1 360 17:19 30.05.2020
2343 Clouds 18 1014 72 10000 3.6 360 16:43 30.05.2020
2344 Clouds 18 1014 72 10000 3.6 360 16:23 30.05.2020
2345 Clouds 15 1014 87 10000 3.6 10 15:56 30.05.2020
2346 Clouds 15 1014 87 10000 3.6 10 15:37 30.05.2020
2347 Clouds 15 1014 87 10000 3.6 10 15:19 30.05.2020
2348 Clouds 14 1013 87 10000 2.6 10 14:42 30.05.2020
2349 Clouds 13 1013 87 10000 2.6 10 14:20 30.05.2020
2350 Clouds 12 1013 93 10000 1.5 360 13:41 30.05.2020
2351 Clouds 11 1013 93 10000 1.5 360 13:18 30.05.2020
2352 Clouds 11 1013 100 10000 2.43 347 12:40 30.05.2020
2353 Clouds 12 1013 100 10000 2.41 7 12:20 30.05.2020
2354 Fog 11 1013 93 5000 1.5 20 11:56 30.05.2020
2355 Fog 12 1013 93 5000 1.5 20 11:38 30.05.2020
2356 Fog 12 1013 93 5000 1.5 20 11:20 30.05.2020
2357 Fog 12 1013 100 4000 2.1 10 10:39 30.05.2020
2358 Fog 12 1013 100 4000 2.1 10 10:39 30.05.2020
2359 Fog 12 1013 100 4000 2.1 10 10:21 30.05.2020
2360 Fog 11 1013 100 5000 1.5 360 09:47 30.05.2020
2361 Fog 12 1013 100 5000 1.5 360 09:29 30.05.2020
2362 Fog 12 1014 93 300 1.5 350 08:46 30.05.2020
2363 Fog 12 1014 93 300 1.5 350 08:28 30.05.2020
2364 Fog 13 1013 93 3000 1 0 07:44 30.05.2020
2365 Fog 13 1013 93 3000 1 0 07:44 30.05.2020
2366 Fog 13 1013 93 3000 1 0 07:21 30.05.2020
2367 Fog 14 1013 93 5000 2.6 40 06:39 30.05.2020
2368 Fog 14 1013 93 5000 2.6 40 06:20 30.05.2020
2369 Fog 13 1014 93 300 2.68 17 05:49 30.05.2020
2370 Fog 14 1014 93 900 1.9 13 03:39 30.05.2020
2371 Clouds 14 1015 92 0 0.89 127 02:30 30.05.2020
2372 Mist 15 1014 87 5000 2.1 110 01:46 30.05.2020
2373 Clouds 16 1014 87 10000 3.6 100 00:38 30.05.2020
2374 Clouds 16 1014 87 10000 3.6 100 00:19 30.05.2020
2375 Clouds 17 1013 72 10000 1.5 90 23:55 29.05.2020
2376 Clouds 17 1013 72 10000 1.5 90 23:36 29.05.2020
2377 Clouds 17 1013 72 10000 1.5 90 23:18 29.05.2020
2378 Clouds 19 1013 68 10000 1.5 80 22:40 29.05.2020
2379 Clouds 19 1013 68 10000 1.5 80 22:19 29.05.2020
2380 Clouds 20 1013 60 10000 2.1 60 21:58 29.05.2020
2381 Clouds 20 1013 60 10000 2.1 60 21:37 29.05.2020
2382 Clouds 20 1013 60 10000 2.1 60 21:18 29.05.2020
2383 Clouds 21 1014 56 10000 2.1 120 20:44 29.05.2020
2384 Clouds 21 1014 56 10000 2.1 120 20:20 29.05.2020
2385 Clouds 21 1014 64 10000 1.5 0 19:59 29.05.2020
2386 Clouds 21 1014 56 10000 1.5 110 19:39 29.05.2020
2387 Clouds 21 1014 56 10000 1.5 110 19:21 29.05.2020
2388 Clouds 20 1015 68 10000 1 0 18:46 29.05.2020
2389 Clouds 20 1015 68 10000 1 0 18:20 29.05.2020
2390 Clouds 19 1016 72 10000 1 0 17:56 29.05.2020
2391 Clouds 19 1016 72 10000 1 0 17:38 29.05.2020
2392 Clouds 19 1016 72 10000 1 0 17:19 29.05.2020
2393 Clouds 16 1016 82 10000 3.1 30 16:43 29.05.2020
2394 Clouds 16 1016 82 10000 3.1 30 16:25 29.05.2020
2395 Clouds 15 1016 87 10000 2.1 30 15:57 29.05.2020
2396 Clouds 14 1016 87 10000 2.1 30 15:38 29.05.2020
2397 Clouds 14 1016 87 10000 2.1 30 15:19 29.05.2020
2398 Clouds 12 1016 87 10000 2.16 2 14:49 29.05.2020
2399 Clouds 12 1016 87 10000 2.1 357 14:23 29.05.2020
2400 Clouds 10 1016 93 10000 2.1 357 13:58 29.05.2020
2401 Clouds 10 1016 93 10000 2.1 357 13:39 29.05.2020
2402 Clouds 10 1016 93 10000 2.22 352 13:18 29.05.2020
2403 Clouds 11 1016 100 10000 1.5 130 12:43 29.05.2020
2404 Clouds 11 1016 100 10000 1.5 130 12:24 29.05.2020
2405 Clouds 11 1016 87 10000 2.1 140 11:45 29.05.2020
2406 Clear 11 1016 87 10000 2.1 140 11:27 29.05.2020
2407 Clear 10 1016 87 10000 1 0 10:58 29.05.2020
2408 Clear 10 1016 87 10000 1 0 10:38 29.05.2020
2409 Clear 10 1016 87 10000 1 0 10:19 29.05.2020
2410 Clear 11 1015 87 10000 2.05 344 09:44 29.05.2020
2411 Clear 11 1015 87 10000 2.26 353 09:20 29.05.2020
2412 Clear 11 1015 93 10000 1.5 10 08:56 29.05.2020
2413 Clear 11 1015 93 10000 1.5 10 08:37 29.05.2020
2414 Clear 11 1015 93 10000 1.5 10 08:19 29.05.2020
2415 Clear 11 1015 87 10000 1 0 07:40 29.05.2020
2416 Clear 12 1015 87 10000 1 0 07:22 29.05.2020
2417 Clear 12 1015 81 10000 2.6 20 06:48 29.05.2020
2418 Clear 13 1015 81 10000 2.6 20 06:28 29.05.2020
2419 Clear 13 1015 76 10000 3.6 30 05:52 29.05.2020
2420 Clear 14 1016 76 10000 1.5 40 03:44 29.05.2020
2421 Clear 14 1016 82 8000 2.6 80 01:46 29.05.2020
2422 Clear 14 1016 82 8000 2.6 80 01:23 29.05.2020
2423 Clear 14 1016 87 10000 2.6 110 00:47 29.05.2020
2424 Clear 15 1016 77 10000 2.1 120 00:22 29.05.2020
2425 Clear 16 1016 77 10000 2.1 120 23:40 28.05.2020
2426 Clear 16 1016 77 10000 2.1 120 23:19 28.05.2020
2427 Clear 18 1016 68 10000 4.1 150 22:45 28.05.2020
2428 Clear 18 1016 68 10000 4.1 150 22:45 28.05.2020
2429 Clear 18 1016 68 10000 4.1 150 22:45 28.05.2020
2430 Clear 19 1016 68 10000 4.1 150 22:27 28.05.2020
2431 Clear 20 1016 60 10000 2.1 220 21:59 28.05.2020
2432 Clear 20 1016 60 10000 2.1 220 21:40 28.05.2020
2433 Clear 20 1016 60 10000 2.1 220 21:20 28.05.2020
2434 Clear 20 1016 64 10000 2.1 270 20:58 28.05.2020
2435 Clear 21 1016 64 10000 2.1 270 20:40 28.05.2020
2436 Clear 20 1016 64 10000 2.1 270 20:19 28.05.2020
2437 Clear 20 1016 60 10000 2.1 270 19:57 28.05.2020
2438 Clear 20 1016 60 10000 2.1 270 19:57 28.05.2020
2439 Clear 20 1016 60 10000 2.1 270 19:39 28.05.2020
2440 Clear 20 1016 60 10000 2.1 270 19:20 28.05.2020
2441 Clear 20 1016 60 10000 2.1 340 18:46 28.05.2020
2442 Clear 20 1016 60 10000 2.1 340 18:27 28.05.2020
2443 Clear 18 1017 72 10000 2.1 340 17:59 28.05.2020
2444 Clear 18 1017 72 10000 2.1 340 17:39 28.05.2020
2445 Clear 18 1017 72 10000 2.1 340 17:20 28.05.2020
2446 Clear 17 1018 72 10000 2.1 360 16:46 28.05.2020
2447 Clear 17 1018 72 10000 2.1 360 16:21 28.05.2020
2448 Clear 15 1018 77 10000 2.1 360 15:54 28.05.2020
2449 Clear 15 1018 77 10000 2.1 360 15:36 28.05.2020
2450 Clear 12 1017 93 10000 1.5 30 15:18 28.05.2020
2451 Clear 12 1017 93 10000 1.5 30 14:41 28.05.2020
2452 Clear 11 1017 93 10000 1.5 30 14:22 28.05.2020
2453 Clear 10 1017 93 10000 1.5 20 13:46 28.05.2020
2454 Clear 10 1017 93 10000 1.5 20 13:27 28.05.2020
2455 Clear 9 1017 93 10000 1.5 20 12:43 28.05.2020
2456 Clear 9 1017 93 10000 1.5 20 12:20 28.05.2020
2457 Clear 9 1016 87 10000 4.26 325 11:57 28.05.2020
2458 Clear 9 1016 87 10000 4.26 325 11:57 28.05.2020
2459 Clear 9 1016 87 10000 4.26 325 11:39 28.05.2020
2460 Clear 10 1016 87 10000 4.3 321 11:20 28.05.2020
2461 Clear 9 1016 87 10000 1.5 340 10:43 28.05.2020
2462 Clear 9 1016 87 10000 1.5 340 10:25 28.05.2020
2463 Clear 10 1016 87 10000 2.6 350 09:57 28.05.2020
2464 Clear 10 1016 87 10000 2.6 350 09:38 28.05.2020
2465 Clear 10 1016 87 10000 2.6 350 09:18 28.05.2020
2466 Clear 11 1015 81 10000 2.6 330 08:44 28.05.2020
2467 Clear 11 1015 81 10000 2.6 330 08:24 28.05.2020
2468 Clear 12 1015 76 10000 4.1 350 07:43 28.05.2020
2469 Clear 12 1015 76 10000 4.1 350 07:23 28.05.2020
2470 Clear 12 1015 76 10000 4.6 350 06:45 28.05.2020
2471 Clear 12 1015 76 10000 4.6 350 06:27 28.05.2020
2472 Clear 12 1015 76 10000 5.1 360 05:39 28.05.2020
2473 Clear 12 1015 76 10000 5.1 360 04:38 28.05.2020
2474 Clear 13 1015 76 10000 5.1 360 04:18 28.05.2020
2475 Clear 13 1016 76 10000 2.6 360 02:59 28.05.2020
2476 Clear 13 1016 76 10000 2.6 360 02:38 28.05.2020
2477 Clear 13 1016 76 10000 3.1 10 01:45 28.05.2020
2478 Clear 14 1016 81 10000 2.1 360 00:50 28.05.2020
2479 Clear 15 1015 67 10000 1.5 10 00:21 28.05.2020
2480 Clear 16 1015 67 10000 1.5 10 23:56 27.05.2020
2481 Clear 16 1015 67 10000 1.5 10 23:38 27.05.2020
2482 Clear 16 1015 67 10000 1.5 10 23:19 27.05.2020
2483 Clear 18 1015 63 10000 2.6 360 22:42 27.05.2020
2484 Clear 18 1015 63 10000 2.6 360 22:23 27.05.2020
2485 Clear 20 1015 52 10000 4.1 360 21:57 27.05.2020
2486 Clear 20 1015 52 10000 4.1 360 21:57 27.05.2020
2487 Clear 20 1015 52 10000 4.1 360 21:39 27.05.2020
2488 Clear 20 1015 52 10000 4.1 360 21:39 27.05.2020
2489 Clear 20 1015 52 10000 4.1 360 21:20 27.05.2020
2490 Clear 19 1015 55 10000 3.6 360 20:58 27.05.2020
2491 Clear 19 1015 55 10000 3.6 360 20:39 27.05.2020
2492 Clear 19 1015 55 10000 3.6 360 20:19 27.05.2020
2493 Clear 19 1016 59 10000 4.6 340 19:46 27.05.2020
2494 Clear 19 1016 59 10000 4.6 340 19:21 27.05.2020
2495 Clear 17 1016 63 10000 4.6 330 18:54 27.05.2020
2496 Clear 17 1016 63 10000 4.6 330 18:36 27.05.2020
2497 Clear 16 1017 72 10000 4.6 340 18:18 27.05.2020
2498 Clear 15 1017 72 10000 4.6 340 17:42 27.05.2020
2499 Clear 15 1017 72 10000 4.6 340 17:23 27.05.2020
2500 Clear 13 1018 82 10000 3.6 360 16:56 27.05.2020
2501 Clear 13 1018 82 10000 3.6 360 16:38 27.05.2020
2502 Clear 13 1018 82 10000 3.6 360 16:19 27.05.2020
2503 Clear 10 1018 93 10000 3.6 360 15:49 27.05.2020
2504 Clear 10 1018 93 10000 3.6 360 15:23 27.05.2020
2505 Clear 8 1018 93 10000 3.6 20 14:57 27.05.2020
2506 Clear 8 1018 93 10000 3.6 20 14:39 27.05.2020
2507 Clear 8 1018 93 10000 3.6 20 14:19 27.05.2020
2508 Clear 6 1017 93 10000 3.6 20 13:42 27.05.2020
2509 Clear 6 1017 93 10000 3.6 20 13:23 27.05.2020
2510 Clear 5 1017 93 0 1.5 20 12:42 27.05.2020
2511 Clear 5 1017 93 0 1.5 20 12:24 27.05.2020
2512 Clouds 6 1017 93 10000 2.6 10 11:59 27.05.2020
2513 Clouds 6 1017 93 10000 2.6 10 11:37 27.05.2020
2514 Clouds 6 1017 93 10000 2.6 10 11:19 27.05.2020
2515 Fog 5 1017 100 10000 1.5 20 10:55 27.05.2020
2516 Fog 5 1017 100 10000 1.5 20 10:36 27.05.2020
2517 Clouds 6 1017 93 10000 2.1 20 10:18 27.05.2020
2518 Clouds 6 1017 93 10000 2.1 20 09:40 27.05.2020
2519 Clouds 6 1017 93 10000 2.1 20 09:21 27.05.2020
2520 Clouds 6 1016 93 9000 2.1 20 08:43 27.05.2020
2521 Clouds 6 1016 93 9000 2.1 20 08:25 27.05.2020
2522 Clouds 7 1017 93 8000 1.5 10 07:57 27.05.2020
2523 Clouds 7 1017 93 8000 1.5 10 07:38 27.05.2020
2524 Clouds 7 1017 93 8000 1.5 10 07:20 27.05.2020
2525 Clouds 7 1017 93 10000 1.5 20 06:41 27.05.2020
2526 Clouds 7 1017 93 10000 1.5 20 06:19 27.05.2020
2527 Clouds 8 1017 87 10000 2.51 348 05:47 27.05.2020
2528 Clouds 9 1017 81 10000 1.54 336 04:19 27.05.2020
2529 Clouds 11 1017 81 10000 1.5 320 02:30 27.05.2020
2530 Clouds 11 1017 76 10000 2.1 270 01:53 27.05.2020
2531 Clouds 11 1017 76 10000 2.1 270 01:23 27.05.2020
2532 Clouds 11 1017 76 10000 1.5 230 00:45 27.05.2020
2533 Clouds 11 1017 76 10000 1.5 230 00:19 27.05.2020
2534 Clouds 11 1017 81 10000 4.1 230 23:44 26.05.2020
2535 Clouds 11 1017 81 10000 4.1 230 23:25 26.05.2020
2536 Clouds 11 1016 81 10000 4.1 220 22:59 26.05.2020
2537 Clouds 11 1016 81 10000 4.1 220 22:39 26.05.2020
2538 Clouds 11 1016 81 10000 4.1 220 22:20 26.05.2020
2539 Clouds 12 1016 93 8000 3.1 210 21:57 26.05.2020
2540 Clouds 12 1016 93 8000 3.1 210 21:39 26.05.2020
2541 Clouds 12 1016 93 8000 3.1 210 21:20 26.05.2020
2542 Clouds 12 1017 93 6000 5.1 240 20:42 26.05.2020
2543 Clouds 12 1017 93 6000 5.1 240 20:21 26.05.2020
2544 Drizzle 12 1017 93 1500 5.1 230 19:56 26.05.2020
2545 Clouds 12 1017 93 5000 5.1 250 19:37 26.05.2020
2546 Clouds 12 1017 93 5000 5.1 250 19:18 26.05.2020
2547 Clouds 12 1017 100 5000 3.1 230 18:42 26.05.2020
2548 Clouds 12 1017 100 5000 3.1 230 18:22 26.05.2020
2549 Clouds 12 1017 82 6000 5.1 270 17:55 26.05.2020
2550 Clouds 12 1017 93 5000 4.1 240 17:37 26.05.2020
2551 Clouds 12 1017 93 5000 4.1 240 17:19 26.05.2020
2552 Drizzle 11 1018 100 2000 5.1 260 16:41 26.05.2020
2553 Mist 11 1018 100 2000 5.1 260 16:19 26.05.2020
2554 Mist 11 1018 100 2000 5.1 260 16:19 26.05.2020
2555 Clouds 11 1018 93 6000 4.1 240 15:44 26.05.2020
2556 Clouds 11 1018 93 6000 4.1 240 15:21 26.05.2020
2557 Clouds 12 1017 76 10000 5.1 210 14:59 26.05.2020
2558 Clouds 12 1017 76 10000 5.1 210 14:41 26.05.2020
2559 Clouds 12 1017 76 10000 5.1 210 14:22 26.05.2020
2560 Clouds 12 1017 81 10000 5.1 210 13:42 26.05.2020
2561 Clouds 12 1017 81 10000 5.1 210 13:24 26.05.2020
2562 Clouds 11 1016 81 10000 6.2 240 12:59 26.05.2020
2563 Clouds 11 1016 81 10000 6.2 240 12:39 26.05.2020
2564 Clouds 11 1016 81 10000 6.2 240 12:19 26.05.2020
2565 Clouds 12 1015 71 10000 6.7 220 11:41 26.05.2020
2566 Clouds 12 1015 71 10000 6.7 220 11:21 26.05.2020
2567 Clouds 12 1015 71 10000 7.2 220 10:59 26.05.2020
2568 Clouds 12 1015 71 10000 7.2 220 10:39 26.05.2020
2569 Clouds 12 1015 71 10000 7.2 220 10:18 26.05.2020
2570 Clouds 12 1015 71 10000 7.2 210 09:39 26.05.2020
2571 Clouds 12 1015 71 10000 7.2 210 09:20 26.05.2020
2572 Clouds 12 1015 71 10000 7.2 210 08:43 26.05.2020
2573 Clouds 12 1015 71 10000 7.2 210 08:22 26.05.2020
2574 Clouds 12 1015 71 10000 7.2 220 07:44 26.05.2020
2575 Clouds 12 1015 71 10000 7.2 220 07:25 26.05.2020
2576 Clouds 12 1015 71 10000 8.2 220 06:57 26.05.2020
2577 Clouds 12 1015 71 10000 8.2 220 06:39 26.05.2020
2578 Clouds 12 1016 71 10000 7.7 210 05:55 26.05.2020
2579 Clouds 12 1016 71 10000 7.7 210 05:33 26.05.2020
2580 Clouds 13 1015 66 10000 7.7 220 04:54 26.05.2020
2581 Clouds 13 1015 66 10000 7.7 220 04:33 26.05.2020
2582 Clouds 13 1015 66 10000 8.2 220 03:55 26.05.2020
2583 Clouds 13 1015 66 10000 8.7 210 02:45 26.05.2020
2584 Clouds 14 1014 67 10000 8.7 220 01:49 26.05.2020
2585 Clouds 14 1014 67 10000 8.7 220 01:27 26.05.2020
2586 Clouds 14 1014 76 10000 6.7 230 00:39 26.05.2020
2587 Clouds 14 1014 76 10000 6.7 230 00:19 26.05.2020
2588 Clouds 14 1013 76 10000 5.1 230 23:56 25.05.2020
2589 Clouds 14 1013 76 10000 5.1 230 23:37 25.05.2020
2590 Clouds 14 1013 76 10000 5.1 230 23:18 25.05.2020
2591 Clouds 14 1012 82 10000 7.7 230 22:55 25.05.2020
2592 Clouds 14 1012 82 10000 7.7 230 22:36 25.05.2020
2593 Clouds 14 1012 82 10000 7.7 240 22:18 25.05.2020
2594 Clouds 14 1012 82 10000 7.7 240 21:55 25.05.2020
2595 Clouds 15 1012 82 10000 7.7 240 21:36 25.05.2020
2596 Drizzle 14 1011 77 3000 9.3 230 21:18 25.05.2020
2597 Clouds 14 1011 77 10000 8.2 230 20:42 25.05.2020
2598 Clouds 15 1011 77 10000 8.2 230 20:21 25.05.2020
2599 Clouds 15 1010 87 10000 6.2 240 19:59 25.05.2020
2600 Clouds 15 1010 87 10000 6.2 240 19:39 25.05.2020
2601 Clouds 15 1010 87 10000 6.2 240 19:18 25.05.2020
2602 Rain 15 1010 82 5000 7.7 240 18:54 25.05.2020
2603 Rain 15 1009 82 3000 8.2 240 18:36 25.05.2020
2604 Clouds 14 1010 82 10000 7.7 240 18:18 25.05.2020
2605 Clouds 14 1010 82 10000 7.7 240 17:42 25.05.2020
2606 Clouds 15 1010 82 10000 7.7 240 17:23 25.05.2020
2607 Clouds 14 1009 76 10000 6.2 230 16:57 25.05.2020
2608 Clouds 15 1009 76 10000 6.2 230 16:39 25.05.2020
2609 Clouds 14 1009 76 10000 6.2 230 16:19 25.05.2020
2610 Clouds 14 1008 76 10000 7.7 240 15:44 25.05.2020
2611 Clouds 14 1007 76 10000 7.7 250 15:20 25.05.2020
2612 Clouds 14 1007 76 10000 7.7 250 14:59 25.05.2020
2613 Clouds 14 1007 76 10000 7.7 250 14:38 25.05.2020
2614 Clouds 14 1007 76 10000 7.7 250 14:20 25.05.2020
2615 Clouds 13 1007 82 10000 7.7 250 13:40 25.05.2020
2616 Clouds 13 1007 82 10000 7.7 250 13:21 25.05.2020
2617 Drizzle 14 1006 87 8000 7.7 270 12:58 25.05.2020
2618 Clouds 14 1005 71 10000 10.3 250 12:39 25.05.2020
2619 Clouds 14 1005 71 10000 10.3 250 12:20 25.05.2020
2620 Clouds 14 1005 71 10000 10.3 250 12:20 25.05.2020
2621 Clouds 14 1004 67 10000 10.3 260 11:40 25.05.2020
2622 Clouds 14 1004 67 10000 10.3 260 11:21 25.05.2020
2623 Clouds 14 1003 62 10000 10.3 260 10:59 25.05.2020
2624 Clouds 14 1003 62 10000 10.3 260 10:41 25.05.2020
2625 Clouds 14 1003 62 10000 10.3 260 10:20 25.05.2020
2626 Clear 14 1003 58 10000 8.2 270 09:55 25.05.2020
2627 Clear 14 1003 58 10000 8.2 270 09:36 25.05.2020
2628 Clear 15 1003 58 10000 8.2 270 09:18 25.05.2020
2629 Clear 14 1003 67 10000 8.2 290 08:40 25.05.2020
2630 Clouds 14 1003 67 10000 8.2 290 08:21 25.05.2020
2631 Clouds 14 1004 62 10000 6.7 300 07:56 25.05.2020
2632 Clouds 14 1004 62 10000 6.7 300 07:38 25.05.2020
2633 Clouds 14 1003 62 10000 7.7 310 07:19 25.05.2020
2634 Clouds 14 1003 62 10000 7.7 310 06:41 25.05.2020
2635 Clouds 14 1003 62 10000 7.7 310 06:19 25.05.2020
2636 Rain 13 1005 71 10000 7.2 340 03:31 25.05.2020
2637 Rain 13 1007 62 10000 6.7 320 02:52 25.05.2020
2638 Rain 13 1007 62 10000 6.7 320 02:34 25.05.2020
2639 Clouds 13 1007 58 10000 7.7 320 01:42 25.05.2020
2640 Clouds 13 1008 66 10000 5.1 330 00:49 25.05.2020
2641 Clouds 14 1008 66 10000 5.1 330 00:31 25.05.2020
2642 Clouds 14 1009 58 10000 5.1 330 23:59 24.05.2020
2643 Clouds 14 1009 58 10000 5.1 330 23:39 24.05.2020
2644 Clouds 14 1009 58 10000 5.1 330 23:21 24.05.2020
2645 Clouds 15 1009 58 10000 5.1 330 22:56 24.05.2020
2646 Clouds 15 1009 58 10000 5.1 330 22:37 24.05.2020
2647 Clouds 15 1009 48 10000 6.2 320 22:18 24.05.2020
2648 Clouds 15 1009 48 10000 6.2 320 21:55 24.05.2020
2649 Clouds 16 1009 48 10000 6.2 320 21:36 24.05.2020
2650 Clouds 16 1009 48 10000 6.2 320 21:18 24.05.2020
2651 Clouds 16 1010 51 10000 6.2 330 20:43 24.05.2020
2652 Clouds 16 1010 51 10000 6.2 330 20:21 24.05.2020
2653 Clouds 16 1011 54 10000 7.2 330 19:56 24.05.2020
2654 Clouds 16 1011 54 10000 7.2 330 19:38 24.05.2020
2655 Clouds 16 1011 54 10000 7.2 330 19:19 24.05.2020
2656 Clouds 15 1013 58 10000 9.3 320 18:43 24.05.2020
2657 Clouds 15 1013 58 10000 9.3 320 18:24 24.05.2020
2658 Clouds 15 1014 62 10000 6.2 300 17:59 24.05.2020
2659 Clouds 15 1014 62 10000 6.2 300 17:40 24.05.2020
2660 Clouds 14 1014 62 10000 6.2 300 17:21 24.05.2020
2661 Clouds 14 1015 82 10000 6.7 320 16:56 24.05.2020
2662 Clouds 13 1015 82 10000 6.7 320 16:38 24.05.2020
2663 Clouds 13 1015 82 10000 6.7 320 16:19 24.05.2020
2664 Clouds 12 1015 93 10000 3.1 350 15:56 24.05.2020
2665 Clouds 12 1015 93 10000 3.1 350 15:38 24.05.2020
2666 Clouds 11 1015 93 10000 3.1 350 15:18 24.05.2020
2667 Clouds 10 1016 93 10000 2.6 350 14:44 24.05.2020
2668 Clouds 10 1016 93 10000 2.6 350 14:24 24.05.2020
2669 Clouds 9 1016 93 10000 1.5 340 13:58 24.05.2020
2670 Clouds 9 1016 93 10000 1.5 340 13:39 24.05.2020
2671 Clouds 9 1016 93 10000 1.5 340 13:21 24.05.2020
2672 Clouds 8 1016 93 10000 1.5 350 12:59 24.05.2020
2673 Clouds 8 1016 93 10000 1.5 350 12:40 24.05.2020
2674 Clouds 8 1016 93 10000 1.5 350 12:22 24.05.2020
2675 Clouds 9 1016 93 10000 2.1 310 11:59 24.05.2020
2676 Clouds 9 1016 93 10000 2.1 310 11:41 24.05.2020
2677 Clouds 9 1016 93 10000 2.1 310 11:22 24.05.2020
2678 Clouds 9 1017 93 10000 2.1 320 10:56 24.05.2020
2679 Clouds 9 1017 93 10000 2.1 320 10:37 24.05.2020
2680 Clouds 9 1017 93 10000 2.1 320 10:19 24.05.2020
2681 Clouds 9 1017 93 10000 2.1 310 09:41 24.05.2020
2682 Clouds 9 1017 93 10000 2.1 310 09:18 24.05.2020
2683 Clouds 10 1017 87 10000 1.5 320 08:56 24.05.2020
2684 Clouds 10 1017 87 10000 1.5 320 08:38 24.05.2020
2685 Clouds 10 1017 87 10000 1.5 320 08:38 24.05.2020
2686 Clouds 10 1017 87 10000 1.5 320 08:19 24.05.2020
2687 Clouds 9 1018 95 0 4.74 249 07:44 24.05.2020
2688 Clouds 9 1018 94 0 3.78 250 07:25 24.05.2020
2689 Clouds 10 1019 93 0 3.78 250 06:57 24.05.2020
2690 Clouds 10 1019 92 0 3.78 250 06:36 24.05.2020
2691 Clouds 12 1018 76 10000 2.1 220 04:54 24.05.2020
2692 Clouds 13 1019 76 10000 2.6 200 03:42 24.05.2020
2693 Clouds 14 1020 71 10000 3.6 210 02:46 24.05.2020
2694 Clouds 13 1019 76 10000 3.1 200 01:50 24.05.2020
2695 Clouds 13 1019 82 10000 3.1 180 00:41 24.05.2020
2696 Clouds 13 1019 82 10000 3.1 180 00:22 24.05.2020
2697 Clouds 13 1019 82 10000 6.2 160 23:46 23.05.2020
2698 Clouds 14 1019 82 10000 6.2 160 23:25 23.05.2020
2699 Clouds 14 1019 67 10000 7.7 150 22:59 23.05.2020
2700 Clouds 15 1019 67 10000 7.7 150 22:39 23.05.2020
2701 Clouds 15 1019 67 10000 7.7 150 22:20 23.05.2020
2702 Clouds 16 1019 72 10000 9.3 180 21:58 23.05.2020
2703 Clouds 16 1019 72 10000 9.3 180 21:40 23.05.2020
2704 Clouds 16 1019 72 10000 9.3 180 21:20 23.05.2020
2705 Clouds 16 1019 72 10000 9.3 180 21:20 23.05.2020
2706 Clouds 16 1019 72 10000 9.3 180 21:20 23.05.2020
2707 Clouds 16 1019 72 10000 9.3 180 21:20 23.05.2020
2708 Clouds 16 1019 63 10000 9.3 180 20:58 23.05.2020
2709 Clouds 16 1019 63 10000 9.3 180 20:38 23.05.2020
2710 Clouds 16 1019 63 10000 9.3 180 20:38 23.05.2020
2711 Clouds 16 1019 63 10000 9.3 180 20:19 23.05.2020
2712 Clouds 17 1019 59 10000 9.3 180 19:54 23.05.2020
2713 Clouds 17 1019 59 10000 9.3 180 19:36 23.05.2020
2714 Clouds 17 1019 59 10000 9.3 180 19:36 23.05.2020
2715 Clouds 16 1020 63 10000 10.3 150 19:18 23.05.2020
2716 Clouds 17 1020 63 10000 10.3 150 18:40 23.05.2020
2717 Clouds 17 1020 63 10000 10.3 150 18:22 23.05.2020
2718 Clouds 16 1021 67 10000 10.3 180 17:56 23.05.2020
2719 Clouds 16 1021 67 10000 10.3 180 17:38 23.05.2020
2720 Clouds 16 1021 67 10000 10.3 180 17:19 23.05.2020
2721 Clouds 16 1021 67 10000 10.3 180 16:57 23.05.2020
2722 Clouds 16 1021 67 10000 10.3 180 16:39 23.05.2020
2723 Clouds 16 1021 67 10000 10.3 180 16:20 23.05.2020
2724 Clouds 15 1021 72 10000 7.7 180 15:43 23.05.2020
2725 Clouds 15 1021 72 10000 7.7 180 15:24 23.05.2020
2726 Clouds 15 1021 71 10000 10.3 180 14:58 23.05.2020
2727 Clouds 15 1021 71 10000 10.3 180 14:40 23.05.2020
2728 Clouds 15 1021 71 10000 10.3 180 14:22 23.05.2020
2729 Clouds 14 1020 76 10000 9.3 180 13:41 23.05.2020
2730 Clouds 14 1020 76 10000 9.3 180 13:19 23.05.2020
2731 Clouds 14 1020 76 10000 9.3 180 13:19 23.05.2020
2732 Clouds 14 1020 76 10000 9.3 180 13:19 23.05.2020
2733 Clouds 14 1020 71 10000 7.7 180 12:57 23.05.2020
2734 Clouds 14 1020 71 10000 7.7 180 12:39 23.05.2020
2735 Clouds 14 1020 71 10000 7.7 180 12:19 23.05.2020
2736 Clouds 14 1019 71 10000 9.3 160 11:43 23.05.2020
2737 Clouds 14 1019 71 10000 9.3 160 11:22 23.05.2020
2738 Clouds 14 1019 67 10000 8.7 150 10:57 23.05.2020
2739 Clouds 14 1019 67 10000 8.7 150 10:39 23.05.2020
2740 Clouds 14 1019 67 10000 8.7 150 10:20 23.05.2020
2741 Clouds 14 1020 67 10000 8.2 160 09:59 23.05.2020
2742 Clouds 14 1020 67 10000 8.2 160 09:59 23.05.2020
2743 Clouds 14 1020 67 10000 8.2 160 09:40 23.05.2020
2744 Clouds 14 1020 67 10000 8.2 160 09:21 23.05.2020
2745 Clouds 14 1020 67 10000 10.8 160 08:44 23.05.2020
2746 Clouds 15 1020 67 10000 10.8 160 08:20 23.05.2020
2747 Clouds 15 1020 62 10000 10.3 160 07:59 23.05.2020
2748 Clouds 15 1020 62 10000 10.3 160 07:39 23.05.2020
2749 Clouds 15 1020 62 10000 10.3 160 07:21 23.05.2020
2750 Clouds 15 1020 72 10000 9.8 150 06:39 23.05.2020
2751 Clouds 15 1021 67 10000 9.8 160 05:46 23.05.2020
2752 Clouds 15 1021 77 10000 8.2 170 03:48 23.05.2020
2753 Clouds 15 1021 77 10000 8.2 170 03:21 23.05.2020
2754 Rain 14 1020 87 5000 8.2 170 01:59 23.05.2020
2755 Rain 14 1020 87 5000 8.2 170 01:59 23.05.2020
2756 Clouds 15 1020 82 10000 8.7 170 01:27 23.05.2020
2757 Clouds 15 1020 82 10000 9.8 170 00:47 23.05.2020
2758 Clouds 15 1020 82 10000 9.8 170 00:47 23.05.2020
2759 Clouds 15 1020 82 10000 9.8 170 00:29 23.05.2020
2760 Clouds 15 1019 82 10000 7.2 160 23:58 22.05.2020
2761 Clouds 15 1019 82 10000 7.2 160 23:39 22.05.2020
2762 Clouds 15 1019 82 10000 7.2 160 23:19 22.05.2020
2763 Clouds 15 1018 87 10000 11.8 180 22:55 22.05.2020
2764 Clouds 15 1018 87 10000 11.8 180 22:55 22.05.2020
2765 Clouds 15 1018 87 10000 11.8 180 22:37 22.05.2020
2766 Clouds 15 1018 87 10000 11.8 180 22:18 22.05.2020
2767 Clouds 16 1018 87 10000 8.2 150 21:42 22.05.2020
2768 Clouds 16 1018 87 10000 8.2 150 21:21 22.05.2020
2769 Clouds 16 1018 82 10000 8.2 150 20:54 22.05.2020
2770 Clouds 16 1018 82 10000 8.2 150 20:36 22.05.2020
2771 Clouds 16 1018 82 10000 9.8 150 20:18 22.05.2020
2772 Clouds 16 1018 82 10000 9.8 150 19:41 22.05.2020
2773 Clouds 16 1018 82 10000 9.8 150 19:41 22.05.2020
2774 Clouds 16 1018 82 10000 9.8 150 19:23 22.05.2020
2775 Clouds 16 1018 82 10000 9.8 150 18:40 22.05.2020
2776 Clouds 16 1018 82 10000 9.8 150 18:21 22.05.2020
2777 Clouds 16 1018 82 10000 9.8 150 17:59 22.05.2020
2778 Clouds 16 1018 82 10000 9.8 150 17:38 22.05.2020
2779 Clouds 16 1018 82 10000 9.8 150 17:18 22.05.2020
2780 Clouds 16 1019 93 10000 9.8 150 16:45 22.05.2020
2781 Clouds 16 1019 93 10000 9.8 150 16:21 22.05.2020
2782 Clouds 15 1019 93 4000 11.8 150 15:59 22.05.2020
2783 Clouds 15 1019 93 4000 11.8 150 15:41 22.05.2020
2784 Clouds 15 1019 93 4000 11.8 150 15:21 22.05.2020
2785 Drizzle 15 1018 93 1400 7.2 150 14:44 22.05.2020
2786 Drizzle 15 1018 93 1400 7.2 150 14:25 22.05.2020
2787 Drizzle 15 1017 100 1400 10.8 150 13:49 22.05.2020
2788 Drizzle 15 1017 100 1400 8.2 180 13:21 22.05.2020
2789 Drizzle 15 1017 100 1400 8.2 180 12:59 22.05.2020
2790 Drizzle 15 1017 100 1400 8.2 180 12:39 22.05.2020
2791 Clouds 15 1015 93 7000 7.7 170 12:20 22.05.2020
2792 Clouds 15 1016 93 7000 10.3 170 11:44 22.05.2020
2793 Clouds 15 1016 93 7000 10.3 170 11:21 22.05.2020
2794 Clouds 15 1016 93 7000 10.3 170 11:21 22.05.2020
2795 Clouds 16 1016 87 10000 10.3 170 10:55 22.05.2020
2796 Clouds 16 1016 87 10000 10.3 170 10:37 22.05.2020
2797 Clouds 16 1015 87 10000 10.3 160 10:18 22.05.2020
2798 Clouds 16 1015 87 10000 10.3 160 09:46 22.05.2020
2799 Clouds 16 1015 87 10000 10.3 160 09:20 22.05.2020
2800 Drizzle 16 1015 87 8000 9.8 170 08:55 22.05.2020
2801 Drizzle 16 1015 87 8000 9.8 170 08:37 22.05.2020
2802 Drizzle 16 1016 93 5000 6.2 180 08:18 22.05.2020
2803 Mist 16 1016 93 5000 6.2 180 07:46 22.05.2020
2804 Mist 16 1016 93 5000 6.2 180 07:22 22.05.2020
2805 Clouds 16 1015 93 9000 9.3 180 06:43 22.05.2020
2806 Clouds 16 1015 93 9000 9.3 180 06:25 22.05.2020
2807 Rain 16 1016 93 7000 7.2 180 05:35 22.05.2020
2808 Drizzle 16 1016 93 8000 7.2 180 04:47 22.05.2020
2809 Clouds 15 1015 100 6000 8.7 180 03:49 22.05.2020
2810 Clouds 15 1015 100 6000 8.7 180 03:29 22.05.2020
2811 Clouds 15 1014 100 7000 6.2 180 01:58 22.05.2020
2812 Clouds 15 1014 100 7000 6.2 180 01:31 22.05.2020
2813 Drizzle 15 1013 100 1500 8.7 180 00:52 22.05.2020
2814 Mist 15 1013 100 1500 8.7 180 00:30 22.05.2020
2815 Rain 15 1013 100 2000 9.8 180 23:56 21.05.2020
2816 Rain 15 1013 100 2000 9.8 180 23:37 21.05.2020
2817 Rain 15 1013 100 2000 9.8 180 23:37 21.05.2020
2818 Rain 15 1013 100 2000 9.8 180 23:19 21.05.2020
2819 Rain 15 1012 100 2000 8.7 180 22:57 21.05.2020
2820 Rain 15 1012 100 2000 8.7 180 22:37 21.05.2020
2821 Rain 16 1012 100 2000 8.7 180 22:18 21.05.2020
2822 Rain 16 1012 93 2500 7.7 180 21:46 21.05.2020
2823 Mist 16 1012 93 2500 7.7 180 21:26 21.05.2020
2824 Mist 16 1011 93 4000 5.1 180 20:57 21.05.2020
2825 Mist 16 1011 93 4000 5.1 180 20:38 21.05.2020
2826 Mist 16 1011 93 4000 5.1 180 20:20 21.05.2020
2827 Mist 16 1012 93 2500 5.1 180 19:39 21.05.2020
2828 Mist 16 1012 93 2500 5.1 180 19:19 21.05.2020
2829 Mist 16 1011 93 2000 5.1 160 18:55 21.05.2020
2830 Mist 16 1011 93 2000 5.1 160 18:36 21.05.2020
2831 Mist 16 1012 100 1500 5.1 180 18:18 21.05.2020
2832 Mist 16 1012 100 1500 5.1 180 17:41 21.05.2020
2833 Mist 16 1012 100 1500 5.1 180 17:22 21.05.2020
2834 Mist 16 1012 100 1500 5.1 180 17:22 21.05.2020
2835 Fog 16 1012 93 1000 5.1 180 16:47 21.05.2020
2836 Fog 16 1012 93 1000 5.1 180 16:27 21.05.2020
2837 Fog 16 1012 100 1000 5.1 180 15:57 21.05.2020
2838 Fog 16 1012 100 1000 5.1 180 15:38 21.05.2020
2839 Fog 16 1012 100 1000 5.1 180 15:20 21.05.2020
2840 Fog 16 1011 100 1000 4.1 180 14:41 21.05.2020
2841 Mist 16 1011 100 1500 5.7 190 14:19 21.05.2020
2842 Fog 17 1010 100 500 3.1 210 13:42 21.05.2020
2843 Mist 17 1010 93 2000 3.1 220 13:23 21.05.2020
2844 Fog 18 1010 100 300 2.1 210 12:59 21.05.2020
2845 Clouds 18 1009 100 8000 3.1 210 12:38 21.05.2020
2846 Clouds 18 1009 100 8000 3.1 210 12:19 21.05.2020
2847 Thunderstorm 18 1009 100 4000 4.6 320 11:42 21.05.2020
2848 Thunderstorm 18 1009 100 4000 4.6 320 11:24 21.05.2020
2849 Thunderstorm 19 1009 93 4000 3.1 10 10:59 21.05.2020
2850 Thunderstorm 18 1009 100 8000 3.6 360 10:39 21.05.2020
2851 Thunderstorm 18 1009 100 8000 3.6 360 10:20 21.05.2020
2852 Thunderstorm 19 1009 93 6000 3.1 360 09:55 21.05.2020
2853 Thunderstorm 19 1009 93 1500 5.1 320 09:37 21.05.2020
2854 Thunderstorm 19 1009 93 1500 5.1 320 09:19 21.05.2020
2855 Thunderstorm 19 1009 93 10000 1 0 08:45 21.05.2020
2856 Thunderstorm 19 1009 93 10000 1 0 08:26 21.05.2020
2857 Thunderstorm 19 1009 93 10000 1 0 08:26 21.05.2020
2858 Thunderstorm 19 1009 93 9000 3.1 360 07:48 21.05.2020
2859 Thunderstorm 19 1009 93 9000 3.1 360 07:27 21.05.2020
2860 Thunderstorm 19 1009 93 10000 3.1 20 06:53 21.05.2020
2861 Thunderstorm 19 1009 93 10000 3.1 20 06:23 21.05.2020
2862 Thunderstorm 19 1011 93 10000 1.5 20 05:37 21.05.2020
2863 Thunderstorm 19 1010 82 1500 6.7 320 03:22 21.05.2020
2864 Thunderstorm 19 1010 82 1500 6.7 320 03:22 21.05.2020
2865 Thunderstorm 21 1010 77 6000 6.2 290 02:49 21.05.2020
2866 Thunderstorm 22 1008 68 10000 4.1 60 02:30 21.05.2020
2867 Thunderstorm 23 1008 56 10000 3.1 70 01:47 21.05.2020
2868 Thunderstorm 23 1008 56 10000 3.1 70 01:21 21.05.2020
2869 Clouds 23 1008 69 10000 2.6 50 00:52 21.05.2020
2870 Clouds 23 1008 69 10000 2.6 50 00:23 21.05.2020
2871 Clouds 23 1009 60 10000 3.1 40 23:46 20.05.2020
2872 Clouds 24 1009 57 10000 3.1 50 23:21 20.05.2020
2873 Clouds 24 1009 57 10000 3.1 50 22:58 20.05.2020
2874 Clouds 24 1009 57 10000 3.1 50 22:39 20.05.2020
2875 Clouds 25 1009 57 10000 3.1 50 22:21 20.05.2020
2876 Clouds 26 1010 50 10000 4.1 30 21:42 20.05.2020
2877 Clouds 26 1010 50 10000 4.1 30 21:23 20.05.2020
2878 Clouds 26 1010 54 10000 3.1 50 20:55 20.05.2020
2879 Clouds 26 1010 54 10000 3.1 50 20:37 20.05.2020
2880 Clouds 26 1010 54 10000 3.1 50 20:19 20.05.2020
2881 Clouds 26 1011 54 10000 4.1 30 19:39 20.05.2020
2882 Clouds 26 1011 54 10000 4.1 30 19:20 20.05.2020
2883 Clouds 25 1012 53 10000 4.1 360 18:56 20.05.2020
2884 Clouds 25 1012 53 10000 4.1 360 18:38 20.05.2020
2885 Clouds 25 1012 53 10000 4.1 360 18:18 20.05.2020
2886 Clouds 23 1013 60 10000 4.6 10 17:38 20.05.2020
2887 Clouds 23 1013 60 10000 4.6 10 17:19 20.05.2020
2888 Clouds 21 1014 68 10000 5.1 360 16:42 20.05.2020
2889 Clouds 21 1014 68 10000 5.1 360 16:22 20.05.2020
2890 Clouds 19 1014 72 10000 4.6 20 15:57 20.05.2020
2891 Clouds 19 1014 72 10000 4.6 20 15:39 20.05.2020
2892 Clouds 19 1014 72 10000 4.6 20 15:21 20.05.2020
2893 Clouds 17 1014 82 10000 4.6 30 14:42 20.05.2020
2894 Clouds 17 1014 82 10000 4.6 30 14:20 20.05.2020
2895 Clouds 15 1014 82 10000 5.1 20 13:41 20.05.2020
2896 Clouds 15 1014 82 10000 5.1 20 13:20 20.05.2020
2897 Clouds 15 1013 87 10000 4.6 30 12:57 20.05.2020
2898 Clouds 15 1013 87 10000 4.6 30 12:37 20.05.2020
2899 Clouds 15 1013 87 10000 4.6 30 12:19 20.05.2020
2900 Clouds 15 1013 82 10000 3.6 30 11:36 20.05.2020
2901 Clouds 15 1013 82 10000 3.6 20 11:18 20.05.2020
2902 Clouds 16 1013 82 10000 3.6 20 10:42 20.05.2020
2903 Clouds 16 1013 82 10000 3.6 20 10:20 20.05.2020
2904 Clouds 15 1014 82 10000 3.1 30 09:44 20.05.2020
2905 Clouds 15 1014 82 10000 3.1 30 09:21 20.05.2020
2906 Clouds 15 1014 82 10000 3.1 30 09:21 20.05.2020
2907 Clouds 16 1014 82 10000 2.6 30 08:57 20.05.2020
2908 Clouds 16 1014 82 10000 2.6 30 08:39 20.05.2020
2909 Clear 16 1014 82 10000 2.6 30 08:18 20.05.2020
2910 Clear 16 1014 77 10000 3.6 20 07:46 20.05.2020
2911 Clear 17 1014 77 10000 3.6 20 07:20 20.05.2020
2912 Clear 18 1014 68 10000 3.6 40 06:36 20.05.2020
2913 Clear 18 1014 68 10000 2.6 40 05:24 20.05.2020
2914 Clear 17 1014 77 10000 2.6 30 04:27 20.05.2020
2915 Clear 18 1014 68 10000 2.6 40 03:42 20.05.2020
2916 Clear 19 1014 63 10000 3.1 40 02:25 20.05.2020
2917 Clear 20 1013 60 10000 2.6 50 01:28 20.05.2020
2918 Clear 20 1013 64 10000 2.6 50 00:44 20.05.2020
2919 Clear 20 1013 64 10000 2.6 50 00:24 20.05.2020
2920 Clear 22 1013 56 10000 2.1 50 23:42 19.05.2020
2921 Clear 22 1013 56 10000 2.1 50 23:19 19.05.2020
2922 Clear 23 1014 47 10000 2.1 360 23:19 19.05.2020
2923 Clear 25 1014 47 10000 2.1 360 22:56 19.05.2020
2924 Clear 25 1014 47 10000 2.1 360 22:38 19.05.2020
2925 Clear 25 1014 47 10000 2.1 360 22:19 19.05.2020
2926 Clear 26 1014 44 10000 4.1 350 21:57 19.05.2020
2927 Clear 26 1014 44 10000 4.1 350 21:37 19.05.2020
2928 Clear 26 1014 44 10000 4.1 350 21:19 19.05.2020
2929 Clear 25 1014 47 10000 3.6 350 20:57 19.05.2020
2930 Clear 25 1014 47 10000 3.6 350 20:38 19.05.2020
2931 Clear 25 1014 47 10000 3.6 350 20:20 19.05.2020
2932 Clear 24 1014 53 10000 4.6 360 19:40 19.05.2020
2933 Clear 24 1015 56 10000 5.1 10 19:21 19.05.2020
2934 Clear 23 1015 56 10000 5.1 10 18:58 19.05.2020
2935 Clear 24 1015 56 10000 5.1 10 18:40 19.05.2020
2936 Clear 24 1015 56 10000 5.1 10 18:40 19.05.2020
2937 Clear 23 1015 56 10000 5.1 10 18:20 19.05.2020
2938 Clear 22 1016 64 10000 5.7 20 17:43 19.05.2020
2939 Clear 20 1017 68 10000 6.7 10 17:21 19.05.2020
2940 Clear 20 1017 68 10000 6.7 10 16:58 19.05.2020
2941 Clear 20 1017 68 10000 6.7 10 16:38 19.05.2020
2942 Clear 20 1017 68 10000 6.7 10 16:19 19.05.2020
2943 Clear 18 1017 88 10000 6.2 20 15:46 19.05.2020
2944 Clear 17 1017 88 10000 6.2 20 15:21 19.05.2020
2945 Clear 16 1017 87 10000 6.7 30 14:57 19.05.2020
2946 Clear 16 1017 87 10000 6.7 30 14:38 19.05.2020
2947 Clear 15 1017 100 10000 4.6 30 14:20 19.05.2020
2948 Clear 14 1017 100 10000 4.6 30 13:57 19.05.2020
2949 Clear 14 1017 100 10000 4.6 30 13:38 19.05.2020
2950 Clear 14 1017 100 10000 4.6 30 13:20 19.05.2020
2951 Clear 14 1017 93 10000 5.1 30 12:56 19.05.2020
2952 Clear 14 1017 93 10000 5.1 30 12:37 19.05.2020
2953 Clear 14 1017 93 10000 5.1 30 12:19 19.05.2020
2954 Clear 14 1017 93 10000 3.6 20 11:43 19.05.2020
2955 Clear 14 1017 93 10000 3.6 20 11:43 19.05.2020
2956 Clear 14 1017 93 10000 3.6 20 11:23 19.05.2020
2957 Clear 14 1017 93 10000 3.6 20 10:58 19.05.2020
2958 Clear 14 1017 93 10000 3.6 20 10:40 19.05.2020
2959 Clear 14 1017 93 10000 3.6 20 10:21 19.05.2020
2960 Clear 14 1017 93 10000 4.1 30 09:46 19.05.2020
2961 Clear 14 1017 93 10000 4.1 30 09:25 19.05.2020
2962 Clear 15 1017 87 10000 3.6 40 08:48 19.05.2020
2963 Clear 15 1017 87 10000 3.6 40 08:48 19.05.2020
2964 Clear 15 1017 87 10000 3.6 40 08:25 19.05.2020
2965 Clear 15 1017 87 10000 3.6 40 07:57 19.05.2020
2966 Clear 15 1017 87 10000 3.6 40 07:37 19.05.2020
2967 Clear 15 1017 87 10000 3.6 40 07:19 19.05.2020
2968 Clear 15 1018 87 10000 4.1 40 06:40 19.05.2020
2969 Clear 16 1018 82 10000 4.1 40 06:18 19.05.2020
2970 Clear 16 1018 82 10000 4.1 40 05:39 19.05.2020
2971 Clear 16 1018 77 10000 5.1 40 04:54 19.05.2020
2972 Clear 17 1018 63 10000 5.7 40 02:59 19.05.2020
2973 Clear 18 1018 63 10000 4.1 60 01:21 19.05.2020
2974 Clear 18 1018 63 10000 4.1 50 00:40 19.05.2020
2975 Clear 21 1017 52 10000 4.1 30 00:18 19.05.2020
2976 Clear 21 1017 52 10000 4.1 30 23:40 18.05.2020
2977 Clear 22 1017 49 10000 5.1 30 23:20 18.05.2020
2978 Clear 22 1017 49 10000 5.1 30 22:57 18.05.2020
2979 Clear 22 1017 49 10000 5.1 30 22:39 18.05.2020
2980 Clear 22 1017 49 10000 5.1 30 22:20 18.05.2020
2981 Clear 23 1018 46 10000 6.2 20 21:42 18.05.2020
2982 Clear 23 1018 46 10000 6.2 20 21:22 18.05.2020
2983 Clear 23 1018 40 10000 6.2 50 20:57 18.05.2020
2984 Clear 23 1018 40 10000 6.2 50 20:38 18.05.2020
2985 Clear 23 1019 43 10000 5.1 30 20:19 18.05.2020
2986 Clear 23 1019 43 10000 5.1 30 19:55 18.05.2020
2987 Clear 23 1019 43 10000 5.1 30 19:37 18.05.2020
2988 Clear 22 1019 35 10000 4.6 50 19:18 18.05.2020
2989 Clear 21 1020 40 10000 5.1 40 18:43 18.05.2020
2990 Clear 21 1020 40 10000 5.1 40 18:21 18.05.2020
2991 Clear 20 1021 45 10000 6.2 40 17:39 18.05.2020
2992 Clear 20 1021 45 10000 6.2 40 17:39 18.05.2020
2993 Clear 19 1021 45 10000 6.2 40 17:18 18.05.2020
2994 Clear 17 1021 51 10000 6.2 50 16:56 18.05.2020
2995 Clear 17 1021 51 10000 6.2 50 16:38 18.05.2020
2996 Clear 16 1021 51 10000 6.2 50 16:18 18.05.2020
2997 Clear 16 1022 67 10000 4.6 60 15:55 18.05.2020
2998 Clear 16 1022 67 10000 4.6 60 15:37 18.05.2020
2999 Clear 14 1021 82 10000 3.1 60 15:18 18.05.2020
3000 Clear 13 1021 82 10000 3.1 60 14:42 18.05.2020
3001 Clear 13 1021 82 10000 3.1 60 14:23 18.05.2020
3002 Clear 12 1021 93 10000 4.1 70 13:57 18.05.2020
3003 Clear 12 1021 93 10000 4.1 70 13:38 18.05.2020
3004 Clear 12 1021 93 10000 4.1 70 13:19 18.05.2020
3005 Clear 12 1021 87 10000 2.1 90 12:55 18.05.2020
3006 Clear 12 1021 87 10000 2.1 90 12:37 18.05.2020
3007 Clear 12 1021 87 10000 2.1 90 12:18 18.05.2020
3008 Clear 12 1021 87 10000 3.1 110 11:46 18.05.2020
3009 Clear 12 1021 87 10000 3.1 110 11:26 18.05.2020
3010 Clear 12 1020 82 10000 4.1 110 10:55 18.05.2020
3011 Clear 12 1020 82 10000 4.1 110 10:37 18.05.2020
3012 Clear 13 1020 82 10000 4.1 110 10:19 18.05.2020
3013 Clear 13 1020 82 10000 5.1 120 09:42 18.05.2020
3014 Clear 13 1020 82 10000 5.1 120 09:23 18.05.2020
3015 Clear 13 1020 82 10000 4.6 130 08:42 18.05.2020
3016 Clear 13 1020 82 10000 4.6 130 08:24 18.05.2020
3017 Clear 13 1020 87 10000 2.6 130 07:50 18.05.2020
3018 Clear 13 1020 87 10000 2.6 130 07:26 18.05.2020
3019 Clear 13 1020 87 10000 2.6 130 07:26 18.05.2020
3020 Clear 13 1020 87 10000 3.1 130 06:49 18.05.2020
3021 Clear 13 1020 87 10000 3.1 130 06:31 18.05.2020
3022 Clear 13 1020 87 10000 2.6 130 05:49 18.05.2020
3023 Clear 14 1019 87 10000 2.6 140 04:40 18.05.2020
3024 Clear 14 1019 87 10000 2.6 160 03:30 18.05.2020
3025 Clear 16 1018 72 10000 2.1 160 01:58 18.05.2020
3026 Clear 15 1017 77 10000 2.6 150 00:50 18.05.2020
3027 Clear 16 1017 77 10000 2.6 150 00:22 18.05.2020
3028 Clear 17 1017 67 10000 2.1 150 23:56 17.05.2020
3029 Clear 17 1017 67 10000 2.1 150 23:38 17.05.2020
3030 Clear 17 1017 67 10000 2.1 150 23:19 17.05.2020
3031 Clear 19 1016 55 10000 3.6 160 22:55 17.05.2020
3032 Clear 19 1016 55 10000 3.6 160 22:36 17.05.2020
3033 Clear 19 1016 55 10000 3.6 160 22:18 17.05.2020
3034 Clear 20 1016 56 10000 4.1 190 21:41 17.05.2020
3035 Clear 20 1016 56 10000 4.1 190 21:20 17.05.2020
3036 Clear 21 1015 64 10000 4.1 230 20:58 17.05.2020
3037 Clear 21 1015 64 10000 4.1 230 20:40 17.05.2020
3038 Clear 21 1015 64 10000 4.1 230 20:19 17.05.2020
3039 Clear 21 1015 56 10000 6.7 260 19:47 17.05.2020
3040 Clear 21 1015 56 10000 6.7 260 19:29 17.05.2020
3041 Clear 21 1015 56 10000 5.7 270 18:59 17.05.2020
3042 Clear 21 1015 56 10000 5.7 270 18:59 17.05.2020
3043 Clear 21 1015 56 10000 5.7 270 18:39 17.05.2020
3044 Clear 21 1015 56 10000 5.7 270 18:21 17.05.2020
3045 Clear 22 1014 49 10000 67.9 270 17:42 17.05.2020
3046 Clear 22 1014 49 10000 67.9 270 17:23 17.05.2020
3047 Clear 21 1014 56 10000 6.2 290 16:59 17.05.2020
3048 Clear 21 1014 56 10000 6.2 290 16:39 17.05.2020
3049 Clear 21 1014 56 10000 6.2 290 16:20 17.05.2020
3050 Clear 21 1014 56 10000 6.2 290 16:20 17.05.2020
3051 Clear 19 1014 63 10000 3.1 310 15:54 17.05.2020
3052 Clear 19 1014 63 10000 3.1 310 15:36 17.05.2020
3053 Clear 15 1014 82 10000 2.6 330 15:18 17.05.2020
3054 Clear 16 1014 82 10000 2.6 330 14:42 17.05.2020
3055 Clear 16 1014 82 10000 2.6 330 14:24 17.05.2020
3056 Clear 14 1013 82 10000 2.6 360 13:43 17.05.2020
3057 Clear 14 1013 82 10000 2.6 360 13:21 17.05.2020
3058 Clear 16 1011 67 10000 4.1 310 10:50 17.05.2020
3059 Clear 18 1010 55 10000 5.7 320 04:19 17.05.2020
3060 Clear 19 1009 49 10000 6.2 330 02:29 17.05.2020
3061 Clear 19 1009 45 10000 5.1 330 01:55 17.05.2020
3062 Clear 20 1009 52 10000 3.1 330 00:57 17.05.2020
3063 Clear 20 1009 52 10000 3.1 330 00:38 17.05.2020
3064 Clear 22 1009 43 10000 3.1 310 23:57 16.05.2020
3065 Clear 21 1009 43 10000 3.1 310 23:39 16.05.2020
3066 Clear 25 1009 38 10000 4.1 300 23:19 16.05.2020
3067 Clear 25 1009 38 10000 4.1 300 22:57 16.05.2020
3068 Clear 24 1009 38 10000 4.1 300 22:39 16.05.2020
3069 Clear 24 1009 38 10000 4.1 300 22:19 16.05.2020
3070 Clear 27 1009 28 10000 6.7 310 21:44 16.05.2020
3071 Clear 27 1009 28 10000 6.7 310 21:25 16.05.2020
3072 Clear 27 1009 28 10000 6.7 310 21:25 16.05.2020
3073 Clear 28 1009 28 10000 8.7 310 20:57 16.05.2020
3074 Clear 28 1009 28 10000 8.7 310 20:39 16.05.2020
3075 Clear 28 1009 28 10000 8.7 310 20:20 16.05.2020
3076 Clear 27 1009 28 10000 7.7 300 19:57 16.05.2020
3077 Clear 27 1009 28 10000 7.7 300 19:39 16.05.2020
3078 Clear 27 1009 28 10000 7.7 300 19:21 16.05.2020
3079 Clear 26 1010 34 10000 8.2 300 18:42 16.05.2020
3080 Clear 26 1010 34 10000 8.2 300 18:22 16.05.2020
3081 Clear 23 1010 40 10000 6.2 310 17:56 16.05.2020
3082 Clear 23 1010 40 10000 6.2 310 17:38 16.05.2020
3083 Clear 23 1010 40 10000 6.2 310 17:19 16.05.2020
3084 Clear 23 1010 40 10000 6.2 310 17:19 16.05.2020
3085 Clear 21 1011 49 10000 5.1 300 16:39 16.05.2020
3086 Clear 21 1011 49 10000 5.1 300 16:20 16.05.2020
3087 Clear 18 1011 55 10000 5.1 320 15:56 16.05.2020
3088 Clear 18 1011 55 10000 5.1 320 15:38 16.05.2020
3089 Clear 18 1011 55 10000 5.1 320 15:38 16.05.2020
3090 Clear 18 1011 55 10000 5.1 320 15:19 16.05.2020
3091 Clear 15 1012 71 10000 5.1 340 14:43 16.05.2020
3092 Clear 15 1012 71 10000 5.1 340 14:20 16.05.2020
3093 Clear 14 1011 76 10000 4.1 330 13:57 16.05.2020
3094 Clear 13 1011 76 10000 4.1 330 13:38 16.05.2020
3095 Clear 13 1011 76 10000 4.1 330 13:20 16.05.2020
3096 Clear 13 1011 71 10000 4.1 330 12:44 16.05.2020
3097 Clear 12 1011 71 10000 4.1 330 12:20 16.05.2020
3098 Clear 12 1011 66 10000 4.6 330 11:56 16.05.2020
3099 Clear 12 1011 66 10000 4.6 330 11:38 16.05.2020
3100 Clear 12 1011 66 10000 4.6 330 11:19 16.05.2020
3101 Clear 12 1011 66 10000 4.1 330 10:55 16.05.2020
3102 Clear 12 1011 66 10000 4.1 330 10:36 16.05.2020
3103 Clear 12 1011 66 10000 4.6 330 10:18 16.05.2020
3104 Clear 13 1011 66 10000 4.6 330 09:40 16.05.2020
3105 Clear 12 1011 66 10000 4.6 330 09:19 16.05.2020
3106 Clear 12 1012 66 10000 4.1 320 08:43 16.05.2020
3107 Clear 12 1012 66 10000 4.1 320 08:21 16.05.2020
3108 Clear 12 1012 66 10000 4.6 320 07:46 16.05.2020
3109 Clear 12 1012 66 10000 4.6 320 07:27 16.05.2020
3110 Clear 12 1012 71 10000 3.6 330 06:58 16.05.2020
3111 Clear 12 1012 71 10000 3.6 330 06:39 16.05.2020
3112 Clear 12 1013 66 10000 4.1 330 06:18 16.05.2020
3113 Clear 12 1013 66 10000 4.1 330 05:33 16.05.2020
3114 Clear 14 1013 62 10000 4.1 330 03:37 16.05.2020
3115 Clear 14 1012 58 10000 4.1 340 02:59 16.05.2020
3116 Clouds 14 1012 58 10000 4.1 340 02:21 16.05.2020
3117 Clouds 14 1012 58 10000 4.1 320 01:53 16.05.2020
3118 Clouds 16 1012 58 10000 4.1 320 01:23 16.05.2020
3119 Clouds 16 1012 51 10000 5.1 330 00:49 16.05.2020
3120 Clear 16 1012 51 10000 5.1 330 00:22 16.05.2020
3121 Clear 17 1012 51 10000 5.1 330 23:41 15.05.2020
3122 Clear 17 1012 51 10000 5.1 330 23:20 15.05.2020
3123 Clear 18 1013 45 10000 5.7 320 22:58 15.05.2020
3124 Clear 18 1013 45 10000 5.7 320 22:40 15.05.2020
3125 Clear 19 1013 45 10000 5.7 320 22:19 15.05.2020
3126 Clear 19 1013 40 10000 7.7 320 21:40 15.05.2020
3127 Clear 19 1013 40 10000 7.7 320 21:22 15.05.2020
3128 Clear 19 1013 42 10000 8.2 320 20:59 15.05.2020
3129 Clear 19 1013 42 10000 8.2 320 20:41 15.05.2020
3130 Clouds 19 1013 42 10000 8.2 320 20:22 15.05.2020
3131 Clouds 19 1014 42 10000 7.7 320 19:58 15.05.2020
3132 Clouds 19 1014 42 10000 7.7 320 19:40 15.05.2020
3133 Clouds 19 1014 42 10000 7.7 320 19:22 15.05.2020
3134 Clouds 18 1015 45 10000 7.7 330 18:46 15.05.2020
3135 Clouds 18 1015 45 10000 7.7 330 18:27 15.05.2020
3136 Clouds 16 1016 54 10000 7.7 340 17:41 15.05.2020
3137 Clouds 16 1016 54 10000 7.7 340 17:20 15.05.2020
3138 Clouds 14 1017 71 10000 5.1 330 16:58 15.05.2020
3139 Clouds 14 1017 71 10000 5.1 330 16:39 15.05.2020
3140 Clouds 13 1017 71 10000 5.1 330 16:19 15.05.2020
3141 Clouds 12 1017 76 10000 5.1 330 15:58 15.05.2020
3142 Clouds 11 1017 76 10000 5.1 330 15:39 15.05.2020
3143 Clouds 11 1017 76 10000 5.1 330 15:39 15.05.2020
3144 Clouds 11 1017 76 10000 5.1 330 15:19 15.05.2020
3145 Clouds 9 1018 81 10000 4.1 350 14:54 15.05.2020
3146 Clouds 9 1018 81 10000 4.1 350 14:36 15.05.2020
3147 Clouds 8 1017 87 10000 4.6 350 14:18 15.05.2020
3148 Clouds 8 1017 87 10000 4.6 350 13:40 15.05.2020
3149 Clouds 7 1017 87 10000 4.6 350 13:20 15.05.2020
3150 Clouds 7 1017 81 10000 3.6 10 12:41 15.05.2020
3151 Clouds 6 1017 75 10000 4.6 340 12:19 15.05.2020
3152 Clouds 6 1017 75 10000 4.6 340 11:59 15.05.2020
3153 Clouds 6 1017 75 10000 4.6 340 11:40 15.05.2020
3154 Clouds 6 1017 75 10000 4.6 340 11:21 15.05.2020
3155 Clouds 6 1017 75 10000 5.1 350 10:59 15.05.2020
3156 Clouds 6 1017 75 10000 5.1 350 10:40 15.05.2020
3157 Clouds 6 1017 75 10000 5.1 350 10:22 15.05.2020
3158 Clouds 6 1017 81 10000 4.6 360 09:59 15.05.2020
3159 Clouds 6 1017 81 10000 4.6 360 09:38 15.05.2020
3160 Clear 6 1017 81 10000 4.6 360 09:19 15.05.2020
3161 Clear 5 1019 80 10000 3.6 350 08:57 15.05.2020
3162 Clear 5 1019 80 10000 3.6 350 08:37 15.05.2020
3163 Clouds 5 1019 80 10000 3.6 350 08:18 15.05.2020
3164 Clouds 5 1019 80 10000 3.6 350 08:18 15.05.2020
3165 Clouds 5 1019 81 10000 3.1 360 07:44 15.05.2020
3166 Clouds 5 1019 81 10000 3.1 360 07:24 15.05.2020
3167 Clouds 6 1019 87 10000 2.6 10 06:47 15.05.2020
3168 Clouds 6 1020 87 10000 2.1 20 05:49 15.05.2020
3169 Clear 7 1021 87 6000 1 0 04:27 15.05.2020
3170 Clear 8 1021 81 8000 1.5 20 03:46 15.05.2020
3171 Clear 8 1021 81 10000 3.1 30 02:30 15.05.2020
3172 Clear 9 1021 76 10000 1.5 330 01:21 15.05.2020
3173 Clear 9 1021 76 10000 1 200 00:50 15.05.2020
3174 Clear 9 1021 76 10000 1 200 00:30 15.05.2020
3175 Clear 10 1021 71 10000 1.5 280 23:44 14.05.2020
3176 Clear 11 1021 71 10000 1.5 280 23:22 14.05.2020
3177 Clear 13 1021 58 10000 2.6 300 22:59 14.05.2020
3178 Clear 13 1021 58 10000 2.6 300 22:40 14.05.2020
3179 Clear 13 1021 58 10000 2.6 300 22:19 14.05.2020
3180 Clear 13 1022 62 10000 1 0 21:56 14.05.2020
3181 Clear 13 1022 62 10000 1 0 21:38 14.05.2020
3182 Clouds 14 1022 58 10000 3.1 300 21:19 14.05.2020
3183 Clouds 14 1022 58 10000 3.1 300 20:55 14.05.2020
3184 Clouds 14 1022 58 10000 3.1 300 20:36 14.05.2020
3185 Clouds 14 1022 54 10000 4.1 290 20:18 14.05.2020
3186 Clouds 14 1022 54 10000 4.1 290 19:40 14.05.2020
3187 Clouds 15 1022 54 10000 4.1 290 19:21 14.05.2020
3188 Clouds 15 1023 54 10000 1 0 18:58 14.05.2020
3189 Clouds 14 1023 54 10000 1 0 18:38 14.05.2020
3190 Clouds 14 1023 54 10000 1 0 18:38 14.05.2020
3191 Clouds 14 1023 54 10000 1 0 18:20 14.05.2020
3192 Clouds 14 1024 58 10000 1.5 200 17:59 14.05.2020
3193 Clouds 14 1024 58 10000 1.5 200 17:37 14.05.2020
3194 Clouds 14 1024 58 10000 1.5 200 17:37 14.05.2020
3195 Clouds 14 1024 58 10000 1.5 200 17:19 14.05.2020
3196 Clouds 14 1024 58 10000 2.1 200 16:57 14.05.2020
3197 Clouds 14 1024 58 10000 2.1 200 16:38 14.05.2020
3198 Clouds 14 1024 58 10000 2.1 200 16:19 14.05.2020
3199 Clouds 14 1024 58 10000 3.1 180 15:56 14.05.2020
3200 Clouds 13 1024 58 10000 3.1 180 15:37 14.05.2020
3201 Clouds 14 1024 58 10000 3.1 180 15:18 14.05.2020
3202 Clouds 12 1023 76 10000 1 0 14:40 14.05.2020
3203 Clouds 10 1023 76 10000 1 0 14:21 14.05.2020
3204 Clouds 10 1023 76 10000 1 0 13:59 14.05.2020
3205 Clouds 10 1023 76 10000 1 0 13:59 14.05.2020
3206 Clouds 10 1023 76 10000 1 0 13:59 14.05.2020
3207 Clouds 10 1023 76 10000 1 0 13:41 14.05.2020
3208 Clouds 10 1023 76 10000 1 0 13:20 14.05.2020
3209 Clouds 10 1023 81 10000 3.23 184 12:59 14.05.2020
3210 Clouds 10 1023 81 10000 3.23 184 12:39 14.05.2020
3211 Clouds 11 1022 62 10000 4.1 190 12:20 14.05.2020
3212 Clouds 11 1022 62 10000 4.1 190 11:58 14.05.2020
3213 Clouds 11 1022 62 10000 4.1 190 11:39 14.05.2020
3214 Clouds 11 1022 62 10000 4.1 190 11:20 14.05.2020
3215 Clouds 11 1022 66 10000 4.1 180 10:56 14.05.2020
3216 Clouds 11 1022 66 10000 4.1 180 10:37 14.05.2020
3217 Clouds 11 1022 66 10000 4.1 180 10:19 14.05.2020
3218 Clouds 11 1022 62 10000 4.1 200 09:42 14.05.2020
3219 Clouds 11 1022 62 10000 4.1 200 09:22 14.05.2020
3220 Clouds 11 1022 66 10000 4.6 200 08:41 14.05.2020
3221 Clouds 11 1022 66 10000 4.6 200 08:20 14.05.2020
3222 Clouds 12 1021 62 10000 5.7 180 07:46 14.05.2020
3223 Clouds 12 1021 62 10000 5.7 180 07:25 14.05.2020
3224 Clouds 12 1021 62 10000 4.6 190 06:54 14.05.2020
3225 Clouds 12 1021 62 10000 4.6 190 06:31 14.05.2020
3226 Clouds 12 1021 62 10000 5.1 190 05:56 14.05.2020
3227 Clouds 12 1021 62 10000 5.1 190 05:35 14.05.2020
3228 Clouds 12 1021 66 10000 5.7 190 04:25 14.05.2020
3229 Clouds 13 1021 71 10000 6.7 190 03:27 14.05.2020
3230 Clouds 13 1021 76 10000 6.2 190 02:42 14.05.2020
3231 Clouds 13 1020 66 10000 4.6 200 01:56 14.05.2020
3232 Clouds 13 1020 66 10000 4.6 200 01:24 14.05.2020
3233 Clouds 12 1019 76 10000 2.6 200 00:48 14.05.2020
3234 Clouds 13 1019 76 10000 2.6 200 00:24 14.05.2020
3235 Clouds 14 1019 71 10000 3.1 200 23:44 13.05.2020
3236 Clouds 14 1019 71 10000 3.1 200 23:22 13.05.2020
3237 Clouds 16 1018 63 10000 4.1 220 22:54 13.05.2020
3238 Clouds 15 1018 63 10000 4.1 220 22:36 13.05.2020
3239 Clouds 16 1018 63 10000 4.1 220 22:18 13.05.2020
3240 Clouds 16 1018 63 10000 6.2 230 21:56 13.05.2020
3241 Clouds 16 1018 63 10000 6.2 230 21:38 13.05.2020
3242 Clouds 16 1018 63 10000 6.2 230 21:18 13.05.2020
3243 Clouds 17 1018 55 10000 5.1 250 20:41 13.05.2020
3244 Clouds 17 1018 55 10000 5.1 250 20:23 13.05.2020
3245 Clouds 17 1018 59 10000 3.6 240 19:44 13.05.2020
3246 Clouds 17 1018 59 10000 3.6 240 19:24 13.05.2020
3247 Clouds 18 1018 55 10000 3.1 240 18:58 13.05.2020
3248 Clouds 18 1018 55 10000 3.1 240 18:39 13.05.2020
3249 -273 0 0 0 0 0 18:21 13.05.2020
3250 Clouds 18 1018 55 10000 3.1 240 18:21 13.05.2020
3251 Clouds 18 1018 55 10000 3.1 240 18:20 13.05.2020
3252 Clouds 18 1018 55 10000 3.1 240 18:20 13.05.2020
3253 Clouds 17 1018 63 10000 4.1 250 17:39 13.05.2020
3254 Clouds 17 1018 63 10000 4.1 250 17:19 13.05.2020
3255 Clouds 16 1018 82 10000 3.6 270 16:56 13.05.2020
3256 Clouds 16 1018 82 10000 3.6 270 16:37 13.05.2020
3257 Clouds 16 1018 82 10000 3.6 270 16:18 13.05.2020
3258 Clear 13 1018 93 10000 1.5 290 15:42 13.05.2020
3259 Clear 13 1018 93 10000 1.5 290 15:20 13.05.2020
3260 Mist 10 1018 100 2000 4.03 223 14:57 13.05.2020
3261 Mist 9 1018 100 2000 4.03 223 14:39 13.05.2020
3262 Mist 9 1018 100 2000 3.79 229 14:21 13.05.2020
3263 Fog 7 1018 100 50 3.79 229 13:57 13.05.2020
3264 Fog 7 1018 100 50 3.79 229 13:38 13.05.2020
3265 Fog 7 1018 100 50 3.46 235 13:19 13.05.2020
3266 Fog 7 1017 100 600 3.46 235 12:43 13.05.2020
3267 Fog 7 1017 100 600 3.04 239 12:23 13.05.2020
3268 Fog 6 1016 100 5000 2.1 340 11:57 13.05.2020
3269 Fog 6 1016 100 5000 2.1 340 11:39 13.05.2020
3270 Fog 7 1016 100 5000 2.1 340 11:20 13.05.2020
3271 Fog 8 1016 93 4000 1.5 250 10:59 13.05.2020
3272 Fog 8 1016 93 4000 1.5 250 10:39 13.05.2020
3273 Fog 7 1016 93 4000 1.5 250 10:20 13.05.2020
3274 Fog 7 1016 93 100 1 350 09:58 13.05.2020
3275 Fog 7 1016 93 100 1 350 09:39 13.05.2020
3276 Fog 7 1016 93 100 1 350 09:21 13.05.2020
3277 Fog 9 1016 93 200 0.5 310 08:41 13.05.2020
3278 Fog 9 1016 93 200 0.5 310 08:22 13.05.2020
3279 Fog 8 1017 93 500 1.5 340 07:59 13.05.2020
3280 Fog 8 1017 93 500 1.5 340 07:59 13.05.2020
3281 Fog 8 1017 93 500 1.5 340 07:36 13.05.2020
3282 Fog 7 1017 93 400 1.5 330 06:59 13.05.2020
3283 Fog 7 1017 93 1200 1.5 330 06:41 13.05.2020
3284 Clear 10 1017 87 8000 1 100 05:50 13.05.2020
3285 Clear 12 1017 76 8000 2.53 102 04:22 13.05.2020
3286 Clouds 12 1017 82 10000 1.5 130 02:59 13.05.2020
3287 Clouds 13 1017 82 10000 1.5 130 02:22 13.05.2020
3288 Clear 13 1017 82 10000 2.1 140 01:21 13.05.2020
3289 Clear 13 1016 93 6000 3.13 112 00:41 13.05.2020
3290 Clear 13 1016 93 6000 3.22 124 00:19 13.05.2020
3291 Clear 14 1016 76 10000 3.22 124 23:40 12.05.2020
3292 Clear 14 1016 76 10000 3.27 139 23:21 12.05.2020
3293 Clouds 15 1016 67 10000 4.1 150 22:57 12.05.2020
3294 Clouds 16 1016 67 10000 4.1 150 22:39 12.05.2020
3295 Clouds 16 1016 67 10000 4.1 150 22:20 12.05.2020
3296 Clouds 17 1016 63 10000 3.1 150 21:55 12.05.2020
3297 Clouds 17 1016 63 10000 3.1 150 21:36 12.05.2020
3298 Clouds 18 1016 59 10000 3.6 160 21:18 12.05.2020
3299 Clouds 17 1016 59 10000 3.6 160 20:56 12.05.2020
3300 Clouds 18 1016 59 10000 3.6 160 20:38 12.05.2020
3301 Clouds 18 1016 59 10000 3.6 160 20:19 12.05.2020
3302 Clouds 18 1016 48 10000 1.5 150 19:55 12.05.2020
3303 Clouds 18 1016 48 10000 1.5 150 19:37 12.05.2020
3304 Clouds 17 1017 59 10000 3.6 140 19:18 12.05.2020
3305 Clouds 17 1017 59 10000 3.6 140 18:41 12.05.2020
3306 Clouds 17 1017 59 10000 3.6 140 18:23 12.05.2020
3307 Clouds 17 1018 59 10000 3.1 90 17:54 12.05.2020
3308 Clouds 17 1018 59 10000 3.1 90 17:36 12.05.2020
3309 Clouds 16 1018 67 10000 2.6 30 17:18 12.05.2020
3310 Clouds 16 1018 67 10000 2.6 30 16:42 12.05.2020
3311 Clouds 16 1018 67 10000 2.6 30 16:21 12.05.2020
3312 Clear 13 1019 81 8000 1 0 15:55 12.05.2020
3313 Clear 13 1019 81 8000 1 0 15:36 12.05.2020
3314 Clear 13 1019 81 8000 1 0 15:36 12.05.2020
3315 Smoke 11 1019 87 5000 1 0 15:18 12.05.2020
3316 Smoke 10 1019 87 5000 1 0 14:55 12.05.2020
3317 Smoke 10 1019 87 5000 1 0 14:36 12.05.2020
3318 Clouds 8 1018 87 10000 1 0 14:18 12.05.2020
3319 Clouds 7 1018 87 10000 1 0 13:54 12.05.2020
3320 Clouds 7 1018 87 10000 1 0 13:36 12.05.2020
3321 Clouds 7 1017 87 10000 1 0 13:18 12.05.2020
3322 Clouds 7 1017 87 10000 1 0 12:55 12.05.2020
3323 Clouds 7 1017 87 10000 1 0 12:37 12.05.2020
3324 Clouds 7 1017 87 10000 1 0 12:18 12.05.2020
3325 Clouds 8 1017 93 6000 1.47 347 11:56 12.05.2020
3326 Clouds 8 1017 93 6000 1.47 347 11:37 12.05.2020
3327 Clear 7 1017 93 6000 1 0 11:19 12.05.2020
3328 Clear 7 1017 93 6000 1 0 10:54 12.05.2020
3329 Clear 7 1017 93 6000 1 0 10:36 12.05.2020
3330 Clear 8 1017 87 7000 1 0 10:18 12.05.2020
3331 Clear 8 1017 87 7000 1 0 10:18 12.05.2020
3332 Clear 8 1017 87 7000 1 0 09:55 12.05.2020
3333 Clear 8 1017 87 7000 1 0 09:36 12.05.2020
3334 Clear 8 1017 87 7000 1 0 09:18 12.05.2020
3335 Clear 7 1018 87 6000 1 0 08:39 12.05.2020
3336 Clouds 7 1018 87 6000 1 0 08:20 12.05.2020
3337 Clouds 8 1018 87 6000 1 0 07:44 12.05.2020
3338 Clouds 8 1018 87 6000 1 0 07:26 12.05.2020
3339 Mist 8 1018 87 4000 2.6 20 06:55 12.05.2020
3340 Mist 8 1018 87 4000 2.6 20 06:36 12.05.2020
3341 Mist 7 1018 87 4000 1 0 06:18 12.05.2020
3342 Mist 7 1018 87 4000 1 0 05:44 12.05.2020
3343 Clouds 12 1017 66 10000 1.79 102 03:49 12.05.2020
3344 Clear 12 1017 66 10000 0.5 0 02:58 12.05.2020
3345 Clouds 12 1017 66 10000 0.5 0 02:26 12.05.2020
3346 Clouds 11 1017 76 10000 1.5 350 01:33 12.05.2020
3347 Clouds 12 1016 71 10000 2.1 160 00:57 12.05.2020
3348 Clouds 12 1016 71 10000 2.1 160 00:21 12.05.2020
3349 Clouds 12 1016 71 10000 2.1 180 23:55 11.05.2020
3350 Clouds 12 1016 71 10000 2.1 180 23:37 11.05.2020
3351 Clouds 15 1016 51 10000 4.1 180 23:18 11.05.2020
3352 Clouds 16 1016 51 10000 4.1 180 22:54 11.05.2020
3353 Clouds 16 1016 51 10000 4.1 180 22:54 11.05.2020
3354 Clouds 16 1016 51 10000 4.1 180 22:36 11.05.2020
3355 Clouds 16 1016 51 10000 4.1 180 22:18 11.05.2020
3356 Clouds 17 1015 42 10000 4.1 180 21:54 11.05.2020
3357 Clouds 17 1015 42 10000 4.1 180 21:36 11.05.2020
3358 Clouds 17 1015 45 10000 5.1 200 21:18 11.05.2020
3359 Clouds 17 1015 45 10000 5.1 200 20:42 11.05.2020
3360 Clouds 18 1015 45 10000 5.1 200 20:21 11.05.2020
3361 Clouds 17 1015 45 10000 5.1 180 19:59 11.05.2020
3362 Clouds 18 1015 45 10000 5.1 180 19:41 11.05.2020
3363 Clear 18 1015 45 10000 5.1 180 19:22 11.05.2020
3364 Clear 18 1015 45 10000 5.1 180 18:57 11.05.2020
3365 Clear 18 1015 45 10000 5.1 180 18:38 11.05.2020
3366 Clear 18 1015 45 10000 5.1 180 18:19 11.05.2020
3367 Clear 18 1015 51 10000 7.7 180 17:57 11.05.2020
3368 Clear 18 1015 51 10000 7.7 180 17:38 11.05.2020
3369 Clear 18 1015 51 10000 7.7 180 17:20 11.05.2020
3370 Clear 18 1015 48 10000 7.2 210 16:56 11.05.2020
3371 Clear 18 1015 48 10000 7.2 210 16:37 11.05.2020
3372 Clear 18 1015 48 10000 7.2 210 16:18 11.05.2020
3373 Clear 17 1015 55 10000 5.1 210 15:42 11.05.2020
3374 Clear 17 1015 55 10000 5.1 210 15:20 11.05.2020
3375 Clear 17 1014 59 10000 4.1 210 14:58 11.05.2020
3376 Clear 17 1014 59 10000 4.1 210 14:40 11.05.2020
3377 Clouds 17 1014 59 10000 4.1 210 14:21 11.05.2020
3378 Clouds 17 1013 63 10000 3.1 180 13:42 11.05.2020
3379 Clouds 17 1013 63 10000 3.1 180 13:23 11.05.2020
3380 Clouds 17 1012 59 10000 4.1 180 12:59 11.05.2020
3381 Clouds 17 1012 59 10000 4.1 180 12:41 11.05.2020
3382 Clouds 17 1012 59 10000 4.1 180 12:23 11.05.2020
3383 Clouds 17 1011 67 10000 3.6 200 11:58 11.05.2020
3384 Clouds 17 1011 67 10000 3.6 200 11:40 11.05.2020
3385 Clouds 17 1011 67 10000 3.6 200 11:21 11.05.2020
3386 Clouds 17 1010 68 10000 4.1 210 10:58 11.05.2020
3387 Clouds 17 1010 68 10000 4.1 210 10:40 11.05.2020
3388 Clouds 17 1010 68 10000 4.1 210 10:21 11.05.2020
3389 Clouds 17 1010 72 10000 3.1 220 09:58 11.05.2020
3390 Clouds 17 1010 72 10000 3.1 220 09:39 11.05.2020
3391 Clouds 17 1010 72 10000 3.1 220 09:19 11.05.2020
3392 Clouds 18 1009 72 10000 1.5 240 08:55 11.05.2020
3393 Clouds 18 1009 72 10000 1.5 240 08:36 11.05.2020
3394 Clouds 18 1009 77 10000 2.28 233 08:18 11.05.2020
3395 Clouds 17 1009 77 10000 2.28 233 07:41 11.05.2020
3396 Clouds 18 1009 77 10000 2.16 216 07:23 11.05.2020
3397 Clouds 18 1009 72 10000 2.16 216 06:40 11.05.2020
3398 Rain 18 1008 72 10000 1 70 05:55 11.05.2020
3399 Rain 18 1008 72 10000 1 70 05:23 11.05.2020
3400 Clouds 18 1008 77 10000 1.5 100 04:19 11.05.2020
3401 Clouds 19 1007 64 10000 1.5 210 02:47 11.05.2020
3402 Clouds 19 1007 64 10000 1.5 210 02:29 11.05.2020
3403 Clouds 20 1007 60 10000 1.5 330 01:31 11.05.2020
3404 Clouds 20 1006 72 10000 2.1 40 00:44 11.05.2020
3405 Clear 21 1006 72 10000 2.1 40 00:19 11.05.2020
3406 Clear 23 1006 53 10000 0.5 0 23:43 10.05.2020
3407 Clear 23 1006 53 10000 0.5 0 23:20 10.05.2020
3408 Clear 25 1006 47 10000 5.1 360 22:55 10.05.2020
3409 Clear 25 1006 47 10000 5.1 360 22:37 10.05.2020
3410 Clear 25 1006 47 10000 5.1 360 22:18 10.05.2020
3411 Clear 26 1006 41 10000 6.7 330 21:43 10.05.2020
3412 Clear 26 1006 41 10000 6.7 330 21:19 10.05.2020
3413 Clear 25 1006 44 10000 7.7 330 20:43 10.05.2020
3414 Clear 25 1006 44 10000 7.7 330 20:25 10.05.2020
3415 Clear 25 1006 44 10000 7.7 350 19:59 10.05.2020
3416 Clear 25 1006 44 10000 7.7 350 19:40 10.05.2020
3417 Clear 25 1006 44 10000 7.7 350 19:22 10.05.2020
3418 Clear 24 1008 49 10000 7.7 360 18:57 10.05.2020
3419 Clear 24 1008 49 10000 7.7 360 18:37 10.05.2020
3420 Clear 23 1008 49 10000 7.7 360 18:19 10.05.2020
3421 Clear 21 1009 56 10000 6.7 360 17:58 10.05.2020
3422 Clear 22 1009 56 10000 6.7 360 17:40 10.05.2020
3423 Clear 21 1009 56 10000 6.7 360 17:21 10.05.2020
3424 Clear 19 1009 59 10000 6.2 360 16:57 10.05.2020
3425 Clear 20 1009 59 10000 6.2 360 16:38 10.05.2020
3426 Clear 19 1009 59 10000 6.2 360 16:19 10.05.2020
3427 Clear 17 1009 67 10000 7.7 20 15:44 10.05.2020
3428 Clear 16 1009 67 10000 7.7 20 15:25 10.05.2020
3429 Clear 14 1009 71 10000 6.2 20 14:58 10.05.2020
3430 Clear 14 1009 71 10000 6.2 20 14:38 10.05.2020
3431 Clouds 14 1009 71 10000 6.2 20 14:20 10.05.2020
3432 Clouds 12 1010 81 10000 6.2 30 13:59 10.05.2020
3433 Clouds 12 1010 81 10000 6.2 30 13:38 10.05.2020
3434 Clouds 11 1010 81 10000 6.2 30 13:20 10.05.2020
3435 Clouds 11 1010 76 10000 3.6 20 12:57 10.05.2020
3436 Clouds 10 1010 76 10000 3.6 20 12:39 10.05.2020
3437 Clouds 11 1010 76 10000 3.6 20 12:21 10.05.2020
3438 Clouds 11 1010 76 10000 3.1 20 11:57 10.05.2020
3439 Clouds 11 1010 76 10000 3.1 20 11:39 10.05.2020
3440 Clouds 11 1010 76 10000 3.1 20 11:19 10.05.2020
3441 Clouds 11 1011 71 10000 3.6 20 10:46 10.05.2020
3442 Clouds 11 1011 71 10000 3.6 20 10:28 10.05.2020
3443 Clouds 11 1011 71 10000 4.6 20 09:58 10.05.2020
3444 Clouds 11 1011 71 10000 4.6 20 09:40 10.05.2020
3445 Clouds 11 1011 71 10000 4.6 20 09:20 10.05.2020
3446 Clouds 11 1012 71 10000 4.1 20 08:50 10.05.2020
3447 Clear 11 1012 71 10000 4.1 20 08:24 10.05.2020
3448 Clear 11 1012 71 10000 3.1 20 07:45 10.05.2020
3449 Clear 11 1012 71 10000 3.1 20 07:21 10.05.2020
3450 Clear 11 1012 71 10000 3.6 20 06:57 10.05.2020
3451 Clear 11 1012 71 10000 3.6 20 06:32 10.05.2020
3452 Clear 11 1012 71 10000 4.1 20 05:52 10.05.2020
3453 Clear 12 1013 66 10000 3.1 30 04:55 10.05.2020
3454 Clear 12 1013 66 10000 3.1 30 04:36 10.05.2020
3455 Clear 13 1013 62 10000 5.7 30 03:57 10.05.2020
3456 Clear 13 1013 62 10000 5.7 30 03:38 10.05.2020
3457 Clear 13 1013 62 10000 3.1 30 02:48 10.05.2020
3458 Clear 13 1013 62 10000 3.1 30 02:19 10.05.2020
3459 Clouds 14 1013 58 10000 3.1 20 01:42 10.05.2020
3460 Clouds 15 1013 58 10000 3.1 20 01:20 10.05.2020
3461 Clouds 15 1012 58 10000 2.1 10 00:55 10.05.2020
3462 Clouds 16 1012 58 10000 2.1 10 00:26 10.05.2020
3463 Clouds 16 1012 55 10000 2.6 360 23:59 09.05.2020
3464 Clouds 16 1012 55 10000 2.6 360 23:39 09.05.2020
3465 Clouds 17 1012 55 10000 2.6 360 23:20 09.05.2020
3466 Clouds 20 1012 45 10000 4.1 340 22:43 09.05.2020
3467 Clouds 20 1012 45 10000 4.1 340 22:24 09.05.2020
3468 Clouds 21 1013 40 10000 6.2 330 21:59 09.05.2020
3469 Clouds 21 1013 40 10000 6.2 330 21:41 09.05.2020
3470 Clouds 21 1013 40 10000 6.2 330 21:21 09.05.2020
3471 Clouds 21 1013 42 10000 5.1 330 20:58 09.05.2020
3472 Clouds 20 1013 42 10000 5.1 330 20:38 09.05.2020
3473 Clouds 20 1013 42 10000 5.1 330 20:20 09.05.2020
3474 Clouds 20 1014 40 10000 7.7 340 19:56 09.05.2020
3475 Clouds 20 1014 40 10000 7.7 340 19:38 09.05.2020
3476 Clouds 20 1014 40 10000 7.7 340 19:19 09.05.2020
3477 Clouds 20 1014 49 10000 7.7 340 18:44 09.05.2020
3478 Clouds 20 1014 49 10000 7.7 340 18:26 09.05.2020
3479 Clouds 17 1016 59 10000 6.2 360 17:46 09.05.2020
3480 Clouds 17 1016 59 10000 6.2 360 17:23 09.05.2020
3481 Clouds 16 1017 63 10000 6.7 340 16:58 09.05.2020
3482 Clouds 16 1017 63 10000 6.7 340 16:58 09.05.2020
3483 Clouds 16 1017 63 10000 6.7 340 16:40 09.05.2020
3484 Clouds 16 1017 63 10000 6.7 340 16:19 09.05.2020
3485 Clouds 14 1017 66 10000 5.1 360 15:45 09.05.2020
3486 Clouds 13 1017 66 10000 5.1 360 15:26 09.05.2020
3487 Clouds 11 1017 71 10000 6.2 360 14:59 09.05.2020
3488 Clouds 11 1017 71 10000 6.2 360 14:40 09.05.2020
3489 Clouds 11 1017 71 10000 6.2 360 14:18 09.05.2020
3490 Clouds 9 1016 81 10000 5.7 10 13:56 09.05.2020
3491 Clouds 10 1016 81 10000 5.7 10 13:38 09.05.2020
3492 Clouds 9 1016 81 10000 5.7 10 13:19 09.05.2020
3493 Clouds 8 1016 81 10000 5.1 10 12:41 09.05.2020
3494 Clouds 9 1016 81 10000 5.1 10 12:22 09.05.2020
3495 Clouds 9 1016 81 10000 5.1 10 12:22 09.05.2020
3496 Clouds 8 1016 81 10000 3.6 360 11:56 09.05.2020
3497 Clouds 8 1016 81 10000 3.6 360 11:37 09.05.2020
3498 Clouds 8 1015 87 10000 4.1 20 11:18 09.05.2020
3499 Clouds 8 1015 87 10000 4.1 20 11:18 09.05.2020
3500 Clouds 9 1015 87 10000 4.1 20 10:43 09.05.2020
3501 Clouds 9 1015 87 10000 4.1 20 10:23 09.05.2020
3502 Clouds 9 1016 81 10000 3.6 10 09:56 09.05.2020
3503 Clouds 9 1016 81 10000 3.6 10 09:37 09.05.2020
3504 Clouds 9 1016 81 10000 3.6 10 09:18 09.05.2020
3505 Clouds 9 1016 81 10000 3.6 10 08:51 09.05.2020
3506 Clouds 9 1016 81 10000 3.6 10 08:31 09.05.2020
3507 Clouds 9 1017 81 10000 2.6 360 07:49 09.05.2020
3508 Clouds 9 1017 81 10000 2.6 360 07:31 09.05.2020
3509 Clear 9 1017 81 10000 4.6 20 06:47 09.05.2020
3510 Clear 10 1017 81 10000 4.6 20 06:23 09.05.2020
3511 Clear 10 1018 76 10000 3.6 10 05:45 09.05.2020
3512 Clear 11 1018 71 10000 2.6 30 03:44 09.05.2020
3513 Clear 11 1018 71 10000 2.6 30 03:22 09.05.2020
3514 Clear 11 1018 71 10000 2.1 30 02:32 09.05.2020
3515 Clouds 12 1018 66 10000 2.1 30 01:52 09.05.2020
3516 Clouds 12 1018 66 10000 2.1 30 01:24 09.05.2020
3517 Clouds 13 1018 87 10000 2.1 10 00:50 09.05.2020
3518 Clouds 13 1018 87 10000 2.1 10 00:31 09.05.2020
3519 Clouds 14 1018 62 10000 2.1 360 23:49 08.05.2020
3520 Clouds 14 1018 62 10000 2.1 360 23:29 08.05.2020
3521 Clouds 16 1019 55 10000 3.1 340 22:59 08.05.2020
3522 Clouds 17 1019 55 10000 3.1 340 22:40 08.05.2020
3523 Clouds 17 1019 55 10000 3.1 340 22:19 08.05.2020
3524 Clouds 18 1019 52 10000 6.2 340 21:59 08.05.2020
3525 Clouds 18 1019 52 10000 6.2 340 21:59 08.05.2020
3526 Clouds 18 1019 52 10000 6.2 340 21:39 08.05.2020
3527 Clear 18 1019 52 10000 6.2 340 21:19 08.05.2020
3528 Clear 18 1020 52 10000 6.2 340 20:58 08.05.2020
3529 Clear 18 1020 52 10000 6.2 340 20:39 08.05.2020
3530 Clouds 18 1020 52 10000 6.2 340 20:21 08.05.2020
3531 Clouds 18 1021 52 10000 4.1 310 19:44 08.05.2020
3532 Clouds 18 1021 52 10000 4.1 310 19:24 08.05.2020
3533 Clouds 18 1021 48 10000 5.7 310 18:56 08.05.2020
3534 Clouds 18 1022 52 10000 5.1 320 18:38 08.05.2020
3535 Clouds 17 1022 59 10000 5.1 320 18:18 08.05.2020
3536 Clouds 16 1022 59 10000 5.1 320 17:42 08.05.2020
3537 Clouds 15 1023 62 10000 3.1 330 17:18 08.05.2020
3538 Clouds 15 1023 62 10000 3.1 330 16:45 08.05.2020
3539 Clouds 15 1023 62 10000 3.1 330 16:26 08.05.2020
3540 Clouds 13 1023 76 10000 3.1 360 15:58 08.05.2020
3541 Clouds 13 1023 76 10000 3.1 360 15:40 08.05.2020
3542 Clouds 12 1023 76 10000 3.1 360 15:18 08.05.2020
3543 Clouds 10 1023 81 10000 3.1 360 14:54 08.05.2020
3544 Clouds 10 1023 81 10000 3.1 360 14:36 08.05.2020
3545 Clouds 7 1022 87 10000 2.1 360 14:18 08.05.2020
3546 Clouds 6 1022 87 10000 2.1 360 13:41 08.05.2020
3547 Clouds 6 1022 87 10000 2.1 360 13:20 08.05.2020
3548 Clouds 6 1022 93 10000 1.5 360 12:55 08.05.2020
3549 Clouds 6 1022 93 10000 1.5 360 12:36 08.05.2020
3550 Clouds 6 1021 87 10000 2.1 360 12:18 08.05.2020
3551 Clouds 6 1021 87 10000 2.1 360 11:43 08.05.2020
3552 Clouds 6 1021 87 10000 2.1 360 11:22 08.05.2020
3553 Clouds 6 1021 87 10000 2.1 360 10:58 08.05.2020
3554 Clouds 6 1021 87 10000 2.1 360 10:40 08.05.2020
3555 Clouds 7 1022 81 10000 1.5 350 10:19 08.05.2020
3556 Clouds 7 1022 81 10000 1.5 350 09:54 08.05.2020
3557 Clouds 7 1022 81 10000 1.5 350 09:36 08.05.2020
3558 Clouds 7 1022 81 10000 2.1 360 09:18 08.05.2020
3559 Clouds 7 1022 81 10000 2.1 360 08:40 08.05.2020
3560 Clouds 7 1022 81 10000 2.1 360 08:21 08.05.2020
3561 Clouds 7 1023 81 10000 1.5 360 07:43 08.05.2020
3562 Clear 7 1023 81 10000 1.5 360 07:23 08.05.2020
3563 Clear 8 1023 75 10000 2.1 350 06:50 08.05.2020
3564 Clear 8 1023 75 10000 2.1 350 06:21 08.05.2020
3565 Clear 8 1023 81 10000 2.1 10 05:41 08.05.2020
3566 Clear 9 1023 76 10000 1.5 360 04:30 08.05.2020
3567 Clear 10 1023 71 10000 1.5 350 02:32 08.05.2020
3568 Clouds 10 1023 66 10000 2.1 10 01:45 08.05.2020
3569 Clear 12 1023 66 10000 2.1 10 01:23 08.05.2020
3570 Clear 11 1023 71 10000 1.5 320 00:51 08.05.2020
3571 Clear 12 1023 71 10000 1.5 320 00:29 08.05.2020
3572 Clear 12 1023 66 10000 1.5 290 23:58 07.05.2020
3573 Clear 12 1023 66 10000 1.5 290 23:40 07.05.2020
3574 Clear 12 1023 66 10000 1.5 290 23:21 07.05.2020
3575 Clear 15 1023 58 10000 2.6 270 22:55 07.05.2020
3576 Clear 15 1023 58 10000 2.6 270 22:37 07.05.2020
3577 Clear 15 1023 58 10000 2.6 270 22:19 07.05.2020
3578 Clouds 16 1023 55 10000 5.1 270 21:55 07.05.2020
3579 Clouds 16 1023 55 10000 5.1 270 21:36 07.05.2020
3580 Clouds 16 1024 48 10000 4.6 260 21:18 07.05.2020
3581 Clouds 17 1024 48 10000 4.6 260 20:42 07.05.2020
3582 Clouds 16 1024 48 10000 4.6 260 20:22 07.05.2020
3583 Clouds 16 1024 51 10000 4.1 260 19:54 07.05.2020
3584 Clouds 16 1024 51 10000 4.1 260 19:36 07.05.2020
3585 Clouds 16 1024 55 10000 4.1 250 19:18 07.05.2020
3586 Clouds 16 1024 55 10000 4.1 250 18:43 07.05.2020
3587 Clouds 16 1024 55 10000 4.1 250 18:25 07.05.2020
3588 Clouds 16 1025 55 10000 5.1 260 17:43 07.05.2020
3589 Clouds 16 1025 55 10000 5.1 260 17:21 07.05.2020
3590 Clouds 15 1026 54 10000 3.1 270 16:59 07.05.2020
3591 Clouds 15 1026 54 10000 3.1 270 16:40 07.05.2020
3592 Clouds 15 1025 58 10000 1.5 270 16:18 07.05.2020
3593 Clouds 14 1025 58 10000 1.5 270 15:56 07.05.2020
3594 Clouds 14 1025 58 10000 1.5 270 15:37 07.05.2020
3595 Clouds 14 1025 71 10000 1.5 260 15:18 07.05.2020
3596 Clouds 13 1025 71 10000 1.5 260 14:43 07.05.2020
3597 Clouds 13 1024 76 10000 1.5 250 14:20 07.05.2020
3598 Clouds 13 1024 76 10000 1.5 250 13:44 07.05.2020
3599 Clouds 13 1024 76 10000 1.5 250 13:26 07.05.2020
3600 Clouds 12 1024 87 10000 3.32 243 12:54 07.05.2020
3601 Clouds 12 1024 87 10000 3.32 243 12:36 07.05.2020
3602 Clouds 11 1023 81 10000 3.35 236 12:18 07.05.2020
3603 Clouds 11 1023 81 10000 3.35 236 11:39 07.05.2020
3604 Clouds 11 1023 81 10000 3.77 235 11:21 07.05.2020
3605 Clouds 12 1024 87 10000 3.77 235 10:43 07.05.2020
3606 Clouds 12 1024 87 10000 3.7 228 10:25 07.05.2020
3607 Clouds 11 1023 87 10000 3.7 228 09:56 07.05.2020
3608 Clouds 11 1023 87 10000 3.7 228 09:38 07.05.2020
3609 Clouds 12 1023 71 10000 4.66 206 09:18 07.05.2020
3610 Clouds 12 1023 71 10000 4.66 206 09:18 07.05.2020
3611 Clouds 12 1023 71 10000 4.66 206 08:42 07.05.2020
3612 Clouds 12 1023 71 10000 4.8 202 08:22 07.05.2020
3613 Clouds 12 1024 76 10000 4.8 202 07:57 07.05.2020
3614 Clouds 12 1024 76 10000 4.8 202 07:57 07.05.2020
3615 Clouds 12 1024 76 10000 4.8 202 07:39 07.05.2020
3616 Clouds 12 1024 76 10000 4.66 201 07:18 07.05.2020
3617 Clouds 12 1024 66 10000 1.5 270 06:37 07.05.2020
3618 Clouds 12 1024 62 10000 1.5 210 05:47 07.05.2020
3619 Clouds 13 1024 66 10000 3.1 200 04:27 07.05.2020
3620 Clouds 14 1023 62 10000 2.6 210 03:29 07.05.2020
3621 Clouds 14 1023 58 10000 4.1 200 02:59 07.05.2020
3622 Clouds 14 1023 58 10000 4.1 200 02:26 07.05.2020
3623 Clouds 13 1023 50 10000 5.7 200 01:25 07.05.2020
3624 Clouds 13 1023 66 10000 2.1 220 00:51 07.05.2020
3625 Clouds 13 1023 66 10000 2.1 220 00:31 07.05.2020
3626 Clouds 13 1023 62 10000 4.1 210 23:58 06.05.2020
3627 Clouds 13 1023 62 10000 4.1 210 23:38 06.05.2020
3628 Clouds 13 1023 62 10000 4.1 210 23:19 06.05.2020
3629 Clouds 13 1023 62 10000 7.2 210 22:55 06.05.2020
3630 Clouds 13 1023 62 10000 7.2 210 22:37 06.05.2020
3631 Clouds 13 1023 62 10000 7.2 210 22:37 06.05.2020
3632 Clouds 13 1023 62 10000 4.1 210 22:18 06.05.2020
3633 Clouds 14 1023 62 10000 4.1 210 21:42 06.05.2020
3634 Clouds 13 1023 62 10000 4.1 210 21:22 06.05.2020
3635 Clouds 13 1023 62 10000 5.1 210 20:57 06.05.2020
3636 Clouds 14 1023 62 10000 5.1 210 20:38 06.05.2020
3637 Clouds 14 1023 62 10000 5.1 210 20:20 06.05.2020
3638 Clouds 14 1023 62 10000 5.1 210 19:56 06.05.2020
3639 Clouds 14 1023 62 10000 5.1 210 19:37 06.05.2020
3640 Clouds 14 1023 62 10000 5.1 210 19:37 06.05.2020
3641 Clouds 14 1023 62 10000 5.1 240 19:18 06.05.2020
3642 Clouds 14 1023 62 10000 5.1 240 18:55 06.05.2020
3643 Clouds 14 1023 62 10000 5.1 240 18:37 06.05.2020
3644 Clouds 14 1023 58 10000 7.2 220 18:18 06.05.2020
3645 Clouds 14 1023 58 10000 7.2 220 17:54 06.05.2020
3646 Clouds 14 1023 58 10000 7.2 220 17:36 06.05.2020
3647 Clouds 14 1023 62 10000 6.2 230 17:18 06.05.2020
3648 Clouds 14 1023 62 10000 6.2 230 16:57 06.05.2020
3649 Clouds 14 1023 62 10000 6.2 230 16:39 06.05.2020
3650 Clouds 14 1023 62 10000 6.2 230 16:19 06.05.2020
3651 Clouds 13 1022 66 10000 7.7 210 15:45 06.05.2020
3652 Clouds 13 1022 66 10000 7.7 210 15:22 06.05.2020
3653 Clouds 13 1021 66 10000 6.2 230 14:56 06.05.2020
3654 Clouds 13 1021 66 10000 6.2 230 14:38 06.05.2020
3655 Clouds 13 1021 66 10000 6.2 230 14:19 06.05.2020
3656 Clouds 13 1021 66 10000 6.2 220 13:57 06.05.2020
3657 Clouds 13 1021 66 10000 6.2 220 13:37 06.05.2020
3658 Clouds 13 1021 66 10000 6.2 220 13:19 06.05.2020
3659 Clouds 13 1020 66 10000 7.7 220 12:43 06.05.2020
3660 Clouds 13 1020 66 10000 7.7 220 12:24 06.05.2020
3661 Clouds 13 1019 66 10000 6.2 230 11:42 06.05.2020
3662 Clouds 13 1019 66 10000 6.2 230 11:23 06.05.2020
3663 Clouds 13 1018 66 10000 7.7 210 10:58 06.05.2020
3664 Clouds 12 1018 66 10000 7.7 210 10:39 06.05.2020
3665 Clouds 12 1018 66 10000 7.7 210 10:19 06.05.2020
3666 Clouds 13 1018 66 10000 9.3 210 09:59 06.05.2020
3667 Clouds 12 1018 66 10000 9.3 210 09:38 06.05.2020
3668 Clouds 13 1018 66 10000 9.3 210 09:20 06.05.2020
3669 Clouds 13 1017 62 10000 7.2 230 08:43 06.05.2020
3670 Clouds 13 1017 62 10000 7.2 230 08:20 06.05.2020
3671 Clouds 13 1017 62 10000 8.2 210 07:56 06.05.2020
3672 Clouds 13 1017 62 10000 8.2 210 07:38 06.05.2020
3673 Clouds 13 1017 62 10000 8.2 210 07:18 06.05.2020
3674 Clouds 13 1016 66 10000 8.7 220 06:46 06.05.2020
3675 Clouds 13 1016 66 10000 8.7 220 06:21 06.05.2020
3676 Clouds 13 1016 66 10000 6.7 220 05:49 06.05.2020
3677 Clouds 13 1016 66 10000 6.7 220 05:31 06.05.2020
3678 Clouds 13 1015 66 10000 11.3 220 03:53 06.05.2020
3679 Clouds 13 1015 66 10000 11.3 220 03:28 06.05.2020
3680 Clouds 13 1014 62 10000 10.3 220 02:54 06.05.2020
3681 Clouds 13 1014 62 10000 10.3 220 02:26 06.05.2020
3682 Clouds 13 1013 67 10000 10.8 230 01:43 06.05.2020
3683 Clouds 13 1013 67 10000 10.8 230 01:25 06.05.2020
3684 Clouds 13 1013 76 10000 7.7 230 00:44 06.05.2020
3685 Clouds 14 1013 76 10000 7.7 230 00:19 06.05.2020
3686 Clouds 14 1012 76 10000 7.7 230 23:42 05.05.2020
3687 Clouds 14 1012 76 10000 7.7 230 23:20 05.05.2020
3688 Clouds 13 1012 93 10000 5.1 230 22:55 05.05.2020
3689 Clouds 13 1012 93 10000 5.1 230 22:37 05.05.2020
3690 Rain 13 1011 93 2000 7.7 240 22:18 05.05.2020
3691 Rain 13 1011 93 2000 7.7 240 21:41 05.05.2020
3692 Rain 13 1010 76 1500 8.2 30 21:22 05.05.2020
3693 Clouds 14 1011 93 10000 5.7 240 20:59 05.05.2020
3694 Clouds 14 1010 72 10000 7.7 250 20:41 05.05.2020
3695 Clouds 15 1010 72 10000 7.7 250 20:20 05.05.2020
3696 Clouds 14 1010 76 10000 7.7 250 19:59 05.05.2020
3697 Clouds 15 1010 76 10000 7.7 250 19:40 05.05.2020
3698 Clouds 15 1010 76 10000 7.7 250 19:40 05.05.2020
3699 Clouds 15 1010 76 10000 7.7 250 19:21 05.05.2020
3700 Clouds 14 1011 76 10000 9.3 250 18:57 05.05.2020
3701 Clouds 14 1011 76 10000 9.3 250 18:57 05.05.2020
3702 Clouds 14 1011 76 10000 9.3 250 18:39 05.05.2020
3703 Clouds 14 1011 76 10000 9.3 250 18:19 05.05.2020
3704 Clouds 14 1010 76 10000 7.7 250 17:56 05.05.2020
3705 Clouds 14 1010 76 10000 7.7 250 17:38 05.05.2020
3706 Clouds 14 1010 76 10000 7.7 250 17:38 05.05.2020
3707 Clouds 14 1010 76 10000 7.7 250 17:20 05.05.2020
3708 Clouds 14 1010 82 10000 7.7 250 16:39 05.05.2020
3709 Clouds 14 1010 82 10000 7.7 250 16:20 05.05.2020
3710 Clouds 15 1009 87 10000 8.2 270 15:58 05.05.2020
3711 Clouds 15 1009 87 10000 8.2 270 15:39 05.05.2020
3712 Clouds 15 1009 87 10000 8.2 270 15:21 05.05.2020
3713 Clouds 14 1008 100 8000 5.1 300 14:55 05.05.2020
3714 Clouds 14 1008 100 8000 5.1 300 14:37 05.05.2020
3715 Clouds 14 1008 100 8000 5.1 300 14:18 05.05.2020
3716 Mist 13 1008 100 4000 4.1 350 13:55 05.05.2020
3717 Mist 13 1008 100 4000 4.1 350 13:37 05.05.2020
3718 Clouds 12 1008 100 10000 3.6 310 13:18 05.05.2020
3719 Clouds 12 1008 100 10000 3.6 310 12:55 05.05.2020
3720 Clouds 12 1008 93 10000 4.1 310 12:37 05.05.2020
3721 Clouds 12 1008 93 10000 4.1 310 12:19 05.05.2020
3722 Clouds 12 1008 93 10000 4.1 310 11:41 05.05.2020
3723 Clouds 12 1008 93 10000 4.1 310 11:20 05.05.2020
3724 Clouds 12 1008 93 10000 2.6 340 10:56 05.05.2020
3725 Clouds 11 1008 93 10000 2.6 340 10:37 05.05.2020
3726 Clouds 11 1008 93 10000 2.1 330 10:18 05.05.2020
3727 Clouds 11 1008 93 10000 2.1 330 09:44 05.05.2020
3728 Clouds 11 1008 93 10000 2.1 330 09:26 05.05.2020
3729 Clouds 12 1007 93 10000 3.6 20 08:59 05.05.2020
3730 Clouds 12 1007 93 10000 3.6 20 08:59 05.05.2020
3731 Clouds 12 1007 93 10000 3.6 20 08:39 05.05.2020
3732 Clouds 11 1009 89 0 4.87 321 08:18 05.05.2020
3733 Clouds 12 996 100 0 0.89 42 07:44 05.05.2020
3734 Clouds 12 996 97 0 0.89 71 07:22 05.05.2020
3735 Clouds 12 997 97 0 0.89 76 06:58 05.05.2020
3736 Clouds 12 997 97 0 0.89 76 06:58 05.05.2020
3737 Clouds 12 997 100 0 4.7 332 06:39 05.05.2020
3738 Clear 12 1009 93 8000 2.6 10 05:56 05.05.2020
3739 Clear 12 1009 93 8000 2.6 10 05:28 05.05.2020
3740 Clouds 14 1010 87 10000 3.1 340 02:46 05.05.2020
3741 Clouds 15 1010 93 10000 3.6 340 01:19 05.05.2020
3742 Rain 15 1010 100 4000 1.5 0 00:47 05.05.2020
3743 Rain 15 1011 93 3000 1.5 0 23:56 04.05.2020
3744 Rain 16 1011 93 3000 1.5 0 23:38 04.05.2020
3745 Rain 16 1010 82 4000 5.1 190 23:18 04.05.2020
3746 Rain 16 1010 82 4000 5.1 190 22:55 04.05.2020
3747 Rain 17 1010 82 4000 5.1 190 22:36 04.05.2020
3748 Rain 17 1010 82 5000 4.1 190 22:18 04.05.2020
3749 Smoke 18 1009 72 4000 0.5 0 21:45 04.05.2020
3750 Smoke 18 1009 72 4000 0.5 0 21:45 04.05.2020
3751 Smoke 18 1009 72 4000 0.5 0 21:45 04.05.2020
3752 Smoke 18 1009 72 4000 0.5 0 21:44 04.05.2020
3753 Smoke 18 1009 72 4000 0.5 0 21:44 04.05.2020
3754 Smoke 19 1009 72 4000 0.5 0 21:22 04.05.2020
3755 Smoke 19 1009 72 4000 0.5 0 21:22 04.05.2020
3756 Smoke 19 1009 72 4000 0.5 0 21:22 04.05.2020
3757 Rain 19 1010 64 10000 1 0 20:43 04.05.2020
3758 Rain 19 1010 64 10000 1 0 20:43 04.05.2020
3759 Rain 19 1010 64 10000 1 0 20:21 04.05.2020
3760 Rain 19 1010 64 10000 1 0 20:21 04.05.2020
3761 Clouds 20 1012 60 10000 1 0 19:58 04.05.2020
3762 Clouds 20 1012 60 10000 1 0 19:40 04.05.2020
3763 Clouds 20 1012 60 10000 1 0 19:40 04.05.2020
3764 Clouds 20 1012 60 10000 1 0 19:40 04.05.2020
3765 Clouds 20 1012 60 10000 1 0 19:19 04.05.2020
3766 Clouds 21 1013 60 10000 2.6 30 18:39 04.05.2020
3767 Clouds 20 1013 60 10000 0.5 0 18:21 04.05.2020
3768 Clouds 21 1013 60 10000 0.5 0 17:58 04.05.2020
3769 Clouds 21 1013 60 10000 0.5 0 17:40 04.05.2020
3770 Clouds 21 1013 60 10000 0.5 0 17:21 04.05.2020
3771 Clouds 18 1014 72 10000 1.5 360 16:59 04.05.2020
3772 Clouds 19 1014 72 10000 1.5 360 16:41 04.05.2020
3773 Clouds 18 1014 77 10000 2.1 360 16:20 04.05.2020
3774 Clouds 17 1014 77 10000 2.1 360 15:43 04.05.2020
3775 Clouds 17 1014 77 10000 2.1 360 15:24 04.05.2020
3776 Clouds 15 1014 82 10000 1 10 14:54 04.05.2020
3777 Clouds 15 1014 82 10000 1 10 14:54 04.05.2020
3778 Clouds 14 1014 82 10000 1 10 14:31 04.05.2020
3779 Clouds 14 1014 82 10000 1 10 14:31 04.05.2020
3780 Clouds 14 1014 82 10000 1 10 14:31 04.05.2020
3781 Clouds 14 1014 82 10000 1 10 14:31 04.05.2020
3782 Clouds 14 1014 87 10000 1.5 40 13:40 04.05.2020
3783 Clouds 14 1014 87 10000 1.5 40 13:40 04.05.2020
3784 Clouds 14 1014 87 10000 1.5 40 13:40 04.05.2020
3785 Clouds 14 1014 87 10000 1.5 40 13:40 04.05.2020
3786 Clouds 13 1014 87 10000 1.5 10 12:45 04.05.2020
3787 Clouds 13 1014 87 10000 1.5 10 12:45 04.05.2020
3788 Clouds 13 1014 87 10000 1.5 10 12:45 04.05.2020
3789 Clouds 13 1013 82 10000 2.1 20 11:30 04.05.2020
3790 Clouds 13 1013 82 10000 2.1 20 11:30 04.05.2020
3791 Clouds 13 1014 82 10000 2.6 30 09:32 04.05.2020
3792 Clouds 14 1014 82 10000 2.6 30 09:32 04.05.2020
3793 Clouds 13 1014 82 10000 2.6 30 09:32 04.05.2020
3794 Clouds 13 1014 82 10000 2.6 30 09:32 04.05.2020
3795 Clouds 14 1015 76 10000 3.1 30 07:59 04.05.2020
3796 Clouds 13 1015 76 10000 3.1 30 07:40 04.05.2020
3797 Clouds 14 1016 82 10000 2.6 30 06:31 04.05.2020
3798 Clouds 14 1016 82 10000 2.6 30 06:31 04.05.2020
3799 Clouds 14 1016 82 10000 2.6 30 06:31 04.05.2020
3800 Clouds 14 1016 82 10000 2.6 30 06:31 04.05.2020
3801 Clouds 14 1016 82 10000 2.6 30 06:31 04.05.2020
3802 Clouds 14 1016 76 10000 1 0 04:53 04.05.2020
3803 Clouds 15 1016 67 10000 2.1 50 03:18 04.05.2020
3804 Clouds 14 1016 67 10000 2.1 50 02:30 04.05.2020
3805 Clouds 16 1016 67 10000 2.47 13 00:36 04.05.2020
3806 Clouds 16 1016 67 10000 2.47 13 00:36 04.05.2020
3807 Clouds 17 1016 59 10000 1 0 23:45 03.05.2020
3808 Clouds 18 1016 59 10000 1 0 23:24 03.05.2020
3809 Clouds 19 1016 55 10000 3.1 30 22:46 03.05.2020
3810 Clouds 19 1016 55 10000 3.1 30 22:25 03.05.2020
3811 Clouds 20 1017 52 10000 4.1 40 21:58 03.05.2020
3812 Clouds 20 1017 52 10000 4.1 40 21:40 03.05.2020
3813 Clouds 20 1017 49 10000 4.1 40 21:20 03.05.2020
3814 Clouds 20 1017 49 10000 4.1 40 20:47 03.05.2020
3815 Clear 19 1017 49 10000 4.1 40 20:22 03.05.2020
3816 Clouds 19 1019 59 10000 4.6 50 19:54 03.05.2020
3817 Clouds 19 1019 59 10000 4.6 50 19:36 03.05.2020
3818 Clouds 19 1019 59 10000 4.6 50 19:36 03.05.2020
3819 Clouds 19 1020 59 10000 5.1 50 19:18 03.05.2020
3820 Clouds 19 1020 59 10000 5.1 50 18:38 03.05.2020
3821 Clouds 19 1020 59 10000 5.1 50 18:38 03.05.2020
3822 Clouds 19 1020 59 10000 5.1 50 18:19 03.05.2020
3823 Clouds 18 1021 63 10000 8.2 20 17:42 03.05.2020
3824 Clouds 18 1021 63 10000 8.2 20 17:42 03.05.2020
3825 Clouds 18 1021 63 10000 8.2 20 17:22 03.05.2020
3826 Clouds 18 1021 63 10000 8.2 20 17:22 03.05.2020
3827 Clouds 18 1021 63 10000 8.2 20 17:22 03.05.2020
3828 Clear 17 1022 63 10000 4.1 40 16:54 03.05.2020
3829 Clear 17 1022 63 10000 4.1 40 16:36 03.05.2020
3830 Clear 15 1022 72 10000 2.6 40 16:18 03.05.2020
3831 Clear 16 1022 72 10000 2.6 40 15:55 03.05.2020
3832 Clear 15 1022 72 10000 2.6 40 15:36 03.05.2020
3833 Clear 15 1022 72 10000 2.6 40 15:36 03.05.2020
3834 Clear 15 1022 72 10000 2.6 40 15:36 03.05.2020
3835 Clouds 14 1022 87 10000 2.1 40 15:18 03.05.2020
3836 Clouds 13 1022 87 10000 2.1 40 14:41 03.05.2020
3837 Clear 12 1022 87 10000 2.1 40 14:22 03.05.2020
3838 Clear 10 1022 93 10000 2.6 60 13:56 03.05.2020
3839 Clear 10 1022 93 10000 2.6 60 13:56 03.05.2020
3840 Clear 10 1022 93 10000 2.6 60 13:33 03.05.2020
3841 Clear 10 1022 93 10000 2.6 60 13:33 03.05.2020
3842 Clear 10 1022 93 10000 2.6 60 13:33 03.05.2020
3843 Clear 10 1022 93 10000 2.6 60 13:33 03.05.2020
3844 Clear 10 1022 93 10000 2.6 60 13:33 03.05.2020
3845 Fog 10 1022 100 10000 1.5 40 12:47 03.05.2020
3846 Fog 9 1022 100 10000 1.5 40 12:20 03.05.2020
3847 Fog 9 1022 93 10000 1 0 11:57 03.05.2020
3848 Fog 9 1022 93 10000 1 0 11:57 03.05.2020
3849 Fog 9 1022 93 10000 1 0 11:57 03.05.2020
3850 Fog 9 1022 93 10000 1 0 11:57 03.05.2020
3851 Fog 9 1022 93 10000 1 0 11:39 03.05.2020
3852 Fog 9 1022 93 10000 1 0 11:39 03.05.2020
3853 Fog 9 1022 93 10000 1 0 11:19 03.05.2020
3854 Fog 10 1021 93 10000 3.25 22 10:49 03.05.2020
3855 Fog 10 1021 93 10000 3.25 22 10:49 03.05.2020
3856 Fog 10 1021 93 10000 3.25 22 10:49 03.05.2020
3857 Fog 10 1022 93 10000 1 0 10:01 03.05.2020
3858 Fog 10 1022 93 10000 1 0 10:01 03.05.2020
3859 Fog 10 1022 93 10000 1 0 10:01 03.05.2020
3860 Fog 10 1022 93 10000 1 0 10:01 03.05.2020
3861 Clear 11 1022 87 10000 1.5 60 09:39 03.05.2020
3862 Clear 11 1022 87 10000 2.6 60 08:57 03.05.2020
3863 Clear 11 1022 87 10000 2.6 60 08:57 03.05.2020
3864 Clear 11 1022 87 10000 2.6 60 08:57 03.05.2020
3865 Clouds 12 1022 87 10000 2.6 60 08:27 03.05.2020
3866 Clouds 12 1022 87 10000 3.1 70 07:40 03.05.2020
3867 Clouds 12 1022 87 10000 3.1 70 07:40 03.05.2020
3868 Clouds 12 1023 87 10000 3.1 70 06:31 03.05.2020
3869 Clouds 12 1023 87 10000 3.1 70 06:31 03.05.2020
3870 Clouds 12 1023 87 10000 3.1 70 06:31 03.05.2020
3871 Clouds 12 1023 87 8000 2.6 60 05:49 03.05.2020
3872 Clouds 12 1023 87 8000 2.6 60 05:29 03.05.2020
3873 Clouds 13 1023 82 10000 2.1 70 04:27 03.05.2020
3874 Clouds 14 1023 82 10000 3.1 90 03:30 03.05.2020
3875 Clouds 15 1023 77 10000 3.6 100 02:30 03.05.2020
3876 Clouds 15 1023 77 10000 3.6 120 01:48 03.05.2020
3877 Clouds 15 1023 77 10000 3.6 120 01:27 03.05.2020
3878 Clouds 15 1022 82 10000 3.1 120 00:57 03.05.2020
3879 Clouds 15 1022 82 10000 3.1 120 00:57 03.05.2020
3880 Clouds 15 1022 82 10000 3.1 120 00:38 03.05.2020
3881 Clouds 15 1022 82 10000 3.1 120 00:19 03.05.2020
3882 Clouds 16 1022 77 10000 4.1 120 23:44 02.05.2020
3883 Clouds 16 1022 77 10000 4.1 120 23:26 02.05.2020
3884 Clouds 17 1022 82 10000 4.6 130 22:56 02.05.2020
3885 Clouds 18 1022 82 10000 4.6 130 22:37 02.05.2020
3886 Clouds 18 1022 68 10000 5.1 140 22:18 02.05.2020
3887 Clouds 19 1022 68 10000 5.1 140 21:40 02.05.2020
3888 Clouds 18 1022 68 10000 5.1 140 21:19 02.05.2020
3889 Clouds 19 1022 68 10000 5.1 120 20:57 02.05.2020
3890 Clouds 19 1022 68 10000 5.1 120 20:38 02.05.2020
3891 Clouds 19 1022 68 10000 5.1 120 20:19 02.05.2020
3892 Clouds 19 1023 72 10000 4.6 130 19:57 02.05.2020
3893 Clouds 20 1023 72 10000 4.6 130 19:39 02.05.2020
3894 Clouds 20 1023 72 10000 4.6 130 19:20 02.05.2020
3895 Clouds 20 1023 72 10000 4.6 130 19:20 02.05.2020
3896 Clouds 19 1023 72 10000 4.1 180 18:56 02.05.2020
3897 Clouds 19 1023 72 10000 4.1 180 18:37 02.05.2020
3898 Clouds 19 1023 72 10000 4.1 180 18:19 02.05.2020
3899 Clouds 18 1024 77 10000 4.1 180 17:55 02.05.2020
3900 Clouds 19 1024 77 10000 4.1 180 17:37 02.05.2020
3901 Clouds 19 1024 77 10000 4.1 180 17:19 02.05.2020
3902 Clouds 19 1024 68 10000 3.6 180 16:43 02.05.2020
3903 Clouds 19 1024 68 10000 3.6 180 16:43 02.05.2020
3904 Clouds 19 1024 68 10000 3.6 180 16:25 02.05.2020
3905 Clouds 18 1024 82 10000 4.1 180 15:55 02.05.2020
3906 Clouds 18 1024 82 10000 4.1 180 15:36 02.05.2020
3907 Clouds 17 1023 87 10000 4.1 160 15:18 02.05.2020
3908 Clouds 17 1023 87 10000 4.1 160 14:41 02.05.2020
3909 Clouds 16 1023 87 10000 4.1 160 14:22 02.05.2020
3910 Clouds 15 1023 87 10000 1.5 170 13:55 02.05.2020
3911 Clouds 15 1023 87 10000 1.5 170 13:37 02.05.2020
3912 Clouds 14 1022 82 10000 3.1 170 13:18 02.05.2020
3913 Clouds 14 1022 82 10000 3.1 170 13:18 02.05.2020
3914 Clouds 15 1022 82 10000 3.1 170 12:40 02.05.2020
3915 Clouds 14 1022 82 10000 3.1 170 12:20 02.05.2020
3916 Clouds 14 1022 82 10000 3.1 170 11:55 02.05.2020
3917 Clouds 14 1022 82 10000 3.1 170 11:37 02.05.2020
3918 Clouds 14 1022 82 10000 3.1 170 11:18 02.05.2020
3919 Clouds 15 1022 82 10000 4.1 170 10:40 02.05.2020
3920 Clouds 15 1022 82 10000 4.1 170 10:22 02.05.2020
3921 Clouds 15 1022 82 10000 5.1 180 09:58 02.05.2020
3922 Clouds 15 1022 82 10000 5.1 180 09:39 02.05.2020
3923 Clouds 15 1022 82 10000 5.1 180 09:21 02.05.2020
3924 Clouds 15 1022 82 10000 4.6 190 08:55 02.05.2020
3925 Clouds 15 1022 82 10000 4.6 190 08:33 02.05.2020
3926 Clouds 15 1022 82 10000 5.7 190 07:50 02.05.2020
3927 Clouds 15 1022 82 10000 5.7 190 07:30 02.05.2020
3928 Clouds 15 1022 77 10000 6.2 190 06:54 02.05.2020
3929 Clouds 15 1022 77 10000 6.2 190 06:23 02.05.2020
3930 Clouds 15 1022 72 10000 6.2 200 05:27 02.05.2020
3931 Clouds 14 1022 72 10000 5.1 200 04:26 02.05.2020
3932 Clouds 14 1022 72 10000 4.6 200 03:38 02.05.2020
3933 Clouds 15 1021 72 10000 4.1 190 02:40 02.05.2020
3934 Clouds 15 1021 77 10000 4.6 180 01:52 02.05.2020
3935 Clouds 15 1021 87 10000 4.1 190 01:18 02.05.2020
3936 Clouds 15 1021 87 10000 4.1 190 00:42 02.05.2020
3937 Clouds 15 1021 87 10000 4.1 190 00:20 02.05.2020
3938 Clouds 15 1020 77 10000 4.1 200 23:40 01.05.2020
3939 Clouds 16 1020 77 10000 4.1 200 23:21 01.05.2020
3940 Clouds 17 1020 77 10000 6.2 210 22:58 01.05.2020
3941 Clouds 17 1020 77 10000 6.2 210 22:38 01.05.2020
3942 Clouds 17 1020 77 10000 6.2 210 22:38 01.05.2020
3943 Clouds 17 1020 77 10000 6.2 210 22:19 01.05.2020
3944 Clouds 18 1019 72 10000 4.1 240 21:57 01.05.2020
3945 Clouds 18 1019 72 10000 4.1 240 21:39 01.05.2020
3946 Clouds 18 1019 72 10000 4.1 240 21:19 01.05.2020
3947 Clouds 19 1019 72 10000 3.1 180 20:57 01.05.2020
3948 Clouds 18 1019 72 10000 3.1 180 20:38 01.05.2020
3949 Clouds 18 1019 72 10000 3.1 180 20:19 01.05.2020
3950 Clouds 19 1019 64 10000 2.6 260 19:55 01.05.2020
3951 Clouds 20 1019 64 10000 2.6 260 19:37 01.05.2020
3952 Clouds 19 1019 64 10000 2.6 260 19:19 01.05.2020
3953 Clouds 19 1020 60 10000 2.1 240 18:55 01.05.2020
3954 Clouds 19 1020 60 10000 2.1 240 18:36 01.05.2020
3955 Clouds 19 1020 77 10000 2.1 300 18:18 01.05.2020
3956 Clouds 18 1020 77 10000 2.1 300 17:40 01.05.2020
3957 Clouds 18 1020 77 10000 2.1 300 17:21 01.05.2020
3958 Clouds 16 1021 82 10000 2.1 290 16:57 01.05.2020
3959 Clouds 16 1021 82 10000 2.1 290 16:39 01.05.2020
3960 Clouds 15 1021 82 10000 2.1 290 16:20 01.05.2020
3961 Clouds 14 1021 93 10000 1.5 300 15:57 01.05.2020
3962 Clouds 13 1021 93 10000 1.5 300 15:39 01.05.2020
3963 Clear 13 1021 93 10000 1.5 300 15:19 01.05.2020
3964 Clear 12 1021 93 10000 1.5 310 14:43 01.05.2020
3965 Clouds 12 1021 93 10000 1.5 310 14:24 01.05.2020
3966 Clouds 12 1021 93 10000 2.1 340 13:55 01.05.2020
3967 Clouds 12 1021 93 10000 2.1 340 13:36 01.05.2020
3968 Clear 11 1020 93 10000 1.5 360 13:18 01.05.2020
3969 Clear 11 1020 93 10000 1.5 360 12:54 01.05.2020
3970 Clear 11 1020 93 10000 1.5 360 12:36 01.05.2020
3971 Fog 10 1020 93 9000 1.5 320 12:18 01.05.2020
3972 Fog 10 1020 93 9000 1.5 320 11:41 01.05.2020
3973 Fog 10 1020 93 9000 1.5 320 11:21 01.05.2020
3974 Fog 10 1020 93 9000 1.5 320 11:21 01.05.2020
3975 Clouds 10 1020 93 8000 1.5 330 10:56 01.05.2020
3976 Clouds 10 1020 93 8000 1.5 330 10:37 01.05.2020
3977 Mist 10 1020 93 3000 2.6 330 10:19 01.05.2020
3978 Mist 10 1020 93 3000 2.6 330 10:19 01.05.2020
3979 Mist 11 1020 93 3000 2.6 330 09:43 01.05.2020
3980 Mist 11 1020 93 3000 2.6 330 09:19 01.05.2020
3981 Fog 11 1020 93 900 2.62 209 08:54 01.05.2020
3982 Fog 11 1020 93 900 2.62 209 08:36 01.05.2020
3983 Fog 12 1020 93 4000 3.41 210 08:18 01.05.2020
3984 Fog 12 1020 93 8000 3.41 210 07:41 01.05.2020
3985 Fog 12 1020 93 8000 3.43 201 07:21 01.05.2020
3986 Mist 11 1021 93 2500 1.5 340 06:39 01.05.2020
3987 Mist 12 1021 93 3000 1.5 330 05:32 01.05.2020
3988 Mist 12 1021 93 3500 1 0 04:20 01.05.2020
3989 Mist 13 1021 87 5000 1 0 02:59 01.05.2020
3990 Mist 13 1021 87 5000 1 0 02:40 01.05.2020
3991 Clouds 13 1020 82 10000 1.5 320 01:59 01.05.2020
3992 Clouds 13 1020 82 10000 1.5 320 01:28 01.05.2020
3993 Clouds 13 1020 87 10000 2.1 240 00:56 01.05.2020
3994 Clouds 14 1020 87 10000 2.1 240 00:36 01.05.2020
3995 Clouds 15 1020 82 10000 2.1 230 00:18 01.05.2020
3996 Clouds 15 1020 82 10000 2.1 230 23:54 30.04.2020
3997 Clouds 15 1020 82 10000 2.1 230 23:36 30.04.2020
3998 Clouds 16 1019 77 10000 4.1 240 23:18 30.04.2020
3999 Clouds 16 1019 77 10000 4.1 240 22:40 30.04.2020
4000 Clouds 16 1019 77 10000 4.1 240 22:19 30.04.2020
4001 Clouds 17 1019 72 10000 4.1 230 21:55 30.04.2020
4002 Clouds 17 1019 72 10000 4.1 230 21:37 30.04.2020
4003 Clouds 17 1019 72 10000 6.2 230 21:18 30.04.2020
4004 Clouds 17 1019 72 10000 6.2 230 20:41 30.04.2020
4005 Clouds 17 1019 72 10000 6.2 230 20:19 30.04.2020
4006 Clouds 17 1019 72 10000 5.1 240 19:58 30.04.2020
4007 Clouds 18 1019 72 10000 5.1 240 19:38 30.04.2020
4008 Clouds 18 1019 72 10000 5.1 240 19:18 30.04.2020
4009 Clouds 18 1019 72 10000 5.1 240 18:55 30.04.2020
4010 Clouds 18 1019 72 10000 5.1 240 18:36 30.04.2020
4011 Clouds 17 1019 72 10000 6.2 220 18:18 30.04.2020
4012 Clouds 17 1019 72 10000 6.2 220 17:40 30.04.2020
4013 Clouds 17 1019 72 10000 6.2 220 17:22 30.04.2020
4014 Clouds 17 1019 77 10000 6.2 210 16:58 30.04.2020
4015 Clouds 17 1019 77 10000 6.2 210 16:40 30.04.2020
4016 Clouds 17 1019 77 10000 6.2 210 16:20 30.04.2020
4017 Clouds 17 1019 77 10000 7.7 210 15:54 30.04.2020
4018 Clouds 17 1019 77 10000 7.7 210 15:36 30.04.2020
4019 Clouds 16 1018 82 10000 5.1 230 15:18 30.04.2020
4020 Clouds 16 1018 82 10000 5.1 230 14:40 30.04.2020
4021 Clouds 16 1018 82 10000 5.1 230 14:19 30.04.2020
4022 Clouds 15 1018 87 10000 5.1 230 13:56 30.04.2020
4023 Clouds 15 1018 87 10000 5.1 230 13:38 30.04.2020
4024 Clouds 15 1018 87 10000 5.1 230 13:20 30.04.2020
4025 Clouds 14 1017 77 10000 5.7 250 12:42 30.04.2020
4026 Clouds 14 1017 77 10000 5.7 250 12:21 30.04.2020
4027 Clouds 14 1016 77 10000 4.6 250 11:59 30.04.2020
4028 Clouds 14 1016 77 10000 4.6 250 11:38 30.04.2020
4029 Clouds 14 1016 77 10000 5.7 250 11:18 30.04.2020
4030 Clouds 14 1016 77 10000 5.7 250 11:18 30.04.2020
4031 Clouds 14 1016 77 10000 5.7 250 10:55 30.04.2020
4032 Clouds 14 1016 77 10000 5.7 250 10:55 30.04.2020
4033 Clouds 14 1016 77 10000 5.7 250 10:37 30.04.2020
4034 Clouds 14 1016 72 10000 5.7 250 10:18 30.04.2020
4035 Clouds 14 1016 72 10000 5.7 250 09:43 30.04.2020
4036 Clouds 14 1016 72 10000 5.7 250 09:23 30.04.2020
4037 Clouds 15 1016 72 10000 6.2 240 08:49 30.04.2020
4038 Clouds 15 1016 72 10000 6.2 240 08:27 30.04.2020
4039 Clouds 15 1016 72 10000 6.7 240 07:59 30.04.2020
4040 Clouds 15 1016 72 10000 6.7 240 07:40 30.04.2020
4041 Clouds 15 1016 72 10000 6.7 240 07:22 30.04.2020
4042 Clouds 16 1016 77 10000 6.7 260 06:39 30.04.2020
4043 Clouds 16 1016 67 10000 7.2 230 05:49 30.04.2020
4044 Clouds 16 1016 67 10000 7.2 230 05:27 30.04.2020
4045 Clear 16 1015 67 10000 7.2 250 04:29 30.04.2020
4046 Clear 17 1015 63 10000 5.7 260 02:59 30.04.2020
4047 -273 0 0 0 0 0 02:29 30.04.2020
4048 Clear 17 1014 63 10000 7.2 270 01:56 30.04.2020
4049 Clear 17 1014 63 10000 7.2 270 01:20 30.04.2020
4050 Clear 17 1014 82 10000 5.1 270 00:37 30.04.2020
4051 Clear 18 1014 72 10000 5.7 270 00:18 30.04.2020
4052 Clear 17 1014 72 10000 5.7 270 23:42 29.04.2020
4053 Clear 18 1014 72 10000 5.7 270 23:24 29.04.2020
4054 Clear 19 1014 63 10000 8.2 270 22:59 29.04.2020
4055 Clear 19 1014 63 10000 8.2 270 22:39 29.04.2020
4056 Clear 19 1014 63 10000 8.2 270 22:20 29.04.2020
4057 Clouds 19 1014 59 10000 8.7 280 21:39 29.04.2020
4058 Clouds 19 1014 59 10000 8.7 280 21:21 29.04.2020
4059 Clear 19 1014 63 10000 9.8 270 20:59 29.04.2020
4060 Clear 19 1014 63 10000 9.8 270 20:40 29.04.2020
4061 Clouds 19 1014 59 10000 8.2 270 20:19 29.04.2020
4062 Clouds 19 1014 59 10000 8.2 270 19:57 29.04.2020
4063 Clouds 19 1014 59 10000 8.2 270 19:39 29.04.2020
4064 Clouds 19 1015 63 10000 9.8 270 19:18 29.04.2020
4065 Clouds 19 1015 63 10000 9.8 270 18:42 29.04.2020
4066 Clouds 19 1015 63 10000 9.8 270 18:42 29.04.2020
4067 Clouds 19 1015 63 10000 9.8 270 18:22 29.04.2020
4068 Clouds 19 1015 63 10000 8.7 270 17:56 29.04.2020
4069 Clouds 19 1015 63 10000 8.7 270 17:38 29.04.2020
4070 Clouds 19 1015 63 10000 8.7 270 17:20 29.04.2020
4071 Clouds 19 1015 72 10000 8.7 270 16:38 29.04.2020
4072 Clouds 19 1015 72 10000 8.7 270 16:19 29.04.2020
4073 Clouds 17 1015 77 10000 9.3 270 15:57 29.04.2020
4074 Clouds 17 1015 77 10000 9.3 270 15:39 29.04.2020
4075 Clouds 17 1015 77 10000 9.3 270 15:20 29.04.2020
4076 Clouds 16 1015 82 10000 5.7 300 14:56 29.04.2020
4077 Clouds 16 1015 82 10000 5.7 300 14:38 29.04.2020
4078 Clear 15 1014 87 10000 5.1 290 14:18 29.04.2020
4079 Clear 15 1014 87 10000 5.1 290 13:42 29.04.2020
4080 Clear 15 1014 87 10000 5.1 290 13:20 29.04.2020
4081 Clear 15 1014 93 10000 4.1 300 12:59 29.04.2020
4082 Clear 15 1014 93 10000 4.1 300 12:39 29.04.2020
4083 Clear 15 1014 93 10000 4.1 300 12:19 29.04.2020
4084 Clear 15 1013 82 10000 5.1 290 11:40 29.04.2020
4085 Clear 15 1013 82 10000 5.1 290 11:22 29.04.2020
4086 Clear 15 1013 82 10000 4.6 300 10:59 29.04.2020
4087 Clear 15 1013 82 10000 4.6 300 10:37 29.04.2020
4088 Clear 15 1013 82 10000 3.6 290 10:19 29.04.2020
4089 Clear 15 1013 82 10000 3.6 290 09:42 29.04.2020
4090 Clear 15 1013 82 10000 3.6 290 09:24 29.04.2020
4091 Clear 15 1013 87 10000 3.1 300 08:59 29.04.2020
4092 Clear 15 1013 87 10000 3.1 300 08:59 29.04.2020
4093 Clear 15 1013 87 10000 3.1 300 08:41 29.04.2020
4094 Clear 15 1013 87 10000 3.1 300 08:23 29.04.2020
4095 Clear 15 1013 82 10000 3.6 280 07:48 29.04.2020
4096 Clear 15 1013 82 10000 3.6 280 07:25 29.04.2020
4097 Clear 16 1013 77 10000 6.2 270 06:52 29.04.2020
4098 Clear 16 1013 77 10000 6.2 270 06:31 29.04.2020
4099 Clouds 16 1013 93 10000 3.1 290 05:22 29.04.2020
4100 Clouds 16 1013 87 10000 3.6 290 04:47 29.04.2020
4101 Clouds 16 1013 87 10000 3.6 290 04:19 29.04.2020
4102 Clouds 18 1011 93 10000 3.6 290 02:49 29.04.2020
4103 Clouds 18 1010 82 10000 5.7 330 01:45 29.04.2020
4104 Clouds 19 1010 82 10000 5.7 330 01:26 29.04.2020
4105 Clouds 19 1008 88 10000 6.7 330 00:50 29.04.2020
4106 Clouds 19 1008 88 10000 6.7 330 00:21 29.04.2020
4107 Clouds 19 1008 88 10000 6.7 350 23:56 28.04.2020
4108 Clouds 19 1008 88 10000 6.7 350 23:37 28.04.2020
4109 Clouds 19 1008 88 10000 6.7 350 23:18 28.04.2020
4110 Clouds 19 1008 88 10000 7.7 360 22:38 28.04.2020
4111 Clouds 19 1008 88 10000 7.7 360 22:20 28.04.2020
4112 Clouds 19 1008 88 10000 8.2 360 21:57 28.04.2020
4113 Clouds 19 1008 88 10000 8.2 360 21:39 28.04.2020
4114 Clouds 19 1008 88 10000 8.2 360 21:21 28.04.2020
4115 Clouds 18 1009 93 10000 10.3 360 20:56 28.04.2020
4116 Clouds 18 1009 93 10000 10.3 360 20:38 28.04.2020
4117 Rain 18 1011 93 3000 10.3 360 20:19 28.04.2020
4118 Rain 18 1011 93 3000 10.3 360 19:43 28.04.2020
4119 Rain 18 1011 93 3000 10.3 360 19:22 28.04.2020
4120 Rain 18 1011 93 3000 10.3 360 19:22 28.04.2020
4121 Clouds 17 1011 93 2000 11.8 350 18:59 28.04.2020
4122 Clouds 17 1011 93 2000 11.8 350 18:41 28.04.2020
4123 Clouds 17 1011 93 2000 11.8 350 18:41 28.04.2020
4124 Clouds 17 1011 93 2000 11.8 350 18:20 28.04.2020
4125 Clouds 18 1012 93 2000 10.3 340 17:59 28.04.2020
4126 Clouds 19 1012 93 2000 10.3 340 17:37 28.04.2020
4127 Clouds 19 1012 93 6000 11.8 360 17:18 28.04.2020
4128 Clouds 19 1012 93 6000 11.8 360 16:54 28.04.2020
4129 Clouds 20 1011 88 8000 10.3 360 16:36 28.04.2020
4130 Clouds 20 1011 88 10000 11.3 20 16:18 28.04.2020
4131 Clouds 20 1011 88 10000 11.3 20 16:18 28.04.2020
4132 Clouds 20 1011 88 10000 11.3 20 15:54 28.04.2020
4133 Clouds 20 1011 88 10000 11.3 20 15:36 28.04.2020
4134 Rain 20 1010 93 10000 12.3 20 15:18 28.04.2020
4135 Rain 20 1010 93 10000 12.3 20 14:41 28.04.2020
4136 Rain 20 1010 93 10000 12.3 20 14:22 28.04.2020
4137 Rain 19 1012 93 10000 10.8 360 13:59 28.04.2020
4138 Rain 19 1012 93 10000 10.8 360 13:39 28.04.2020
4139 Rain 19 1012 93 10000 10.8 360 13:21 28.04.2020
4140 Rain 19 1012 88 10000 10.3 360 12:57 28.04.2020
4141 Rain 19 1012 88 10000 10.3 360 12:37 28.04.2020
4142 Rain 19 1012 88 10000 10.3 360 12:19 28.04.2020
4143 Rain 19 1012 88 10000 9.3 10 11:40 28.04.2020
4144 Rain 19 1012 88 10000 9.3 10 11:20 28.04.2020
4145 Rain 19 1008 93 10000 9.8 60 10:55 28.04.2020
4146 Rain 19 1008 93 10000 9.8 60 10:37 28.04.2020
4147 Rain 18 1013 88 10000 4.6 30 10:18 28.04.2020
4148 Rain 18 1013 88 10000 4.6 30 09:42 28.04.2020
4149 Rain 18 1013 88 10000 4.6 30 09:24 28.04.2020
4150 Clouds 19 1014 82 10000 4.6 40 08:49 28.04.2020
4151 Clouds 19 1014 82 10000 4.6 40 08:30 28.04.2020
4152 Clouds 18 1015 82 10000 5.1 40 07:59 28.04.2020
4153 Clouds 19 1015 82 10000 5.1 40 07:40 28.04.2020
4154 Clouds 19 1015 82 10000 5.1 60 07:18 28.04.2020
4155 Clouds 19 1015 82 10000 5.1 60 06:31 28.04.2020
4156 Clouds 19 1016 82 10000 5.7 50 05:47 28.04.2020
4157 Clouds 19 1016 82 10000 5.7 50 05:29 28.04.2020
4158 Rain 18 1016 88 10000 6.7 50 04:33 28.04.2020
4159 Clouds 19 1017 72 10000 6.7 60 02:37 28.04.2020
4160 Clouds 20 1018 72 10000 6.2 60 01:27 28.04.2020
4161 Clouds 20 1018 77 10000 7.7 50 00:59 28.04.2020
4162 Clouds 20 1018 77 10000 7.7 50 00:29 28.04.2020
4163 Clouds 20 1018 68 10000 8.2 50 23:49 27.04.2020
4164 Clouds 21 1018 68 10000 8.2 50 23:26 27.04.2020
4165 Clouds 21 1018 68 10000 8.2 40 22:58 27.04.2020
4166 Clouds 21 1018 68 10000 8.2 40 22:40 27.04.2020
4167 Clouds 21 1018 68 10000 8.2 40 22:22 27.04.2020
4168 Clouds 21 1018 64 10000 8.2 50 21:57 27.04.2020
4169 Clouds 21 1018 64 10000 8.2 50 21:38 27.04.2020
4170 Clouds 21 1018 64 10000 8.2 50 21:38 27.04.2020
4171 Clouds 21 1018 64 10000 8.2 50 21:19 27.04.2020
4172 Clouds 22 1019 60 10000 7.7 60 20:55 27.04.2020
4173 Clouds 22 1019 60 10000 7.7 60 20:37 27.04.2020
4174 Clouds 22 1020 56 10000 8.2 60 20:19 27.04.2020
4175 Clouds 22 1020 56 10000 8.2 60 19:40 27.04.2020
4176 Clouds 22 1020 56 10000 8.2 60 19:22 27.04.2020
4177 Clouds 22 1022 64 10000 6.2 60 18:59 27.04.2020
4178 Clouds 22 1022 64 10000 6.2 60 18:40 27.04.2020
4179 Clouds 21 1023 68 10000 7.2 60 18:19 27.04.2020
4180 Clouds 21 1023 68 10000 7.2 60 17:58 27.04.2020
4181 Clouds 21 1023 68 10000 7.2 60 17:39 27.04.2020
4182 Clouds 21 1023 68 10000 7.2 60 17:19 27.04.2020
4183 Clouds 20 1024 72 10000 8.2 60 16:40 27.04.2020
4184 Clouds 20 1024 72 10000 8.2 60 16:22 27.04.2020
4185 Clouds 19 1025 82 10000 7.7 80 15:57 27.04.2020
4186 Clouds 19 1025 82 10000 7.7 80 15:38 27.04.2020
4187 Clouds 19 1025 82 10000 7.7 80 15:19 27.04.2020
4188 Clouds 17 1025 82 10000 7.2 80 14:58 27.04.2020
4189 Clouds 17 1025 82 10000 7.2 80 14:39 27.04.2020
4190 Clouds 17 1025 82 10000 7.2 80 14:18 27.04.2020
4191 Clouds 16 1025 87 10000 4.6 90 13:55 27.04.2020
4192 Clouds 16 1025 87 10000 4.6 90 13:36 27.04.2020
4193 Clouds 15 1026 87 10000 5.1 90 13:18 27.04.2020
4194 Clouds 15 1026 87 10000 5.1 90 12:42 27.04.2020
4195 Clouds 15 1026 87 10000 5.1 90 12:20 27.04.2020
4196 Clouds 15 1026 82 10000 4.1 100 11:42 27.04.2020
4197 Clouds 15 1026 82 10000 4.1 100 11:22 27.04.2020
4198 Clouds 15 1026 82 10000 4.1 100 10:58 27.04.2020
4199 Clouds 14 1026 82 10000 4.1 100 10:39 27.04.2020
4200 Clouds 15 1026 82 10000 4.1 100 10:21 27.04.2020
4201 Clouds 14 1026 82 10000 4.6 90 09:54 27.04.2020
4202 Clouds 15 1026 82 10000 4.6 90 09:36 27.04.2020
4203 Clouds 15 1026 82 10000 5.1 100 09:18 27.04.2020
4204 Clouds 15 1026 82 10000 5.1 100 08:43 27.04.2020
4205 Clouds 15 1026 82 10000 5.1 100 08:25 27.04.2020
4206 Clouds 15 1027 77 10000 4.6 90 07:44 27.04.2020
4207 Clouds 15 1027 77 10000 4.6 90 07:22 27.04.2020
4208 Clouds 15 1027 82 10000 4.6 90 06:57 27.04.2020
4209 Clouds 15 1027 82 10000 4.6 90 06:27 27.04.2020
4210 Clouds 16 1027 82 10000 4.1 90 05:50 27.04.2020
4211 Clouds 16 1028 77 10000 4.6 100 04:51 27.04.2020
4212 Clouds 16 1028 77 10000 4.6 100 04:20 27.04.2020
4213 Clouds 16 1027 77 10000 4.6 90 03:43 27.04.2020
4214 Clouds 18 1027 72 10000 6.7 100 01:45 27.04.2020
4215 Clouds 18 1026 93 10000 6.2 110 01:18 27.04.2020
4216 Clouds 18 1026 93 10000 6.2 110 00:20 27.04.2020
4217 Clouds 18 1026 77 10000 6.2 110 23:58 26.04.2020
4218 Clouds 18 1026 77 10000 6.2 110 23:40 26.04.2020
4219 Clouds 18 1026 77 10000 6.2 110 23:21 26.04.2020
4220 Clouds 19 1020 82 0 7.7 120 22:58 26.04.2020
4221 Clouds 19 1020 82 0 7.7 120 22:58 26.04.2020
4222 Clouds 20 1020 82 0 7.7 120 22:39 26.04.2020
4223 Clouds 20 1020 82 0 7.7 120 22:20 26.04.2020
4224 Clouds 20 1026 72 10000 7.2 100 21:57 26.04.2020
4225 Clouds 20 1026 68 10000 9.3 120 21:38 26.04.2020
4226 Clouds 21 1026 72 10000 8.2 110 21:18 26.04.2020
4227 Clouds 21 1026 72 10000 8.2 110 21:18 26.04.2020
4228 Clouds 21 1026 72 10000 8.2 110 20:54 26.04.2020
4229 Clouds 20 1026 72 10000 8.2 110 20:36 26.04.2020
4230 Clouds 21 1026 72 10000 8.2 110 20:18 26.04.2020
4231 Clouds 21 1026 72 10000 8.2 110 19:56 26.04.2020
4232 Clouds 21 1026 72 10000 8.2 110 19:56 26.04.2020
4233 Clouds 21 1026 72 10000 8.2 110 19:36 26.04.2020
4234 Clouds 21 1027 64 10000 7.7 120 19:18 26.04.2020
4235 Clouds 21 1027 64 10000 7.7 120 19:18 26.04.2020
4236 Clouds 21 1027 64 10000 7.7 120 18:41 26.04.2020
4237 Clouds 21 1027 64 10000 7.7 120 18:23 26.04.2020
4238 Clouds 20 1027 68 10000 9.3 100 17:42 26.04.2020
4239 Clouds 20 1027 68 10000 9.3 100 17:22 26.04.2020
4240 Clouds 20 1027 77 10000 7.7 100 16:56 26.04.2020
4241 Clouds 20 1027 77 10000 7.7 100 16:38 26.04.2020
4242 Clouds 20 1027 77 10000 7.7 100 16:19 26.04.2020
4243 Clouds 19 1027 77 10000 7.2 120 15:56 26.04.2020
4244 Clouds 19 1027 77 10000 7.2 120 15:37 26.04.2020
4245 Clouds 19 1026 82 10000 5.1 120 15:18 26.04.2020
4246 Clouds 19 1026 82 10000 5.1 120 14:41 26.04.2020
4247 Clouds 18 1026 82 10000 5.1 120 14:19 26.04.2020
4248 Clear 18 1025 82 10000 5.1 120 13:58 26.04.2020
4249 Clear 18 1025 82 10000 5.1 120 13:39 26.04.2020
4250 Clear 17 1025 82 10000 5.1 120 13:21 26.04.2020
4251 Clouds 17 1025 82 10000 5.7 120 12:55 26.04.2020
4252 Clouds 17 1025 82 10000 5.7 120 12:37 26.04.2020
4253 Clouds 17 1024 77 10000 7.2 130 12:18 26.04.2020
4254 Clouds 18 1024 77 10000 7.2 130 11:54 26.04.2020
4255 Clouds 18 1024 77 10000 7.2 130 11:36 26.04.2020
4256 Clouds 18 1024 77 10000 7.2 140 11:18 26.04.2020
4257 Clouds 18 1024 77 10000 7.2 140 10:41 26.04.2020
4258 Clouds 18 1024 77 10000 7.2 140 10:23 26.04.2020
4259 Clouds 18 1023 77 10000 7.2 140 09:57 26.04.2020
4260 Clouds 18 1023 77 10000 7.2 140 09:37 26.04.2020
4261 Clouds 18 1023 77 10000 7.2 140 09:19 26.04.2020
4262 Clouds 18 1024 82 10000 5.1 140 08:41 26.04.2020
4263 Clouds 18 1024 82 10000 5.1 140 08:41 26.04.2020
4264 Clouds 18 1024 82 10000 5.1 140 08:22 26.04.2020
4265 Clouds 18 1024 82 10000 4.6 140 07:48 26.04.2020
4266 Clouds 18 1024 82 10000 4.6 140 07:24 26.04.2020
4267 Clouds 18 1024 82 10000 4.6 140 06:47 26.04.2020
4268 Clouds 17 1024 82 10000 4.6 140 06:25 26.04.2020
4269 Clouds 17 1023 77 10000 4.1 140 05:51 26.04.2020
4270 Clouds 17 1023 77 10000 4.1 140 05:32 26.04.2020
4271 Clouds 18 1023 72 10000 4.6 140 04:39 26.04.2020
4272 Clouds 18 1021 77 10000 5.1 130 03:40 26.04.2020
4273 Clouds 17 1020 82 10000 7.2 150 02:37 26.04.2020
4274 Clouds 17 1020 82 10000 7.2 150 02:19 26.04.2020
4275 Clouds 17 1020 88 10000 3.6 130 01:36 26.04.2020
4276 Rain 17 1018 93 8000 5.7 90 00:41 26.04.2020
4277 Rain 17 1018 93 8000 5.7 90 00:21 26.04.2020
4278 Rain 17 1018 93 8000 5.7 90 00:21 26.04.2020
4279 Rain 17 1018 100 6000 4.1 60 23:56 25.04.2020
4280 Rain 17 1018 100 6000 4.1 60 23:37 25.04.2020
4281 Rain 18 1019 88 6000 1 190 23:18 25.04.2020
4282 Clouds 18 1016 88 8000 4.6 110 22:42 25.04.2020
4283 Clouds 18 1016 88 8000 4.6 110 22:20 25.04.2020
4284 Rain 18 1017 93 7000 6.7 130 21:58 25.04.2020
4285 Rain 18 1017 93 7000 6.7 130 21:39 25.04.2020
4286 Rain 18 1017 93 7000 6.7 130 21:19 25.04.2020
4287 Clouds 19 1018 88 10000 7.2 170 20:43 25.04.2020
4288 Clouds 19 1018 88 10000 7.2 170 20:23 25.04.2020
4289 Clouds 19 1018 88 10000 8.7 160 19:59 25.04.2020
4290 Clouds 19 1018 88 10000 8.7 160 19:39 25.04.2020
4291 Clouds 19 1018 88 10000 8.7 160 19:21 25.04.2020
4292 Clouds 19 1018 88 10000 5.7 160 18:56 25.04.2020
4293 Clouds 19 1018 88 10000 5.7 160 18:37 25.04.2020
4294 Clouds 19 1017 93 10000 6.7 180 18:18 25.04.2020
4295 Clouds 19 1017 93 10000 6.7 180 17:55 25.04.2020
4296 Clouds 19 1017 93 10000 6.7 180 17:36 25.04.2020
4297 Rain 18 1016 93 8000 4.1 150 17:18 25.04.2020
4298 Rain 19 1016 93 8000 4.1 150 16:43 25.04.2020
4299 Rain 18 1016 93 8000 4.1 150 16:25 25.04.2020
4300 Clouds 19 1016 93 10000 7.2 160 15:58 25.04.2020
4301 Clouds 19 1016 93 10000 7.2 160 15:38 25.04.2020
4302 Rain 19 1016 93 8000 5.7 180 15:19 25.04.2020
4303 Clouds 18 1016 93 10000 7.2 160 15:19 25.04.2020
4304 Rain 19 1016 93 8000 5.7 180 14:56 25.04.2020
4305 Rain 19 1016 93 8000 5.7 180 14:37 25.04.2020
4306 Clouds 20 1013 94 8000 3.6 100 14:18 25.04.2020
4307 Clouds 20 1013 94 8000 3.6 100 13:42 25.04.2020
4308 Clouds 19 1012 100 8000 3.1 90 13:19 25.04.2020
4309 Clouds 19 1012 100 8000 3.1 90 12:57 25.04.2020
4310 Clouds 19 1012 100 8000 3.1 90 12:38 25.04.2020
4311 Clouds 19 1012 100 8000 3.1 90 12:38 25.04.2020
4312 Clouds 19 1012 100 8000 3.1 90 12:19 25.04.2020
4313 Rain 19 1012 93 9000 4.1 80 11:54 25.04.2020
4314 Rain 19 1012 93 9000 4.1 80 11:54 25.04.2020
4315 Rain 19 1012 93 9000 4.1 80 11:36 25.04.2020
4316 Rain 19 1011 93 8000 4.1 80 11:18 25.04.2020
4317 Rain 19 1011 93 8000 4.1 80 10:41 25.04.2020
4318 Rain 19 1011 93 8000 4.1 80 10:22 25.04.2020
4319 Rain 19 1012 93 0 1.28 343 09:46 25.04.2020
4320 Rain 19 1012 93 7000 3.6 150 09:27 25.04.2020
4321 Rain 19 1012 93 7000 3.6 150 08:57 25.04.2020
4322 Rain 19 1012 93 7000 3.6 150 08:38 25.04.2020
4323 Rain 19 1012 93 7000 3.6 150 08:20 25.04.2020
4324 Thunderstorm 20 1011 82 10000 5.7 130 07:46 25.04.2020
4325 Thunderstorm 20 1011 82 10000 5.7 130 07:24 25.04.2020
4326 Thunderstorm 20 1011 82 10000 2.1 160 06:44 25.04.2020
4327 Thunderstorm 21 1011 82 10000 2.1 160 05:56 25.04.2020
4328 Thunderstorm 21 1011 77 10000 2.6 70 05:31 25.04.2020
4329 Thunderstorm 21 1011 73 8000 2.1 10 04:42 25.04.2020
4330 Clouds 22 1010 68 10000 5.7 70 02:59 25.04.2020
4331 Clouds 22 1010 68 10000 5.7 70 02:20 25.04.2020
4332 Clouds 22 1010 77 10000 5.1 90 01:51 25.04.2020
4333 Clouds 22 1010 77 10000 5.1 90 01:27 25.04.2020
4334 Clouds 21 1010 77 10000 4.6 100 00:50 25.04.2020
4335 Clouds 21 1010 77 10000 4.6 100 00:31 25.04.2020
4336 Clouds 21 1009 82 10000 4.6 100 23:44 24.04.2020
4337 Clouds 20 1009 82 10000 4.6 100 23:23 24.04.2020
4338 Thunderstorm 21 1010 83 6000 3.1 120 22:56 24.04.2020
4339 Thunderstorm 21 1010 83 6000 3.1 120 22:56 24.04.2020
4340 Clouds 21 1010 83 6000 5.1 120 22:38 24.04.2020
4341 Clouds 21 1010 83 6000 5.1 120 22:19 24.04.2020
4342 Clouds 21 1011 73 6000 4.1 150 21:55 24.04.2020
4343 Clouds 21 1011 73 6000 4.1 150 21:36 24.04.2020
4344 Clouds 20 1010 77 6000 4.1 160 21:18 24.04.2020
4345 Clouds 21 1010 77 6000 4.1 160 20:54 24.04.2020
4346 Clouds 21 1010 77 6000 4.1 160 20:36 24.04.2020
4347 Clouds 21 1010 73 10000 4.1 130 20:18 24.04.2020
4348 Clouds 21 1010 73 10000 4.1 130 19:39 24.04.2020
4349 Clouds 21 1010 73 10000 4.1 130 19:20 24.04.2020
4350 Clouds 21 1010 73 10000 4.1 150 18:44 24.04.2020
4351 Clouds 21 1010 73 10000 4.1 150 18:26 24.04.2020
4352 Clouds 21 1010 73 10000 5.1 60 17:55 24.04.2020
4353 Clouds 22 1010 73 10000 5.1 60 17:37 24.04.2020
4354 Thunderstorm 22 1010 77 10000 4.1 40 17:19 24.04.2020
4355 Thunderstorm 21 1010 77 10000 4.1 40 16:57 24.04.2020
4356 Clouds 21 1011 77 10000 4.1 50 16:38 24.04.2020
4357 Clouds 20 1011 77 10000 7.2 30 16:20 24.04.2020
4358 Clouds 20 1011 77 10000 7.2 30 15:41 24.04.2020
4359 Clouds 20 1011 77 10000 7.2 30 15:20 24.04.2020
4360 Clouds 19 1011 77 10000 7.7 30 14:41 24.04.2020
4361 Clouds 19 1011 93 10000 6.2 30 14:22 24.04.2020
4362 Clouds 19 1011 93 10000 6.2 30 13:59 24.04.2020
4363 Clouds 19 1011 93 10000 6.2 30 13:41 24.04.2020
4364 Clouds 19 1011 93 10000 6.2 30 13:21 24.04.2020
4365 Clouds 19 1011 93 10000 6.2 30 13:21 24.04.2020
4366 Clouds 19 1012 100 10000 5.1 30 12:58 24.04.2020
4367 Clouds 19 1012 100 10000 5.1 30 12:39 24.04.2020
4368 Clouds 19 1012 100 10000 5.1 30 12:19 24.04.2020
4369 Clouds 19 1012 100 10000 5.1 30 12:19 24.04.2020
4370 Clouds 19 1011 82 10000 4.1 20 11:43 24.04.2020
4371 Clouds 19 1011 82 10000 4.1 20 11:22 24.04.2020
4372 Clouds 19 1010 82 10000 5.7 30 10:59 24.04.2020
4373 Clouds 19 1010 82 10000 5.7 30 10:38 24.04.2020
4374 Clouds 19 1010 82 10000 5.7 30 10:20 24.04.2020
4375 Clouds 19 1011 82 10000 3.6 30 09:55 24.04.2020
4376 Clouds 19 1011 82 10000 3.6 30 09:36 24.04.2020
4377 Rain 19 1011 82 10000 4.6 30 09:18 24.04.2020
4378 Rain 19 1011 82 10000 4.6 30 08:42 24.04.2020
4379 Rain 19 1011 82 10000 4.6 30 08:20 24.04.2020
4380 Rain 19 1011 82 10000 4.6 40 07:56 24.04.2020
4381 Rain 19 1011 82 10000 4.6 40 07:38 24.04.2020
4382 Rain 19 1011 82 10000 4.6 40 07:20 24.04.2020
4383 Rain 19 1012 88 10000 5.7 40 06:43 24.04.2020
4384 Rain 20 1013 77 10000 5.1 40 05:51 24.04.2020
4385 Rain 20 1013 77 10000 5.1 40 05:23 24.04.2020
4386 Rain 20 1014 77 10000 4.1 60 03:39 24.04.2020
4387 Rain 20 1014 82 10000 3.1 60 02:50 24.04.2020
4388 Clouds 20 1014 82 10000 3.1 60 02:30 24.04.2020
4389 Clouds 19 1014 88 10000 3.1 100 01:46 24.04.2020
4390 Clouds 19 1014 88 10000 5.1 100 00:50 24.04.2020
4391 Clouds 20 1014 88 10000 5.1 100 00:19 24.04.2020
4392 Clouds 20 1014 88 10000 4.1 100 23:47 23.04.2020
4393 Clouds 21 1014 88 10000 4.1 100 23:27 23.04.2020
4394 Clouds 22 1014 73 10000 4.1 120 22:58 23.04.2020
4395 Clouds 24 1014 73 10000 4.1 120 22:39 23.04.2020
4396 Clouds 24 1014 73 10000 4.1 120 22:39 23.04.2020
4397 Clouds 24 1014 73 10000 4.1 120 22:20 23.04.2020
4398 Clouds 24 1014 69 10000 4.1 30 21:57 23.04.2020
4399 Clouds 24 1014 69 10000 4.1 30 21:39 23.04.2020
4400 Clouds 24 1014 69 10000 4.1 30 21:20 23.04.2020
4401 Clouds 24 1014 69 10000 3.1 40 20:57 23.04.2020
4402 Clouds 24 1014 69 10000 3.1 40 20:39 23.04.2020
4403 Clouds 24 1014 69 10000 3.1 40 20:19 23.04.2020
4404 Clouds 23 1015 73 10000 3.1 60 19:56 23.04.2020
4405 Clouds 24 1015 73 10000 3.1 60 19:38 23.04.2020
4406 Clouds 24 1015 73 10000 3.1 60 19:38 23.04.2020
4407 Clouds 23 1016 73 10000 4.1 90 19:19 23.04.2020
4408 Clouds 23 1016 73 10000 4.1 90 18:43 23.04.2020
4409 Clouds 23 1016 73 10000 4.1 90 18:23 23.04.2020
4410 Clouds 22 1017 78 10000 3.6 60 17:58 23.04.2020
4411 Clouds 22 1017 78 10000 3.6 60 17:39 23.04.2020
4412 Clouds 22 1017 78 10000 3.6 60 17:21 23.04.2020
4413 Clouds 21 1017 83 10000 3.6 50 16:57 23.04.2020
4414 Clouds 21 1017 83 10000 3.6 50 16:38 23.04.2020
4415 Clouds 18 1018 88 10000 5.1 60 16:18 23.04.2020
4416 Clouds 19 1018 88 10000 5.1 60 15:42 23.04.2020
4417 Clouds 18 1018 88 10000 5.1 60 15:22 23.04.2020
4418 Clouds 18 1018 88 10000 3.1 90 14:56 23.04.2020
4419 Clouds 18 1018 88 10000 3.1 90 14:37 23.04.2020
4420 Clouds 18 1018 88 10000 3.1 90 14:19 23.04.2020
4421 Clouds 17 1017 93 10000 3.1 90 13:55 23.04.2020
4422 Clouds 17 1017 93 10000 3.1 90 13:36 23.04.2020
4423 Clouds 17 1017 93 10000 3.1 90 13:36 23.04.2020
4424 Clouds 17 1017 93 10000 3.1 90 13:18 23.04.2020
4425 Clouds 16 1017 93 10000 3.1 90 12:42 23.04.2020
4426 Clouds 16 1017 93 10000 3.1 90 12:23 23.04.2020
4427 Clear 16 1016 82 10000 1.5 90 11:55 23.04.2020
4428 Clear 16 1016 82 10000 1.5 90 11:36 23.04.2020
4429 Clear 16 1016 87 10000 1.5 70 11:18 23.04.2020
4430 Clear 16 1016 87 10000 1.5 70 10:41 23.04.2020
4431 Clear 16 1016 87 10000 1.5 70 10:20 23.04.2020
4432 Clear 15 1016 93 10000 1.5 110 09:41 23.04.2020
4433 Clouds 15 1016 93 10000 1.5 110 09:20 23.04.2020
4434 Clouds 15 1016 93 10000 1.5 110 08:55 23.04.2020
4435 Clouds 15 1016 93 10000 1.5 110 08:37 23.04.2020
4436 Clouds 15 1017 87 10000 1.5 50 08:18 23.04.2020
4437 Clouds 16 1017 87 10000 1.5 50 07:41 23.04.2020
4438 Clouds 16 1017 87 10000 1.5 50 07:22 23.04.2020
4439 Clouds 16 1017 87 10000 2.1 50 06:46 23.04.2020
4440 Clouds 16 1017 87 10000 1.5 40 05:58 23.04.2020
4441 Clouds 16 1013 93 0 3.09 58 05:22 23.04.2020
4442 Clouds 16 1018 93 0 3.09 58 04:50 23.04.2020
4443 Clouds 17 1017 82 10000 3.6 110 02:24 23.04.2020
4444 Clouds 17 1017 82 10000 3.6 110 01:41 23.04.2020
4445 Clouds 17 1017 82 10000 3.1 110 01:18 23.04.2020
4446 Clouds 17 1017 82 10000 3.1 110 00:36 23.04.2020
4447 Clouds 17 1017 82 10000 3.1 110 00:18 23.04.2020
4448 Clouds 18 1017 77 10000 4.1 120 23:42 22.04.2020
4449 Clouds 18 1017 77 10000 4.1 120 23:22 22.04.2020
4450 Clouds 19 1017 72 10000 5.1 120 22:54 22.04.2020
4451 Clouds 19 1017 72 10000 5.1 120 22:36 22.04.2020
4452 Clouds 19 1017 68 10000 4.1 130 22:18 22.04.2020
4453 Clouds 20 1017 68 10000 4.1 130 21:54 22.04.2020
4454 Clouds 20 1017 68 10000 4.1 130 21:36 22.04.2020
4455 Clouds 20 1017 68 10000 3.1 90 21:18 22.04.2020
4456 Clouds 21 1017 68 10000 3.1 90 20:43 22.04.2020
4457 Clouds 21 1018 64 10000 1.5 40 20:19 22.04.2020
4458 Clouds 22 1018 64 10000 1.5 40 19:57 22.04.2020
4459 Clouds 22 1018 64 10000 1.5 40 19:38 22.04.2020
4460 Clouds 22 1018 64 10000 1.5 40 19:38 22.04.2020
4461 Clouds 21 1019 64 10000 3.1 40 19:18 22.04.2020
4462 Clouds 20 1019 64 10000 3.1 40 18:58 22.04.2020
4463 Clouds 21 1019 64 10000 3.1 40 18:40 22.04.2020
4464 Clouds 21 1019 64 10000 3.1 40 18:22 22.04.2020
4465 Clouds 20 1019 64 10000 3.1 40 17:45 22.04.2020
4466 Clouds 20 1019 64 10000 3.1 40 17:26 22.04.2020
4467 Clouds 21 1020 63 10000 4.6 110 16:58 22.04.2020
4468 Clouds 20 1020 63 10000 4.1 110 16:40 22.04.2020
4469 Clouds 19 1020 63 10000 4.1 110 16:22 22.04.2020
4470 Clouds 19 1020 63 10000 4.6 100 15:42 22.04.2020
4471 Clouds 19 1020 63 10000 4.6 100 15:42 22.04.2020
4472 Clouds 19 1020 63 10000 4.6 100 15:23 22.04.2020
4473 Clouds 18 1020 68 10000 4.1 100 14:58 22.04.2020
4474 Clouds 18 1020 68 10000 4.1 100 14:38 22.04.2020
4475 Clouds 18 1020 68 10000 4.1 100 14:20 22.04.2020
4476 Clouds 18 1020 72 10000 3.1 100 13:56 22.04.2020
4477 Clouds 17 1020 72 10000 3.1 100 13:37 22.04.2020
4478 Clouds 16 1019 77 10000 3.1 110 13:19 22.04.2020
4479 Clouds 15 1019 77 10000 3.1 110 12:41 22.04.2020
4480 Clouds 15 1019 77 10000 3.1 110 12:22 22.04.2020
4481 Clouds 15 1019 72 10000 2.6 110 11:41 22.04.2020
4482 Clouds 16 1019 72 10000 2.6 110 11:22 22.04.2020
4483 Clouds 15 1019 72 10000 3.1 130 10:59 22.04.2020
4484 Clouds 15 1019 72 10000 3.1 130 10:40 22.04.2020
4485 Clouds 15 1019 72 10000 3.1 130 10:40 22.04.2020
4486 Clouds 15 1019 72 10000 3.1 130 10:20 22.04.2020
4487 Clouds 15 1019 72 10000 4.1 140 09:41 22.04.2020
4488 Clouds 15 1019 72 10000 4.1 140 09:22 22.04.2020
4489 Clouds 15 1020 67 10000 3.6 140 08:59 22.04.2020
4490 Clouds 15 1020 67 10000 3.6 140 08:40 22.04.2020
4491 Clouds 15 1020 67 10000 3.6 140 08:22 22.04.2020
4492 Clouds 15 1020 72 10000 4.1 130 07:53 22.04.2020
4493 Clouds 15 1020 72 10000 4.1 130 07:29 22.04.2020
4494 Clouds 15 1020 72 10000 4.6 130 06:53 22.04.2020
4495 Clouds 16 1020 72 10000 4.6 130 06:23 22.04.2020
4496 Clouds 16 1020 67 10000 4.1 130 05:37 22.04.2020
4497 Clouds 16 1021 67 10000 4.6 130 04:30 22.04.2020
4498 Clouds 16 1020 67 10000 4.6 140 02:51 22.04.2020
4499 Clouds 16 1020 67 10000 4.6 140 01:53 22.04.2020
4500 Clouds 16 1020 67 10000 4.6 140 01:27 22.04.2020
4501 Clouds 16 1019 77 10000 5.1 130 00:59 22.04.2020
4502 Clouds 16 1019 77 10000 5.1 130 00:41 22.04.2020
4503 Clouds 16 1019 77 10000 5.1 130 00:19 22.04.2020
4504 Clouds 17 1019 72 10000 5.1 140 23:41 21.04.2020
4505 Clouds 17 1019 72 10000 5.1 140 23:19 21.04.2020
4506 Clouds 18 1019 68 10000 5.1 130 22:41 21.04.2020
4507 Clouds 18 1019 68 10000 5.1 130 22:22 21.04.2020
4508 Clouds 19 1019 68 10000 6.2 130 21:59 21.04.2020
4509 Clouds 19 1019 68 10000 6.2 130 21:59 21.04.2020
4510 Clouds 19 1019 68 10000 6.2 130 21:59 21.04.2020
4511 Clouds 19 1019 68 10000 6.2 130 21:41 21.04.2020
4512 Clouds 19 1019 68 10000 6.2 130 21:23 21.04.2020
4513 Clouds 19 1019 63 10000 6.7 140 20:57 21.04.2020
4514 Clouds 20 1019 63 10000 6.7 140 20:39 21.04.2020
4515 Clouds 20 1019 63 10000 6.7 140 20:21 21.04.2020
4516 Clouds 20 1019 60 10000 6.7 140 19:41 21.04.2020
4517 Clouds 20 1019 60 10000 6.7 140 19:20 21.04.2020
4518 Clouds 20 1020 60 10000 6.7 130 18:59 21.04.2020
4519 Clouds 20 1020 60 10000 6.7 130 18:39 21.04.2020
4520 Clouds 20 1020 60 10000 6.7 130 18:19 21.04.2020
4521 Clouds 20 1020 68 10000 6.7 130 17:59 21.04.2020
4522 Clouds 20 1020 68 10000 6.7 130 17:38 21.04.2020
4523 Clouds 19 1020 72 10000 6.2 140 17:19 21.04.2020
4524 Clouds 19 1020 72 10000 6.2 140 16:39 21.04.2020
4525 Clouds 19 1020 72 10000 6.2 140 16:19 21.04.2020
4526 Clouds 19 1020 72 10000 6.2 140 16:19 21.04.2020
4527 Clouds 19 1020 77 10000 7.7 150 15:58 21.04.2020
4528 Clouds 18 1020 77 10000 7.7 150 15:40 21.04.2020
4529 Clouds 18 1020 77 10000 7.7 150 15:22 21.04.2020
4530 Clouds 18 1019 88 10000 7.7 150 14:58 21.04.2020
4531 Clouds 18 1019 88 10000 7.7 150 14:40 21.04.2020
4532 Clouds 17 1018 93 10000 7.7 150 14:22 21.04.2020
4533 Clouds 17 1018 93 10000 7.7 150 13:42 21.04.2020
4534 Clouds 17 1018 93 10000 7.7 150 13:23 21.04.2020
4535 Clouds 18 1018 93 10000 6.7 100 12:58 21.04.2020
4536 Clouds 18 1018 93 10000 6.7 100 12:38 21.04.2020
4537 Clouds 18 1017 82 10000 4.6 170 12:19 21.04.2020
4538 Clouds 18 1017 82 10000 4.6 170 11:56 21.04.2020
4539 Clouds 18 1017 82 10000 4.6 170 11:37 21.04.2020
4540 Clouds 18 1017 93 10000 6.2 180 11:18 21.04.2020
4541 Clouds 18 1017 93 10000 6.2 180 10:56 21.04.2020
4542 Clouds 18 1017 93 10000 6.2 180 10:38 21.04.2020
4543 Clouds 18 1017 93 10000 6.2 180 10:20 21.04.2020
4544 Clouds 18 1016 88 8000 1.5 230 09:38 21.04.2020
4545 Clouds 18 1016 88 8000 1.5 230 09:20 21.04.2020
4546 Clouds 17 1016 72 8000 2.1 240 08:58 21.04.2020
4547 Clouds 17 1016 72 8000 2.1 240 08:58 21.04.2020
4548 Clouds 17 1016 72 8000 2.1 240 08:39 21.04.2020
4549 Clouds 17 1016 72 8000 2.1 240 08:39 21.04.2020
4550 Clouds 17 1016 72 8000 2.1 240 08:19 21.04.2020
4551 Clouds 15 1016 82 8000 2.1 250 07:45 21.04.2020
4552 Clouds 15 1016 82 8000 2.1 250 07:23 21.04.2020
4553 Clouds 16 1016 72 10000 2.1 20 06:49 21.04.2020
4554 Clear 17 1016 72 10000 2.1 20 06:20 21.04.2020
4555 Clear 16 1016 77 8000 1.5 350 05:49 21.04.2020
4556 Clear 17 1016 77 6000 2.6 10 04:21 21.04.2020
4557 Clear 19 1015 63 10000 2.89 333 03:44 21.04.2020
4558 Clear 19 1015 60 10000 0.5 0 01:46 21.04.2020
4559 Clear 20 1015 60 10000 0.5 0 01:25 21.04.2020
4560 Clear 20 1015 68 10000 1 150 00:37 21.04.2020
4561 Clear 22 1014 56 10000 1 210 23:45 20.04.2020
4562 Clear 23 1014 56 10000 1 210 23:25 20.04.2020
4563 Clear 25 1014 47 10000 2.6 240 22:58 20.04.2020
4564 Clear 25 1014 47 10000 2.6 240 22:39 20.04.2020
4565 Clear 26 1014 47 10000 2.6 240 22:20 20.04.2020
4566 Clear 26 1014 44 10000 4.1 260 21:58 20.04.2020
4567 Clear 26 1014 44 10000 4.1 260 21:39 20.04.2020
4568 Clear 26 1014 44 10000 4.1 260 21:19 20.04.2020
4569 Clear 27 1015 44 10000 4.6 260 20:58 20.04.2020
4570 Clear 27 1015 44 10000 4.6 260 20:39 20.04.2020
4571 Clear 27 1015 47 10000 3.6 260 20:19 20.04.2020
4572 Clear 27 1015 47 10000 3.6 260 19:58 20.04.2020
4573 Clear 27 1015 47 10000 3.6 260 19:39 20.04.2020
4574 Clear 27 1015 47 10000 3.6 260 19:19 20.04.2020
4575 Clear 27 1016 51 10000 3.6 300 18:43 20.04.2020
4576 Clear 27 1016 51 10000 3.6 300 18:24 20.04.2020
4577 Clear 26 1017 50 10000 4.1 300 17:58 20.04.2020
4578 Clear 25 1017 50 10000 4.1 300 17:39 20.04.2020
4579 Clear 25 1017 57 10000 3.6 320 17:21 20.04.2020
4580 Clear 24 1017 57 10000 3.6 320 16:59 20.04.2020
4581 Clear 24 1017 57 10000 3.6 320 16:39 20.04.2020
4582 Clear 19 1018 77 10000 3.6 360 16:19 20.04.2020
4583 Clear 20 1018 77 10000 3.6 360 15:45 20.04.2020
4584 Clear 20 1018 77 10000 3.6 360 15:25 20.04.2020
4585 Clear 18 1018 77 10000 2.6 10 14:58 20.04.2020
4586 Clear 17 1018 77 10000 2.6 10 14:40 20.04.2020
4587 Clear 16 1017 87 10000 3.1 10 14:19 20.04.2020
4588 Clear 16 1017 87 10000 3.1 10 13:56 20.04.2020
4589 Clear 15 1017 87 10000 3.1 10 13:37 20.04.2020
4590 Clear 14 1017 100 10000 3.1 20 13:19 20.04.2020
4591 Clear 14 1017 100 10000 3.1 20 12:42 20.04.2020
4592 Clear 14 1017 100 10000 3.1 20 12:21 20.04.2020
4593 Clear 14 1017 82 10000 2.1 10 11:43 20.04.2020
4594 Clear 14 1017 82 10000 2.1 10 11:23 20.04.2020
4595 Clear 14 1016 82 10000 2.6 30 10:57 20.04.2020
4596 Clear 14 1016 82 10000 2.6 30 10:39 20.04.2020
4597 Clear 15 1016 82 10000 2.6 30 10:20 20.04.2020
4598 Clear 15 1017 77 10000 1.5 10 09:59 20.04.2020
4599 Clear 15 1017 77 10000 1.5 10 09:40 20.04.2020
4600 Clear 14 1017 77 10000 1.5 10 09:21 20.04.2020
4601 Clear 15 1013 89 0 0.89 357 08:42 20.04.2020
4602 Clear 16 1017 77 10000 2.1 30 08:23 20.04.2020
4603 Clear 15 1017 77 10000 2.1 30 07:56 20.04.2020
4604 Clear 15 1017 77 10000 2.1 30 07:37 20.04.2020
4605 Clear 16 1017 77 10000 2.1 30 07:19 20.04.2020
4606 Clear 16 1017 77 10000 2.1 30 07:19 20.04.2020
4607 Clear 16 1017 77 10000 1.5 30 06:37 20.04.2020
4608 Clear 16 1017 72 10000 1.5 30 05:48 20.04.2020
4609 Clear 17 1017 68 10000 2.1 360 04:46 20.04.2020
4610 Clear 17 1017 68 10000 2.1 360 04:46 20.04.2020
4611 Clear 19 1018 60 10000 0.5 340 02:48 20.04.2020
4612 Clear 20 1018 60 10000 0.5 340 02:26 20.04.2020
4613 Clouds 19 1017 64 10000 1.5 270 01:29 20.04.2020
4614 Clouds 20 1017 77 10000 2.1 160 00:45 20.04.2020
4615 Clouds 20 1017 77 10000 2.1 160 00:21 20.04.2020
4616 Clouds 22 1017 53 10000 1.5 20 23:39 19.04.2020
4617 Clouds 24 1017 53 10000 1.5 20 23:21 19.04.2020
4618 Clouds 26 1017 47 10000 3.1 10 22:56 19.04.2020
4619 Clouds 26 1017 47 10000 3.1 10 22:37 19.04.2020
4620 Clouds 27 1017 47 10000 3.1 10 22:19 19.04.2020
4621 Clouds 27 1017 47 10000 2.6 360 21:42 19.04.2020
4622 Clouds 27 1017 47 10000 2.6 360 21:23 19.04.2020
4623 Clouds 26 1018 47 10000 4.1 360 20:58 19.04.2020
4624 Clouds 26 1018 47 10000 4.1 360 20:40 19.04.2020
4625 Clouds 26 1018 47 10000 4.1 360 20:20 19.04.2020
4626 Clouds 26 1018 53 10000 4.6 330 19:56 19.04.2020
4627 Clouds 25 1018 53 10000 4.6 330 19:38 19.04.2020
4628 Clouds 25 1018 53 10000 4.6 330 19:20 19.04.2020
4629 Clouds 25 1020 60 10000 5.1 340 18:56 19.04.2020
4630 Clouds 25 1020 60 10000 5.1 340 18:38 19.04.2020
4631 Clear 23 1021 69 10000 5.1 360 18:18 19.04.2020
4632 Clear 23 1021 69 10000 5.1 360 17:56 19.04.2020
4633 Clear 23 1021 69 10000 5.1 360 17:37 19.04.2020
4634 Clear 23 1021 69 10000 5.1 360 17:19 19.04.2020
4635 Clear 21 1021 77 10000 5.1 10 16:40 19.04.2020
4636 Clear 21 1021 77 10000 5.1 10 16:21 19.04.2020
4637 Clear 19 1021 82 10000 6.2 360 15:58 19.04.2020
4638 Clear 19 1021 82 10000 6.2 360 15:40 19.04.2020
4639 Clear 17 1021 82 10000 7.7 10 15:19 19.04.2020
4640 Clear 17 1021 82 10000 7.7 10 14:39 19.04.2020
4641 Clear 17 1021 82 10000 7.7 10 14:21 19.04.2020
4642 Clear 16 1020 87 10000 5.7 20 13:57 19.04.2020
4643 Clear 15 1020 87 10000 5.7 20 13:37 19.04.2020
4644 Clear 15 1020 93 10000 6.2 20 13:18 19.04.2020
4645 Clear 15 1020 93 10000 6.2 20 12:44 19.04.2020
4646 Clear 15 1020 93 10000 6.2 20 12:44 19.04.2020
4647 Clear 15 1020 93 10000 6.2 20 12:24 19.04.2020
4648 Clear 15 1020 93 10000 3.6 30 11:55 19.04.2020
4649 Clear 15 1020 93 10000 3.6 30 11:36 19.04.2020
4650 Clear 15 1020 93 10000 4.1 30 11:18 19.04.2020
4651 Clear 15 1020 93 10000 4.1 30 10:41 19.04.2020
4652 Clear 15 1020 93 10000 4.1 30 10:21 19.04.2020
4653 Clear 15 1020 93 10000 3.6 30 09:57 19.04.2020
4654 Clear 15 1020 93 10000 3.6 30 09:39 19.04.2020
4655 Clear 15 1020 87 10000 3.1 30 09:18 19.04.2020
4656 Clear 15 1020 87 10000 3.1 30 08:40 19.04.2020
4657 Clear 15 1020 87 10000 3.1 30 08:21 19.04.2020
4658 Clear 15 1021 87 10000 3.6 40 07:55 19.04.2020
4659 Clear 15 1021 87 10000 3.6 40 07:37 19.04.2020
4660 Clear 16 1021 77 10000 3.6 40 07:18 19.04.2020
4661 Clear 15 1021 77 10000 3.6 40 06:24 19.04.2020
4662 Clear 15 1022 77 10000 2.6 50 05:35 19.04.2020
4663 Clear 17 1022 72 10000 3.1 50 03:55 19.04.2020
4664 Clear 17 1022 68 10000 2.1 40 02:50 19.04.2020
4665 Clear 18 1022 77 10000 2.1 70 02:18 19.04.2020
4666 Clear 18 1022 77 10000 2.1 70 01:26 19.04.2020
4667 Clear 18 1022 77 10000 2.6 30 00:41 19.04.2020
4668 Clear 19 1022 77 10000 2.6 30 00:20 19.04.2020
4669 Clear 21 1022 56 10000 3.1 30 23:44 18.04.2020
4670 Clear 21 1022 56 10000 3.1 30 23:20 18.04.2020
4671 Clear 24 1022 44 10000 5.1 30 22:56 18.04.2020
4672 Clear 24 1022 44 10000 5.1 30 22:37 18.04.2020
4673 Clear 24 1022 44 10000 5.1 30 22:19 18.04.2020
4674 Clear 24 1022 47 10000 5.1 30 21:55 18.04.2020
4675 Clear 25 1022 47 10000 5.1 30 21:36 18.04.2020
4676 Clear 25 1022 47 10000 6.2 30 21:18 18.04.2020
4677 Clear 25 1022 47 10000 6.2 30 20:40 18.04.2020
4678 Clear 25 1022 47 10000 6.2 30 20:21 18.04.2020
4679 Clouds 24 1023 57 10000 5.1 30 19:43 18.04.2020
4680 Clouds 24 1023 57 10000 5.1 30 19:25 18.04.2020
4681 Clouds 23 1024 60 10000 5.1 30 18:59 18.04.2020
4682 Clouds 23 1024 60 10000 5.1 30 18:37 18.04.2020
4683 Clear 22 1025 68 10000 5.1 20 18:19 18.04.2020
4684 Clear 21 1025 68 10000 5.1 20 17:41 18.04.2020
4685 Clear 21 1025 68 10000 5.1 20 17:21 18.04.2020
4686 Clear 21 1026 68 10000 5.7 20 16:56 18.04.2020
4687 Clear 20 1026 68 10000 5.7 20 16:37 18.04.2020
4688 Clear 19 1026 68 10000 5.7 20 16:19 18.04.2020
4689 Clear 19 1026 68 10000 5.7 20 15:38 18.04.2020
4690 Clear 18 1026 68 10000 5.7 20 15:20 18.04.2020
4691 Clear 16 1026 72 10000 6.7 30 14:45 18.04.2020
4692 Clear 16 1026 72 10000 6.7 30 14:26 18.04.2020
4693 Clear 14 1025 87 10000 5.1 30 13:56 18.04.2020
4694 Clear 14 1025 87 10000 5.1 30 13:38 18.04.2020
4695 Clear 14 1025 100 10000 5.1 30 13:18 18.04.2020
4696 Clear 14 1025 100 10000 5.1 30 12:41 18.04.2020
4697 Clear 13 1025 100 10000 5.1 30 12:22 18.04.2020
4698 Clear 13 1025 93 10000 2.6 30 11:43 18.04.2020
4699 Clear 13 1025 93 10000 2.6 30 11:24 18.04.2020
4700 Clear 14 1024 93 10000 2.6 30 10:58 18.04.2020
4701 Clear 14 1024 93 10000 2.6 30 10:37 18.04.2020
4702 Clear 14 1024 87 10000 2.6 30 10:19 18.04.2020
4703 Clear 14 1024 87 10000 2.6 30 09:55 18.04.2020
4704 Clear 14 1024 87 10000 2.6 30 09:36 18.04.2020
4705 Clear 14 1025 93 10000 2.6 30 09:18 18.04.2020
4706 Clear 14 1025 93 10000 2.6 30 08:39 18.04.2020
4707 Clear 14 1025 93 10000 2.6 30 08:20 18.04.2020
4708 Clear 15 1025 87 10000 2.6 40 07:38 18.04.2020
4709 Clear 15 1025 87 10000 3.1 40 07:19 18.04.2020
4710 Clear 15 1025 87 10000 3.1 40 06:30 18.04.2020
4711 Clouds 16 1025 87 10000 3.6 50 05:43 18.04.2020
4712 Clouds 16 1025 93 10000 2.1 80 04:47 18.04.2020
4713 Clouds 16 1025 93 10000 2.1 80 04:28 18.04.2020
4714 Clouds 16 1025 88 10000 3.6 100 02:57 18.04.2020
4715 Clouds 16 1025 88 10000 3.6 100 02:37 18.04.2020
4716 Clouds 16 1025 88 10000 3.1 110 02:19 18.04.2020
4717 Clouds 17 1025 88 10000 3.1 110 01:35 18.04.2020
4718 Clear 17 1025 93 10000 3.1 120 00:51 18.04.2020
4719 Clear 17 1025 93 10000 3.1 120 00:23 18.04.2020
4720 Clear 18 1025 82 10000 2.6 160 23:57 17.04.2020
4721 Clear 18 1025 82 10000 2.6 160 23:38 17.04.2020
4722 Clouds 20 1025 60 10000 1.5 0 23:19 17.04.2020
4723 Clouds 21 1025 60 10000 1.5 0 22:56 17.04.2020
4724 Clouds 21 1025 60 10000 1.5 0 22:37 17.04.2020
4725 Clouds 21 1025 60 10000 1.5 0 22:19 17.04.2020
4726 Clouds 22 1025 56 10000 1 0 21:43 17.04.2020
4727 Clouds 22 1025 56 10000 1 0 21:22 17.04.2020
4728 Clouds 21 1025 64 10000 2.6 50 20:59 17.04.2020
4729 Clouds 21 1025 64 10000 2.6 50 20:38 17.04.2020
4730 Clouds 21 1025 64 10000 2.6 50 20:19 17.04.2020
4731 Clouds 21 1026 68 10000 2.1 70 19:59 17.04.2020
4732 Clouds 21 1026 68 10000 2.1 70 19:41 17.04.2020
4733 Clouds 20 1026 68 10000 2.1 70 19:22 17.04.2020
4734 Clouds 18 1027 88 10000 1 0 18:44 17.04.2020
4735 Clouds 19 1027 88 10000 1 0 18:24 17.04.2020
4736 Clouds 19 1027 88 10000 1 0 18:24 17.04.2020
4737 Clouds 17 1028 93 6000 2.1 40 17:56 17.04.2020
4738 Clouds 17 1028 93 6000 2.1 40 17:37 17.04.2020
4739 Mist 16 1028 100 2000 1.5 50 17:18 17.04.2020
4740 Mist 16 1028 100 2000 1.5 50 16:43 17.04.2020
4741 Mist 16 1028 100 2000 1.5 50 16:23 17.04.2020
4742 Fog 15 1028 100 600 1.5 340 15:44 17.04.2020
4743 Fog 15 1028 100 600 1.5 340 15:24 17.04.2020
4744 Fog 15 1028 100 100 1 350 14:58 17.04.2020
4745 Fog 15 1028 100 100 1 350 14:39 17.04.2020
4746 Fog 14 1028 100 100 1 350 14:21 17.04.2020
4747 Fog 13 1027 100 300 1 20 13:55 17.04.2020
4748 Clouds 13 1027 100 800 1 360 13:36 17.04.2020
4749 Fog 12 1026 100 50 2.1 30 13:18 17.04.2020
4750 Fog 12 1026 100 50 2.1 30 12:44 17.04.2020
4751 Fog 12 1026 100 50 2.1 30 12:23 17.04.2020
4752 Fog 11 1026 100 100 0.5 0 11:42 17.04.2020
4753 Fog 12 1026 93 100 1 0 11:19 17.04.2020
4754 Fog 12 1026 93 100 1 0 10:56 17.04.2020
4755 Fog 12 1026 93 100 1 0 10:56 17.04.2020
4756 Fog 12 1026 100 100 1 0 10:38 17.04.2020
4757 Fog 12 1026 93 100 0.5 0 10:18 17.04.2020
4758 Fog 12 1026 93 400 0.5 0 09:41 17.04.2020
4759 Fog 12 1026 93 400 0.5 0 09:20 17.04.2020
4760 Fog 12 1026 100 800 0.5 0 08:57 17.04.2020
4761 Fog 12 1026 100 800 0.5 0 08:39 17.04.2020
4762 Fog 13 1026 100 800 0.5 0 08:19 17.04.2020
4763 Fog 14 1026 100 200 1.88 159 07:44 17.04.2020
4764 Fog 13 1026 100 50 1.88 159 07:22 17.04.2020
4765 Fog 13 1026 100 100 0.5 0 06:46 17.04.2020
4766 Fog 13 1026 100 100 0.5 0 06:23 17.04.2020
4767 Fog 13 1026 100 200 1 0 05:26 17.04.2020
4768 Fog 15 1025 93 800 0.5 0 03:19 17.04.2020
4769 Clouds 15 1025 93 10000 0.5 0 02:19 17.04.2020
4770 Clouds 15 1025 87 10000 2.1 270 01:29 17.04.2020
4771 Clouds 15 1024 93 10000 2.1 220 00:52 17.04.2020
4772 Clouds 16 1024 93 10000 3.1 220 00:19 17.04.2020
4773 Clouds 17 1024 93 10000 3.1 220 23:42 16.04.2020
4774 Clouds 17 1024 93 10000 3.1 220 23:22 16.04.2020
4775 Clouds 18 1024 82 10000 4.1 220 22:57 16.04.2020
4776 Clouds 18 1024 82 10000 4.1 220 22:37 16.04.2020
4777 Clouds 18 1024 82 10000 4.1 220 22:19 16.04.2020
4778 Clouds 18 1024 88 10000 5.1 230 21:43 16.04.2020
4779 Clouds 18 1024 88 10000 5.1 230 21:20 16.04.2020
4780 Clouds 19 1024 82 10000 5.1 210 20:59 16.04.2020
4781 Clouds 19 1024 82 10000 5.1 210 20:40 16.04.2020
4782 Clouds 19 1024 82 10000 5.1 210 20:20 16.04.2020
4783 Clouds 19 1024 82 10000 4.1 200 19:55 16.04.2020
4784 Clouds 19 1024 82 10000 4.1 200 19:37 16.04.2020
4785 Clouds 18 1024 82 10000 4.1 180 19:18 16.04.2020
4786 Clouds 18 1024 82 10000 4.1 180 18:42 16.04.2020
4787 Clouds 19 1024 77 10000 4.1 210 18:24 16.04.2020
4788 Clouds 19 1024 77 10000 4.1 210 17:57 16.04.2020
4789 Clouds 19 1024 77 10000 4.1 210 17:39 16.04.2020
4790 Clouds 19 1024 77 10000 4.1 210 17:18 16.04.2020
4791 Clouds 18 1023 82 10000 5.1 200 16:43 16.04.2020
4792 Clouds 18 1023 82 10000 5.1 200 16:25 16.04.2020
4793 Clouds 18 1023 82 10000 5.1 200 15:46 16.04.2020
4794 Clouds 18 1023 82 10000 5.1 200 15:20 16.04.2020
4795 Clouds 17 1022 87 10000 5.1 180 14:59 16.04.2020
4796 Clouds 17 1022 87 10000 5.1 180 14:41 16.04.2020
4797 Clouds 17 1022 87 10000 5.1 180 14:23 16.04.2020
4798 Clouds 17 1021 87 10000 4.1 210 13:58 16.04.2020
4799 Clouds 16 1021 87 10000 4.1 210 13:40 16.04.2020
4800 Clouds 16 1021 87 10000 4.1 210 13:40 16.04.2020
4801 Clouds 16 1021 87 10000 4.1 210 13:21 16.04.2020
4802 Clouds 16 1020 87 10000 4.1 210 12:58 16.04.2020
4803 Clouds 16 1020 87 10000 4.1 210 12:39 16.04.2020
4804 Clouds 16 1020 87 10000 4.1 210 12:19 16.04.2020
4805 Clouds 16 1019 82 10000 5.7 220 11:57 16.04.2020
4806 Clouds 16 1019 82 10000 5.7 220 11:39 16.04.2020
4807 Clouds 16 1019 82 10000 5.7 220 11:20 16.04.2020
4808 Clouds 16 1019 82 10000 5.7 220 10:55 16.04.2020
4809 Clouds 16 1019 82 10000 5.7 220 10:36 16.04.2020
4810 Clouds 16 1019 82 10000 5.7 220 10:18 16.04.2020
4811 Clouds 16 1019 82 10000 5.7 220 09:39 16.04.2020
4812 Clouds 16 1019 82 10000 5.7 220 09:20 16.04.2020
4813 Clouds 16 1018 82 10000 5.1 220 08:56 16.04.2020
4814 Clouds 16 1018 82 10000 5.1 220 08:36 16.04.2020
4815 Clouds 15 1018 82 10000 5.1 220 08:18 16.04.2020
4816 Clouds 15 1018 82 10000 5.1 220 08:18 16.04.2020
4817 Clouds 15 1018 77 10000 5.1 220 07:42 16.04.2020
4818 Clouds 16 1018 72 10000 5.7 220 07:21 16.04.2020
4819 Clouds 15 1018 72 10000 5.7 220 06:41 16.04.2020
4820 Clouds 15 1018 72 10000 5.7 220 06:22 16.04.2020
4821 Clouds 16 1018 72 10000 6.2 210 04:53 16.04.2020
4822 Clouds 16 1018 63 10000 6.7 210 03:28 16.04.2020
4823 Clouds 16 1017 63 10000 6.2 210 02:59 16.04.2020
4824 Clouds 16 1017 63 10000 6.2 210 02:38 16.04.2020
4825 Clouds 16 1017 63 10000 7.7 200 01:29 16.04.2020
4826 Clouds 16 1017 72 10000 3.6 220 00:57 16.04.2020
4827 Clouds 16 1017 72 10000 3.6 220 00:25 16.04.2020
4828 Clouds 16 1016 67 10000 9.3 240 23:55 15.04.2020
4829 Clouds 17 1016 67 10000 9.3 240 23:37 15.04.2020
4830 Clouds 17 1016 67 10000 9.3 240 23:19 15.04.2020
4831 Clouds 18 1016 63 10000 8.2 220 22:39 15.04.2020
4832 Clouds 18 1016 63 10000 8.2 220 22:21 15.04.2020
4833 Clouds 18 1015 68 10000 9.3 240 21:56 15.04.2020
4834 Clouds 18 1015 68 10000 9.3 240 21:38 15.04.2020
4835 Clouds 18 1015 68 10000 9.3 240 21:20 15.04.2020
4836 Clouds 18 1015 72 10000 4.6 210 20:55 15.04.2020
4837 Clouds 18 1015 72 10000 4.6 210 20:55 15.04.2020
4838 Clouds 18 1015 72 10000 4.6 210 20:37 15.04.2020
4839 Clouds 18 1015 77 10000 4.6 210 20:19 15.04.2020
4840 Clouds 18 1015 77 10000 4.6 210 19:41 15.04.2020
4841 Clouds 18 1015 77 10000 4.6 210 19:20 15.04.2020
4842 Clouds 18 1015 77 10000 4.6 210 19:20 15.04.2020
4843 Clouds 18 1015 77 10000 4.6 210 18:43 15.04.2020
4844 Clouds 18 1015 77 10000 9.3 220 18:23 15.04.2020
4845 Clouds 18 1015 77 10000 9.3 220 17:58 15.04.2020
4846 Clouds 18 1015 77 10000 9.3 220 17:40 15.04.2020
4847 Clouds 18 1015 77 10000 9.3 220 17:40 15.04.2020
4848 Clouds 18 1015 77 10000 9.3 220 17:20 15.04.2020
4849 Clouds 17 1014 82 10000 9.3 220 16:57 15.04.2020
4850 Clouds 17 1014 82 10000 9.3 220 16:38 15.04.2020
4851 Clouds 17 1014 82 10000 9.3 220 16:19 15.04.2020
4852 Clouds 17 1014 82 10000 9.3 220 16:19 15.04.2020
4853 Clouds 16 1014 87 8000 9.3 210 15:57 15.04.2020
4854 Clouds 16 1014 87 8000 9.3 210 15:39 15.04.2020
4855 Clouds 16 1014 87 8000 9.3 210 15:19 15.04.2020
4856 Clouds 16 1013 87 10000 6.2 210 14:57 15.04.2020
4857 Clouds 16 1013 87 10000 6.2 210 14:39 15.04.2020
4858 Clouds 16 1013 87 10000 6.2 210 14:39 15.04.2020
4859 Clouds 16 1013 87 10000 6.2 210 14:21 15.04.2020
4860 Mist 16 1012 87 8000 5.7 220 13:57 15.04.2020
4861 Mist 16 1012 87 8000 5.7 220 13:38 15.04.2020
4862 Rain 16 1011 82 8000 7.7 210 13:19 15.04.2020
4863 Clouds 16 1011 82 10000 7.7 220 12:43 15.04.2020
4864 Clouds 16 1011 82 10000 7.7 220 12:24 15.04.2020
4865 Drizzle 16 1010 82 5000 8.7 210 11:59 15.04.2020
4866 Drizzle 16 1010 82 5000 8.7 210 11:41 15.04.2020
4867 Drizzle 16 1010 82 5000 8.7 210 11:23 15.04.2020
4868 Clouds 16 1009 82 10000 8.7 210 10:56 15.04.2020
4869 Clouds 16 1009 82 10000 8.7 210 10:36 15.04.2020
4870 Clouds 16 1009 82 10000 8.7 210 10:36 15.04.2020
4871 Clouds 16 1009 82 10000 8.7 210 10:18 15.04.2020
4872 Rain 16 1009 82 5000 10.3 210 09:54 15.04.2020
4873 Rain 16 1009 82 5000 10.3 210 09:36 15.04.2020
4874 Rain 16 1009 82 5000 10.3 210 09:18 15.04.2020
4875 Clouds 15 1009 87 10000 8.2 220 08:40 15.04.2020
4876 Clouds 15 1009 87 10000 8.2 220 08:19 15.04.2020
4877 Clouds 15 1009 87 10000 10.3 210 07:54 15.04.2020
4878 Clouds 15 1009 87 10000 10.3 210 07:33 15.04.2020
4879 Rain 16 1009 82 3000 10.3 210 06:34 15.04.2020
4880 Rain 16 1009 82 2500 11.3 210 05:51 15.04.2020
4881 Rain 15 1009 82 2500 11.3 210 05:20 15.04.2020
4882 Clouds 16 1008 72 10000 10.8 210 04:44 15.04.2020
4883 Clouds 16 1008 72 10000 10.8 210 03:51 15.04.2020
4884 Clouds 16 1008 72 10000 10.8 210 03:18 15.04.2020
4885 Clouds 16 1008 72 10000 12.3 210 02:33 15.04.2020
4886 Clouds 16 1008 67 10000 11.8 210 01:44 15.04.2020
4887 Clouds 16 1009 67 10000 11.3 220 01:20 15.04.2020
4888 Clouds 16 1009 67 10000 11.3 220 00:37 15.04.2020
4889 Clouds 16 1008 67 10000 10.3 210 00:19 15.04.2020
4890 Clouds 16 1008 67 10000 10.3 210 23:55 14.04.2020
4891 Clouds 16 1008 67 10000 10.3 210 23:36 14.04.2020
4892 Clouds 16 1008 67 10000 10.3 210 23:18 14.04.2020
4893 Clouds 16 1008 67 10000 10.8 220 22:55 14.04.2020
4894 Clouds 16 1008 67 10000 10.8 220 22:36 14.04.2020
4895 Clouds 16 1008 67 10000 10.8 220 22:18 14.04.2020
4896 Clouds 16 1008 72 10000 10.3 220 21:55 14.04.2020
4897 Clouds 16 1008 72 10000 10.3 220 21:37 14.04.2020
4898 Clouds 16 1008 72 10000 10.3 220 21:18 14.04.2020
4899 Clouds 15 1008 77 10000 10.3 220 20:40 14.04.2020
4900 Clouds 15 1008 77 10000 10.3 220 20:40 14.04.2020
4901 Clouds 15 1008 77 10000 10.3 220 20:22 14.04.2020
4902 Drizzle 15 1008 82 8000 10.3 220 19:58 14.04.2020
4903 Drizzle 15 1008 82 8000 10.3 220 19:39 14.04.2020
4904 Rain 15 1008 87 7000 11.3 210 19:20 14.04.2020
4905 Rain 15 1008 87 7000 11.3 210 18:56 14.04.2020
4906 Rain 15 1008 87 7000 11.3 210 18:37 14.04.2020
4907 Rain 15 1008 82 1500 10.3 210 18:18 14.04.2020
4908 Rain 15 1008 82 1500 10.3 210 17:55 14.04.2020
4909 Rain 15 1008 82 1500 10.3 210 17:37 14.04.2020
4910 Rain 15 1008 82 1500 10.3 210 17:18 14.04.2020
4911 Clouds 15 1008 87 10000 9.3 220 16:41 14.04.2020
4912 Clouds 15 1008 87 10000 9.3 220 16:23 14.04.2020
4913 Clouds 15 1008 87 7000 9.3 210 15:58 14.04.2020
4914 Clouds 15 1008 87 7000 9.3 210 15:39 14.04.2020
4915 Clouds 15 1008 87 7000 9.3 210 15:20 14.04.2020
4916 Rain 15 1008 87 2000 10.3 200 14:57 14.04.2020
4917 Rain 15 1008 87 2000 10.3 200 14:39 14.04.2020
4918 Rain 15 1008 87 2000 10.3 200 14:21 14.04.2020
4919 Rain 14 1008 87 4000 10.3 210 13:55 14.04.2020
4920 Rain 14 1008 87 4000 10.3 210 13:37 14.04.2020
4921 Rain 14 1007 87 2000 10.3 200 13:19 14.04.2020
4922 Rain 14 1007 87 2000 10.3 200 12:41 14.04.2020
4923 Rain 14 1007 87 2000 10.3 200 12:20 14.04.2020
4924 Rain 15 1006 82 9000 8.2 200 11:55 14.04.2020
4925 Rain 15 1006 82 9000 8.2 200 11:36 14.04.2020
4926 Rain 15 1006 82 9000 8.2 200 11:18 14.04.2020
4927 Rain 15 1006 82 10000 5.7 180 10:43 14.04.2020
4928 Rain 15 1006 82 10000 5.7 180 10:23 14.04.2020
4929 Rain 15 1006 82 9000 5.1 180 09:43 14.04.2020
4930 Rain 15 1006 82 9000 5.1 180 09:25 14.04.2020
4931 Rain 15 1006 87 10000 5.7 180 08:59 14.04.2020
4932 Rain 15 1006 87 10000 5.7 180 08:40 14.04.2020
4933 Rain 15 1006 87 10000 5.7 180 08:21 14.04.2020
4934 Rain 15 1007 93 7000 6.7 180 07:53 14.04.2020
4935 Rain 15 1007 93 7000 6.7 180 07:29 14.04.2020
4936 Rain 15 1008 93 5000 8.7 180 06:47 14.04.2020
4937 Rain 16 1009 89 0 6.58 166 05:55 14.04.2020
4938 Rain 17 1008 88 10000 4.6 190 03:52 14.04.2020
4939 Rain 18 1009 82 10000 4.6 180 02:53 14.04.2020
4940 Clouds 18 1009 82 10000 4.6 190 01:39 14.04.2020
4941 Clouds 17 1010 88 10000 5.1 190 01:18 14.04.2020
4942 Clouds 17 1010 88 10000 5.1 190 00:33 14.04.2020
4943 Drizzle 17 1010 93 5000 3.1 190 23:59 13.04.2020
4944 Drizzle 17 1010 93 5000 3.1 190 23:39 13.04.2020
4945 Drizzle 17 1010 93 5000 3.1 190 23:21 13.04.2020
4946 Drizzle 18 1010 93 5000 3.1 220 22:56 13.04.2020
4947 Clouds 19 1010 82 10000 3.6 240 22:38 13.04.2020
4948 Clouds 19 1010 82 10000 3.6 240 22:20 13.04.2020
4949 Clouds 20 1010 82 10000 4.1 220 21:55 13.04.2020
4950 Clouds 20 1010 82 10000 4.1 220 21:36 13.04.2020
4951 Clouds 20 1010 82 10000 4.1 220 21:18 13.04.2020
4952 Clouds 24 1010 53 10000 3.1 340 20:41 13.04.2020
4953 Clouds 24 1010 53 10000 3.1 340 20:20 13.04.2020
4954 Clouds 23 1011 56 10000 3.1 330 19:59 13.04.2020
4955 Clouds 23 1011 56 10000 3.1 330 19:37 13.04.2020
4956 Clouds 23 1011 56 10000 3.1 330 19:37 13.04.2020
4957 Clouds 23 1011 56 10000 3.1 330 19:37 13.04.2020
4958 Clouds 23 1011 56 10000 3.1 330 19:37 13.04.2020
4959 Clouds 23 1012 64 10000 5.1 350 19:19 13.04.2020
4960 Clouds 23 1012 64 10000 5.1 350 18:58 13.04.2020
4961 Clouds 23 1012 64 10000 5.1 350 18:38 13.04.2020
4962 Clouds 22 1013 64 10000 5.1 20 18:19 13.04.2020
4963 Clouds 22 1013 64 10000 5.1 20 17:58 13.04.2020
4964 Clouds 22 1013 64 10000 5.1 20 17:37 13.04.2020
4965 Clouds 22 1013 64 10000 5.1 20 17:19 13.04.2020
4966 Clouds 20 1013 77 10000 5.1 20 16:58 13.04.2020
4967 Clouds 20 1013 77 10000 5.1 20 16:58 13.04.2020
4968 Clouds 20 1013 77 10000 5.1 20 16:40 13.04.2020
4969 Clouds 19 1013 77 10000 5.1 20 16:20 13.04.2020
4970 Clouds 19 1014 82 10000 6.7 20 15:57 13.04.2020
4971 Clouds 19 1014 82 10000 6.7 20 15:38 13.04.2020
4972 Clouds 18 1014 82 10000 6.7 20 15:20 13.04.2020
4973 Clouds 17 1014 82 10000 6.2 40 14:54 13.04.2020
4974 Clouds 17 1014 82 10000 6.2 40 14:36 13.04.2020
4975 Clouds 17 1014 82 10000 6.2 40 14:18 13.04.2020
4976 Clouds 16 1014 93 10000 4.6 40 13:54 13.04.2020
4977 Clouds 16 1014 93 10000 4.6 40 13:36 13.04.2020
4978 Clouds 16 1014 87 10000 4.6 50 13:18 13.04.2020
4979 Clouds 16 1014 87 10000 4.6 50 12:40 13.04.2020
4980 Clouds 16 1014 87 10000 4.6 50 12:21 13.04.2020
4981 Clouds 16 1014 87 10000 4.6 50 12:21 13.04.2020
4982 Clouds 16 1014 87 10000 3.6 50 11:59 13.04.2020
4983 Clouds 16 1014 87 10000 3.6 50 11:41 13.04.2020
4984 Clouds 16 1014 87 10000 3.6 50 11:18 13.04.2020
4985 Clouds 16 1014 87 10000 3.6 50 11:18 13.04.2020
4986 Clouds 16 1014 82 10000 3.1 40 10:55 13.04.2020
4987 Clouds 16 1014 82 10000 3.1 40 10:37 13.04.2020
4988 Clouds 16 1014 82 10000 3.1 40 10:18 13.04.2020
4989 Clouds 16 1014 82 10000 3.6 40 09:44 13.04.2020
4990 Clouds 16 1014 82 10000 3.6 40 09:26 13.04.2020
4991 Clouds 17 1015 77 10000 4.1 40 08:49 13.04.2020
4992 Clouds 17 1015 77 10000 4.1 40 08:30 13.04.2020
4993 Clouds 17 1015 72 10000 5.1 50 07:59 13.04.2020
4994 Clouds 17 1015 72 10000 5.1 50 07:39 13.04.2020
4995 Clouds 17 1015 63 10000 5.1 50 07:20 13.04.2020
4996 Clouds 17 1015 63 10000 5.1 50 06:47 13.04.2020
4997 Clouds 18 1015 59 10000 3.6 50 05:59 13.04.2020
4998 Clouds 18 1015 59 10000 3.6 50 05:30 13.04.2020
4999 Clouds 18 1016 68 10000 3.6 60 04:52 13.04.2020
5000 Clouds 18 1016 68 10000 3.6 60 04:22 13.04.2020
5001 Clouds 19 1016 82 10000 2.6 110 03:46 13.04.2020
5002 Clouds 19 1016 77 10000 3.1 120 02:59 13.04.2020
5003 Clouds 19 1016 77 10000 4.1 120 01:54 13.04.2020
5004 Clouds 19 1016 77 10000 4.1 120 01:36 13.04.2020
5005 Clouds 19 1015 63 10000 3.6 120 00:58 13.04.2020
5006 Clouds 19 1015 63 10000 3.6 120 00:39 13.04.2020
5007 Clouds 21 1015 49 10000 2.6 20 00:18 13.04.2020
5008 Clouds 21 1015 49 10000 2.6 20 23:45 12.04.2020
5009 Clouds 22 1015 49 10000 2.6 20 23:22 12.04.2020
5010 Clouds 23 1015 44 10000 3.6 30 22:58 12.04.2020
5011 Clouds 23 1015 44 10000 3.6 30 22:37 12.04.2020
5012 Clouds 24 1015 44 10000 3.6 30 22:19 12.04.2020
5013 Clouds 24 1015 44 10000 3.1 30 21:40 12.04.2020
5014 Clouds 24 1015 44 10000 3.1 30 21:21 12.04.2020
5015 Clouds 24 1016 44 10000 3.6 40 20:57 12.04.2020
5016 Clouds 24 1016 44 10000 3.6 40 20:38 12.04.2020
5017 Clouds 24 1016 44 10000 3.6 40 20:20 12.04.2020
5018 Clouds 23 1016 49 10000 3.6 10 19:55 12.04.2020
5019 Clouds 24 1016 49 10000 3.6 10 19:36 12.04.2020
5020 Clouds 23 1017 44 10000 2.6 10 19:18 12.04.2020
5021 Clouds 22 1018 53 10000 2.1 60 18:40 12.04.2020
5022 Clouds 22 1019 64 10000 2.6 30 18:22 12.04.2020
5023 Clouds 22 1019 64 10000 2.6 30 17:57 12.04.2020
5024 Clouds 22 1019 64 10000 2.6 30 17:38 12.04.2020
5025 Clouds 21 1019 64 10000 2.6 30 17:19 12.04.2020
5026 Clouds 20 1020 68 10000 4.1 360 16:56 12.04.2020
5027 Clouds 20 1020 68 10000 4.1 360 16:37 12.04.2020
5028 Clouds 20 1020 68 10000 4.1 360 16:19 12.04.2020
5029 Clouds 19 1020 72 10000 4.1 20 15:42 12.04.2020
5030 Clouds 18 1020 72 10000 4.1 20 15:23 12.04.2020
5031 Clouds 16 1020 93 10000 3.1 10 14:41 12.04.2020
5032 Clouds 15 1020 93 10000 3.1 10 14:22 12.04.2020
5033 Clouds 14 1020 93 10000 3.1 20 13:58 12.04.2020
5034 Clouds 14 1020 93 10000 3.1 20 13:40 12.04.2020
5035 Clouds 14 1020 93 10000 3.1 20 13:22 12.04.2020
5036 Clouds 13 1019 93 10000 2.6 20 12:47 12.04.2020
5037 Clouds 13 1019 93 10000 2.6 20 12:22 12.04.2020
5038 Clouds 13 1019 82 10000 2.1 10 11:59 12.04.2020
5039 Clouds 13 1019 82 10000 2.1 10 11:39 12.04.2020
5040 Clouds 13 1019 82 10000 2.1 10 11:20 12.04.2020
5041 Clouds 13 1018 82 10000 2.6 30 10:58 12.04.2020
5042 Clouds 13 1018 82 10000 2.6 30 10:39 12.04.2020
5043 Clouds 14 1018 82 10000 2.6 30 10:20 12.04.2020
5044 Clouds 14 1018 82 10000 3.6 30 09:58 12.04.2020
5045 Clouds 14 1018 82 10000 3.6 30 09:39 12.04.2020
5046 Clouds 14 1018 82 10000 3.6 30 09:20 12.04.2020
5047 Clouds 14 1018 82 10000 4.1 30 08:51 12.04.2020
5048 Clouds 14 1018 82 10000 4.1 30 08:32 12.04.2020
5049 Clouds 14 1019 77 10000 3.6 30 07:55 12.04.2020
5050 Clouds 14 1019 77 10000 3.6 30 07:36 12.04.2020
5051 Clouds 15 1019 82 10000 2.6 30 07:18 12.04.2020
5052 Clouds 15 1019 82 10000 2.6 30 06:31 12.04.2020
5053 Clouds 15 1019 77 10000 2.6 60 05:49 12.04.2020
5054 Clouds 16 1019 77 10000 2.6 60 05:27 12.04.2020
5055 Clouds 18 1019 77 10000 3.6 120 03:31 12.04.2020
5056 Clear 18 1019 82 10000 4.1 120 02:51 12.04.2020
5057 Clear 18 1019 82 10000 4.1 120 02:30 12.04.2020
5058 Clear 18 1018 82 10000 4.6 110 01:31 12.04.2020
5059 Clear 18 1018 82 10000 4.6 110 00:56 12.04.2020
5060 Clear 18 1018 82 10000 4.6 110 00:38 12.04.2020
5061 Clouds 20 1018 68 10000 5.1 130 00:19 12.04.2020
5062 Clouds 20 1018 68 10000 5.1 130 23:44 11.04.2020
5063 Clouds 20 1018 68 10000 5.1 130 23:23 11.04.2020
5064 Clouds 21 1018 64 10000 4.1 140 22:40 11.04.2020
5065 Clouds 21 1018 64 10000 4.1 140 22:22 11.04.2020
5066 Clouds 22 1018 64 10000 4.1 170 21:56 11.04.2020
5067 Clouds 22 1018 64 10000 4.1 170 21:37 11.04.2020
5068 Clouds 22 1018 64 10000 4.1 170 21:18 11.04.2020
5069 Clouds 22 1018 64 10000 4.1 170 21:18 11.04.2020
5070 Clouds 22 1019 49 10000 1.5 0 20:57 11.04.2020
5071 Clouds 22 1019 49 10000 1.5 0 20:38 11.04.2020
5072 Clouds 22 1019 49 10000 1.5 0 20:20 11.04.2020
5073 Clouds 22 1019 49 10000 2.6 70 19:57 11.04.2020
5074 Clouds 22 1019 49 10000 2.6 70 19:57 11.04.2020
5075 Clouds 22 1019 49 10000 2.6 70 19:38 11.04.2020
5076 Clouds 23 1020 56 10000 2.6 40 19:19 11.04.2020
5077 Clouds 23 1020 56 10000 2.6 40 18:56 11.04.2020
5078 Clouds 22 1020 56 10000 2.6 40 18:37 11.04.2020
5079 Clouds 22 1020 56 10000 2.6 40 18:37 11.04.2020
5080 Clouds 21 1021 64 10000 1 0 18:19 11.04.2020
5081 Clouds 21 1021 64 10000 1 0 17:58 11.04.2020
5082 Clouds 22 1021 64 10000 1 0 17:40 11.04.2020
5083 Clouds 21 1021 64 10000 1 0 17:19 11.04.2020
5084 Clouds 20 1021 68 10000 4.1 30 16:43 11.04.2020
5085 Clouds 20 1021 68 10000 4.1 30 16:22 11.04.2020
5086 Clear 19 1021 82 10000 2.6 30 15:56 11.04.2020
5087 Clear 19 1021 82 10000 2.6 30 15:36 11.04.2020
5088 Clear 18 1021 82 10000 2.6 30 15:18 11.04.2020
5089 Clear 15 1021 93 10000 1.5 30 14:42 11.04.2020
5090 Clear 15 1021 93 10000 1.5 30 14:42 11.04.2020
5091 Clear 15 1021 93 10000 1.5 30 14:23 11.04.2020
5092 Clear 12 1021 100 10000 2.1 60 13:59 11.04.2020
5093 Clear 12 1021 100 10000 2.1 60 13:38 11.04.2020
5094 Clear 12 1021 100 10000 2.1 60 13:19 11.04.2020
5095 Clear 11 1020 100 10000 1.5 90 12:41 11.04.2020
5096 Clear 11 1020 100 10000 1.5 90 12:41 11.04.2020
5097 Mist 11 1020 93 1000 2.88 20 12:19 11.04.2020
5098 Mist 11 1020 93 1000 2.88 20 11:56 11.04.2020
5099 Mist 11 1020 93 1000 2.88 20 11:38 11.04.2020
5100 Mist 10 1020 93 1000 2.88 20 11:19 11.04.2020
5101 Mist 13 1020 87 1000 2.88 20 10:43 11.04.2020
5102 Mist 13 1020 87 1000 2.88 20 10:22 11.04.2020
5103 Mist 13 1020 93 5000 2.88 20 09:59 11.04.2020
5104 Mist 12 1020 93 5000 2.88 20 09:39 11.04.2020
5105 Mist 13 1020 93 5000 3.78 45 09:21 11.04.2020
5106 Mist 13 1020 87 5000 3.78 45 08:49 11.04.2020
5107 Mist 12 1020 87 5000 3.78 45 08:28 11.04.2020
5108 Clear 14 1020 87 10000 2.1 50 07:53 11.04.2020
5109 Clear 14 1020 87 10000 2.1 50 07:34 11.04.2020
5110 Clear 14 1021 87 10000 2.1 90 06:51 11.04.2020
5111 Clear 14 1021 87 10000 2.1 90 06:20 11.04.2020
5112 Clear 14 1021 87 10000 2.6 90 05:55 11.04.2020
5113 Clear 17 1021 77 10000 2.6 120 03:42 11.04.2020
5114 Clear 17 1021 77 10000 3.1 120 02:37 11.04.2020
5115 Clouds 17 1021 82 10000 3.6 120 01:25 11.04.2020
5116 Clouds 17 1021 82 10000 2.6 120 00:44 11.04.2020
5117 Clouds 17 1021 82 10000 2.6 120 00:20 11.04.2020
5118 Clouds 18 1021 72 10000 3.1 100 23:58 10.04.2020
5119 Clouds 18 1021 72 10000 3.1 100 23:40 10.04.2020
5120 Clouds 18 1021 72 10000 3.1 100 23:19 10.04.2020
5121 Clouds 20 1021 60 10000 5.1 120 22:55 10.04.2020
5122 Clouds 20 1021 60 10000 5.1 120 22:36 10.04.2020
5123 Clouds 20 1021 60 10000 5.1 120 22:18 10.04.2020
5124 Clouds 20 1021 60 10000 3.6 120 21:41 10.04.2020
5125 Clouds 21 1021 60 10000 3.6 120 21:20 10.04.2020
5126 Clouds 21 1021 60 10000 3.6 120 21:20 10.04.2020
5127 Clouds 20 1021 60 10000 3.6 140 20:56 10.04.2020
5128 Clouds 21 1021 60 10000 3.6 140 20:37 10.04.2020
5129 Clouds 21 1021 60 10000 3.6 140 20:37 10.04.2020
5130 Clouds 21 1021 60 10000 3.6 140 20:19 10.04.2020
5131 Clouds 21 1022 60 10000 2.1 120 19:54 10.04.2020
5132 Clouds 21 1022 60 10000 2.1 120 19:36 10.04.2020
5133 Clouds 20 1023 60 10000 5.1 120 19:18 10.04.2020
5134 Clouds 21 1023 60 10000 5.1 120 18:55 10.04.2020
5135 Clouds 20 1023 60 10000 5.1 120 18:36 10.04.2020
5136 Clouds 19 1023 68 10000 4.1 150 18:18 10.04.2020
5137 Clouds 19 1023 68 10000 4.1 150 17:56 10.04.2020
5138 Clouds 19 1023 68 10000 4.1 150 17:37 10.04.2020
5139 Clouds 19 1023 68 10000 4.1 150 17:18 10.04.2020
5140 Clouds 20 1023 68 10000 4.1 180 16:41 10.04.2020
5141 Clouds 20 1023 68 10000 4.1 180 16:23 10.04.2020
5142 Clouds 18 1024 88 10000 2.1 180 15:58 10.04.2020
5143 Clouds 18 1024 88 10000 2.1 180 15:39 10.04.2020
5144 Clouds 18 1024 88 10000 2.1 180 15:20 10.04.2020
5145 Drizzle 17 1023 93 7000 3.1 90 14:58 10.04.2020
5146 Drizzle 16 1023 93 7000 3.1 90 14:39 10.04.2020
5147 Drizzle 16 1023 93 7000 3.1 90 14:21 10.04.2020
5148 Clouds 15 1023 93 10000 4.84 145 13:45 10.04.2020
5149 Clouds 15 1023 93 10000 4.84 145 13:23 10.04.2020
5150 Clouds 15 1022 93 10000 2.1 160 12:56 10.04.2020
5151 Clouds 15 1022 93 10000 2.1 160 12:37 10.04.2020
5152 Clouds 17 1022 72 10000 2.6 150 12:19 10.04.2020
5153 Clouds 15 1022 72 10000 2.6 150 11:43 10.04.2020
5154 Clouds 15 1022 72 10000 2.6 150 11:24 10.04.2020
5155 Clouds 13 1021 82 10000 3.69 152 10:58 10.04.2020
5156 Clouds 13 1021 82 10000 3.69 152 10:39 10.04.2020
5157 Clouds 13 1021 82 10000 3.69 152 10:21 10.04.2020
5158 Clouds 13 1021 72 10000 3.69 152 09:43 10.04.2020
5159 Clouds 13 1021 72 10000 3.69 152 09:43 10.04.2020
5160 Clouds 16 1021 72 10000 4.11 126 09:23 10.04.2020
5161 Clouds 14 1022 67 10000 1.5 150 08:50 10.04.2020
5162 Clouds 14 1022 67 10000 1.5 150 08:27 10.04.2020
5163 Clouds 14 1022 67 10000 2.6 140 07:57 10.04.2020
5164 Clouds 14 1022 67 10000 2.6 140 07:39 10.04.2020
5165 Clouds 15 1023 63 10000 3.1 140 07:20 10.04.2020
5166 Clouds 15 1023 63 10000 3.1 140 06:38 10.04.2020
5167 Clouds 15 1023 59 10000 2.6 150 06:19 10.04.2020
5168 Clouds 15 1023 59 10000 2.6 150 05:30 10.04.2020
5169 Clouds 15 1023 63 10000 3.1 140 04:55 10.04.2020
5170 Clouds 17 1023 63 10000 3.6 140 03:35 10.04.2020
5171 Clouds 17 1023 67 10000 3.6 150 02:51 10.04.2020
5172 Clouds 17 1023 67 10000 3.6 150 02:33 10.04.2020
5173 Clouds 18 1023 59 10000 4.6 150 01:47 10.04.2020
5174 Clouds 18 1023 59 10000 4.6 150 01:27 10.04.2020
5175 Clouds 17 1023 72 10000 5.1 130 00:46 10.04.2020
5176 Clouds 17 1023 72 10000 5.1 130 00:21 10.04.2020
5177 Clouds 18 1022 68 10000 4.1 150 23:42 09.04.2020
5178 Clouds 18 1022 68 10000 4.1 150 23:24 09.04.2020
5179 Clouds 19 1022 59 10000 5.1 150 22:57 09.04.2020
5180 Clouds 19 1022 59 10000 5.1 150 22:39 09.04.2020
5181 Clouds 19 1022 59 10000 5.1 150 22:21 09.04.2020
5182 Clouds 19 1022 63 10000 6.2 150 21:40 09.04.2020
5183 Clouds 19 1022 63 10000 6.2 150 21:21 09.04.2020
5184 Clouds 20 1023 59 10000 6.2 150 20:54 09.04.2020
5185 Clouds 20 1023 59 10000 6.2 150 20:36 09.04.2020
5186 Clouds 20 1023 59 10000 6.2 150 20:18 09.04.2020
5187 Clouds 20 1023 55 10000 6.2 150 19:39 09.04.2020
5188 Clouds 20 1023 59 10000 6.7 160 19:21 09.04.2020
5189 Clouds 20 1023 59 10000 6.7 160 18:42 09.04.2020
5190 Clouds 20 1023 59 10000 6.7 160 18:21 09.04.2020
5191 Clouds 20 1023 68 10000 5.1 150 17:58 09.04.2020
5192 Clouds 20 1023 68 10000 5.1 150 17:39 09.04.2020
5193 Clouds 20 1023 68 10000 5.1 150 17:19 09.04.2020
5194 Clouds 19 1024 77 10000 4.1 150 16:40 09.04.2020
5195 Clouds 19 1024 77 10000 4.1 150 16:20 09.04.2020
5196 Rain 18 1024 93 5000 3.1 170 15:57 09.04.2020
5197 Rain 17 1024 93 5000 3.1 170 15:38 09.04.2020
5198 Rain 17 1024 93 5000 3.1 170 15:38 09.04.2020
5199 Rain 17 1024 93 5000 3.1 170 15:19 09.04.2020
5200 Rain 16 1024 87 4000 3.6 100 14:56 09.04.2020
5201 Clouds 17 1024 77 10000 5.1 130 14:36 09.04.2020
5202 Clouds 17 1024 77 10000 5.1 130 14:18 09.04.2020
5203 Clouds 16 1023 87 10000 4.1 160 13:42 09.04.2020
5204 Clouds 16 1023 87 10000 4.1 160 13:23 09.04.2020
5205 Clouds 16 1023 82 10000 4.1 190 12:55 09.04.2020
5206 Clouds 16 1023 82 10000 4.1 190 12:36 09.04.2020
5207 Clouds 16 1022 77 10000 4.6 200 12:18 09.04.2020
5208 Clouds 15 1022 77 10000 4.6 200 11:43 09.04.2020
5209 Clouds 15 1022 77 10000 4.6 200 11:20 09.04.2020
5210 Clouds 15 1022 77 10000 4.6 200 11:20 09.04.2020
5211 Clouds 15 1022 72 10000 4.6 200 10:59 09.04.2020
5212 Clouds 15 1022 72 10000 4.6 200 10:41 09.04.2020
5213 Clouds 14 1022 72 10000 4.6 200 10:21 09.04.2020
5214 Clouds 14 1022 72 10000 3.6 190 09:57 09.04.2020
5215 Clouds 15 1022 72 10000 3.6 190 09:38 09.04.2020
5216 Clouds 15 1022 72 10000 3.6 190 09:20 09.04.2020
5217 Clouds 15 1023 67 10000 4.1 170 08:44 09.04.2020
5218 Clouds 15 1023 67 10000 4.1 170 08:44 09.04.2020
5219 Clouds 15 1023 67 10000 4.1 170 08:24 09.04.2020
5220 Clouds 15 1023 72 10000 4.1 180 07:57 09.04.2020
5221 Clouds 15 1023 72 10000 4.1 180 07:36 09.04.2020
5222 Clouds 15 1023 72 10000 4.1 180 07:18 09.04.2020
5223 Clouds 15 1023 72 10000 4.1 180 06:26 09.04.2020
5224 Clouds 15 1023 63 10000 3.6 170 05:46 09.04.2020
5225 Clouds 15 1024 67 10000 4.6 170 04:26 09.04.2020
5226 Clouds 16 1024 67 10000 4.6 180 02:33 09.04.2020
5227 Clouds 16 1024 67 10000 4.6 170 01:44 09.04.2020
5228 Clouds 16 1024 67 10000 4.6 170 01:24 09.04.2020
5229 Clouds 15 1023 72 10000 4.1 170 00:43 09.04.2020
5230 Clouds 15 1023 72 10000 4.1 170 00:20 09.04.2020
5231 Clouds 15 1023 72 10000 4.1 170 23:59 08.04.2020
5232 Clouds 16 1023 67 10000 6.2 170 23:41 08.04.2020
5233 Clouds 16 1023 67 10000 6.2 170 23:21 08.04.2020
5234 Clouds 17 1024 63 10000 5.7 180 22:44 08.04.2020
5235 Clouds 17 1024 63 10000 5.7 180 22:24 08.04.2020
5236 Clouds 17 1024 59 10000 5.7 180 21:57 08.04.2020
5237 Clouds 17 1024 59 10000 5.7 180 21:39 08.04.2020
5238 Clouds 17 1024 59 10000 5.7 180 21:20 08.04.2020
5239 Clouds 17 1024 72 10000 4.1 190 20:58 08.04.2020
5240 Clouds 17 1024 72 10000 4.1 190 20:39 08.04.2020
5241 Clouds 17 1024 72 10000 4.1 190 20:20 08.04.2020
5242 Clouds 17 1025 63 10000 3.6 190 19:56 08.04.2020
5243 Clouds 17 1025 63 10000 3.6 190 19:37 08.04.2020
5244 Clouds 17 1025 63 10000 3.6 190 19:19 08.04.2020
5245 Clouds 17 1025 63 10000 3.6 190 19:19 08.04.2020
5246 Clouds 17 1025 59 10000 4.1 180 18:42 08.04.2020
5247 Clouds 17 1025 59 10000 4.1 180 18:24 08.04.2020
5248 Clouds 16 1025 67 10000 4.1 200 17:56 08.04.2020
5249 Clouds 16 1025 67 10000 4.1 200 17:38 08.04.2020
5250 Clouds 17 1025 59 10000 5.1 190 17:18 08.04.2020
5251 Clouds 17 1025 59 10000 5.1 190 16:42 08.04.2020
5252 Clouds 17 1025 59 10000 5.1 190 16:23 08.04.2020
5253 Clouds 17 1025 59 10000 4.1 190 15:56 08.04.2020
5254 Clouds 17 1025 59 10000 4.1 190 15:37 08.04.2020
5255 Clouds 17 1025 59 10000 4.1 190 15:19 08.04.2020
5256 Clouds 15 1025 67 10000 3.6 190 14:43 08.04.2020
5257 Clouds 15 1025 67 10000 3.6 190 14:25 08.04.2020
5258 Clouds 15 1025 67 10000 3.6 190 14:25 08.04.2020
5259 Clouds 14 1025 71 10000 2.6 190 13:55 08.04.2020
5260 Clouds 14 1025 71 10000 2.6 190 13:37 08.04.2020
5261 Clouds 13 1024 76 10000 2.6 210 13:18 08.04.2020
5262 Clouds 13 1024 76 10000 2.6 210 12:41 08.04.2020
5263 Clouds 13 1024 62 10000 3.6 200 12:18 08.04.2020
5264 Clouds 13 1024 62 10000 3.6 200 11:57 08.04.2020
5265 Clouds 13 1024 62 10000 3.6 200 11:39 08.04.2020
5266 Clouds 13 1024 62 10000 3.6 200 11:21 08.04.2020
5267 Clouds 13 1023 58 10000 4.1 190 10:55 08.04.2020
5268 Clouds 13 1023 58 10000 4.1 190 10:37 08.04.2020
5269 Clouds 13 1023 58 10000 4.1 190 10:18 08.04.2020
5270 Clouds 14 1023 58 10000 4.6 200 09:42 08.04.2020
5271 Clouds 14 1023 58 10000 4.6 200 09:21 08.04.2020
5272 Clouds 14 1023 58 10000 5.1 200 08:59 08.04.2020
5273 Clouds 14 1023 58 10000 5.1 200 08:41 08.04.2020
5274 Clouds 14 1023 58 10000 5.1 200 08:21 08.04.2020
5275 Clouds 14 1023 54 10000 5.1 190 07:44 08.04.2020
5276 Clouds 14 1023 54 10000 5.1 190 07:23 08.04.2020
5277 Clouds 14 1023 51 10000 5.7 190 06:55 08.04.2020
5278 Clouds 14 1023 58 10000 5.7 180 05:56 08.04.2020
5279 Clouds 15 1023 54 10000 7.7 180 03:34 08.04.2020
5280 Clouds 15 1024 51 10000 6.2 190 02:49 08.04.2020
5281 Clouds 15 1024 51 10000 6.2 190 02:19 08.04.2020
5282 Clouds 15 1023 54 10000 7.2 190 01:30 08.04.2020
5283 Clouds 15 1024 54 10000 2.1 210 00:59 08.04.2020
5284 Clouds 15 1024 54 10000 2.1 210 00:59 08.04.2020
5285 Clouds 15 1024 54 10000 2.1 210 00:40 08.04.2020
5286 Clouds 15 1024 54 10000 2.1 210 00:20 08.04.2020
5287 Clouds 15 1024 54 10000 4.1 220 23:39 07.04.2020
5288 Clouds 15 1024 54 10000 4.1 220 23:20 07.04.2020
5289 Clouds 15 1024 54 10000 4.1 220 23:20 07.04.2020
5290 Clouds 16 1024 55 10000 5.1 220 22:57 07.04.2020
5291 Clouds 16 1024 55 10000 5.1 220 22:38 07.04.2020
5292 Clouds 16 1024 55 10000 5.1 220 22:19 07.04.2020
5293 Clouds 17 1024 51 10000 5.1 220 21:56 07.04.2020
5294 Clouds 17 1024 51 10000 5.1 220 21:37 07.04.2020
5295 Clouds 17 1024 51 10000 5.1 220 21:18 07.04.2020
5296 Clouds 16 1024 51 10000 6.2 220 20:55 07.04.2020
5297 Clouds 16 1024 51 10000 6.2 220 20:55 07.04.2020
5298 Clouds 16 1024 51 10000 6.2 220 20:36 07.04.2020
5299 Clouds 16 1024 48 10000 7.2 220 20:18 07.04.2020
5300 Clouds 17 1024 51 10000 6.2 210 19:55 07.04.2020
5301 Clouds 17 1024 51 10000 6.2 210 19:36 07.04.2020
5302 Clouds 17 1024 45 10000 7.7 220 19:18 07.04.2020
5303 Clouds 17 1024 45 10000 7.7 220 19:18 07.04.2020
5304 Clouds 16 1024 51 10000 6.2 210 18:41 07.04.2020
5305 Clouds 16 1024 51 10000 6.2 210 18:21 07.04.2020
5306 Clouds 15 1024 54 10000 7.7 210 17:59 07.04.2020
5307 Clouds 15 1024 54 10000 7.7 210 17:40 07.04.2020
5308 Clouds 15 1024 54 10000 7.7 210 17:20 07.04.2020
5309 Clouds 16 1024 55 10000 7.7 190 16:45 07.04.2020
5310 Clouds 16 1024 55 10000 7.7 190 16:26 07.04.2020
5311 Clouds 16 1024 59 10000 6.2 220 15:46 07.04.2020
5312 Clouds 15 1023 54 10000 7.2 220 15:27 07.04.2020
5313 Clouds 15 1023 54 10000 7.2 220 14:58 07.04.2020
5314 Clouds 15 1023 54 10000 7.2 220 14:39 07.04.2020
5315 Clouds 15 1023 54 10000 7.2 220 14:20 07.04.2020
5316 Clouds 14 1023 62 10000 4.1 240 13:43 07.04.2020
5317 Clouds 14 1023 62 10000 4.1 240 13:20 07.04.2020
5318 Clouds 13 1023 66 10000 5.1 190 12:59 07.04.2020
5319 Clouds 13 1023 66 10000 5.1 190 12:39 07.04.2020
5320 Clouds 13 1023 66 10000 5.1 190 12:21 07.04.2020
5321 Clouds 14 1021 54 10000 6.7 220 11:59 07.04.2020
5322 Clouds 14 1021 54 10000 6.7 220 11:41 07.04.2020
5323 Clouds 14 1021 54 10000 6.7 220 11:21 07.04.2020
5324 Clouds 14 1021 58 10000 6.7 220 10:55 07.04.2020
5325 Clouds 14 1021 58 10000 6.7 220 10:36 07.04.2020
5326 Clouds 14 1021 58 10000 6.7 220 10:18 07.04.2020
5327 Clouds 14 1020 54 10000 9.3 210 09:43 07.04.2020
5328 Clouds 14 1020 54 10000 9.3 210 09:18 07.04.2020
5329 Clouds 14 1021 54 10000 7.2 220 08:41 07.04.2020
5330 Clouds 14 1021 54 10000 7.2 220 08:23 07.04.2020
5331 Clouds 14 1021 50 10000 8.7 210 07:57 07.04.2020
5332 Clouds 14 1021 50 10000 8.7 210 07:38 07.04.2020
5333 Clouds 14 1021 47 10000 8.2 220 07:20 07.04.2020
5334 Clouds 14 1021 47 10000 8.2 220 06:42 07.04.2020
5335 Clouds 14 1021 51 10000 5.1 220 06:18 07.04.2020
5336 Clouds 14 1021 51 10000 5.1 220 05:29 07.04.2020
5337 Clouds 15 1021 47 10000 7.2 210 04:35 07.04.2020
5338 Clouds 15 1020 47 10000 6.2 220 03:24 07.04.2020
5339 Clouds 15 1020 47 10000 8.2 210 02:48 07.04.2020
5340 Clouds 16 1019 44 10000 9.3 220 01:47 07.04.2020
5341 Clouds 16 1019 44 10000 9.3 220 01:23 07.04.2020
5342 Clouds 16 1019 51 10000 7.7 220 00:27 07.04.2020
5343 Clouds 16 1019 51 10000 7.7 220 23:44 06.04.2020
5344 Clouds 16 1019 51 10000 7.7 220 23:23 06.04.2020
5345 Clouds 17 1019 48 10000 7.7 220 22:57 06.04.2020
5346 Clouds 17 1019 48 10000 7.7 220 22:38 06.04.2020
5347 Clouds 17 1019 48 10000 7.7 220 22:19 06.04.2020
5348 Clouds 17 1019 48 10000 9.3 220 21:57 06.04.2020
5349 Clouds 17 1019 48 10000 9.3 220 21:38 06.04.2020
5350 Clouds 17 1019 48 10000 9.3 220 21:18 06.04.2020
5351 Clouds 18 1018 42 10000 8.7 220 20:54 06.04.2020
5352 Clouds 18 1018 42 10000 8.7 220 20:36 06.04.2020
5353 Clouds 17 1018 51 10000 8.2 220 20:18 06.04.2020
5354 Clouds 17 1018 51 10000 8.2 220 20:18 06.04.2020
5355 Clouds 17 1018 51 10000 8.2 220 19:40 06.04.2020
5356 Clouds 18 1018 55 10000 7.7 220 19:22 06.04.2020
5357 Clouds 18 1018 55 10000 7.7 220 18:57 06.04.2020
5358 Clouds 18 1018 55 10000 7.7 220 18:57 06.04.2020
5359 Clouds 18 1018 55 10000 7.7 220 18:39 06.04.2020
5360 Clouds 17 1018 67 10000 7.7 210 18:20 06.04.2020
5361 Clouds 17 1018 67 10000 7.7 210 17:42 06.04.2020
5362 Clouds 17 1018 67 10000 7.7 210 17:20 06.04.2020
5363 Clouds 19 1017 68 10000 6.2 200 16:50 06.04.2020
5364 Clouds 19 1017 68 10000 6.2 200 16:31 06.04.2020
5365 Clouds 18 1016 77 10000 7.7 210 15:41 06.04.2020
5366 Clouds 18 1014 82 10000 6.7 220 14:00 06.04.2020
5367 Clouds 18 1014 82 10000 6.7 220 14:00 06.04.2020
5368 -273 0 0 0 0 0 13:40 06.04.2020
5369 Clouds 18 1014 82 10000 6.7 220 13:19 06.04.2020
5370 Clouds 18 1014 82 10000 6.7 220 13:19 06.04.2020
5371 Clouds 18 1014 82 10000 6.7 220 13:19 06.04.2020
5372 Clouds 18 1014 82 10000 6.7 220 13:19 06.04.2020
5373 Clouds 16 1012 87 10000 2.6 270 12:22 06.04.2020
5374 Clear 15 1011 87 10000 3.1 310 11:55 06.04.2020
5375 Clear 15 1011 87 10000 3.1 310 11:33 06.04.2020
5376 Clear 15 1011 87 10000 3.1 310 11:33 06.04.2020
5377 Clear 15 1011 87 10000 3.1 310 11:33 06.04.2020
5378 Clear 15 1011 87 10000 3.1 310 11:33 06.04.2020
5379 Clear 15 1011 87 10000 3.1 310 11:33 06.04.2020
5380 Clear 15 1010 93 10000 1 0 10:52 06.04.2020
5381 Clear 15 1010 93 10000 1 0 10:52 06.04.2020
5382 Clear 15 1010 93 10000 1 0 10:52 06.04.2020
5383 Clear 15 1010 93 10000 1 0 10:52 06.04.2020
5384 Clear 15 1010 93 10000 1 0 10:52 06.04.2020
5385 Clear 15 1010 93 10000 1 0 10:22 06.04.2020
5386 Clear 16 1010 77 10000 1 0 09:47 06.04.2020
5387 Clear 16 1010 77 10000 1 0 09:47 06.04.2020
5388 Clear 16 1010 77 10000 1 0 09:47 06.04.2020
5389 Clear 20 1010 77 10000 1 0 09:21 06.04.2020
5390 Clouds 19 1011 82 10000 1.5 360 08:54 06.04.2020
5391 Clouds 19 1011 82 10000 1.5 360 08:30 06.04.2020
5392 Clouds 20 1011 77 10000 5.05 301 07:39 06.04.2020
5393 Rain 20 1011 82 10000 3.1 30 06:47 06.04.2020
5394 Rain 20 1011 82 10000 3.1 30 06:24 06.04.2020
5395 Clouds 21 1011 68 10000 3.97 327 04:20 06.04.2020
5396 Clouds 20 1011 77 10000 1 0 02:59 06.04.2020
5397 Clouds 20 1011 77 10000 1 0 02:36 06.04.2020
5398 Clouds 21 1011 73 10000 1.93 348 01:28 06.04.2020
5399 Clouds 20 1010 77 10000 1.5 30 00:46 06.04.2020
5400 Clouds 20 1010 77 10000 1.5 30 00:23 06.04.2020
5401 Clouds 22 1010 73 10000 1.5 210 23:44 05.04.2020
5402 Clouds 22 1010 73 10000 1.5 210 23:26 05.04.2020
5403 Clouds 23 1010 53 10000 3.1 220 22:56 05.04.2020
5404 Clouds 23 1010 53 10000 3.1 220 22:37 05.04.2020
5405 Clouds 23 1010 53 10000 3.1 220 22:37 05.04.2020
5406 Clouds 23 1010 53 10000 3.1 220 22:37 05.04.2020
5407 Clouds 23 1010 53 10000 3.1 220 22:37 05.04.2020
5408 Clouds 23 1010 53 10000 3.1 220 22:18 05.04.2020
5409 Clouds 23 1010 60 10000 4.1 230 21:47 05.04.2020
5410 Clouds 23 1010 60 10000 4.1 230 21:47 05.04.2020
5411 Clouds 23 1010 60 10000 4.1 230 21:26 05.04.2020
5412 Clouds 25 1010 44 10000 4.1 340 21:03 05.04.2020
5413 Clouds 25 1010 44 10000 4.1 340 21:03 05.04.2020
5414 Clouds 25 1010 44 10000 4.1 340 21:03 05.04.2020
5415 Clouds 25 1010 44 10000 4.1 340 21:03 05.04.2020
5416 Clouds 25 1010 44 10000 4.1 340 20:20 05.04.2020
5417 Clouds 25 1010 44 10000 4.1 340 20:20 05.04.2020
5418 Clouds 25 1010 44 10000 4.1 340 20:20 05.04.2020
5419 Clouds 25 1010 44 10000 5.1 340 19:39 05.04.2020
5420 Clouds 26 1010 44 10000 5.1 340 19:21 05.04.2020
5421 Clouds 26 1011 47 10000 6.2 360 18:44 05.04.2020
5422 Clear 25 1012 53 10000 4.6 340 17:57 05.04.2020
5423 Clear 24 1012 53 10000 4.6 340 17:39 05.04.2020
5424 Clear 24 1012 53 10000 4.6 340 17:39 05.04.2020
5425 Clear 24 1012 53 10000 4.6 340 17:39 05.04.2020
5426 Clear 24 1012 53 10000 4.6 340 17:39 05.04.2020
5427 Clear 24 1012 53 10000 4.6 340 17:39 05.04.2020
5428 Clear 24 1012 53 10000 4.6 340 17:20 05.04.2020
5429 Clear 24 1012 53 10000 4.6 340 17:20 05.04.2020
5430 Clear 24 1012 53 10000 4.6 340 17:20 05.04.2020
5431 Clear 24 1012 53 10000 4.6 340 17:20 05.04.2020
5432 Clear 23 1012 56 10000 5.1 360 16:21 05.04.2020
5433 Clear 23 1012 56 10000 5.1 360 16:21 05.04.2020
5434 Clear 21 1012 64 10000 4.1 360 15:55 05.04.2020
5435 Clear 22 1012 64 10000 4.1 360 15:37 05.04.2020
5436 Clouds 21 1012 64 10000 4.1 360 15:19 05.04.2020
5437 Clouds 18 1012 77 10000 3.6 360 14:47 05.04.2020
5438 Clouds 18 1012 77 10000 3.6 360 14:47 05.04.2020
5439 Clouds 18 1012 77 10000 3.6 360 14:47 05.04.2020
5440 Clouds 18 1012 77 10000 3.6 360 14:46 05.04.2020
5441 Clouds 18 1012 77 10000 3.6 360 14:46 05.04.2020
5442 Clouds 15 1012 77 10000 3.6 20 13:44 05.04.2020
5443 Clouds 15 1012 77 10000 3.6 20 13:44 05.04.2020
5444 Clouds 13 1011 82 10000 3.6 20 12:54 05.04.2020
5445 Clouds 13 1011 82 10000 3.6 20 12:54 05.04.2020
5446 Clouds 13 1011 82 10000 3.6 20 12:54 05.04.2020
5447 Clouds 13 1011 82 10000 3.6 20 12:54 05.04.2020
5448 Clouds 13 1011 82 10000 3.6 20 12:54 05.04.2020
5449 Clear 13 1011 82 10000 1.5 20 11:44 05.04.2020
5450 Clear 13 1011 82 10000 1.5 20 11:21 05.04.2020
5451 Clear 14 1011 82 10000 2.6 20 10:59 05.04.2020
5452 Clear 14 1011 82 10000 2.6 20 10:41 05.04.2020
5453 Clear 14 1011 82 10000 2.6 20 10:18 05.04.2020
5454 Clear 14 1011 82 10000 1.5 20 09:43 05.04.2020
5455 Clear 13 1011 82 10000 1.5 20 09:24 05.04.2020
5456 Clouds 13 1011 82 10000 1.5 20 09:24 05.04.2020
5457 Clouds 13 1011 82 10000 1.5 20 09:24 05.04.2020
5458 Clouds 13 1011 82 10000 1.5 20 09:24 05.04.2020
5459 Clouds 13 1011 82 10000 1.5 20 09:24 05.04.2020
5460 Clear 15 1011 77 10000 2.1 30 07:42 05.04.2020
5461 Clear 17 1012 77 10000 3.1 60 04:40 05.04.2020
5462 Clear 17 1012 77 10000 3.1 70 03:34 05.04.2020
5463 Clear 18 1012 72 10000 1.5 70 02:52 05.04.2020
5464 Clear 18 1011 72 10000 1.5 90 01:48 05.04.2020
5465 Clear 18 1011 72 10000 1.5 90 01:30 05.04.2020
5466 Clear 19 1011 72 10000 2.83 11 00:46 05.04.2020
5467 Clear 19 1011 72 10000 2.83 11 00:22 05.04.2020
5468 Clear 21 1011 60 10000 2.1 240 23:56 04.04.2020
5469 Clear 21 1011 60 10000 2.1 240 23:37 04.04.2020
5470 Clear 21 1011 60 10000 2.1 240 23:19 04.04.2020
5471 Clear 23 1011 53 10000 2.1 270 22:41 04.04.2020
5472 Clear 23 1011 53 10000 2.1 270 22:22 04.04.2020
5473 Clear 23 1011 49 10000 2.6 270 21:59 04.04.2020
5474 Clear 23 1011 49 10000 2.6 270 21:40 04.04.2020
5475 Clear 23 1011 49 10000 2.6 270 21:20 04.04.2020
5476 Clear 23 1011 49 10000 2.6 270 21:20 04.04.2020
5477 Clouds 24 1011 50 10000 2.6 220 20:59 04.04.2020
5478 Clouds 24 1011 50 10000 2.6 220 20:41 04.04.2020
5479 Clouds 24 1011 50 10000 2.6 220 20:22 04.04.2020
5480 Clouds 24 1012 50 10000 2.6 300 19:57 04.04.2020
5481 Clouds 24 1012 50 10000 2.6 300 19:37 04.04.2020
5482 Clouds 24 1012 50 10000 2.6 300 19:19 04.04.2020
5483 Clouds 24 1012 47 10000 4.1 300 18:57 04.04.2020
5484 Clouds 24 1012 47 10000 4.1 300 18:57 04.04.2020
5485 Clouds 24 1012 47 10000 4.1 300 18:38 04.04.2020
5486 Clouds 24 1012 47 10000 4.1 300 18:38 04.04.2020
5487 Clouds 24 1012 47 10000 4.1 300 18:19 04.04.2020
5488 Clouds 23 1013 53 10000 4.1 300 17:56 04.04.2020
5489 Clouds 23 1013 53 10000 4.1 300 17:38 04.04.2020
5490 Clouds 23 1013 53 10000 4.1 300 17:38 04.04.2020
5491 Clouds 22 1013 53 10000 4.1 300 17:18 04.04.2020
5492 Clear 21 1013 60 10000 6.7 20 16:42 04.04.2020
5493 Clear 21 1013 60 10000 6.7 20 16:42 04.04.2020
5494 Clear 21 1013 60 10000 6.7 20 16:22 04.04.2020
5495 Clear 19 1014 77 10000 4.1 360 15:56 04.04.2020
5496 Clear 19 1014 77 10000 4.1 360 15:38 04.04.2020
5497 Clouds 18 1014 77 10000 4.1 360 15:19 04.04.2020
5498 Clouds 17 1014 87 10000 4.1 360 14:43 04.04.2020
5499 Clouds 16 1014 87 10000 4.1 360 14:23 04.04.2020
5500 Clouds 13 1014 93 10000 4.1 360 13:56 04.04.2020
5501 Clouds 13 1014 93 10000 4.1 360 13:38 04.04.2020
5502 Clouds 13 1014 93 10000 4.1 360 13:20 04.04.2020
5503 Clouds 11 1013 100 10000 4.95 336 12:46 04.04.2020
5504 Clouds 11 1013 100 10000 4.95 336 12:27 04.04.2020
5505 Clouds 12 1013 87 10000 1.5 10 11:59 04.04.2020
5506 Clouds 13 1013 87 10000 1.5 10 11:40 04.04.2020
5507 Clouds 13 1013 87 10000 1.5 10 11:21 04.04.2020
5508 Clouds 12 1013 93 10000 2.1 360 10:58 04.04.2020
5509 Clouds 12 1013 93 10000 2.1 360 10:40 04.04.2020
5510 Clouds 12 1013 93 10000 2.1 360 10:21 04.04.2020
5511 Clouds 12 1013 93 10000 1.5 10 09:55 04.04.2020
5512 Clouds 12 1013 93 10000 1.5 10 09:37 04.04.2020
5513 Clear 12 1013 93 10000 1.5 10 09:19 04.04.2020
5514 Clear 13 1013 87 10000 2.1 10 08:42 04.04.2020
5515 Clear 13 1013 87 10000 2.1 10 08:23 04.04.2020
5516 Clear 12 1013 87 10000 1.5 20 07:47 04.04.2020
5517 Clear 12 1013 87 10000 1.5 20 07:28 04.04.2020
5518 Clear 15 1013 82 10000 1.5 40 06:58 04.04.2020
5519 Clear 15 1013 82 10000 1.5 40 06:21 04.04.2020
5520 Clouds 14 1014 87 10000 2.81 48 05:51 04.04.2020
5521 Clouds 14 1014 87 10000 2.81 48 05:32 04.04.2020
5522 Clouds 14 1014 87 10000 2.81 48 04:33 04.04.2020
5523 Clouds 14 1015 87 10000 2.81 48 03:55 04.04.2020
5524 Clouds 14 1015 87 10000 2.81 48 03:27 04.04.2020
5525 Clouds 18 1015 68 10000 3.29 117 02:40 04.04.2020
5526 Clouds 18 1015 68 10000 3.29 117 02:22 04.04.2020
5527 Clouds 18 1015 63 10000 1 0 01:26 04.04.2020
5528 Clouds 17 1015 77 10000 2.1 150 00:55 04.04.2020
5529 Clouds 17 1015 77 10000 2.1 150 00:30 04.04.2020
5530 Clouds 19 1015 68 10000 3.1 180 23:55 03.04.2020
5531 Clouds 19 1015 68 10000 3.1 180 23:36 03.04.2020
5532 Clouds 19 1015 68 10000 3.1 180 23:18 03.04.2020
5533 Clouds 20 1015 64 10000 4.1 180 22:40 03.04.2020
5534 Clouds 20 1015 64 10000 4.1 180 22:19 03.04.2020
5535 Clouds 21 1016 60 10000 4.6 180 21:56 03.04.2020
5536 Clouds 21 1016 60 10000 4.6 180 21:37 03.04.2020
5537 Clouds 21 1016 60 10000 4.6 180 21:19 03.04.2020
5538 Clouds 21 1017 60 10000 5.1 180 20:54 03.04.2020
5539 Clouds 21 1017 60 10000 5.1 180 20:36 03.04.2020
5540 Clouds 21 1017 60 10000 5.1 180 20:18 03.04.2020
5541 Clouds 22 1017 49 10000 5.1 180 19:54 03.04.2020
5542 Clouds 22 1017 49 10000 5.1 180 19:36 03.04.2020
5543 Clouds 22 1017 49 10000 5.1 180 19:36 03.04.2020
5544 Clouds 22 1017 49 10000 5.1 180 19:18 03.04.2020
5545 Clouds 22 1017 49 10000 5.1 180 18:56 03.04.2020
5546 Clouds 22 1017 56 10000 5.1 180 18:38 03.04.2020
5547 Clouds 22 1017 56 10000 5.1 180 18:19 03.04.2020
5548 Clouds 21 1017 60 10000 6.2 170 17:40 03.04.2020
5549 Clouds 21 1017 60 10000 6.2 170 17:19 03.04.2020
5550 Clouds 21 1018 64 10000 6.7 160 16:55 03.04.2020
5551 Clouds 21 1018 64 10000 6.7 160 16:55 03.04.2020
5552 Clouds 21 1018 64 10000 6.7 160 16:55 03.04.2020
5553 Clouds 21 1018 64 10000 6.7 160 16:36 03.04.2020
5554 Clouds 20 1018 64 10000 6.7 160 16:18 03.04.2020
5555 Clouds 20 1017 68 10000 6.7 170 15:41 03.04.2020
5556 Clouds 20 1017 68 10000 6.7 170 15:22 03.04.2020
5557 Clouds 20 1017 68 10000 6.7 170 14:58 03.04.2020
5558 Rain 20 1018 60 0 2.68 190 14:40 03.04.2020
5559 Clouds 19 1017 77 10000 6.2 170 14:21 03.04.2020
5560 Clouds 19 1017 77 10000 6.2 170 13:46 03.04.2020
5561 Clouds 19 1017 77 10000 6.2 170 13:27 03.04.2020
5562 Clouds 18 1016 72 10000 6.2 160 12:57 03.04.2020
5563 Clouds 18 1016 72 10000 6.2 160 12:39 03.04.2020
5564 Clouds 18 1016 72 10000 6.2 160 12:18 03.04.2020
5565 Clouds 18 1016 72 10000 7.2 180 11:55 03.04.2020
5566 Clouds 18 1016 72 10000 7.2 180 11:55 03.04.2020
5567 Clouds 18 1016 72 10000 7.2 180 11:37 03.04.2020
5568 Clouds 18 1016 72 10000 7.2 180 11:18 03.04.2020
5569 Clouds 18 1015 68 10000 6.2 180 10:56 03.04.2020
5570 Clouds 18 1015 68 10000 6.2 180 10:37 03.04.2020
5571 Clouds 18 1015 68 10000 6.2 180 10:19 03.04.2020
5572 Clouds 18 1015 68 10000 6.7 180 09:55 03.04.2020
5573 Clouds 18 1015 68 10000 6.7 180 09:37 03.04.2020
5574 Clouds 18 1015 68 10000 6.7 180 09:19 03.04.2020
5575 Clouds 18 1015 72 10000 7.7 190 08:44 03.04.2020
5576 Clouds 18 1015 72 10000 7.7 190 08:24 03.04.2020
5577 Clouds 18 1016 72 10000 7.7 190 07:55 03.04.2020
5578 Clouds 18 1016 72 10000 7.7 190 07:33 03.04.2020
5579 Clouds 18 1016 72 10000 9.3 200 06:58 03.04.2020
5580 Clouds 18 1016 72 10000 9.3 200 06:28 03.04.2020
5581 Rain 17 1016 77 9000 10.3 210 05:42 03.04.2020
5582 Rain 18 1016 68 9000 11.3 210 04:27 03.04.2020
5583 Rain 18 1016 63 10000 11.8 210 03:33 03.04.2020
5584 Clouds 18 1015 59 10000 11.8 210 02:39 03.04.2020
5585 Clouds 18 1015 55 10000 12.9 210 01:25 03.04.2020
5586 Clouds 18 1016 59 10000 10.3 200 00:47 03.04.2020
5587 Clouds 18 1016 59 10000 10.3 200 00:29 03.04.2020
5588 Clouds 19 1016 55 10000 10.3 210 23:54 02.04.2020
5589 Clouds 19 1016 55 10000 10.3 210 23:36 02.04.2020
5590 Clouds 19 1016 55 10000 10.3 210 23:18 02.04.2020
5591 Clouds 19 1015 55 10000 11.3 200 22:41 02.04.2020
5592 Clouds 19 1015 55 10000 11.3 200 22:22 02.04.2020
5593 Clouds 20 1015 52 10000 10.8 210 21:58 02.04.2020
5594 Clouds 20 1015 52 10000 10.8 210 21:37 02.04.2020
5595 Clouds 20 1015 52 10000 10.8 210 21:18 02.04.2020
5596 Clouds 20 1014 52 10000 12.9 220 20:45 02.04.2020
5597 Clouds 21 1015 52 10000 10.8 210 20:25 02.04.2020
5598 Clouds 21 1015 60 10000 11.8 220 19:57 02.04.2020
5599 Clouds 21 1015 60 10000 11.8 220 19:39 02.04.2020
5600 Clouds 21 1015 60 10000 11.8 220 19:20 02.04.2020
5601 Clouds 21 1014 46 10000 12.3 220 18:55 02.04.2020
5602 Clouds 20 1015 64 10000 10.3 220 18:36 02.04.2020
5603 Clouds 21 1015 64 10000 10.3 220 18:18 02.04.2020
5604 Clouds 21 1015 64 10000 10.3 220 18:18 02.04.2020
5605 Clouds 19 1015 72 10000 11.3 220 17:42 02.04.2020
5606 Clouds 19 1015 72 10000 11.3 220 17:24 02.04.2020
5607 Clouds 19 1014 77 10000 11.3 220 16:58 02.04.2020
5608 Clouds 18 1014 77 10000 11.3 220 16:40 02.04.2020
5609 Clouds 18 1014 77 10000 11.3 220 16:21 02.04.2020
5610 Clouds 18 1014 77 10000 8.7 210 15:57 02.04.2020
5611 Clouds 18 1013 68 10000 11.3 220 15:39 02.04.2020
5612 Clouds 18 1014 77 10000 8.7 210 15:18 02.04.2020
5613 Clouds 17 1014 77 10000 10.3 220 14:57 02.04.2020
5614 Clouds 17 1014 77 10000 10.3 220 14:38 02.04.2020
5615 Clouds 17 1014 77 10000 10.3 220 14:18 02.04.2020
5616 Clouds 17 1014 77 10000 10.3 220 14:18 02.04.2020
5617 Clouds 17 1014 82 10000 8.7 210 13:54 02.04.2020
5618 Clouds 17 1014 82 10000 8.7 210 13:54 02.04.2020
5619 Clouds 17 1014 82 10000 8.7 210 13:36 02.04.2020
5620 Clouds 17 1014 82 10000 8.7 210 13:18 02.04.2020
5621 Clouds 17 1013 82 10000 7.7 210 12:44 02.04.2020
5622 Clouds 17 1013 82 10000 7.7 210 12:19 02.04.2020
5623 Rain 17 1011 82 10000 10.3 220 11:57 02.04.2020
5624 Rain 17 1011 82 10000 10.3 220 11:39 02.04.2020
5625 Rain 17 1011 82 10000 10.3 220 11:20 02.04.2020
5626 Rain 17 1011 82 10000 10.3 220 11:20 02.04.2020
5627 Clouds 18 1011 77 10000 10.3 230 10:56 02.04.2020
5628 Clouds 18 1011 77 10000 10.3 230 10:38 02.04.2020
5629 Clouds 18 1011 77 10000 10.3 230 10:38 02.04.2020
5630 Clouds 18 1011 77 10000 10.3 230 10:20 02.04.2020
5631 Clouds 18 1011 77 10000 10.3 230 10:20 02.04.2020
5632 Clouds 18 1010 82 10000 10.3 240 09:58 02.04.2020
5633 Clouds 18 1010 82 10000 10.3 240 09:58 02.04.2020
5634 Clouds 18 1010 82 10000 10.3 240 09:40 02.04.2020
5635 Clouds 18 1010 82 10000 10.3 240 09:20 02.04.2020
5636 Clouds 19 1010 82 10000 8.2 260 08:47 02.04.2020
5637 Clouds 19 1010 82 10000 8.2 260 08:28 02.04.2020
5638 Rain 19 1010 94 10000 7.2 260 07:54 02.04.2020
5639 Rain 20 1010 94 10000 7.2 260 07:36 02.04.2020
5640 Rain 21 1010 94 10000 7.2 260 07:18 02.04.2020
5641 Rain 21 1010 94 8000 3.6 270 06:23 02.04.2020
5642 Clouds 21 1010 94 8000 6.7 280 05:46 02.04.2020
5643 Clouds 21 1010 94 8000 6.7 280 05:46 02.04.2020
5644 Rain 22 1010 94 5000 7.2 260 04:50 02.04.2020
5645 Rain 21 1011 88 10000 2.25 233 02:19 02.04.2020
5646 Clouds 22 1011 88 10000 1.5 30 00:58 02.04.2020
5647 Clouds 22 1011 88 10000 1.5 30 00:38 02.04.2020
5648 Clouds 22 1011 88 10000 1.5 30 00:19 02.04.2020
5649 Clouds 23 1010 83 10000 2.1 60 23:38 01.04.2020
5650 Clouds 23 1010 83 10000 2.1 60 23:19 01.04.2020
5651 Clouds 23 1011 83 10000 3.6 30 22:56 01.04.2020
5652 Clouds 23 1011 83 10000 3.6 30 22:37 01.04.2020
5653 Clouds 23 1011 83 10000 3.6 30 22:19 01.04.2020
5654 Clouds 23 1011 83 10000 6.2 60 21:39 01.04.2020
5655 Clouds 23 1011 83 10000 6.2 60 21:19 01.04.2020
5656 Clouds 23 1012 83 10000 6.2 90 20:56 01.04.2020
5657 Clouds 23 1012 83 10000 6.2 90 20:38 01.04.2020
5658 Clouds 23 1012 83 10000 6.2 90 20:19 01.04.2020
5659 Clouds 22 1012 83 10000 7.2 70 19:57 01.04.2020
5660 Clouds 22 1012 83 10000 7.2 70 19:57 01.04.2020
5661 Clouds 22 1012 83 10000 7.2 70 19:38 01.04.2020
5662 Clouds 21 1012 83 10000 7.2 70 19:19 01.04.2020
5663 Clouds 20 1013 93 5000 5.1 60 18:42 01.04.2020
5664 Clouds 20 1013 93 5000 5.1 60 18:23 01.04.2020
5665 Rain 19 1015 93 600 5.1 90 17:57 01.04.2020
5666 Rain 19 1015 93 600 5.1 90 17:38 01.04.2020
5667 Rain 19 1015 93 600 5.1 90 17:19 01.04.2020
5668 Rain 19 1015 93 2000 5.1 90 16:58 01.04.2020
5669 Rain 19 1015 93 2000 5.1 90 16:39 01.04.2020
5670 Rain 19 1015 93 2000 5.1 90 16:20 01.04.2020
5671 Rain 19 1016 93 1000 4.1 120 15:56 01.04.2020
5672 Rain 19 1016 93 1000 4.1 120 15:37 01.04.2020
5673 Rain 19 1016 93 1000 4.1 120 15:18 01.04.2020
5674 Rain 18 1017 93 3000 2.6 180 14:40 01.04.2020
5675 Rain 19 1015 88 10000 5.1 80 14:22 01.04.2020
5676 Rain 19 1015 82 10000 5.1 60 13:59 01.04.2020
5677 Rain 19 1015 82 10000 5.1 60 13:40 01.04.2020
5678 Rain 19 1015 82 10000 5.1 60 13:20 01.04.2020
5679 Rain 18 1015 88 10000 5.1 60 12:59 01.04.2020
5680 Rain 18 1015 88 10000 5.1 60 12:41 01.04.2020
5681 Rain 18 1015 88 10000 5.1 60 12:22 01.04.2020
5682 Rain 20 1015 77 10000 3.6 70 11:57 01.04.2020
5683 Rain 20 1015 77 10000 3.6 70 11:37 01.04.2020
5684 Rain 20 1015 77 10000 3.6 70 11:19 01.04.2020
5685 Rain 20 1016 77 10000 3.1 70 10:40 01.04.2020
5686 Rain 20 1016 77 10000 3.1 70 10:21 01.04.2020
5687 Rain 20 1016 82 10000 3.6 70 09:59 01.04.2020
5688 Rain 20 1016 82 10000 3.6 70 09:40 01.04.2020
5689 Rain 20 1016 82 10000 3.6 70 09:20 01.04.2020
5690 Clouds 19 1016 77 10000 5.1 70 08:56 01.04.2020
5691 Clouds 19 1016 77 10000 5.1 70 08:37 01.04.2020
5692 Clouds 19 1016 77 10000 5.1 70 08:18 01.04.2020
5693 Clouds 19 1017 77 10000 4.6 80 07:41 01.04.2020
5694 Clouds 19 1017 77 10000 4.6 80 07:19 01.04.2020
5695 Clouds 19 1017 77 10000 4.6 80 07:19 01.04.2020
5696 Clouds 18 1017 77 10000 4.6 80 06:47 01.04.2020
5697 Clouds 20 1017 77 10000 4.6 80 06:21 01.04.2020
5698 Clouds 20 1018 77 10000 5.7 90 05:50 01.04.2020
5699 Clouds 20 1018 82 10000 5.7 90 04:29 01.04.2020
5700 -273 0 0 0 0 0 03:20 01.04.2020
5701 Clouds 20 1019 72 10000 5.7 90 02:41 01.04.2020
5702 Clouds 20 1018 72 10000 7.7 100 01:53 01.04.2020
5703 Clouds 20 1018 72 10000 7.7 100 01:27 01.04.2020
5704 Clouds 20 1018 88 10000 5.7 120 00:47 01.04.2020
5705 Clouds 20 1018 88 10000 5.7 120 00:24 01.04.2020
5706 Clouds 21 1018 83 10000 6.7 120 23:59 31.03.2020
5707 Clouds 21 1018 83 10000 6.7 120 23:41 31.03.2020
5708 Clouds 21 1018 83 10000 6.7 120 23:22 31.03.2020
5709 Clouds 22 1018 78 10000 7.7 100 22:41 31.03.2020
5710 Clouds 22 1018 78 10000 7.7 100 22:22 31.03.2020
5711 Clouds 22 1018 78 10000 7.7 100 21:58 31.03.2020
5712 Clouds 22 1018 73 10000 6.7 100 21:40 31.03.2020
5713 Clouds 22 1018 73 10000 6.7 100 21:21 31.03.2020
5714 Clouds 22 1018 83 10000 8.2 120 20:58 31.03.2020
5715 Clouds 22 1018 83 10000 8.2 120 20:58 31.03.2020
5716 Clouds 22 1018 83 10000 8.2 120 20:37 31.03.2020
5717 Clouds 22 1018 83 10000 8.2 120 20:19 31.03.2020
5718 Clouds 22 1020 83 10000 4.1 90 19:57 31.03.2020
5719 Clouds 22 1020 83 10000 4.1 90 19:39 31.03.2020
5720 Clouds 22 1020 83 10000 4.1 90 19:21 31.03.2020
5721 Clouds 22 1020 83 10000 4.1 90 18:46 31.03.2020
5722 Clouds 21 1020 88 10000 4.1 90 18:21 31.03.2020
5723 Clouds 21 1020 88 10000 4.1 90 17:58 31.03.2020
5724 Clouds 21 1020 88 10000 4.1 90 17:40 31.03.2020
5725 Clouds 21 1020 88 10000 4.1 90 17:21 31.03.2020
5726 Clouds 21 1020 88 10000 4.1 90 17:21 31.03.2020
5727 Clouds 21 1020 94 10000 4.1 120 16:57 31.03.2020
5728 Clouds 21 1020 94 10000 4.1 120 16:37 31.03.2020
5729 Clouds 21 1020 94 10000 4.1 120 16:18 31.03.2020
5730 Clouds 20 1020 94 8000 4.6 120 15:56 31.03.2020
5731 Clouds 20 1020 94 8000 4.6 120 15:56 31.03.2020
5732 Clouds 20 1020 94 8000 4.6 120 15:37 31.03.2020
5733 Clouds 20 1020 94 8000 4.6 120 15:37 31.03.2020
5734 Clouds 20 1020 94 8000 4.6 120 15:18 31.03.2020
5735 Clouds 19 1020 93 8000 3.1 100 14:56 31.03.2020
5736 Clouds 19 1020 93 8000 3.1 100 14:37 31.03.2020
5737 Clouds 19 1020 93 8000 3.1 100 14:18 31.03.2020
5738 Rain 19 1020 93 8000 3.1 150 13:41 31.03.2020
5739 Rain 19 1020 93 8000 3.1 150 13:19 31.03.2020
5740 Clouds 18 1020 93 8000 6.7 120 12:54 31.03.2020
5741 Clouds 18 1020 93 8000 6.7 120 12:36 31.03.2020
5742 Clouds 18 1020 93 8000 6.7 120 12:18 31.03.2020
5743 Clouds 21 1018 82 10000 8.2 140 11:38 31.03.2020
5744 Clouds 21 1018 82 10000 8.2 140 11:19 31.03.2020
5745 Clouds 22 1018 78 10000 7.2 120 10:56 31.03.2020
5746 Clouds 22 1018 78 10000 7.2 120 10:38 31.03.2020
5747 Clouds 22 1018 78 10000 7.2 120 10:20 31.03.2020
5748 Clouds 22 1017 78 10000 7.2 110 09:55 31.03.2020
5749 Clouds 22 1017 78 10000 7.2 110 09:37 31.03.2020
5750 Clouds 22 1017 78 10000 7.2 110 09:19 31.03.2020
5751 Clouds 22 1017 83 10000 6.7 120 08:54 31.03.2020
5752 Clouds 22 1017 83 10000 6.7 120 08:36 31.03.2020
5753 Clouds 22 1017 83 10000 6.7 120 08:18 31.03.2020
5754 Clouds 22 1017 78 10000 8.2 120 07:43 31.03.2020
5755 Clouds 22 1017 78 10000 8.2 120 07:23 31.03.2020
5756 Clouds 22 1018 83 10000 7.2 130 06:58 31.03.2020
5757 Clouds 22 1018 83 10000 7.2 130 06:39 31.03.2020
5758 Clouds 22 1018 83 10000 6.7 130 05:44 31.03.2020
5759 Clouds 22 1018 83 10000 6.7 130 05:24 31.03.2020
5760 Clouds 22 1017 88 10000 6.2 120 02:56 31.03.2020
5761 Clouds 22 1017 88 10000 6.7 130 01:47 31.03.2020
5762 Clouds 22 1017 88 10000 6.7 130 01:22 31.03.2020
5763 Clouds 23 1016 94 10000 5.1 120 00:43 31.03.2020
5764 Clouds 23 1016 94 10000 5.1 120 00:23 31.03.2020
5765 -273 0 0 0 0 0 23:40 30.03.2020
5766 Clouds 23 1016 78 10000 5.1 140 23:20 30.03.2020
5767 Clouds 24 1016 78 10000 5.1 120 22:58 30.03.2020
5768 Clouds 24 1016 78 10000 5.1 120 22:38 30.03.2020
5769 Clouds 24 1016 78 10000 5.1 120 22:19 30.03.2020
5770 Clouds 24 1016 69 10000 5.1 150 21:57 30.03.2020
5771 Clouds 25 1016 69 10000 5.1 150 21:38 30.03.2020
5772 Clouds 25 1016 69 10000 5.1 150 21:20 30.03.2020
5773 Clouds 25 1016 69 10000 5.1 150 21:20 30.03.2020
5774 Clouds 25 1016 69 10000 5.1 150 21:20 30.03.2020
5775 Clouds 26 1016 65 10000 5.1 140 20:58 30.03.2020
5776 Clouds 26 1016 65 10000 5.1 140 20:39 30.03.2020
5777 Clouds 26 1016 65 10000 5.1 140 20:19 30.03.2020
5778 Clouds 26 1017 69 10000 5.1 170 19:56 30.03.2020
5779 Clouds 26 1017 69 10000 5.1 170 19:37 30.03.2020
5780 Clouds 26 1017 69 10000 5.1 170 19:19 30.03.2020
5781 Clouds 26 1017 74 10000 4.1 150 18:42 30.03.2020
5782 Clouds 26 1017 74 10000 4.1 150 18:24 30.03.2020
5783 Clouds 25 1018 78 10000 2.6 140 17:58 30.03.2020
5784 Clouds 26 1018 78 10000 2.6 140 17:39 30.03.2020
5785 Clouds 26 1018 78 10000 2.6 140 17:19 30.03.2020
5786 Clouds 25 1018 78 10000 3.1 120 16:57 30.03.2020
5787 Clouds 26 1018 78 10000 3.1 120 16:39 30.03.2020
5788 Clouds 25 1018 78 10000 3.1 120 16:20 30.03.2020
5789 Clouds 25 1018 78 10000 3.1 120 16:20 30.03.2020
5790 Clouds 24 1018 88 8000 3.1 130 15:55 30.03.2020
5791 Clouds 24 1018 88 8000 3.1 130 15:37 30.03.2020
5792 Clouds 24 1018 88 8000 3.1 130 15:19 30.03.2020
5793 Clouds 24 1018 88 8000 3.1 130 15:19 30.03.2020
5794 Mist 23 1018 100 1500 1.5 100 14:55 30.03.2020
5795 Mist 23 1018 100 1500 1.5 100 14:37 30.03.2020
5796 Mist 23 1018 100 1500 1.5 100 14:18 30.03.2020
5797 Fog 21 1018 100 200 3.21 164 13:55 30.03.2020
5798 Mist 22 1018 94 3000 1.5 100 13:37 30.03.2020
5799 Fog 21 1018 100 200 3.21 164 13:18 30.03.2020
5800 Fog 20 1017 100 200 1.5 120 12:43 30.03.2020
5801 Fog 20 1017 100 200 1.5 120 12:20 30.03.2020
5802 Mist 23 1017 88 2500 1 0 11:57 30.03.2020
5803 Mist 23 1017 88 2500 1 0 11:39 30.03.2020
5804 Mist 23 1017 88 2500 1 0 11:21 30.03.2020
5805 Mist 22 1017 94 2000 2.99 160 10:41 30.03.2020
5806 Mist 22 1017 94 2000 2.99 160 10:23 30.03.2020
5807 Fog 22 1017 94 600 2.99 160 09:59 30.03.2020
5808 Fog 22 1017 94 600 2.99 160 09:40 30.03.2020
5809 Fog 22 1017 94 600 2.25 158 09:19 30.03.2020
5810 Fog 22 1017 94 600 2.25 158 08:47 30.03.2020
5811 Mist 22 1017 94 4000 2.25 158 08:28 30.03.2020
5812 Mist 22 1017 94 4000 2.25 158 08:28 30.03.2020
5813 Mist 22 1017 94 3000 1 0 07:58 30.03.2020
5814 Fog 22 1017 94 900 2.1 210 07:39 30.03.2020
5815 Fog 22 1017 94 900 2.1 210 07:18 30.03.2020
5816 Fog 22 1017 94 400 2.25 158 06:39 30.03.2020
5817 Fog 22 1017 94 400 0.97 83 06:19 30.03.2020
5818 Mist 22 1017 94 1200 0.97 83 05:39 30.03.2020
5819 Mist 22 1017 94 2000 0.97 83 04:28 30.03.2020
5820 Mist 22 1017 94 1200 0.97 83 03:52 30.03.2020
5821 Mist 23 1017 88 5000 1.97 110 02:44 30.03.2020
5822 Clear 23 1016 78 10000 1 0 01:54 30.03.2020
5823 Clear 23 1016 78 10000 1.5 160 00:57 30.03.2020
5824 Clear 24 1016 78 10000 1.5 160 00:26 30.03.2020
5825 Clear 25 1015 69 10000 3.1 160 23:55 29.03.2020
5826 Clear 25 1015 69 10000 3.1 160 23:36 29.03.2020
5827 Clear 25 1015 69 10000 3.1 160 23:18 29.03.2020
5828 Clouds 26 1015 61 10000 3.6 160 22:40 29.03.2020
5829 Clouds 27 1015 61 10000 3.6 160 22:20 29.03.2020
5830 Clouds 27 1015 65 10000 4.1 190 21:59 29.03.2020
5831 Clouds 27 1015 65 10000 4.1 190 21:37 29.03.2020
5832 Clouds 27 1015 65 10000 4.1 190 21:19 29.03.2020
5833 Clouds 28 1015 58 10000 4.1 200 20:55 29.03.2020
5834 Clouds 28 1015 58 10000 4.1 200 20:37 29.03.2020
5835 Clouds 28 1015 58 10000 4.1 200 20:18 29.03.2020
5836 Clouds 28 1015 58 10000 4.1 200 20:18 29.03.2020
5837 Clouds 27 1016 61 10000 4.1 220 19:55 29.03.2020
5838 Clouds 27 1016 61 10000 4.1 220 19:37 29.03.2020
5839 Clouds 27 1016 61 10000 4.1 220 19:19 29.03.2020
5840 Clouds 27 1016 61 10000 4.1 220 18:55 29.03.2020
5841 Clouds 27 1016 61 10000 2.6 260 18:37 29.03.2020
5842 Clear 25 1016 73 10000 2.1 290 18:18 29.03.2020
5843 Clear 25 1016 73 10000 2.1 290 17:54 29.03.2020
5844 Clear 25 1016 73 10000 2.1 290 17:36 29.03.2020
5845 Clear 25 1016 73 10000 2.1 290 17:18 29.03.2020
5846 Clouds 24 1016 78 10000 3.1 280 16:55 29.03.2020
5847 Clouds 24 1016 78 10000 3.1 280 16:36 29.03.2020
5848 Clouds 24 1016 78 10000 3.1 280 16:36 29.03.2020
5849 Clouds 24 1016 78 10000 3.1 280 16:18 29.03.2020
5850 Clear 24 1016 78 10000 5.1 10 15:40 29.03.2020
5851 Clear 24 1016 78 10000 5.1 10 15:21 29.03.2020
5852 Clouds 23 1015 83 10000 2.6 360 14:57 29.03.2020
5853 Clouds 23 1015 83 10000 2.6 360 14:38 29.03.2020
5854 Clouds 22 1015 83 10000 2.6 360 14:19 29.03.2020
5855 Clouds 21 1015 94 10000 1.5 20 13:56 29.03.2020
5856 Clouds 21 1015 94 10000 1.5 20 13:37 29.03.2020
5857 Clouds 21 1015 88 10000 1 50 13:19 29.03.2020
5858 Clouds 21 1015 88 10000 1 50 12:55 29.03.2020
5859 Clouds 20 1014 100 10000 1.5 30 12:37 29.03.2020
5860 Rain 21 1014 94 10000 3.78 0 12:18 29.03.2020
5861 Rain 20 1014 100 10000 1.5 30 12:18 29.03.2020
5862 Rain 21 1014 94 10000 3.78 0 11:39 29.03.2020
5863 Rain 21 1014 94 10000 3.78 0 11:21 29.03.2020
5864 Rain 21 1013 94 10000 3.78 0 10:59 29.03.2020
5865 Rain 21 1013 94 10000 3.78 0 10:37 29.03.2020
5866 Rain 21 1013 94 10000 3.78 0 10:18 29.03.2020
5867 Rain 21 1013 83 10000 1.5 30 09:40 29.03.2020
5868 Rain 21 1013 83 10000 1.5 30 09:19 29.03.2020
5869 Rain 21 1013 83 10000 2.1 30 08:53 29.03.2020
5870 Rain 21 1013 83 10000 2.1 30 08:28 29.03.2020
5871 Rain 22 1019 72 0 1.79 152 07:58 29.03.2020
5872 Rain 22 1019 72 0 1.79 152 07:58 29.03.2020
5873 Rain 22 1019 72 0 1.79 152 07:58 29.03.2020
5874 Rain 22 1019 72 0 1.79 152 07:39 29.03.2020
5875 Rain 21 1013 88 10000 4.92 0 07:20 29.03.2020
5876 Clouds 21 1014 83 10000 4.1 100 04:59 29.03.2020
5877 Clouds 21 1014 83 10000 4.1 100 04:59 29.03.2020
5878 Clouds 22 1014 83 10000 7.2 330 03:55 29.03.2020
5879 Clouds 22 1014 83 10000 7.2 330 03:26 29.03.2020
5880 Thunderstorm 22 1014 83 10000 7.7 360 01:51 29.03.2020
5881 Thunderstorm 22 1014 83 10000 7.7 360 01:23 29.03.2020
5882 Thunderstorm 23 1012 83 10000 4.1 80 00:55 29.03.2020
5883 Thunderstorm 23 1012 83 10000 4.1 80 00:31 29.03.2020
5884 Clouds 22 1011 88 10000 3.1 90 23:43 28.03.2020
5885 Clouds 22 1011 88 10000 3.1 90 23:43 28.03.2020
5886 Thunderstorm 22 1011 83 10000 4.6 80 23:24 28.03.2020
5887 Rain 22 1011 88 10000 3.6 90 22:59 28.03.2020
5888 Rain 22 1011 88 10000 3.6 90 22:38 28.03.2020
5889 Rain 22 1011 88 10000 3.6 90 22:20 28.03.2020
5890 Thunderstorm 25 1011 51 2000 7.7 120 21:54 28.03.2020
5891 Thunderstorm 25 1011 51 2000 7.7 120 21:36 28.03.2020
5892 Thunderstorm 25 1011 51 2000 7.7 120 21:18 28.03.2020
5893 Clouds 27 1011 61 10000 5.1 170 20:41 28.03.2020
5894 Clouds 27 1011 61 10000 5.1 170 20:23 28.03.2020
5895 Clouds 27 1012 65 10000 4.6 180 19:57 28.03.2020
5896 Clouds 28 1012 65 10000 4.6 180 19:39 28.03.2020
5897 Clouds 28 1012 65 10000 4.6 180 19:20 28.03.2020
5898 Clouds 29 1012 48 10000 3.8 97 18:58 28.03.2020
5899 Clouds 29 1012 48 10000 3.8 97 18:38 28.03.2020
5900 Clouds 28 1012 57 10000 5.1 140 18:19 28.03.2020
5901 Clouds 28 1012 57 10000 5.1 140 18:19 28.03.2020
5902 Clouds 29 1013 54 10000 2.1 10 17:39 28.03.2020
5903 Clouds 29 1013 54 10000 2.1 10 17:20 28.03.2020
5904 Clouds 28 1013 58 10000 4.1 30 16:43 28.03.2020
5905 Clouds 28 1013 58 10000 4.1 30 16:20 28.03.2020
5906 Clouds 28 1013 58 10000 4.1 30 16:20 28.03.2020
5907 Clouds 26 1014 65 10000 4.1 80 15:59 28.03.2020
5908 Clouds 26 1014 65 10000 4.1 80 15:39 28.03.2020
5909 Clouds 26 1014 65 10000 4.1 80 15:19 28.03.2020
5910 Clouds 24 1014 73 10000 5.1 80 14:55 28.03.2020
5911 Clouds 24 1014 73 10000 5.1 80 14:37 28.03.2020
5912 Clouds 24 1014 73 10000 5.1 80 14:18 28.03.2020
5913 Clouds 23 1014 78 10000 5.1 60 13:40 28.03.2020
5914 Clouds 23 1014 78 10000 5.1 60 13:21 28.03.2020
5915 Clouds 22 1014 94 10000 5.7 60 12:40 28.03.2020
5916 Clouds 21 1014 94 10000 5.7 60 12:22 28.03.2020
5917 Clouds 21 1013 94 10000 5.1 60 11:43 28.03.2020
5918 Clouds 21 1013 94 10000 5.1 60 11:23 28.03.2020
5919 Clouds 21 1013 88 10000 2.6 80 10:58 28.03.2020
5920 Clouds 21 1013 88 10000 2.6 80 10:38 28.03.2020
5921 Clouds 21 1013 88 10000 2.6 80 10:18 28.03.2020
5922 Clouds 21 1013 88 10000 2.1 110 09:42 28.03.2020
5923 Clouds 21 1013 88 10000 2.1 110 09:23 28.03.2020
5924 Clouds 21 1013 88 10000 2.6 100 08:55 28.03.2020
5925 Clouds 21 1013 88 10000 2.6 100 08:37 28.03.2020
5926 Clouds 21 1013 88 10000 2.6 100 08:18 28.03.2020
5927 Clouds 21 1014 88 10000 1 80 07:41 28.03.2020
5928 Clouds 21 1014 83 10000 3.1 70 06:58 28.03.2020
5929 Clouds 21 1014 83 10000 3.1 70 06:34 28.03.2020
5930 Clouds 22 1014 83 10000 4.1 60 05:41 28.03.2020
5931 Clouds 22 1014 78 10000 5.7 80 05:21 28.03.2020
5932 Clouds 22 1014 78 10000 5.7 80 04:40 28.03.2020
5933 Clouds 23 1014 73 10000 5.7 60 03:21 28.03.2020
5934 Clouds 23 1013 64 10000 5.1 70 01:53 28.03.2020
5935 Clouds 23 1013 64 10000 5.1 70 01:25 28.03.2020
5936 Clouds 23 1013 78 10000 3.1 90 00:56 28.03.2020
5937 Clouds 23 1013 78 10000 3.1 90 00:35 28.03.2020
5938 Clouds 23 1012 78 10000 4.1 100 23:55 27.03.2020
5939 Clouds 23 1012 78 10000 4.1 100 23:37 27.03.2020
5940 Clouds 23 1012 78 10000 4.1 100 23:18 27.03.2020
5941 Clouds 24 1012 83 10000 5.1 110 22:55 27.03.2020
5942 Clouds 25 1012 65 10000 6.2 120 22:37 27.03.2020
5943 Clouds 25 1012 65 10000 6.2 120 22:18 27.03.2020
5944 Clouds 27 1012 51 10000 5.7 130 21:42 27.03.2020
5945 Clouds 27 1012 51 10000 5.7 130 21:24 27.03.2020
5946 Clouds 28 1013 48 10000 5.1 60 20:58 27.03.2020
5947 Clouds 28 1013 48 10000 5.1 60 20:40 27.03.2020
5948 Clouds 28 1013 48 10000 5.1 60 20:20 27.03.2020
5949 Clouds 27 1013 48 10000 6.2 60 19:57 27.03.2020
5950 Clouds 27 1013 48 10000 6.2 60 19:39 27.03.2020
5951 Clouds 27 1013 48 10000 6.2 60 19:20 27.03.2020
5952 Clouds 28 1014 51 10000 5.7 60 18:44 27.03.2020
5953 Clouds 28 1014 51 10000 5.7 60 18:24 27.03.2020
5954 Clouds 29 1014 45 10000 5.1 60 17:58 27.03.2020
5955 Clouds 28 1015 54 10000 5.7 40 17:39 27.03.2020
5956 Clouds 26 1015 61 10000 5.7 30 17:19 27.03.2020
5957 Clouds 26 1015 61 10000 5.7 30 16:44 27.03.2020
5958 Clouds 26 1015 61 10000 5.7 30 16:25 27.03.2020
5959 Clouds 26 1016 61 10000 6.2 50 15:56 27.03.2020
5960 Clouds 25 1016 61 10000 6.2 50 15:38 27.03.2020
5961 Clouds 25 1016 61 10000 6.2 50 15:19 27.03.2020
5962 Clouds 24 1016 73 10000 5.1 60 14:43 27.03.2020
5963 Clouds 24 1016 73 10000 5.1 60 14:24 27.03.2020
5964 Clouds 21 1016 94 10000 4.6 80 13:55 27.03.2020
5965 Clouds 21 1016 94 10000 4.6 80 13:36 27.03.2020
5966 Clouds 21 1016 94 10000 4.6 80 13:18 27.03.2020
5967 Clouds 21 1016 94 10000 4.6 80 13:18 27.03.2020
5968 Clouds 19 1016 93 10000 4.1 90 12:43 27.03.2020
5969 Clouds 18 1016 93 10000 4.1 90 12:19 27.03.2020
5970 Clouds 18 1016 93 10000 4.1 90 11:55 27.03.2020
5971 Clouds 18 1015 100 10000 3.1 60 11:36 27.03.2020
5972 Clouds 20 1015 88 10000 2.1 110 11:18 27.03.2020
5973 Clouds 20 1015 88 10000 2.1 110 10:42 27.03.2020
5974 Clouds 20 1015 88 10000 2.1 110 10:42 27.03.2020
5975 Clouds 20 1015 88 10000 2.1 110 10:22 27.03.2020
5976 Clouds 20 1015 88 10000 1.5 30 09:59 27.03.2020
5977 Clouds 20 1015 88 10000 1.5 30 09:41 27.03.2020
5978 Clouds 20 1015 88 10000 1.5 30 09:23 27.03.2020
5979 Clouds 20 1015 88 10000 2.1 40 08:59 27.03.2020
5980 Clouds 20 1015 88 10000 2.1 40 08:40 27.03.2020
5981 Clouds 20 1015 88 10000 2.1 40 08:22 27.03.2020
5982 Clouds 20 1015 88 10000 2.6 70 07:59 27.03.2020
5983 Clouds 20 1015 88 10000 2.6 70 07:41 27.03.2020
5984 Clouds 20 1015 88 10000 2.6 70 07:21 27.03.2020
5985 Clouds 20 1016 82 10000 2.1 50 06:40 27.03.2020
5986 Clouds 21 1016 77 10000 2.1 70 05:51 27.03.2020
5987 Clouds 21 1016 73 10000 3.1 100 03:34 27.03.2020
5988 Clouds 23 1016 78 10000 3.6 120 01:56 27.03.2020
5989 Clouds 22 1016 78 10000 3.6 120 01:19 27.03.2020
5990 Clouds 22 1016 78 10000 3.6 100 00:42 27.03.2020
5991 Clouds 23 1016 78 10000 3.6 100 00:19 27.03.2020
5992 Clouds 23 1015 78 10000 5.1 100 23:40 26.03.2020
5993 Clouds 23 1015 69 10000 5.1 110 23:18 26.03.2020
5994 Clouds 24 1015 69 10000 5.1 110 22:57 26.03.2020
5995 Clouds 24 1015 69 10000 5.1 110 22:36 26.03.2020
5996 Clouds 24 1015 69 10000 5.1 110 22:18 26.03.2020
5997 Clouds 24 1015 69 10000 7.2 120 21:40 26.03.2020
5998 Clouds 24 1015 69 10000 7.2 120 21:21 26.03.2020
5999 Clouds 25 1016 73 10000 7.2 120 20:59 26.03.2020
6000 Clouds 25 1016 73 10000 7.2 120 20:39 26.03.2020
6001 Clouds 25 1016 73 10000 7.2 120 20:21 26.03.2020
6002 Clouds 25 1016 57 10000 6.2 120 19:58 26.03.2020
6003 Clouds 25 1016 57 10000 6.2 120 19:40 26.03.2020
6004 Clouds 26 1016 57 10000 6.2 120 19:21 26.03.2020
6005 Clouds 25 1016 61 10000 5.1 140 18:58 26.03.2020
6006 Clouds 25 1016 61 10000 5.1 140 18:40 26.03.2020
6007 Clouds 25 1016 61 10000 5.1 140 18:21 26.03.2020
6008 Clouds 26 1017 57 10000 4.1 150 17:45 26.03.2020
6009 Clouds 26 1017 69 10000 5.7 120 17:20 26.03.2020
6010 Clouds 26 1017 69 10000 5.7 120 16:57 26.03.2020
6011 Clouds 26 1017 61 10000 5.1 120 16:38 26.03.2020
6012 Clouds 26 1017 61 10000 5.1 120 16:38 26.03.2020
6013 Clouds 26 1017 61 10000 5.1 120 16:19 26.03.2020
6014 Clouds 25 1018 65 10000 5.1 120 15:55 26.03.2020
6015 Clouds 25 1018 65 10000 5.1 120 15:37 26.03.2020
6016 Clouds 25 1018 65 10000 5.1 120 15:18 26.03.2020
6017 Clouds 24 1018 73 10000 5.1 110 14:43 26.03.2020
6018 Clouds 24 1018 73 10000 5.1 110 14:24 26.03.2020
6019 Clouds 22 1018 88 10000 5.1 120 13:56 26.03.2020
6020 Clouds 22 1018 88 10000 5.1 120 13:38 26.03.2020
6021 Clouds 23 1018 88 10000 5.1 120 13:19 26.03.2020
6022 Clouds 22 1017 94 7000 3.1 120 12:39 26.03.2020
6023 -273 0 0 0 0 0 12:20 26.03.2020
6024 Clouds 21 1017 94 10000 3.1 120 11:46 26.03.2020
6025 Clouds 21 1017 94 10000 3.1 120 11:23 26.03.2020
6026 Clouds 22 1017 94 10000 2.1 120 10:59 26.03.2020
6027 Clouds 22 1017 94 10000 2.1 120 10:41 26.03.2020
6028 Clouds 22 1017 94 10000 2.1 120 10:20 26.03.2020
6029 Clouds 22 1016 94 10000 2.1 140 09:45 26.03.2020
6030 Clouds 22 1016 94 10000 2.1 140 09:21 26.03.2020
6031 Clouds 22 1016 94 10000 3.6 130 08:57 26.03.2020
6032 Clouds 22 1016 94 10000 3.6 130 08:39 26.03.2020
6033 Clouds 22 1016 94 10000 3.6 130 08:20 26.03.2020
6034 Clouds 22 1016 88 10000 4.1 140 07:46 26.03.2020
6035 Clouds 22 1016 88 10000 4.1 140 07:24 26.03.2020
6036 Clouds 22 1016 88 10000 4.1 140 06:59 26.03.2020
6037 Clouds 22 1017 88 10000 3.1 140 06:32 26.03.2020
6038 Clouds 22 1017 88 10000 3.1 140 05:29 26.03.2020
6039 Clouds 22 1017 83 10000 4.6 150 03:45 26.03.2020
6040 Clouds 22 1017 78 10000 5.7 160 02:57 26.03.2020
6041 Clouds 22 1017 78 10000 6.7 160 01:51 26.03.2020
6042 Clouds 22 1017 78 10000 6.7 160 01:18 26.03.2020
6043 Clouds 22 1016 83 10000 6.2 160 00:30 26.03.2020
6044 Clouds 22 1016 78 10000 7.7 150 23:42 25.03.2020
6045 Clouds 22 1016 78 10000 7.7 150 23:24 25.03.2020
6046 Clouds 23 1015 73 10000 7.2 150 22:42 25.03.2020
6047 Clouds 23 1015 73 10000 7.2 150 22:22 25.03.2020
6048 Clouds 23 1015 78 10000 9.3 150 21:59 25.03.2020
6049 Clouds 23 1015 78 10000 9.3 150 21:41 25.03.2020
6050 Clouds 23 1015 78 10000 9.3 150 21:23 25.03.2020
6051 Clouds 24 1014 73 10000 6.2 150 20:57 25.03.2020
6052 Clouds 24 1014 73 10000 6.2 150 20:38 25.03.2020
6053 Clouds 24 1014 73 10000 6.2 150 20:38 25.03.2020
6054 Clouds 24 1014 73 10000 6.2 150 20:18 25.03.2020
6055 Clouds 26 1015 61 10000 6.2 140 19:43 25.03.2020
6056 Clouds 26 1015 61 10000 6.2 140 19:24 25.03.2020
6057 Clouds 27 1015 61 10000 6.2 140 18:59 25.03.2020
6058 Clouds 27 1015 65 10000 5.1 160 18:41 25.03.2020
6059 Clouds 27 1015 65 10000 5.1 160 18:23 25.03.2020
6060 Clouds 27 1015 65 10000 5.1 160 17:58 25.03.2020
6061 Clouds 27 1015 65 10000 5.1 160 17:58 25.03.2020
6062 Clouds 27 1015 58 10000 5.1 180 17:40 25.03.2020
6063 Clouds 26 1016 65 10000 6.2 170 17:21 25.03.2020
6064 Clouds 26 1016 65 10000 6.2 170 16:55 25.03.2020
6065 Clouds 26 1016 65 10000 6.2 170 16:37 25.03.2020
6066 Clouds 26 1016 65 10000 6.2 170 16:19 25.03.2020
6067 Clouds 25 1016 65 10000 5.1 180 15:42 25.03.2020
6068 Clouds 25 1016 65 10000 5.1 180 15:20 25.03.2020
6069 Clouds 25 1017 73 10000 3.1 210 14:56 25.03.2020
6070 Clouds 24 1017 73 10000 3.1 210 14:37 25.03.2020
6071 Clouds 24 1017 73 10000 3.1 210 14:19 25.03.2020
6072 Clouds 23 1015 78 10000 6.2 10 13:44 25.03.2020
6073 Clouds 23 1015 78 10000 6.2 10 13:22 25.03.2020
6074 Rain 22 1014 78 10000 6.2 30 12:38 25.03.2020
6075 Rain 22 1014 78 10000 6.2 30 12:20 25.03.2020
6076 Rain 22 1014 88 10000 5.1 40 11:57 25.03.2020
6077 Rain 22 1014 88 10000 5.1 40 11:39 25.03.2020
6078 Rain 21 1014 88 10000 5.1 40 11:20 25.03.2020
6079 Clouds 21 1013 77 10000 3.6 30 10:57 25.03.2020
6080 Clouds 21 1013 77 10000 3.6 30 10:39 25.03.2020
6081 Clouds 21 1013 77 10000 3.6 30 10:18 25.03.2020
6082 Clouds 21 1012 77 10000 4.6 40 09:43 25.03.2020
6083 Clouds 21 1012 77 10000 4.6 40 09:25 25.03.2020
6084 Clouds 21 1013 83 10000 4.1 30 08:58 25.03.2020
6085 Clouds 21 1013 83 10000 4.1 30 08:39 25.03.2020
6086 Clear 21 1013 83 10000 4.1 30 08:20 25.03.2020
6087 Clear 22 1013 78 10000 4.1 40 07:44 25.03.2020
6088 Clear 22 1013 78 10000 4.1 40 07:24 25.03.2020
6089 Clear 22 1013 78 10000 4.6 40 06:57 25.03.2020
6090 Clear 22 1013 78 10000 4.6 40 06:37 25.03.2020
6091 Clear 22 1014 78 10000 4.1 40 06:19 25.03.2020
6092 Clear 22 1014 78 10000 4.1 40 05:42 25.03.2020
6093 Clear 23 1014 69 10000 4.6 40 04:41 25.03.2020
6094 Clear 24 1014 60 10000 4.1 50 03:53 25.03.2020
6095 Clear 24 1014 60 10000 4.1 50 03:29 25.03.2020
6096 Clear 25 1014 50 10000 3.6 90 01:39 25.03.2020
6097 Clear 24 1014 57 10000 4.1 100 00:50 25.03.2020
6098 Clear 25 1014 57 10000 4.1 100 00:26 25.03.2020
6099 Clear 25 1014 61 10000 4.1 100 23:54 24.03.2020
6100 Clear 25 1014 61 10000 4.1 100 23:28 24.03.2020
6101 Clear 26 1014 61 10000 5.1 120 22:58 24.03.2020
6102 Clear 27 1014 61 10000 5.1 120 22:38 24.03.2020
6103 Clear 26 1014 61 10000 5.1 120 22:20 24.03.2020
6104 Clear 26 1014 61 10000 5.1 120 22:20 24.03.2020
6105 Clouds 30 1013 51 10000 4.6 130 21:58 24.03.2020
6106 Clouds 31 1013 51 10000 4.6 130 21:40 24.03.2020
6107 Clouds 31 1013 51 10000 4.6 130 21:40 24.03.2020
6108 Clouds 31 1013 51 10000 4.6 130 21:18 24.03.2020
6109 Clouds 32 1014 45 10000 4.1 140 20:58 24.03.2020
6110 Clouds 32 1014 45 10000 4.1 140 20:39 24.03.2020
6111 Clouds 32 1014 45 10000 4.1 140 20:21 24.03.2020
6112 Clouds 32 1014 33 10000 4.1 300 19:47 24.03.2020
6113 Clouds 33 1014 33 10000 4.1 300 19:22 24.03.2020
6114 Clouds 33 1014 33 10000 4.1 300 18:58 24.03.2020
6115 Clouds 32 1015 38 10000 3.1 10 18:38 24.03.2020
6116 Clouds 31 1015 38 10000 3.1 10 18:20 24.03.2020
6117 Clouds 31 1015 38 10000 3.1 10 17:56 24.03.2020
6118 Clouds 31 1015 38 10000 3.1 10 17:56 24.03.2020
6119 Clear 32 1015 40 10000 3.6 30 17:38 24.03.2020
6120 Clear 30 1015 40 10000 3.6 30 17:20 24.03.2020
6121 Clear 30 1016 48 10000 3.6 30 16:56 24.03.2020
6122 Clear 29 1016 48 10000 3.6 30 16:37 24.03.2020
6123 Clear 29 1016 48 10000 3.6 30 16:19 24.03.2020
6124 Clear 28 1017 57 10000 5.1 10 15:42 24.03.2020
6125 Clear 27 1017 57 10000 5.1 10 15:24 24.03.2020
6126 Clear 26 1017 61 10000 5.7 30 14:44 24.03.2020
6127 Clear 26 1017 61 10000 5.7 30 14:44 24.03.2020
6128 Clear 25 1017 61 10000 5.7 30 14:23 24.03.2020
6129 Clouds 22 1017 73 10000 6.2 40 13:59 24.03.2020
6130 Clouds 23 1017 73 10000 6.2 40 13:41 24.03.2020
6131 Clear 23 1017 73 10000 6.2 40 13:22 24.03.2020
6132 Clear 21 1017 82 10000 5.1 40 12:43 24.03.2020
6133 Clear 22 1017 82 10000 5.1 40 12:25 24.03.2020
6134 Clear 20 1016 88 10000 4.1 40 11:56 24.03.2020
6135 Clear 20 1016 88 10000 4.1 40 11:37 24.03.2020
6136 Clear 19 1016 88 10000 4.1 40 11:18 24.03.2020
6137 Clear 19 1016 88 10000 4.1 40 10:41 24.03.2020
6138 Clear 19 1016 82 10000 3.1 50 10:19 24.03.2020
6139 Clear 19 1016 82 10000 3.1 50 10:19 24.03.2020
6140 Clear 20 1016 82 10000 3.6 60 09:47 24.03.2020
6141 Clear 20 1016 82 10000 3.6 60 09:27 24.03.2020
6142 Clear 20 1016 88 10000 4.1 50 08:58 24.03.2020
6143 Clear 20 1016 88 10000 4.1 50 08:38 24.03.2020
6144 Clear 20 1016 88 10000 4.1 50 08:20 24.03.2020
6145 Clear 20 1016 88 10000 3.6 40 07:44 24.03.2020
6146 Clear 20 1016 88 10000 3.6 40 07:22 24.03.2020
6147 Clear 20 1016 88 10000 4.6 50 06:42 24.03.2020
6148 Clear 20 1016 88 10000 4.6 50 06:21 24.03.2020
6149 Clear 21 1017 77 10000 5.7 60 04:52 24.03.2020
6150 Clear 21 1017 73 10000 4.6 70 03:41 24.03.2020
6151 Clear 22 1017 56 10000 4.1 70 02:45 24.03.2020
6152 Clear 23 1017 47 10000 3.6 70 01:22 24.03.2020
6153 Clear 23 1017 47 10000 3.1 70 00:41 24.03.2020
6154 Clear 24 1017 47 10000 3.1 70 00:22 24.03.2020
6155 Clear 25 1018 44 10000 3.1 80 23:38 23.03.2020
6156 Clear 26 1018 44 10000 3.1 80 23:20 23.03.2020
6157 Clear 27 1017 39 10000 6.2 40 22:45 23.03.2020
6158 Clear 27 1017 39 10000 6.2 40 22:23 23.03.2020
6159 Clear 28 1017 34 10000 6.2 30 21:57 23.03.2020
6160 Clear 28 1017 34 10000 6.2 30 21:38 23.03.2020
6161 Clear 28 1017 34 10000 6.2 30 21:20 23.03.2020
6162 Clear 28 1017 30 10000 6.2 50 20:56 23.03.2020
6163 Clear 28 1017 30 10000 6.2 50 20:38 23.03.2020
6164 Clear 28 1017 30 10000 6.2 50 20:19 23.03.2020
6165 Clear 29 1018 32 10000 6.7 50 19:42 23.03.2020
6166 Clear 29 1018 32 10000 6.7 50 19:23 23.03.2020
6167 Clear 28 1018 32 10000 6.7 50 18:56 23.03.2020
6168 Clear 28 1018 28 10000 5.1 90 18:38 23.03.2020
6169 Clear 28 1018 28 10000 5.1 90 18:20 23.03.2020
6170 Clear 29 1019 28 10000 6.7 60 17:42 23.03.2020
6171 Clear 29 1020 30 10000 6.7 40 17:21 23.03.2020
6172 Clear 29 1020 30 10000 6.7 40 16:56 23.03.2020
6173 Clear 28 1020 30 10000 6.7 40 16:38 23.03.2020
6174 Clear 28 1020 30 10000 6.7 40 16:19 23.03.2020
6175 Clear 27 1020 36 10000 5.7 30 15:41 23.03.2020
6176 Clear 27 1020 36 10000 5.7 30 15:19 23.03.2020
6177 Clear 25 1020 50 10000 5.7 10 14:38 23.03.2020
6178 Clear 25 1020 50 10000 5.7 10 14:20 23.03.2020
6179 Clear 22 1020 60 10000 5.1 40 13:59 23.03.2020
6180 Clear 22 1020 60 10000 5.1 40 13:40 23.03.2020
6181 Clear 21 1020 60 10000 5.1 40 13:20 23.03.2020
6182 Clear 19 1020 77 10000 3.1 30 12:44 23.03.2020
6183 Clear 18 1020 77 10000 3.1 30 12:25 23.03.2020
6184 Clear 17 1020 82 10000 2.6 20 11:59 23.03.2020
6185 Clear 17 1020 82 10000 2.6 20 11:59 23.03.2020
6186 Clear 16 1020 87 10000 4.1 20 11:40 23.03.2020
6187 Clear 17 1019 82 10000 3.1 30 11:19 23.03.2020
6188 Clear 16 1019 82 10000 3.1 30 10:57 23.03.2020
6189 Clear 17 1019 82 10000 3.1 30 10:38 23.03.2020
6190 Clear 17 1019 82 10000 3.1 30 10:20 23.03.2020
6191 Clear 18 1019 77 10000 3.1 20 09:44 23.03.2020
6192 Clear 18 1019 77 10000 3.1 20 09:21 23.03.2020
6193 Clear 18 1019 68 10000 3.1 20 08:57 23.03.2020
6194 Clear 18 1019 68 10000 3.1 20 08:36 23.03.2020
6195 Clear 18 1019 68 10000 3.1 20 08:18 23.03.2020
6196 Clear 18 1019 68 10000 3.1 20 07:42 23.03.2020
6197 Clear 18 1019 68 10000 3.1 20 07:23 23.03.2020
6198 Clear 18 1019 68 10000 3.1 20 06:49 23.03.2020
6199 Clear 20 1019 60 10000 2.6 20 05:54 23.03.2020
6200 Clear 20 1019 60 10000 2.6 20 05:29 23.03.2020
6201 Clear 21 1018 64 10000 2.6 70 03:28 23.03.2020
6202 Clouds 22 1018 78 10000 3.6 120 01:51 23.03.2020
6203 Clouds 22 1018 78 10000 3.6 120 01:32 23.03.2020
6204 Clouds 23 1018 73 10000 3.6 130 00:36 23.03.2020
6205 Clouds 23 1017 73 10000 3.6 120 23:47 22.03.2020
6206 Clouds 24 1017 73 10000 3.6 120 23:26 22.03.2020
6207 Clouds 25 1017 54 10000 4.6 150 22:45 22.03.2020
6208 Clouds 25 1017 54 10000 4.6 150 22:24 22.03.2020
6209 Clouds 27 1017 45 10000 3.6 150 21:56 22.03.2020
6210 Clouds 28 1017 45 10000 3.6 150 21:37 22.03.2020
6211 Clouds 28 1017 45 10000 3.6 150 21:19 22.03.2020
6212 Clouds 29 1017 39 10000 2.6 350 20:46 22.03.2020
6213 Clouds 29 1017 39 10000 2.6 350 20:26 22.03.2020
6214 Clouds 30 1017 39 10000 4.1 350 19:58 22.03.2020
6215 Clouds 30 1017 39 10000 4.1 350 19:40 22.03.2020
6216 Clouds 30 1017 39 10000 4.1 350 19:21 22.03.2020
6217 Clouds 30 1018 40 10000 3.6 320 18:59 22.03.2020
6218 Clouds 30 1018 40 10000 3.6 320 18:41 22.03.2020
6219 Clouds 31 1018 40 10000 3.6 320 18:22 22.03.2020
6220 Clouds 31 1018 40 10000 3.6 320 18:22 22.03.2020
6221 Clouds 30 1018 35 10000 3.6 320 17:59 22.03.2020
6222 Clouds 30 1018 42 10000 5.1 10 17:39 22.03.2020
6223 Clouds 30 1018 42 10000 5.1 10 17:39 22.03.2020
6224 Clouds 29 1018 42 10000 5.1 10 17:21 22.03.2020
6225 Clouds 28 1019 47 10000 3.6 330 16:59 22.03.2020
6226 Clouds 28 1019 47 10000 3.6 330 16:59 22.03.2020
6227 Clouds 28 1019 47 10000 3.6 330 16:41 22.03.2020
6228 Clouds 28 1019 47 10000 3.6 330 16:21 22.03.2020
6229 Clouds 27 1019 51 10000 5.1 240 15:58 22.03.2020
6230 Clouds 27 1019 51 10000 5.1 240 15:39 22.03.2020
6231 Clouds 25 1018 57 10000 5.1 350 14:47 22.03.2020
6232 Clear 24 1018 57 10000 5.1 350 14:19 22.03.2020
6233 Clear 22 1018 68 10000 5.1 360 13:57 22.03.2020
6234 Clear 21 1018 68 10000 5.1 360 13:39 22.03.2020
6235 Clear 21 1018 68 10000 5.1 360 13:19 22.03.2020
6236 Clear 19 1018 77 10000 3.6 10 12:44 22.03.2020
6237 Clear 19 1018 77 10000 3.6 10 12:20 22.03.2020
6238 Clear 18 1018 82 10000 3.1 20 11:56 22.03.2020
6239 Clear 17 1017 88 10000 3.6 30 11:38 22.03.2020
6240 Clear 17 1017 88 10000 3.6 30 11:19 22.03.2020
6241 Clear 17 1016 82 10000 2.6 30 10:43 22.03.2020
6242 Clear 17 1016 82 10000 2.6 30 10:24 22.03.2020
6243 Clear 17 1016 82 10000 2.6 30 10:24 22.03.2020
6244 Clear 17 1016 77 10000 2.6 20 09:49 22.03.2020
6245 Clear 17 1016 77 10000 2.6 20 09:30 22.03.2020
6246 Clear 17 1015 72 10000 2.6 40 08:55 22.03.2020
6247 Clear 17 1015 72 10000 2.6 40 08:36 22.03.2020
6248 Clear 18 1015 72 10000 2.6 40 08:18 22.03.2020
6249 Clear 18 1015 72 10000 3.1 30 07:48 22.03.2020
6250 Clear 18 1015 72 10000 3.1 30 07:18 22.03.2020
6251 Clear 19 1015 68 10000 3.1 40 05:54 22.03.2020
6252 Clear 19 1015 64 10000 3.1 60 04:50 22.03.2020
6253 Clear 21 1015 68 10000 1 0 02:43 22.03.2020
6254 Clear 21 1014 77 10000 2.1 70 01:20 22.03.2020
6255 Clear 21 1013 73 10000 3.1 100 00:35 22.03.2020
6256 Clear 24 1013 53 10000 1.5 200 23:57 21.03.2020
6257 Clear 24 1013 53 10000 1.5 200 23:38 21.03.2020
6258 Clear 24 1013 53 10000 1.5 200 23:18 21.03.2020
6259 Clear 26 1012 44 10000 3.1 230 22:38 21.03.2020
6260 Clear 26 1012 44 10000 3.1 230 22:20 21.03.2020
6261 Clear 27 1012 42 10000 3.1 230 21:59 21.03.2020
6262 Clear 27 1012 42 10000 3.1 230 21:39 21.03.2020
6263 Clear 27 1012 42 10000 3.1 230 21:21 21.03.2020
6264 Clouds 28 1012 42 10000 3.1 260 20:45 21.03.2020
6265 Clouds 28 1012 42 10000 3.1 260 20:23 21.03.2020
6266 Clouds 28 1012 42 10000 3.6 240 19:57 21.03.2020
6267 Clouds 28 1012 42 10000 3.6 240 19:39 21.03.2020
6268 Clouds 28 1012 42 10000 3.6 240 19:20 21.03.2020
6269 Clouds 28 1013 42 10000 3.6 280 18:54 21.03.2020
6270 Clouds 28 1013 42 10000 3.6 280 18:36 21.03.2020
6271 Clouds 28 1013 42 10000 3.6 280 18:18 21.03.2020
6272 Clear 28 1013 42 10000 4.1 270 17:42 21.03.2020
6273 Clear 28 1013 42 10000 4.1 270 17:23 21.03.2020
6274 Clear 27 1013 37 10000 3.1 300 16:56 21.03.2020
6275 Clear 27 1014 47 10000 4.1 310 16:38 21.03.2020
6276 Clear 27 1014 47 10000 4.1 310 16:18 21.03.2020
6277 Clear 27 1014 47 10000 4.1 310 16:18 21.03.2020
6278 Clear 26 1014 44 10000 4.1 310 15:41 21.03.2020
6279 Clear 26 1014 44 10000 4.1 310 15:23 21.03.2020
6280 Clear 24 1014 56 10000 3.6 320 14:58 21.03.2020
6281 Clear 23 1014 56 10000 3.6 320 14:40 21.03.2020
6282 Clear 23 1014 56 10000 3.6 320 14:20 21.03.2020
6283 Clear 20 1014 82 10000 2.1 360 13:59 21.03.2020
6284 Clear 20 1014 82 10000 2.1 360 13:40 21.03.2020
6285 Clear 20 1014 82 10000 2.1 360 13:21 21.03.2020
6286 Clear 20 1014 82 10000 2.1 360 13:21 21.03.2020
6287 Clear 18 1013 100 10000 2.1 10 12:59 21.03.2020
6288 Clear 17 1013 100 10000 2.1 10 12:38 21.03.2020
6289 Clear 17 1013 100 10000 2.1 10 12:19 21.03.2020
6290 Clear 17 1013 100 10000 2.1 10 12:19 21.03.2020
6291 Fog 16 1013 93 10000 2.1 20 11:56 21.03.2020
6292 Fog 15 1013 100 8000 3.1 30 11:38 21.03.2020
6293 Mist 15 1012 93 2000 1.5 10 11:19 21.03.2020
6294 Mist 14 1012 93 2000 1.5 10 10:56 21.03.2020
6295 Mist 15 1012 100 4000 1.5 20 10:38 21.03.2020
6296 Mist 15 1012 100 4000 1.5 20 10:19 21.03.2020
6297 Mist 15 1012 93 2000 1.5 10 09:55 21.03.2020
6298 Fog 15 1012 93 900 3.11 353 09:37 21.03.2020
6299 Fog 15 1012 93 900 3.11 353 09:18 21.03.2020
6300 Fog 15 1012 100 200 1 20 08:43 21.03.2020
6301 Fog 15 1012 100 200 1 20 08:24 21.03.2020
6302 Fog 15 1012 100 800 1.5 20 07:43 21.03.2020
6303 Fog 15 1012 100 800 1.5 20 07:23 21.03.2020
6304 Fog 16 1012 93 800 1.5 30 06:48 21.03.2020
6305 Fog 16 1012 93 800 1.5 30 06:27 21.03.2020
6306 Mist 16 1012 93 1600 2.1 20 05:46 21.03.2020
6307 Clear 18 1012 88 10000 1.5 90 04:46 21.03.2020
6308 Clear 19 1012 82 10000 1.5 140 02:51 21.03.2020
6309 Clear 19 1012 82 10000 1.5 140 02:33 21.03.2020
6310 Clear 20 1011 88 10000 2.6 150 01:32 21.03.2020
6311 Clear 20 1011 83 10000 3.6 180 00:48 21.03.2020
6312 Clear 21 1011 83 10000 3.6 180 00:26 21.03.2020
6313 Clouds 22 1011 68 10000 1.5 240 23:51 20.03.2020
6314 Clouds 22 1011 68 10000 1.5 240 23:27 20.03.2020
6315 Clouds 23 1011 60 10000 3.6 280 22:59 20.03.2020
6316 Clouds 24 1011 60 10000 3.6 280 22:40 20.03.2020
6317 Clouds 24 1011 60 10000 3.6 280 22:21 20.03.2020
6318 Clouds 26 1011 50 10000 4.1 270 21:56 20.03.2020
6319 Clouds 26 1011 50 10000 4.1 270 21:38 20.03.2020
6320 Clouds 26 1011 50 10000 4.1 270 21:18 20.03.2020
6321 Clouds 26 1011 50 10000 6.2 270 20:56 20.03.2020
6322 Clouds 26 1011 50 10000 6.2 270 20:38 20.03.2020
6323 Clouds 25 1011 50 10000 6.2 270 20:18 20.03.2020
6324 Clouds 26 1012 57 10000 5.1 270 19:44 20.03.2020
6325 Clouds 26 1012 57 10000 5.1 270 19:19 20.03.2020
6326 Clouds 25 1012 65 10000 5.1 280 18:55 20.03.2020
6327 Clouds 25 1012 65 10000 5.1 280 18:37 20.03.2020
6328 Clouds 25 1012 65 10000 5.1 280 18:19 20.03.2020
6329 Clouds 24 1013 78 10000 5.1 260 17:39 20.03.2020
6330 Clouds 24 1013 73 10000 4.1 270 17:21 20.03.2020
6331 Clouds 24 1013 73 10000 4.1 270 16:58 20.03.2020
6332 Clouds 24 1013 73 10000 4.1 270 16:58 20.03.2020
6333 Clouds 24 1013 73 10000 4.1 270 16:40 20.03.2020
6334 Clouds 23 1013 73 10000 4.1 270 16:19 20.03.2020
6335 Clouds 22 1013 78 10000 6.2 280 15:43 20.03.2020
6336 Clouds 22 1013 78 10000 6.2 280 15:22 20.03.2020
6337 Clouds 22 1013 78 10000 6.2 280 15:22 20.03.2020
6338 Clouds 21 1013 77 10000 4.1 300 14:56 20.03.2020
6339 Clouds 21 1013 77 10000 4.1 300 14:37 20.03.2020
6340 Clouds 21 1013 77 10000 4.1 300 14:19 20.03.2020
6341 Clouds 19 1013 93 10000 3.1 320 13:45 20.03.2020
6342 Clouds 19 1013 93 10000 3.1 320 13:19 20.03.2020
6343 Clouds 15 1013 100 10000 2.1 360 12:41 20.03.2020
6344 Clouds 15 1013 100 10000 2.1 360 12:23 20.03.2020
6345 Clear 15 1013 100 10000 1.5 340 11:59 20.03.2020
6346 Fog 14 1013 100 4000 1.5 360 11:38 20.03.2020
6347 Fog 14 1012 100 800 1.5 330 11:19 20.03.2020
6348 Fog 13 1012 100 800 1.5 330 10:42 20.03.2020
6349 Mist 14 1012 93 2000 1.5 320 10:21 20.03.2020
6350 Mist 14 1012 93 5000 1.5 340 10:00 20.03.2020
6351 Mist 14 1012 93 5000 1.5 340 09:41 20.03.2020
6352 Mist 14 1012 93 5000 1.5 340 09:19 20.03.2020
6353 Clear 14 1012 93 10000 1.5 340 08:43 20.03.2020
6354 Clear 14 1012 93 10000 1.5 340 08:22 20.03.2020
6355 Clear 14 1012 93 10000 1.5 330 07:57 20.03.2020
6356 Clear 14 1012 93 10000 1.5 330 07:38 20.03.2020
6357 Clear 14 1012 93 10000 1.5 330 07:19 20.03.2020
6358 Clear 15 1012 87 10000 1.5 320 06:42 20.03.2020
6359 Clouds 17 1012 77 10000 3.1 200 04:57 20.03.2020
6360 Clouds 18 1012 77 10000 3.1 200 04:26 20.03.2020
6361 Clouds 18 1012 72 10000 4.6 190 02:27 20.03.2020
6362 Clouds 19 1011 72 10000 6.7 190 01:50 20.03.2020
6363 Clouds 19 1011 77 10000 7.7 200 00:38 20.03.2020
6364 Clouds 19 1011 77 10000 7.7 200 23:55 19.03.2020
6365 Clouds 19 1011 82 10000 7.7 190 23:36 19.03.2020
6366 Clouds 20 1010 68 10000 6.2 190 23:18 19.03.2020
6367 Clouds 20 1010 68 10000 6.2 190 22:38 19.03.2020
6368 Clouds 20 1010 68 10000 6.2 190 22:20 19.03.2020
6369 Drizzle 20 1009 88 8000 8.7 190 21:58 19.03.2020
6370 Drizzle 21 1009 88 8000 8.7 190 21:38 19.03.2020
6371 Drizzle 21 1009 88 8000 8.7 190 21:18 19.03.2020
6372 Clouds 21 1009 77 10000 8.7 210 20:43 19.03.2020
6373 Clouds 21 1009 77 10000 8.7 210 20:25 19.03.2020
6374 Drizzle 20 1008 82 3000 8.7 200 19:59 19.03.2020
6375 Drizzle 19 1008 82 3000 8.7 200 19:38 19.03.2020
6376 Drizzle 19 1008 82 3000 8.7 200 19:20 19.03.2020
6377 Rain 19 1009 88 2000 5.1 210 18:57 19.03.2020
6378 Rain 19 1009 88 2000 5.1 210 18:57 19.03.2020
6379 Rain 19 1009 88 2000 5.1 210 18:38 19.03.2020
6380 Rain 19 1009 88 2000 5.1 210 18:20 19.03.2020
6381 Clouds 19 1009 93 8000 5.1 240 17:43 19.03.2020
6382 Rain 19 1008 82 6000 7.7 240 17:20 19.03.2020
6383 Rain 19 1008 82 6000 7.7 240 16:57 19.03.2020
6384 Clouds 18 1009 93 8000 4.1 240 16:39 19.03.2020
6385 Clouds 18 1009 93 8000 4.1 240 16:21 19.03.2020
6386 Rain 18 1009 93 2000 4.1 240 15:41 19.03.2020
6387 Clouds 18 1009 93 10000 6.2 270 15:23 19.03.2020
6388 Rain 19 1009 88 2000 5.1 240 14:43 19.03.2020
6389 Clouds 19 1009 88 10000 5.1 240 14:22 19.03.2020
6390 Clouds 19 1009 93 10000 4.1 240 13:56 19.03.2020
6391 Clouds 19 1009 93 10000 4.1 240 13:37 19.03.2020
6392 Clouds 19 1009 93 10000 4.1 240 13:18 19.03.2020
6393 Clouds 19 1009 93 10000 2.6 240 12:40 19.03.2020
6394 Clouds 19 1009 93 10000 2.6 240 12:22 19.03.2020
6395 Clouds 18 1009 93 10000 2.6 240 11:57 19.03.2020
6396 Clouds 18 1008 93 10000 2.1 270 11:38 19.03.2020
6397 Clouds 17 1008 88 10000 3.1 290 11:19 19.03.2020
6398 Clouds 18 1007 88 10000 4.1 300 10:41 19.03.2020
6399 Clouds 18 1007 88 10000 4.1 300 10:20 19.03.2020
6400 Clouds 18 1008 93 10000 4.1 280 09:57 19.03.2020
6401 Clouds 18 1008 93 10000 4.1 280 09:37 19.03.2020
6402 Clouds 19 1008 93 10000 4.1 280 09:18 19.03.2020
6403 Clouds 19 1008 93 10000 2.6 320 08:42 19.03.2020
6404 Clouds 19 1008 93 10000 2.6 320 08:21 19.03.2020
6405 Clouds 19 1008 93 10000 2.6 340 07:46 19.03.2020
6406 Clouds 19 1008 93 10000 2.6 340 07:28 19.03.2020
6407 Clouds 19 1009 93 10000 3.6 310 06:43 19.03.2020
6408 Clouds 19 1009 93 10000 3.6 310 05:49 19.03.2020
6409 Clouds 20 1010 88 10000 4.6 38 04:58 19.03.2020
6410 Clouds 20 1010 88 10000 4.6 38 04:40 19.03.2020
6411 Clouds 20 1010 88 10000 4.1 60 02:50 19.03.2020
6412 Clouds 20 1010 88 10000 3.6 100 01:21 19.03.2020
6413 Clouds 19 1010 94 10000 2.1 110 00:32 19.03.2020
6414 Clouds 20 1010 94 10000 2.1 110 23:57 18.03.2020
6415 Clouds 20 1010 94 10000 3.1 90 23:30 18.03.2020
6416 Clouds 20 1010 94 10000 3.1 90 23:30 18.03.2020
6417 Clouds 20 1010 94 10000 3.1 90 23:30 18.03.2020
6418 Clouds 20 1010 94 10000 3.1 100 22:57 18.03.2020
6419 Clouds 20 1010 94 10000 3.1 100 22:39 18.03.2020
6420 Clouds 20 1010 94 10000 3.1 100 22:21 18.03.2020
6421 Clouds 20 1010 94 8000 3.6 90 21:42 18.03.2020
6422 Clouds 20 1010 94 8000 3.6 90 21:22 18.03.2020
6423 Clouds 20 1010 94 8000 5.7 100 20:59 18.03.2020
6424 Clouds 20 1010 94 8000 5.7 100 20:59 18.03.2020
6425 Clouds 20 1010 94 8000 5.7 100 20:40 18.03.2020
6426 Clouds 20 1010 94 8000 5.7 100 20:40 18.03.2020
6427 Clouds 20 1010 94 8000 5.7 100 20:20 18.03.2020
6428 Drizzle 20 1011 100 2000 5.1 90 19:58 18.03.2020
6429 Drizzle 20 1011 100 2000 5.1 90 19:39 18.03.2020
6430 Drizzle 20 1011 100 2000 5.1 90 19:20 18.03.2020
6431 Drizzle 20 1011 94 3000 5.1 100 18:42 18.03.2020
6432 Drizzle 20 1011 94 3000 5.1 100 18:42 18.03.2020
6433 Drizzle 20 1011 94 3000 5.1 100 18:21 18.03.2020
6434 Drizzle 20 1011 94 3000 5.1 100 17:59 18.03.2020
6435 Drizzle 20 1011 94 3000 5.1 100 17:59 18.03.2020
6436 Drizzle 20 1012 100 1500 6.2 90 17:41 18.03.2020
6437 Drizzle 20 1012 100 1500 6.2 90 17:22 18.03.2020
6438 Drizzle 19 1012 100 2000 6.2 100 16:58 18.03.2020
6439 Drizzle 19 1012 100 2000 6.2 100 16:40 18.03.2020
6440 Drizzle 19 1012 100 2000 6.2 100 16:20 18.03.2020
6441 Drizzle 19 1012 100 2000 6.2 100 16:20 18.03.2020
6442 Drizzle 19 1013 93 2000 7.2 120 15:45 18.03.2020
6443 Drizzle 19 1013 93 2000 7.2 120 15:23 18.03.2020
6444 Drizzle 19 1013 100 2000 5.1 120 14:58 18.03.2020
6445 Drizzle 19 1013 100 2000 5.1 120 14:40 18.03.2020
6446 Drizzle 18 1013 100 2000 5.1 120 14:20 18.03.2020
6447 Rain 18 1013 93 4000 6.2 120 13:40 18.03.2020
6448 Rain 18 1013 93 4000 6.2 120 13:19 18.03.2020
6449 Drizzle 19 1013 82 1000 5.7 110 12:42 18.03.2020
6450 Rain 19 1013 93 2000 6.2 120 12:21 18.03.2020
6451 Rain 19 1013 93 2000 6.2 120 11:57 18.03.2020
6452 Rain 19 1012 100 2000 5.1 120 11:37 18.03.2020
6453 Rain 19 1012 93 7000 3.6 130 11:18 18.03.2020
6454 Rain 19 1012 93 7000 3.6 130 10:54 18.03.2020
6455 Rain 19 1012 93 7000 3.6 130 10:36 18.03.2020
6456 Rain 19 1012 93 7000 3.6 130 10:36 18.03.2020
6457 Rain 19 1012 93 7000 3.6 130 10:18 18.03.2020
6458 Rain 19 1012 93 5000 3.1 110 09:41 18.03.2020
6459 Rain 19 1012 93 5000 3.1 110 09:22 18.03.2020
6460 Rain 19 1012 82 8000 3.1 140 08:40 18.03.2020
6461 Rain 19 1012 82 8000 3.1 140 08:22 18.03.2020
6462 Clouds 20 1012 82 10000 2.6 110 07:59 18.03.2020
6463 Clouds 20 1012 82 10000 2.6 110 07:37 18.03.2020
6464 Clouds 20 1012 82 10000 2.6 110 07:19 18.03.2020
6465 Clouds 19 1012 82 10000 5.1 80 06:39 18.03.2020
6466 Clouds 19 1012 82 10000 6.2 70 05:37 18.03.2020
6467 Rain 19 1013 88 9000 5.1 60 04:38 18.03.2020
6468 Rain 19 1013 82 10000 6.2 90 03:21 18.03.2020
6469 Rain 19 1014 82 10000 7.7 100 02:37 18.03.2020
6470 Rain 20 1014 73 10000 7.7 120 01:43 18.03.2020
6471 Clouds 21 1014 73 10000 6.7 120 00:45 18.03.2020
6472 Clouds 21 1014 73 10000 6.7 120 00:21 18.03.2020
6473 Clouds 21 1013 83 10000 5.7 140 23:42 17.03.2020
6474 Clouds 21 1013 83 10000 5.7 140 23:21 17.03.2020
6475 Rain 21 1014 77 8000 5.1 140 22:46 17.03.2020
6476 Rain 21 1014 77 8000 5.1 140 22:28 17.03.2020
6477 Clouds 22 1014 73 10000 6.2 150 21:44 17.03.2020
6478 Clouds 22 1014 73 10000 6.2 150 21:25 17.03.2020
6479 Clouds 22 1014 68 10000 5.1 130 20:58 17.03.2020
6480 Clouds 22 1014 68 10000 5.1 130 20:38 17.03.2020
6481 Clouds 22 1014 68 10000 5.1 130 20:19 17.03.2020
6482 Clouds 22 1013 68 10000 3.1 140 19:42 17.03.2020
6483 Rain 22 1013 73 8000 6.2 130 19:21 17.03.2020
6484 Clouds 22 1014 57 10000 3.6 120 18:58 17.03.2020
6485 Clouds 22 1014 57 10000 3.6 120 18:40 17.03.2020
6486 Clouds 23 1014 57 10000 3.6 120 18:21 17.03.2020
6487 Clouds 23 1014 57 10000 3.6 120 17:56 17.03.2020
6488 Clouds 25 1014 50 10000 3.1 120 17:38 17.03.2020
6489 Clouds 25 1014 50 10000 3.1 120 17:19 17.03.2020
6490 Clouds 25 1015 50 10000 5.1 30 16:42 17.03.2020
6491 Clouds 25 1015 50 10000 5.1 30 16:19 17.03.2020
6492 Clouds 25 1016 57 10000 6.2 30 15:47 17.03.2020
6493 Clouds 24 1016 57 10000 6.2 30 15:23 17.03.2020
6494 Clouds 23 1015 64 10000 7.2 40 14:49 17.03.2020
6495 Clouds 23 1015 64 10000 7.2 40 14:30 17.03.2020
6496 Clear 20 1016 72 10000 7.2 30 13:59 17.03.2020
6497 Clear 21 1016 72 10000 7.2 30 13:41 17.03.2020
6498 Clear 21 1016 72 10000 7.2 30 13:22 17.03.2020
6499 Clear 19 1016 68 10000 4.6 40 12:47 17.03.2020
6500 Clear 18 1016 82 10000 7.2 40 12:25 17.03.2020
6501 Clear 17 1016 82 10000 3.6 40 11:57 17.03.2020
6502 Clear 17 1016 82 10000 3.6 40 11:39 17.03.2020
6503 Clear 17 1015 87 10000 2.6 30 11:20 17.03.2020
6504 Clear 16 1015 87 10000 2.6 30 10:54 17.03.2020
6505 Clear 16 1015 87 10000 2.6 30 10:36 17.03.2020
6506 Clear 16 1015 87 10000 2.6 30 10:18 17.03.2020
6507 Clear 16 1015 82 10000 3.1 40 09:45 17.03.2020
6508 Clear 16 1015 82 10000 3.1 40 09:20 17.03.2020
6509 Clear 16 1015 82 10000 3.6 40 08:58 17.03.2020
6510 Clear 16 1015 82 10000 3.6 40 08:40 17.03.2020
6511 Clear 16 1015 82 10000 3.6 40 08:18 17.03.2020
6512 Clear 16 1015 77 10000 3.1 30 07:49 17.03.2020
6513 Clear 17 1015 77 10000 3.1 30 07:20 17.03.2020
6514 Clear 17 1016 72 10000 3.6 40 06:45 17.03.2020
6515 Clear 17 1016 72 10000 3.6 40 06:25 17.03.2020
6516 Clear 17 1016 77 10000 2.1 50 05:20 17.03.2020
6517 Clear 18 1016 72 10000 3.6 90 03:31 17.03.2020
6518 Clear 19 1016 68 10000 6.2 110 01:50 17.03.2020
6519 Clear 19 1016 68 10000 6.2 110 01:31 17.03.2020
6520 Clear 19 1015 72 10000 5.7 120 00:53 17.03.2020
6521 Clear 20 1015 72 10000 5.7 120 00:18 17.03.2020
6522 Clear 20 1015 72 10000 6.2 120 23:34 16.03.2020
6523 Clear 21 1015 73 10000 5.7 110 22:58 16.03.2020
6524 Clear 21 1015 73 10000 5.7 110 22:38 16.03.2020
6525 Clear 21 1015 73 10000 5.7 110 22:19 16.03.2020
6526 Clear 22 1015 60 10000 6.2 130 21:44 16.03.2020
6527 Clear 22 1015 60 10000 6.2 130 21:25 16.03.2020
6528 Clouds 22 1015 56 10000 4.6 110 20:58 16.03.2020
6529 Clouds 22 1015 56 10000 4.6 110 20:39 16.03.2020
6530 Clouds 22 1015 56 10000 4.6 110 20:20 16.03.2020
6531 Clouds 22 1016 60 10000 5.7 130 19:46 16.03.2020
6532 Clouds 23 1016 60 10000 5.7 130 19:23 16.03.2020
6533 Clouds 23 1016 53 10000 2.6 130 18:57 16.03.2020
6534 Clouds 23 1016 53 10000 2.6 130 18:39 16.03.2020
6535 Clouds 23 1016 53 10000 2.6 130 18:19 16.03.2020
6536 Clouds 22 1017 46 10000 1.5 0 17:45 16.03.2020
6537 Clouds 22 1017 46 10000 1.5 0 17:25 16.03.2020
6538 Clouds 21 1018 56 10000 1.5 0 16:54 16.03.2020
6539 Clouds 21 1018 56 10000 1.5 0 16:36 16.03.2020
6540 Clouds 21 1018 56 10000 1.5 0 16:18 16.03.2020
6541 Clouds 21 1019 60 10000 2.6 120 15:42 16.03.2020
6542 Clouds 21 1019 60 10000 2.6 120 15:22 16.03.2020
6543 Clouds 20 1019 63 10000 3.6 120 14:45 16.03.2020
6544 Clouds 20 1019 63 10000 3.6 120 14:20 16.03.2020
6545 Clouds 19 1019 68 10000 2.6 120 13:45 16.03.2020
6546 Clouds 19 1019 68 10000 2.6 120 13:26 16.03.2020
6547 Clouds 17 1019 87 10000 1 120 12:57 16.03.2020
6548 Clouds 17 1019 87 10000 1 120 12:38 16.03.2020
6549 Clouds 15 1019 87 10000 1 120 12:19 16.03.2020
6550 Clouds 13 1019 100 10000 1.5 50 11:42 16.03.2020
6551 Clouds 14 1019 100 10000 1.5 50 11:23 16.03.2020
6552 Clouds 16 1018 67 10000 4.17 95 10:43 16.03.2020
6553 Clouds 16 1018 67 10000 4.17 95 10:24 16.03.2020
6554 Clouds 16 1018 67 10000 2.6 120 09:49 16.03.2020
6555 Clouds 14 1018 67 10000 2.6 120 09:30 16.03.2020
6556 Clouds 15 1018 63 10000 2.1 150 08:59 16.03.2020
6557 Clouds 16 1018 63 10000 2.1 150 08:39 16.03.2020
6558 Clouds 16 1018 63 10000 2.1 150 08:20 16.03.2020
6559 Clouds 16 1018 63 10000 2.6 160 07:41 16.03.2020
6560 Clouds 16 1018 63 10000 2.6 160 07:18 16.03.2020
6561 Clouds 17 1018 59 10000 4.6 150 06:28 16.03.2020
6562 Clouds 17 1019 59 10000 3.6 140 05:55 16.03.2020
6563 Clouds 17 1019 63 10000 2.6 160 03:54 16.03.2020
6564 Clouds 18 1019 63 10000 4.1 150 01:44 16.03.2020
6565 Clouds 18 1018 68 10000 3.6 140 00:44 16.03.2020
6566 Clouds 19 1019 72 10000 3.6 150 23:56 15.03.2020
6567 Clouds 19 1019 72 10000 3.6 150 23:37 15.03.2020
6568 Clouds 19 1019 72 10000 3.6 150 23:18 15.03.2020
6569 Clouds 20 1019 68 10000 3.6 120 22:41 15.03.2020
6570 Clouds 20 1019 68 10000 3.6 120 22:20 15.03.2020
6571 Clouds 21 1018 64 10000 3.1 150 21:39 15.03.2020
6572 Clouds 21 1018 64 10000 3.1 150 21:21 15.03.2020
6573 Clouds 21 1018 64 10000 3.6 150 20:55 15.03.2020
6574 Clouds 21 1018 64 10000 3.6 150 20:36 15.03.2020
6575 Clouds 22 1018 64 10000 3.6 150 20:18 15.03.2020
6576 Clouds 22 1018 60 10000 4.6 180 19:43 15.03.2020
6577 Clouds 22 1018 60 10000 4.6 180 19:25 15.03.2020
6578 Clouds 22 1018 60 10000 6.7 180 18:59 15.03.2020
6579 Clouds 22 1018 60 10000 6.7 180 18:40 15.03.2020
6580 Clouds 22 1018 60 10000 6.7 180 18:22 15.03.2020
6581 Clouds 22 1019 60 10000 5.7 170 17:57 15.03.2020
6582 Clouds 22 1019 60 10000 5.7 170 17:38 15.03.2020
6583 Clouds 22 1019 60 10000 5.7 170 17:19 15.03.2020
6584 Clouds 21 1019 64 10000 4.6 160 16:44 15.03.2020
6585 Clouds 22 1019 64 10000 4.6 160 16:26 15.03.2020
6586 Clouds 21 1019 68 10000 5.1 170 15:59 15.03.2020
6587 Clouds 21 1019 68 10000 5.1 170 15:41 15.03.2020
6588 Clouds 21 1019 68 10000 5.1 170 15:20 15.03.2020
6589 Clouds 21 1019 72 10000 3.1 150 14:46 15.03.2020
6590 Clouds 21 1019 72 10000 3.1 150 14:25 15.03.2020
6591 Clouds 20 1019 77 10000 5.1 160 13:59 15.03.2020
6592 Clouds 20 1019 77 10000 5.1 160 13:38 15.03.2020
6593 Clouds 20 1019 77 10000 5.1 160 13:20 15.03.2020
6594 Clouds 20 1018 82 10000 3.1 150 12:44 15.03.2020
6595 Clouds 20 1018 82 10000 3.1 150 12:26 15.03.2020
6596 Clouds 19 1018 93 8000 2.1 150 11:57 15.03.2020
6597 Clouds 19 1018 93 8000 2.1 150 11:39 15.03.2020
6598 Clouds 18 1018 93 8000 2.1 150 11:20 15.03.2020
6599 Clouds 19 1017 72 10000 4.6 150 10:56 15.03.2020
6600 Clouds 19 1017 72 10000 4.6 150 10:36 15.03.2020
6601 Clouds 19 1017 72 10000 4.6 150 10:18 15.03.2020
6602 Clouds 19 1017 72 10000 5.7 160 09:40 15.03.2020
6603 Clouds 19 1017 72 10000 5.7 160 09:21 15.03.2020
6604 Clouds 19 1017 68 10000 5.7 170 08:42 15.03.2020
6605 Clouds 19 1017 68 10000 5.7 170 08:21 15.03.2020
6606 Clouds 20 1016 72 10000 4.6 150 07:51 15.03.2020
6607 Clouds 20 1016 72 10000 4.6 150 07:31 15.03.2020
6608 Clouds 20 1017 72 10000 3.6 140 06:53 15.03.2020
6609 Clouds 20 1017 72 10000 3.6 140 06:18 15.03.2020
6610 Clouds 20 1017 72 10000 4.6 150 05:19 15.03.2020
6611 Clouds 20 1017 72 10000 5.1 150 04:43 15.03.2020
6612 Clouds 20 1017 72 10000 5.1 150 04:24 15.03.2020
6613 Clouds 20 1014 77 10000 6.2 150 03:48 15.03.2020
6614 Clouds 20 1016 77 10000 5.7 140 02:44 15.03.2020
6615 Rain 20 1014 88 8000 6.2 130 01:35 15.03.2020
6616 Clouds 21 1015 88 10000 6.2 180 00:46 15.03.2020
6617 Clouds 21 1015 94 10000 1 220 00:27 15.03.2020
6618 Clouds 21 1014 94 10000 2.6 170 23:55 14.03.2020
6619 Clouds 21 1014 94 10000 2.6 170 23:37 14.03.2020
6620 Clouds 21 1014 94 10000 2.6 170 23:18 14.03.2020
6621 Clouds 21 1013 94 10000 2.6 180 22:42 14.03.2020
6622 Clouds 21 1013 94 10000 2.6 180 22:23 14.03.2020
6623 Clouds 21 1012 100 10000 1.5 0 21:56 14.03.2020
6624 Clouds 21 1012 100 10000 1.5 0 21:36 14.03.2020
6625 Clouds 21 1012 100 10000 1.5 0 21:18 14.03.2020
6626 Rain 21 1011 94 8000 5.1 30 20:58 14.03.2020
6627 Rain 21 1011 94 8000 5.1 30 20:40 14.03.2020
6628 Rain 21 1011 94 8000 5.1 30 20:19 14.03.2020
6629 Rain 21 1012 94 7000 3.1 70 19:43 14.03.2020
6630 Rain 21 1012 94 7000 3.1 70 19:43 14.03.2020
6631 Rain 21 1012 94 7000 3.1 70 19:25 14.03.2020
6632 Rain 21 1012 94 7000 3.1 70 18:56 14.03.2020
6633 Clouds 20 1014 94 10000 6.2 60 18:37 14.03.2020
6634 Rain 20 1016 100 5000 4.6 40 18:19 14.03.2020
6635 Thunderstorm 20 1017 100 3000 1.5 120 17:39 14.03.2020
6636 Thunderstorm 20 1019 94 2000 4.1 200 17:20 14.03.2020
6637 Thunderstorm 20 1019 94 2000 4.1 200 16:41 14.03.2020
6638 Thunderstorm 20 1019 94 2000 4.1 200 16:23 14.03.2020
6639 Thunderstorm 20 1019 94 2000 4.1 200 16:23 14.03.2020
6640 Thunderstorm 21 1018 88 1100 2.6 240 15:58 14.03.2020
6641 Thunderstorm 22 1019 94 1000 7.7 230 15:27 14.03.2020
6642 Thunderstorm 22 1015 83 10000 6.2 100 14:59 14.03.2020
6643 Clouds 22 1014 83 10000 8.2 100 14:37 14.03.2020
6644 Clouds 22 1014 83 10000 8.2 100 14:19 14.03.2020
6645 Rain 22 1015 88 8000 5.1 130 13:43 14.03.2020
6646 Rain 22 1015 88 8000 5.1 130 13:24 14.03.2020
6647 Rain 21 1015 88 8000 5.1 130 12:58 14.03.2020
6648 Rain 21 1015 94 8000 7.7 150 12:38 14.03.2020
6649 Rain 21 1015 94 8000 7.7 150 12:20 14.03.2020
6650 Rain 22 1015 94 6000 7.7 180 11:42 14.03.2020
6651 Clouds 22 1010 83 10000 7.7 10 11:24 14.03.2020
6652 Clouds 22 1009 83 10000 6.2 20 10:47 14.03.2020
6653 -273 0 0 0 0 0 10:27 14.03.2020
6654 Clouds 22 1009 78 10000 5.1 20 09:58 14.03.2020
6655 Clouds 22 1009 78 10000 5.1 20 09:40 14.03.2020
6656 Clouds 22 1009 78 10000 5.1 20 09:20 14.03.2020
6657 Clouds 22 1010 73 10000 5.1 20 08:46 14.03.2020
6658 Clouds 23 1010 73 10000 5.1 20 08:24 14.03.2020
6659 Clear 23 1010 73 10000 5.7 30 07:40 14.03.2020
6660 Clear 23 1010 73 10000 5.7 30 07:21 14.03.2020
6661 Clear 23 1011 73 10000 5.1 30 06:41 14.03.2020
6662 Clear 24 1011 69 10000 5.1 30 05:58 14.03.2020
6663 Clear 24 1011 65 10000 5.1 40 04:52 14.03.2020
6664 Clear 25 1012 69 10000 4.1 40 03:25 14.03.2020
6665 Clear 27 1012 57 10000 3.6 50 02:43 14.03.2020
6666 Clear 28 1012 57 10000 4.1 60 01:39 14.03.2020
6667 Clear 28 1012 54 10000 3.6 60 00:23 14.03.2020
6668 Clear 28 1011 54 10000 3.1 100 23:42 13.03.2020
6669 Clear 28 1011 54 10000 3.1 100 23:22 13.03.2020
6670 Clear 29 1012 48 10000 4.1 110 22:41 13.03.2020
6671 Clear 29 1012 48 10000 4.1 110 22:21 13.03.2020
6672 Clear 30 1012 48 10000 5.1 110 21:40 13.03.2020
6673 Clear 30 1012 48 10000 5.1 110 21:19 13.03.2020
6674 Clear 29 1012 48 10000 5.1 100 20:42 13.03.2020
6675 Clear 29 1012 48 10000 5.1 100 20:22 13.03.2020
6676 Clear 31 1013 38 10000 5.7 60 19:57 13.03.2020
6677 Clear 31 1013 38 10000 5.7 60 19:39 13.03.2020
6678 Clear 32 1013 38 10000 5.7 60 19:18 13.03.2020
6679 Clear</